<?xml version='1.0' encoding='UTF-8'?>
<gpx version="1.1" creator="https://www.komoot.de" xmlns="http://www.topografix.com/GPX/1/1" xmlns:xsi="http://www.w3.org/2001/XMLSchema-instance" xsi:schemaLocation="http://www.topografix.com/GPX/1/1 http://www.topografix.com/GPX/1/1/gpx.xsd">
  <metadata>
    <name>RTF 2026 - Marathon (205 km - 2380 hm)</name>
    <author>
      <link href="https://www.komoot.de">
        <text>komoot</text>
        <type>text/html</type>
      </link>
    </author>
  </metadata>
  <trk>
    <name>RTF 2026 - Marathon (205 km - 2380 hm)</name>
    <trkseg>
      <trkpt lat="48.581898" lon="10.022061">
        <ele>604.080513</ele>
        <time>2025-11-11T18:17:08.840Z</time>
      </trkpt>
      <trkpt lat="48.581589" lon="10.022428">
        <ele>604.080513</ele>
        <time>2025-11-11T18:17:14.076Z</time>
      </trkpt>
      <trkpt lat="48.581327" lon="10.022431">
        <ele>604.080513</ele>
        <time>2025-11-11T18:17:17.511Z</time>
      </trkpt>
      <trkpt lat="48.581224" lon="10.022377">
        <ele>604.080513</ele>
        <time>2025-11-11T18:17:18.920Z</time>
      </trkpt>
      <trkpt lat="48.581097" lon="10.023435">
        <ele>601.827806</ele>
        <time>2025-11-11T18:17:37.431Z</time>
      </trkpt>
      <trkpt lat="48.581012" lon="10.023558">
        <ele>601.367631</ele>
        <time>2025-11-11T18:17:39.014Z</time>
      </trkpt>
      <trkpt lat="48.580982" lon="10.023956">
        <ele>600.331274</ele>
        <time>2025-11-11T18:17:42.695Z</time>
      </trkpt>
      <trkpt lat="48.580947" lon="10.024679">
        <ele>598.455747</ele>
        <time>2025-11-11T18:17:49.830Z</time>
      </trkpt>
      <trkpt lat="48.580945" lon="10.024714">
        <ele>598.364859</ele>
        <time>2025-11-11T18:17:50.190Z</time>
      </trkpt>
      <trkpt lat="48.580915" lon="10.024863">
        <ele>597.961913</ele>
        <time>2025-11-11T18:17:51.877Z</time>
      </trkpt>
      <trkpt lat="48.581143" lon="10.024942">
        <ele>597.047146</ele>
        <time>2025-11-11T18:17:54.683Z</time>
      </trkpt>
      <trkpt lat="48.581185" lon="10.024952">
        <ele>597.094264</ele>
        <time>2025-11-11T18:17:55.229Z</time>
      </trkpt>
      <trkpt lat="48.581332" lon="10.024963">
        <ele>597.260056</ele>
        <time>2025-11-11T18:17:57.174Z</time>
      </trkpt>
      <trkpt lat="48.581417" lon="10.024964">
        <ele>597.355808</ele>
        <time>2025-11-11T18:17:58.364Z</time>
      </trkpt>
      <trkpt lat="48.581447" lon="10.024965">
        <ele>597.389610</ele>
        <time>2025-11-11T18:17:58.824Z</time>
      </trkpt>
      <trkpt lat="48.581621" lon="10.024987">
        <ele>597.586298</ele>
        <time>2025-11-11T18:18:01.754Z</time>
      </trkpt>
      <trkpt lat="48.581685" lon="10.025041">
        <ele>597.668862</ele>
        <time>2025-11-11T18:18:03.087Z</time>
      </trkpt>
      <trkpt lat="48.581747" lon="10.025149">
        <ele>597.775422</ele>
        <time>2025-11-11T18:18:04.929Z</time>
      </trkpt>
      <trkpt lat="48.581825" lon="10.025404">
        <ele>597.984780</ele>
        <time>2025-11-11T18:18:08.908Z</time>
      </trkpt>
      <trkpt lat="48.581872" lon="10.025799">
        <ele>598.283860</ele>
        <time>2025-11-11T18:18:15.190Z</time>
      </trkpt>
      <trkpt lat="48.581886" lon="10.026008">
        <ele>598.440404</ele>
        <time>2025-11-11T18:18:18.530Z</time>
      </trkpt>
      <trkpt lat="48.581885" lon="10.026207">
        <ele>598.588705</ele>
        <time>2025-11-11T18:18:21.708Z</time>
      </trkpt>
      <trkpt lat="48.581885" lon="10.026271">
        <ele>598.636398</ele>
        <time>2025-11-11T18:18:22.785Z</time>
      </trkpt>
      <trkpt lat="48.581880" lon="10.026535">
        <ele>598.833213</ele>
        <time>2025-11-11T18:18:27.007Z</time>
      </trkpt>
      <trkpt lat="48.581877" lon="10.026677">
        <ele>598.939086</ele>
        <time>2025-11-11T18:18:29.214Z</time>
      </trkpt>
      <trkpt lat="48.581874" lon="10.026813">
        <ele>599.040491</ele>
        <time>2025-11-11T18:18:31.318Z</time>
      </trkpt>
      <trkpt lat="48.581874" lon="10.026860">
        <ele>599.074215</ele>
        <time>2025-11-11T18:18:32.010Z</time>
      </trkpt>
      <trkpt lat="48.581871" lon="10.027220">
        <ele>599.221263</ele>
        <time>2025-11-11T18:18:37.385Z</time>
      </trkpt>
      <trkpt lat="48.581871" lon="10.027369">
        <ele>599.282120</ele>
        <time>2025-11-11T18:18:39.472Z</time>
      </trkpt>
      <trkpt lat="48.581866" lon="10.027569">
        <ele>599.363866</ele>
        <time>2025-11-11T18:18:42.222Z</time>
      </trkpt>
      <trkpt lat="48.581865" lon="10.027999">
        <ele>599.539495</ele>
        <time>2025-11-11T18:18:47.882Z</time>
      </trkpt>
      <trkpt lat="48.581866" lon="10.028034">
        <ele>599.553803</ele>
        <time>2025-11-11T18:18:48.319Z</time>
      </trkpt>
      <trkpt lat="48.581885" lon="10.028268">
        <ele>599.650095</ele>
        <time>2025-11-11T18:18:51.086Z</time>
      </trkpt>
      <trkpt lat="48.581951" lon="10.028776">
        <ele>599.861544</ele>
        <time>2025-11-11T18:18:56.648Z</time>
      </trkpt>
      <trkpt lat="48.582003" lon="10.029174">
        <ele>600.027241</ele>
        <time>2025-11-11T18:19:00.405Z</time>
      </trkpt>
      <trkpt lat="48.582053" lon="10.029949">
        <ele>599.711105</ele>
        <time>2025-11-11T18:19:06.858Z</time>
      </trkpt>
      <trkpt lat="48.582065" lon="10.030618">
        <ele>598.915532</ele>
        <time>2025-11-11T18:19:11.808Z</time>
      </trkpt>
      <trkpt lat="48.582085" lon="10.031130">
        <ele>598.305827</ele>
        <time>2025-11-11T18:19:15.503Z</time>
      </trkpt>
      <trkpt lat="48.582124" lon="10.031514">
        <ele>597.843995</ele>
        <time>2025-11-11T18:19:18.280Z</time>
      </trkpt>
      <trkpt lat="48.582297" lon="10.032803">
        <ele>596.152745</ele>
        <time>2025-11-11T18:19:27.590Z</time>
      </trkpt>
      <trkpt lat="48.582310" lon="10.032896">
        <ele>596.018227</ele>
        <time>2025-11-11T18:19:28.250Z</time>
      </trkpt>
      <trkpt lat="48.582624" lon="10.034873">
        <ele>593.140923</ele>
        <time>2025-11-11T18:19:42.884Z</time>
      </trkpt>
      <trkpt lat="48.582786" lon="10.035820">
        <ele>592.061417</ele>
        <time>2025-11-11T18:19:50.239Z</time>
      </trkpt>
      <trkpt lat="48.582951" lon="10.036524">
        <ele>591.243637</ele>
        <time>2025-11-11T18:19:55.832Z</time>
      </trkpt>
      <trkpt lat="48.583108" lon="10.037144">
        <ele>590.516746</ele>
        <time>2025-11-11T18:20:00.842Z</time>
      </trkpt>
      <trkpt lat="48.583364" lon="10.038235">
        <ele>589.283903</ele>
        <time>2025-11-11T18:20:09.647Z</time>
      </trkpt>
      <trkpt lat="48.583493" lon="10.038890">
        <ele>588.565174</ele>
        <time>2025-11-11T18:20:14.718Z</time>
      </trkpt>
      <trkpt lat="48.583403" lon="10.039001">
        <ele>588.380515</ele>
        <time>2025-11-11T18:20:16.018Z</time>
      </trkpt>
      <trkpt lat="48.583347" lon="10.039225">
        <ele>588.128678</ele>
        <time>2025-11-11T18:20:17.789Z</time>
      </trkpt>
      <trkpt lat="48.583398" lon="10.040146">
        <ele>587.188787</ele>
        <time>2025-11-11T18:20:24.731Z</time>
      </trkpt>
      <trkpt lat="48.583445" lon="10.041357">
        <ele>586.284345</ele>
        <time>2025-11-11T18:20:34.599Z</time>
      </trkpt>
      <trkpt lat="48.583386" lon="10.042495">
        <ele>585.433280</ele>
        <time>2025-11-11T18:20:44.083Z</time>
      </trkpt>
      <trkpt lat="48.583233" lon="10.044033">
        <ele>583.222759</ele>
        <time>2025-11-11T18:20:55.778Z</time>
      </trkpt>
      <trkpt lat="48.583105" lon="10.045314">
        <ele>581.206114</ele>
        <time>2025-11-11T18:21:04.499Z</time>
      </trkpt>
      <trkpt lat="48.583090" lon="10.045900">
        <ele>580.057817</ele>
        <time>2025-11-11T18:21:08.413Z</time>
      </trkpt>
      <trkpt lat="48.583126" lon="10.046489">
        <ele>578.833562</ele>
        <time>2025-11-11T18:21:12.378Z</time>
      </trkpt>
      <trkpt lat="48.583347" lon="10.047901">
        <ele>575.830447</ele>
        <time>2025-11-11T18:21:22.153Z</time>
      </trkpt>
      <trkpt lat="48.583380" lon="10.048455">
        <ele>574.875543</ele>
        <time>2025-11-11T18:21:25.895Z</time>
      </trkpt>
      <trkpt lat="48.583376" lon="10.048784">
        <ele>574.385268</ele>
        <time>2025-11-11T18:21:28.119Z</time>
      </trkpt>
      <trkpt lat="48.583312" lon="10.049812">
        <ele>572.846837</ele>
        <time>2025-11-11T18:21:35.300Z</time>
      </trkpt>
      <trkpt lat="48.583310" lon="10.050355">
        <ele>572.037784</ele>
        <time>2025-11-11T18:21:39.322Z</time>
      </trkpt>
      <trkpt lat="48.583360" lon="10.050808">
        <ele>571.353508</ele>
        <time>2025-11-11T18:21:42.918Z</time>
      </trkpt>
      <trkpt lat="48.583504" lon="10.051680">
        <ele>570.444527</ele>
        <time>2025-11-11T18:21:50.485Z</time>
      </trkpt>
      <trkpt lat="48.583848" lon="10.053430">
        <ele>568.614352</ele>
        <time>2025-11-11T18:22:04.634Z</time>
      </trkpt>
      <trkpt lat="48.583964" lon="10.053847">
        <ele>567.554922</ele>
        <time>2025-11-11T18:22:07.684Z</time>
      </trkpt>
      <trkpt lat="48.584527" lon="10.055000">
        <ele>564.151266</ele>
        <time>2025-11-11T18:22:16.949Z</time>
      </trkpt>
      <trkpt lat="48.584679" lon="10.055362">
        <ele>563.132929</ele>
        <time>2025-11-11T18:22:19.682Z</time>
      </trkpt>
      <trkpt lat="48.584794" lon="10.055730">
        <ele>562.166301</ele>
        <time>2025-11-11T18:22:22.290Z</time>
      </trkpt>
      <trkpt lat="48.585113" lon="10.057690">
        <ele>556.813303</ele>
        <time>2025-11-11T18:22:35.445Z</time>
      </trkpt>
      <trkpt lat="48.585211" lon="10.058179">
        <ele>555.457647</ele>
        <time>2025-11-11T18:22:38.743Z</time>
      </trkpt>
      <trkpt lat="48.585356" lon="10.058754">
        <ele>553.452498</ele>
        <time>2025-11-11T18:22:42.671Z</time>
      </trkpt>
      <trkpt lat="48.585689" lon="10.059664">
        <ele>549.764628</ele>
        <time>2025-11-11T18:22:49.145Z</time>
      </trkpt>
      <trkpt lat="48.585878" lon="10.060256">
        <ele>547.433594</ele>
        <time>2025-11-11T18:22:53.170Z</time>
      </trkpt>
      <trkpt lat="48.586047" lon="10.060960">
        <ele>544.640106</ele>
        <time>2025-11-11T18:22:57.692Z</time>
      </trkpt>
      <trkpt lat="48.586613" lon="10.064272">
        <ele>529.992065</ele>
        <time>2025-11-11T18:23:18.034Z</time>
      </trkpt>
      <trkpt lat="48.586893" lon="10.065785">
        <ele>524.308626</ele>
        <time>2025-11-11T18:23:27.663Z</time>
      </trkpt>
      <trkpt lat="48.586936" lon="10.066022">
        <ele>523.419617</ele>
        <time>2025-11-11T18:23:29.279Z</time>
      </trkpt>
      <trkpt lat="48.587013" lon="10.066422">
        <ele>523.065927</ele>
        <time>2025-11-11T18:23:32.148Z</time>
      </trkpt>
      <trkpt lat="48.587048" lon="10.066786">
        <ele>522.912745</ele>
        <time>2025-11-11T18:23:34.844Z</time>
      </trkpt>
      <trkpt lat="48.587016" lon="10.067252">
        <ele>522.717635</ele>
        <time>2025-11-11T18:23:38.720Z</time>
      </trkpt>
      <trkpt lat="48.586916" lon="10.067733">
        <ele>522.507660</ele>
        <time>2025-11-11T18:23:44.058Z</time>
      </trkpt>
      <trkpt lat="48.586804" lon="10.068085">
        <ele>522.344991</ele>
        <time>2025-11-11T18:23:48.878Z</time>
      </trkpt>
      <trkpt lat="48.586032" lon="10.069524">
        <ele>522.015455</ele>
        <time>2025-11-11T18:24:12.863Z</time>
      </trkpt>
      <trkpt lat="48.585895" lon="10.069860">
        <ele>521.993502</ele>
        <time>2025-11-11T18:24:16.904Z</time>
      </trkpt>
      <trkpt lat="48.584579" lon="10.075637">
        <ele>517.144579</ele>
        <time>2025-11-11T18:25:03.063Z</time>
      </trkpt>
      <trkpt lat="48.584422" lon="10.076809">
        <ele>516.586632</ele>
        <time>2025-11-11T18:25:14.027Z</time>
      </trkpt>
      <trkpt lat="48.584395" lon="10.077364">
        <ele>516.446701</ele>
        <time>2025-11-11T18:25:19.553Z</time>
      </trkpt>
      <trkpt lat="48.584330" lon="10.081160">
        <ele>516.004284</ele>
        <time>2025-11-11T18:25:53.209Z</time>
      </trkpt>
      <trkpt lat="48.584266" lon="10.082993">
        <ele>518.708544</ele>
        <time>2025-11-11T18:26:18.891Z</time>
      </trkpt>
      <trkpt lat="48.584246" lon="10.083781">
        <ele>520.117934</ele>
        <time>2025-11-11T18:26:35.006Z</time>
      </trkpt>
      <trkpt lat="48.584172" lon="10.085269">
        <ele>523.881790</ele>
        <time>2025-11-11T18:27:09.404Z</time>
      </trkpt>
      <trkpt lat="48.584201" lon="10.086377">
        <ele>526.988133</ele>
        <time>2025-11-11T18:27:32.740Z</time>
      </trkpt>
      <trkpt lat="48.584286" lon="10.087018">
        <ele>528.754518</ele>
        <time>2025-11-11T18:27:44.855Z</time>
      </trkpt>
      <trkpt lat="48.584448" lon="10.087774">
        <ele>530.568416</ele>
        <time>2025-11-11T18:27:59.122Z</time>
      </trkpt>
      <trkpt lat="48.584628" lon="10.088376">
        <ele>532.076363</ele>
        <time>2025-11-11T18:28:11.034Z</time>
      </trkpt>
      <trkpt lat="48.584890" lon="10.089092">
        <ele>533.944043</ele>
        <time>2025-11-11T18:28:26.516Z</time>
      </trkpt>
      <trkpt lat="48.585424" lon="10.090466">
        <ele>538.469721</ele>
        <time>2025-11-11T18:28:59.912Z</time>
      </trkpt>
      <trkpt lat="48.585611" lon="10.090860">
        <ele>539.914800</ele>
        <time>2025-11-11T18:29:10.519Z</time>
      </trkpt>
      <trkpt lat="48.585886" lon="10.091325">
        <ele>541.773547</ele>
        <time>2025-11-11T18:29:24.467Z</time>
      </trkpt>
      <trkpt lat="48.586166" lon="10.091728">
        <ele>543.597550</ele>
        <time>2025-11-11T18:29:38.049Z</time>
      </trkpt>
      <trkpt lat="48.586429" lon="10.092023">
        <ele>545.237566</ele>
        <time>2025-11-11T18:29:49.934Z</time>
      </trkpt>
      <trkpt lat="48.586748" lon="10.092308">
        <ele>547.093195</ele>
        <time>2025-11-11T18:30:03.241Z</time>
      </trkpt>
      <trkpt lat="48.587370" lon="10.092785">
        <ele>550.585944</ele>
        <time>2025-11-11T18:30:27.646Z</time>
      </trkpt>
      <trkpt lat="48.587655" lon="10.093010">
        <ele>552.062335</ele>
        <time>2025-11-11T18:30:38.691Z</time>
      </trkpt>
      <trkpt lat="48.587908" lon="10.093307">
        <ele>553.144764</ele>
        <time>2025-11-11T18:30:49.391Z</time>
      </trkpt>
      <trkpt lat="48.588115" lon="10.093624">
        <ele>554.140442</ele>
        <time>2025-11-11T18:30:58.635Z</time>
      </trkpt>
      <trkpt lat="48.588264" lon="10.093924">
        <ele>554.979002</ele>
        <time>2025-11-11T18:31:05.858Z</time>
      </trkpt>
      <trkpt lat="48.588444" lon="10.094460">
        <ele>556.322649</ele>
        <time>2025-11-11T18:31:16.552Z</time>
      </trkpt>
      <trkpt lat="48.588518" lon="10.094782">
        <ele>557.084595</ele>
        <time>2025-11-11T18:31:22.208Z</time>
      </trkpt>
      <trkpt lat="48.588547" lon="10.094924">
        <ele>557.416781</ele>
        <time>2025-11-11T18:31:24.541Z</time>
      </trkpt>
      <trkpt lat="48.588705" lon="10.095810">
        <ele>558.430765</ele>
        <time>2025-11-11T18:31:37.138Z</time>
      </trkpt>
      <trkpt lat="48.588755" lon="10.096326">
        <ele>558.843222</ele>
        <time>2025-11-11T18:31:43.256Z</time>
      </trkpt>
      <trkpt lat="48.588771" lon="10.097407">
        <ele>559.698390</ele>
        <time>2025-11-11T18:31:56.095Z</time>
      </trkpt>
      <trkpt lat="48.588789" lon="10.097820">
        <ele>560.031232</ele>
        <time>2025-11-11T18:32:01.396Z</time>
      </trkpt>
      <trkpt lat="48.588883" lon="10.098359">
        <ele>560.669165</ele>
        <time>2025-11-11T18:32:08.918Z</time>
      </trkpt>
      <trkpt lat="48.589151" lon="10.099329">
        <ele>561.872217</ele>
        <time>2025-11-11T18:32:24.545Z</time>
      </trkpt>
      <trkpt lat="48.589303" lon="10.099781">
        <ele>562.452514</ele>
        <time>2025-11-11T18:32:32.616Z</time>
      </trkpt>
      <trkpt lat="48.589526" lon="10.100296">
        <ele>563.144767</ele>
        <time>2025-11-11T18:32:41.978Z</time>
      </trkpt>
      <trkpt lat="48.589642" lon="10.100651">
        <ele>563.422802</ele>
        <time>2025-11-11T18:32:47.539Z</time>
      </trkpt>
      <trkpt lat="48.589820" lon="10.101377">
        <ele>563.966484</ele>
        <time>2025-11-11T18:32:57.135Z</time>
      </trkpt>
      <trkpt lat="48.589844" lon="10.101635">
        <ele>564.149430</ele>
        <time>2025-11-11T18:33:00.168Z</time>
      </trkpt>
      <trkpt lat="48.589843" lon="10.101876">
        <ele>564.318660</ele>
        <time>2025-11-11T18:33:02.968Z</time>
      </trkpt>
      <trkpt lat="48.589757" lon="10.102971">
        <ele>565.114056</ele>
        <time>2025-11-11T18:33:15.701Z</time>
      </trkpt>
      <trkpt lat="48.589748" lon="10.103385">
        <ele>565.510537</ele>
        <time>2025-11-11T18:33:20.682Z</time>
      </trkpt>
      <trkpt lat="48.589789" lon="10.103679">
        <ele>565.798131</ele>
        <time>2025-11-11T18:33:24.493Z</time>
      </trkpt>
      <trkpt lat="48.590163" lon="10.105416">
        <ele>567.546594</ele>
        <time>2025-11-11T18:33:51.871Z</time>
      </trkpt>
      <trkpt lat="48.590331" lon="10.105955">
        <ele>567.579424</ele>
        <time>2025-11-11T18:33:59.674Z</time>
      </trkpt>
      <trkpt lat="48.590266" lon="10.106080">
        <ele>567.560940</ele>
        <time>2025-11-11T18:34:01.539Z</time>
      </trkpt>
      <trkpt lat="48.590210" lon="10.106284">
        <ele>567.535265</ele>
        <time>2025-11-11T18:34:03.999Z</time>
      </trkpt>
      <trkpt lat="48.589906" lon="10.107913">
        <ele>567.338506</ele>
        <time>2025-11-11T18:34:18.382Z</time>
      </trkpt>
      <trkpt lat="48.589838" lon="10.108535">
        <ele>566.815250</ele>
        <time>2025-11-11T18:34:23.030Z</time>
      </trkpt>
      <trkpt lat="48.589893" lon="10.109023">
        <ele>566.297822</ele>
        <time>2025-11-11T18:34:26.805Z</time>
      </trkpt>
      <trkpt lat="48.589984" lon="10.109541">
        <ele>565.737618</ele>
        <time>2025-11-11T18:34:30.884Z</time>
      </trkpt>
      <trkpt lat="48.590002" lon="10.109626">
        <ele>565.644331</ele>
        <time>2025-11-11T18:34:31.564Z</time>
      </trkpt>
      <trkpt lat="48.590073" lon="10.109883">
        <ele>565.353216</ele>
        <time>2025-11-11T18:34:33.668Z</time>
      </trkpt>
      <trkpt lat="48.590170" lon="10.110164">
        <ele>565.021913</ele>
        <time>2025-11-11T18:34:36.022Z</time>
      </trkpt>
      <trkpt lat="48.590353" lon="10.110500">
        <ele>564.566977</ele>
        <time>2025-11-11T18:34:39.206Z</time>
      </trkpt>
      <trkpt lat="48.590858" lon="10.111257">
        <ele>563.076091</ele>
        <time>2025-11-11T18:34:47.127Z</time>
      </trkpt>
      <trkpt lat="48.591056" lon="10.111632">
        <ele>562.396859</ele>
        <time>2025-11-11T18:34:50.531Z</time>
      </trkpt>
      <trkpt lat="48.591124" lon="10.111563">
        <ele>562.221590</ele>
        <time>2025-11-11T18:34:51.415Z</time>
      </trkpt>
      <trkpt lat="48.591436" lon="10.112325">
        <ele>560.952983</ele>
        <time>2025-11-11T18:34:57.717Z</time>
      </trkpt>
      <trkpt lat="48.591636" lon="10.113033">
        <ele>559.820459</ele>
        <time>2025-11-11T18:35:03.168Z</time>
      </trkpt>
      <trkpt lat="48.591670" lon="10.113381">
        <ele>559.294745</ele>
        <time>2025-11-11T18:35:05.625Z</time>
      </trkpt>
      <trkpt lat="48.591678" lon="10.113752">
        <ele>558.740007</ele>
        <time>2025-11-11T18:35:08.220Z</time>
      </trkpt>
      <trkpt lat="48.591662" lon="10.113892">
        <ele>558.527683</ele>
        <time>2025-11-11T18:35:09.211Z</time>
      </trkpt>
      <trkpt lat="48.591604" lon="10.114381">
        <ele>557.785237</ele>
        <time>2025-11-11T18:35:12.695Z</time>
      </trkpt>
      <trkpt lat="48.591619" lon="10.114705">
        <ele>557.299848</ele>
        <time>2025-11-11T18:35:15.031Z</time>
      </trkpt>
      <trkpt lat="48.591678" lon="10.114920">
        <ele>556.951983</ele>
        <time>2025-11-11T18:35:16.737Z</time>
      </trkpt>
      <trkpt lat="48.591737" lon="10.115065">
        <ele>556.697566</ele>
        <time>2025-11-11T18:35:17.984Z</time>
      </trkpt>
      <trkpt lat="48.591931" lon="10.115268">
        <ele>556.327571</ele>
        <time>2025-11-11T18:35:20.628Z</time>
      </trkpt>
      <trkpt lat="48.592013" lon="10.115288">
        <ele>556.216148</ele>
        <time>2025-11-11T18:35:21.584Z</time>
      </trkpt>
      <trkpt lat="48.592207" lon="10.115212">
        <ele>555.947308</ele>
        <time>2025-11-11T18:35:23.892Z</time>
      </trkpt>
      <trkpt lat="48.592252" lon="10.115259">
        <ele>555.873939</ele>
        <time>2025-11-11T18:35:24.507Z</time>
      </trkpt>
      <trkpt lat="48.592146" lon="10.115359">
        <ele>555.706332</ele>
        <time>2025-11-11T18:35:25.957Z</time>
      </trkpt>
      <trkpt lat="48.592071" lon="10.115389">
        <ele>555.602260</ele>
        <time>2025-11-11T18:35:26.875Z</time>
      </trkpt>
      <trkpt lat="48.592000" lon="10.115492">
        <ele>555.470262</ele>
        <time>2025-11-11T18:35:28.018Z</time>
      </trkpt>
      <trkpt lat="48.591979" lon="10.115637">
        <ele>555.338560</ele>
        <time>2025-11-11T18:35:29.195Z</time>
      </trkpt>
      <trkpt lat="48.592002" lon="10.115753">
        <ele>555.231111</ele>
        <time>2025-11-11T18:35:30.143Z</time>
      </trkpt>
      <trkpt lat="48.592000" lon="10.115958">
        <ele>555.049201</ele>
        <time>2025-11-11T18:35:31.779Z</time>
      </trkpt>
      <trkpt lat="48.591922" lon="10.116343">
        <ele>554.691935</ele>
        <time>2025-11-11T18:35:35.119Z</time>
      </trkpt>
      <trkpt lat="48.591200" lon="10.119148">
        <ele>552.289907</ele>
        <time>2025-11-11T18:35:59.038Z</time>
      </trkpt>
      <trkpt lat="48.590895" lon="10.120511">
        <ele>551.149777</ele>
        <time>2025-11-11T18:36:10.053Z</time>
      </trkpt>
      <trkpt lat="48.590840" lon="10.120838">
        <ele>550.880817</ele>
        <time>2025-11-11T18:36:12.635Z</time>
      </trkpt>
      <trkpt lat="48.590631" lon="10.122200">
        <ele>549.811882</ele>
        <time>2025-11-11T18:36:23.814Z</time>
      </trkpt>
      <trkpt lat="48.590630" lon="10.122205">
        <ele>549.809439</ele>
        <time>2025-11-11T18:36:23.854Z</time>
      </trkpt>
      <trkpt lat="48.590562" lon="10.122871">
        <ele>549.494342</ele>
        <time>2025-11-11T18:36:29.581Z</time>
      </trkpt>
      <trkpt lat="48.590497" lon="10.124103">
        <ele>548.916450</ele>
        <time>2025-11-11T18:36:40.365Z</time>
      </trkpt>
      <trkpt lat="48.590492" lon="10.124737">
        <ele>548.619981</ele>
        <time>2025-11-11T18:36:45.819Z</time>
      </trkpt>
      <trkpt lat="48.590524" lon="10.125769">
        <ele>548.267676</ele>
        <time>2025-11-11T18:36:54.303Z</time>
      </trkpt>
      <trkpt lat="48.590593" lon="10.126747">
        <ele>547.936242</ele>
        <time>2025-11-11T18:37:02.557Z</time>
      </trkpt>
      <trkpt lat="48.590675" lon="10.127418">
        <ele>547.706302</ele>
        <time>2025-11-11T18:37:09.029Z</time>
      </trkpt>
      <trkpt lat="48.590800" lon="10.128206">
        <ele>548.016023</ele>
        <time>2025-11-11T18:37:17.799Z</time>
      </trkpt>
      <trkpt lat="48.590957" lon="10.128949">
        <ele>548.352703</ele>
        <time>2025-11-11T18:37:27.180Z</time>
      </trkpt>
      <trkpt lat="48.591299" lon="10.130254">
        <ele>548.997138</ele>
        <time>2025-11-11T18:37:44.331Z</time>
      </trkpt>
      <trkpt lat="48.591511" lon="10.130915">
        <ele>549.441406</ele>
        <time>2025-11-11T18:37:53.050Z</time>
      </trkpt>
      <trkpt lat="48.591653" lon="10.131360">
        <ele>549.740209</ele>
        <time>2025-11-11T18:37:58.889Z</time>
      </trkpt>
      <trkpt lat="48.591770" lon="10.131667">
        <ele>549.954486</ele>
        <time>2025-11-11T18:38:03.077Z</time>
      </trkpt>
      <trkpt lat="48.592365" lon="10.132958">
        <ele>551.071444</ele>
        <time>2025-11-11T18:38:23.187Z</time>
      </trkpt>
      <trkpt lat="48.592572" lon="10.133362">
        <ele>551.508588</ele>
        <time>2025-11-11T18:38:29.865Z</time>
      </trkpt>
      <trkpt lat="48.593091" lon="10.134256">
        <ele>552.526099</ele>
        <time>2025-11-11T18:38:45.872Z</time>
      </trkpt>
      <trkpt lat="48.593544" lon="10.134898">
        <ele>553.241743</ele>
        <time>2025-11-11T18:38:58.599Z</time>
      </trkpt>
      <trkpt lat="48.593866" lon="10.135286">
        <ele>553.680442</ele>
        <time>2025-11-11T18:39:06.921Z</time>
      </trkpt>
      <trkpt lat="48.594446" lon="10.135915">
        <ele>554.440926</ele>
        <time>2025-11-11T18:39:20.945Z</time>
      </trkpt>
      <trkpt lat="48.595167" lon="10.136597">
        <ele>554.105817</ele>
        <time>2025-11-11T18:39:34.845Z</time>
      </trkpt>
      <trkpt lat="48.596206" lon="10.137306">
        <ele>552.797043</ele>
        <time>2025-11-11T18:39:48.000Z</time>
      </trkpt>
      <trkpt lat="48.596663" lon="10.137554">
        <ele>551.654966</ele>
        <time>2025-11-11T18:39:52.852Z</time>
      </trkpt>
      <trkpt lat="48.597361" lon="10.137888">
        <ele>549.710004</ele>
        <time>2025-11-11T18:40:00.077Z</time>
      </trkpt>
      <trkpt lat="48.597680" lon="10.138008">
        <ele>548.836709</ele>
        <time>2025-11-11T18:40:03.403Z</time>
      </trkpt>
      <trkpt lat="48.598501" lon="10.138169">
        <ele>548.202043</ele>
        <time>2025-11-11T18:40:13.526Z</time>
      </trkpt>
      <trkpt lat="48.599192" lon="10.138231">
        <ele>548.630787</ele>
        <time>2025-11-11T18:40:28.891Z</time>
      </trkpt>
      <trkpt lat="48.600112" lon="10.138217">
        <ele>548.712410</ele>
        <time>2025-11-11T18:40:48.079Z</time>
      </trkpt>
      <trkpt lat="48.601538" lon="10.138150">
        <ele>547.204373</ele>
        <time>2025-11-11T18:41:04.235Z</time>
      </trkpt>
      <trkpt lat="48.602570" lon="10.138072">
        <ele>545.331954</ele>
        <time>2025-11-11T18:41:15.367Z</time>
      </trkpt>
      <trkpt lat="48.603375" lon="10.138069">
        <ele>543.821706</ele>
        <time>2025-11-11T18:41:24.497Z</time>
      </trkpt>
      <trkpt lat="48.604062" lon="10.138152">
        <ele>542.838839</ele>
        <time>2025-11-11T18:41:32.431Z</time>
      </trkpt>
      <trkpt lat="48.604376" lon="10.138219">
        <ele>542.395643</ele>
        <time>2025-11-11T18:41:36.099Z</time>
      </trkpt>
      <trkpt lat="48.604838" lon="10.138370">
        <ele>541.735039</ele>
        <time>2025-11-11T18:41:41.579Z</time>
      </trkpt>
      <trkpt lat="48.605871" lon="10.138882">
        <ele>540.222207</ele>
        <time>2025-11-11T18:41:54.697Z</time>
      </trkpt>
      <trkpt lat="48.606851" lon="10.139477">
        <ele>538.755688</ele>
        <time>2025-11-11T18:42:07.295Z</time>
      </trkpt>
      <trkpt lat="48.607651" lon="10.139901">
        <ele>536.000577</ele>
        <time>2025-11-11T18:42:16.138Z</time>
      </trkpt>
      <trkpt lat="48.608267" lon="10.140051">
        <ele>533.949969</ele>
        <time>2025-11-11T18:42:22.231Z</time>
      </trkpt>
      <trkpt lat="48.608919" lon="10.140064">
        <ele>531.708709</ele>
        <time>2025-11-11T18:42:28.507Z</time>
      </trkpt>
      <trkpt lat="48.609232" lon="10.140016">
        <ele>530.574650</ele>
        <time>2025-11-11T18:42:31.526Z</time>
      </trkpt>
      <trkpt lat="48.609496" lon="10.139925">
        <ele>529.598604</ele>
        <time>2025-11-11T18:42:34.134Z</time>
      </trkpt>
      <trkpt lat="48.609997" lon="10.139679">
        <ele>527.699855</ele>
        <time>2025-11-11T18:42:39.552Z</time>
      </trkpt>
      <trkpt lat="48.610596" lon="10.139244">
        <ele>525.144052</ele>
        <time>2025-11-11T18:42:46.533Z</time>
      </trkpt>
      <trkpt lat="48.610919" lon="10.139001">
        <ele>523.641587</ele>
        <time>2025-11-11T18:42:50.140Z</time>
      </trkpt>
      <trkpt lat="48.611247" lon="10.138747">
        <ele>522.106885</ele>
        <time>2025-11-11T18:42:53.737Z</time>
      </trkpt>
      <trkpt lat="48.611649" lon="10.138496">
        <ele>520.295579</ele>
        <time>2025-11-11T18:42:57.955Z</time>
      </trkpt>
      <trkpt lat="48.611922" lon="10.138388">
        <ele>519.120337</ele>
        <time>2025-11-11T18:43:00.594Z</time>
      </trkpt>
      <trkpt lat="48.612172" lon="10.138320">
        <ele>517.776510</ele>
        <time>2025-11-11T18:43:02.892Z</time>
      </trkpt>
      <trkpt lat="48.612409" lon="10.138300">
        <ele>516.427669</ele>
        <time>2025-11-11T18:43:05.049Z</time>
      </trkpt>
      <trkpt lat="48.612688" lon="10.138326">
        <ele>514.839253</ele>
        <time>2025-11-11T18:43:07.596Z</time>
      </trkpt>
      <trkpt lat="48.612993" lon="10.138427">
        <ele>513.065047</ele>
        <time>2025-11-11T18:43:10.468Z</time>
      </trkpt>
      <trkpt lat="48.613584" lon="10.138769">
        <ele>509.469310</ele>
        <time>2025-11-11T18:43:16.330Z</time>
      </trkpt>
      <trkpt lat="48.613892" lon="10.139019">
        <ele>507.773735</ele>
        <time>2025-11-11T18:43:19.610Z</time>
      </trkpt>
      <trkpt lat="48.614093" lon="10.139244">
        <ele>506.714100</ele>
        <time>2025-11-11T18:43:21.995Z</time>
      </trkpt>
      <trkpt lat="48.614245" lon="10.139496">
        <ele>505.758429</ele>
        <time>2025-11-11T18:43:24.186Z</time>
      </trkpt>
      <trkpt lat="48.614703" lon="10.140337">
        <ele>502.705897</ele>
        <time>2025-11-11T18:43:31.188Z</time>
      </trkpt>
      <trkpt lat="48.614901" lon="10.140739">
        <ele>501.301494</ele>
        <time>2025-11-11T18:43:34.464Z</time>
      </trkpt>
      <trkpt lat="48.615229" lon="10.141211">
        <ele>499.652781</ele>
        <time>2025-11-11T18:43:39.015Z</time>
      </trkpt>
      <trkpt lat="48.615335" lon="10.141326">
        <ele>499.191962</ele>
        <time>2025-11-11T18:43:40.311Z</time>
      </trkpt>
      <trkpt lat="48.615891" lon="10.142033">
        <ele>496.625993</ele>
        <time>2025-11-11T18:43:47.519Z</time>
      </trkpt>
      <trkpt lat="48.616001" lon="10.142197">
        <ele>496.080375</ele>
        <time>2025-11-11T18:43:49.051Z</time>
      </trkpt>
      <trkpt lat="48.616184" lon="10.142705">
        <ele>494.729278</ele>
        <time>2025-11-11T18:43:52.910Z</time>
      </trkpt>
      <trkpt lat="48.616553" lon="10.143937">
        <ele>491.865247</ele>
        <time>2025-11-11T18:44:01.940Z</time>
      </trkpt>
      <trkpt lat="48.616699" lon="10.144663">
        <ele>490.262613</ele>
        <time>2025-11-11T18:44:07.047Z</time>
      </trkpt>
      <trkpt lat="48.616760" lon="10.145078">
        <ele>489.364759</ele>
        <time>2025-11-11T18:44:09.921Z</time>
      </trkpt>
      <trkpt lat="48.616792" lon="10.145626">
        <ele>488.184030</ele>
        <time>2025-11-11T18:44:13.660Z</time>
      </trkpt>
      <trkpt lat="48.616695" lon="10.146365">
        <ele>486.550015</ele>
        <time>2025-11-11T18:44:18.671Z</time>
      </trkpt>
      <trkpt lat="48.616686" lon="10.146567">
        <ele>486.110927</ele>
        <time>2025-11-11T18:44:19.996Z</time>
      </trkpt>
      <trkpt lat="48.616721" lon="10.146756">
        <ele>485.685249</ele>
        <time>2025-11-11T18:44:21.283Z</time>
      </trkpt>
      <trkpt lat="48.616810" lon="10.146982">
        <ele>485.114732</ele>
        <time>2025-11-11T18:44:23.034Z</time>
      </trkpt>
      <trkpt lat="48.617053" lon="10.147522">
        <ele>483.698022</ele>
        <time>2025-11-11T18:44:27.495Z</time>
      </trkpt>
      <trkpt lat="48.617330" lon="10.148039">
        <ele>482.288123</ele>
        <time>2025-11-11T18:44:31.902Z</time>
      </trkpt>
      <trkpt lat="48.617534" lon="10.148495">
        <ele>481.147175</ele>
        <time>2025-11-11T18:44:35.518Z</time>
      </trkpt>
      <trkpt lat="48.617575" lon="10.148739">
        <ele>480.625484</ele>
        <time>2025-11-11T18:44:37.891Z</time>
      </trkpt>
      <trkpt lat="48.617661" lon="10.148898">
        <ele>480.199781</ele>
        <time>2025-11-11T18:44:39.847Z</time>
      </trkpt>
      <trkpt lat="48.617548" lon="10.149073">
        <ele>479.692867</ele>
        <time>2025-11-11T18:44:41.463Z</time>
      </trkpt>
      <trkpt lat="48.617412" lon="10.149262">
        <ele>479.113977</ele>
        <time>2025-11-11T18:44:43.350Z</time>
      </trkpt>
      <trkpt lat="48.617298" lon="10.149473">
        <ele>478.549297</ele>
        <time>2025-11-11T18:44:45.232Z</time>
      </trkpt>
      <trkpt lat="48.617252" lon="10.149638">
        <ele>478.178225</ele>
        <time>2025-11-11T18:44:46.470Z</time>
      </trkpt>
      <trkpt lat="48.617229" lon="10.149872">
        <ele>477.688000</ele>
        <time>2025-11-11T18:44:48.096Z</time>
      </trkpt>
      <trkpt lat="48.617250" lon="10.150094">
        <ele>477.277984</ele>
        <time>2025-11-11T18:44:49.633Z</time>
      </trkpt>
      <trkpt lat="48.617290" lon="10.150531">
        <ele>476.714141</ele>
        <time>2025-11-11T18:44:52.666Z</time>
      </trkpt>
      <trkpt lat="48.617373" lon="10.151071">
        <ele>476.005578</ele>
        <time>2025-11-11T18:44:56.626Z</time>
      </trkpt>
      <trkpt lat="48.617492" lon="10.151408">
        <ele>475.517278</ele>
        <time>2025-11-11T18:44:59.330Z</time>
      </trkpt>
      <trkpt lat="48.617742" lon="10.151782">
        <ele>474.837516</ele>
        <time>2025-11-11T18:45:03.207Z</time>
      </trkpt>
      <trkpt lat="48.617846" lon="10.151832">
        <ele>474.626544</ele>
        <time>2025-11-11T18:45:04.458Z</time>
      </trkpt>
      <trkpt lat="48.618045" lon="10.151882">
        <ele>474.236550</ele>
        <time>2025-11-11T18:45:06.898Z</time>
      </trkpt>
      <trkpt lat="48.618209" lon="10.151953">
        <ele>473.906762</ele>
        <time>2025-11-11T18:45:09.032Z</time>
      </trkpt>
      <trkpt lat="48.618260" lon="10.152023">
        <ele>473.853390</ele>
        <time>2025-11-11T18:45:09.909Z</time>
      </trkpt>
      <trkpt lat="48.618391" lon="10.152226">
        <ele>473.742082</ele>
        <time>2025-11-11T18:45:12.344Z</time>
      </trkpt>
      <trkpt lat="48.618643" lon="10.152804">
        <ele>473.470417</ele>
        <time>2025-11-11T18:45:18.260Z</time>
      </trkpt>
      <trkpt lat="48.618710" lon="10.152895">
        <ele>473.416973</ele>
        <time>2025-11-11T18:45:19.416Z</time>
      </trkpt>
      <trkpt lat="48.618787" lon="10.152999">
        <ele>473.355706</ele>
        <time>2025-11-11T18:45:20.749Z</time>
      </trkpt>
      <trkpt lat="48.619006" lon="10.152954">
        <ele>473.224530</ele>
        <time>2025-11-11T18:45:23.656Z</time>
      </trkpt>
      <trkpt lat="48.619186" lon="10.152918">
        <ele>473.116766</ele>
        <time>2025-11-11T18:45:26.125Z</time>
      </trkpt>
      <trkpt lat="48.619299" lon="10.152949">
        <ele>473.048603</ele>
        <time>2025-11-11T18:45:27.723Z</time>
      </trkpt>
      <trkpt lat="48.619385" lon="10.153011">
        <ele>472.992060</ele>
        <time>2025-11-11T18:45:29.021Z</time>
      </trkpt>
      <trkpt lat="48.619494" lon="10.153189">
        <ele>472.896861</ele>
        <time>2025-11-11T18:45:31.277Z</time>
      </trkpt>
      <trkpt lat="48.619561" lon="10.153552">
        <ele>472.759381</ele>
        <time>2025-11-11T18:45:34.831Z</time>
      </trkpt>
      <trkpt lat="48.619638" lon="10.154155">
        <ele>472.553103</ele>
        <time>2025-11-11T18:45:40.176Z</time>
      </trkpt>
      <trkpt lat="48.619659" lon="10.154310">
        <ele>472.499960</ele>
        <time>2025-11-11T18:45:41.501Z</time>
      </trkpt>
      <trkpt lat="48.619694" lon="10.154629">
        <ele>472.391350</ele>
        <time>2025-11-11T18:45:44.172Z</time>
      </trkpt>
      <trkpt lat="48.619699" lon="10.154702">
        <ele>472.366699</ele>
        <time>2025-11-11T18:45:44.784Z</time>
      </trkpt>
      <trkpt lat="48.619705" lon="10.154812">
        <ele>472.329628</ele>
        <time>2025-11-11T18:45:45.689Z</time>
      </trkpt>
      <trkpt lat="48.619712" lon="10.154946">
        <ele>472.284480</ele>
        <time>2025-11-11T18:45:46.798Z</time>
      </trkpt>
      <trkpt lat="48.619764" lon="10.155864">
        <ele>471.975016</ele>
        <time>2025-11-11T18:45:54.662Z</time>
      </trkpt>
      <trkpt lat="48.619852" lon="10.156708">
        <ele>472.521300</ele>
        <time>2025-11-11T18:46:02.731Z</time>
      </trkpt>
      <trkpt lat="48.619988" lon="10.157602">
        <ele>473.384061</ele>
        <time>2025-11-11T18:46:13.401Z</time>
      </trkpt>
      <trkpt lat="48.620099" lon="10.158336">
        <ele>474.092202</ele>
        <time>2025-11-11T18:46:24.855Z</time>
      </trkpt>
      <trkpt lat="48.620258" lon="10.159483">
        <ele>476.972304</ele>
        <time>2025-11-11T18:46:48.406Z</time>
      </trkpt>
      <trkpt lat="48.620331" lon="10.159852">
        <ele>478.219024</ele>
        <time>2025-11-11T18:46:57.402Z</time>
      </trkpt>
      <trkpt lat="48.620773" lon="10.160502">
        <ele>481.237369</ele>
        <time>2025-11-11T18:47:19.789Z</time>
      </trkpt>
      <trkpt lat="48.621190" lon="10.160985">
        <ele>483.834421</ele>
        <time>2025-11-11T18:47:39.483Z</time>
      </trkpt>
      <trkpt lat="48.621389" lon="10.161279">
        <ele>485.261095</ele>
        <time>2025-11-11T18:47:50.861Z</time>
      </trkpt>
      <trkpt lat="48.621563" lon="10.161647">
        <ele>486.795111</ele>
        <time>2025-11-11T18:48:02.567Z</time>
      </trkpt>
      <trkpt lat="48.621594" lon="10.161951">
        <ele>487.838001</ele>
        <time>2025-11-11T18:48:10.544Z</time>
      </trkpt>
      <trkpt lat="48.621598" lon="10.161999">
        <ele>488.002031</ele>
        <time>2025-11-11T18:48:11.817Z</time>
      </trkpt>
      <trkpt lat="48.621697" lon="10.162174">
        <ele>488.782976</ele>
        <time>2025-11-11T18:48:17.401Z</time>
      </trkpt>
      <trkpt lat="48.621770" lon="10.162303">
        <ele>489.358720</ele>
        <time>2025-11-11T18:48:20.999Z</time>
      </trkpt>
      <trkpt lat="48.621954" lon="10.162859">
        <ele>491.466845</ele>
        <time>2025-11-11T18:48:32.939Z</time>
      </trkpt>
      <trkpt lat="48.622019" lon="10.163055">
        <ele>492.210309</ele>
        <time>2025-11-11T18:48:37.697Z</time>
      </trkpt>
      <trkpt lat="48.622097" lon="10.163291">
        <ele>492.695834</ele>
        <time>2025-11-11T18:48:43.518Z</time>
      </trkpt>
      <trkpt lat="48.622151" lon="10.163443">
        <ele>492.886160</ele>
        <time>2025-11-11T18:48:47.588Z</time>
      </trkpt>
      <trkpt lat="48.622165" lon="10.163483">
        <ele>492.936080</ele>
        <time>2025-11-11T18:48:48.517Z</time>
      </trkpt>
      <trkpt lat="48.622218" lon="10.163627">
        <ele>493.117863</ele>
        <time>2025-11-11T18:48:52.184Z</time>
      </trkpt>
      <trkpt lat="48.622242" lon="10.163690">
        <ele>493.198062</ele>
        <time>2025-11-11T18:48:53.481Z</time>
      </trkpt>
      <trkpt lat="48.622277" lon="10.163764">
        <ele>493.298420</ele>
        <time>2025-11-11T18:48:55.395Z</time>
      </trkpt>
      <trkpt lat="48.622360" lon="10.163858">
        <ele>493.471417</ele>
        <time>2025-11-11T18:48:57.882Z</time>
      </trkpt>
      <trkpt lat="48.622351" lon="10.164026">
        <ele>493.657318</ele>
        <time>2025-11-11T18:49:00.866Z</time>
      </trkpt>
      <trkpt lat="48.622391" lon="10.164171">
        <ele>493.830612</ele>
        <time>2025-11-11T18:49:03.361Z</time>
      </trkpt>
      <trkpt lat="48.622486" lon="10.164554">
        <ele>494.281797</ele>
        <time>2025-11-11T18:49:09.122Z</time>
      </trkpt>
      <trkpt lat="48.622637" lon="10.165029">
        <ele>494.863125</ele>
        <time>2025-11-11T18:49:14.686Z</time>
      </trkpt>
      <trkpt lat="48.622702" lon="10.165311">
        <ele>495.192518</ele>
        <time>2025-11-11T18:49:17.338Z</time>
      </trkpt>
      <trkpt lat="48.622826" lon="10.165916">
        <ele>494.344608</ele>
        <time>2025-11-11T18:49:23.397Z</time>
      </trkpt>
      <trkpt lat="48.622882" lon="10.166184">
        <ele>493.429778</ele>
        <time>2025-11-11T18:49:25.423Z</time>
      </trkpt>
      <trkpt lat="48.622976" lon="10.166581">
        <ele>492.057233</ele>
        <time>2025-11-11T18:49:28.159Z</time>
      </trkpt>
      <trkpt lat="48.622929" lon="10.167386">
        <ele>489.426931</ele>
        <time>2025-11-11T18:49:33.044Z</time>
      </trkpt>
      <trkpt lat="48.623001" lon="10.167876">
        <ele>487.793158</ele>
        <time>2025-11-11T18:49:35.997Z</time>
      </trkpt>
      <trkpt lat="48.623059" lon="10.168143">
        <ele>486.878408</ele>
        <time>2025-11-11T18:49:37.637Z</time>
      </trkpt>
      <trkpt lat="48.623152" lon="10.168412">
        <ele>485.499549</ele>
        <time>2025-11-11T18:49:39.413Z</time>
      </trkpt>
      <trkpt lat="48.623215" lon="10.168566">
        <ele>484.604134</ele>
        <time>2025-11-11T18:49:40.473Z</time>
      </trkpt>
      <trkpt lat="48.623250" lon="10.168654">
        <ele>484.096366</ele>
        <time>2025-11-11T18:49:41.079Z</time>
      </trkpt>
      <trkpt lat="48.623278" lon="10.168722">
        <ele>483.700271</ele>
        <time>2025-11-11T18:49:41.541Z</time>
      </trkpt>
      <trkpt lat="48.623302" lon="10.168791">
        <ele>483.314780</ele>
        <time>2025-11-11T18:49:41.996Z</time>
      </trkpt>
      <trkpt lat="48.623316" lon="10.168824">
        <ele>483.120912</ele>
        <time>2025-11-11T18:49:42.225Z</time>
      </trkpt>
      <trkpt lat="48.623481" lon="10.169229">
        <ele>480.768775</ele>
        <time>2025-11-11T18:49:44.960Z</time>
      </trkpt>
      <trkpt lat="48.623530" lon="10.169360">
        <ele>480.024593</ele>
        <time>2025-11-11T18:49:45.819Z</time>
      </trkpt>
      <trkpt lat="48.623610" lon="10.169575">
        <ele>478.804770</ele>
        <time>2025-11-11T18:49:47.236Z</time>
      </trkpt>
      <trkpt lat="48.623646" lon="10.169749">
        <ele>477.903345</ele>
        <time>2025-11-11T18:49:48.293Z</time>
      </trkpt>
      <trkpt lat="48.623502" lon="10.169752">
        <ele>476.826173</ele>
        <time>2025-11-11T18:49:49.581Z</time>
      </trkpt>
      <trkpt lat="48.623097" lon="10.169895">
        <ele>473.715501</ele>
        <time>2025-11-11T18:49:53.360Z</time>
      </trkpt>
      <trkpt lat="48.623038" lon="10.169914">
        <ele>473.264314</ele>
        <time>2025-11-11T18:49:53.919Z</time>
      </trkpt>
      <trkpt lat="48.622862" lon="10.169968">
        <ele>472.796486</ele>
        <time>2025-11-11T18:49:55.603Z</time>
      </trkpt>
      <trkpt lat="48.622796" lon="10.169992">
        <ele>472.639017</ele>
        <time>2025-11-11T18:49:56.256Z</time>
      </trkpt>
      <trkpt lat="48.622616" lon="10.170050">
        <ele>472.212083</ele>
        <time>2025-11-11T18:49:58.044Z</time>
      </trkpt>
      <trkpt lat="48.622358" lon="10.170135">
        <ele>471.599541</ele>
        <time>2025-11-11T18:50:00.672Z</time>
      </trkpt>
      <trkpt lat="48.621955" lon="10.170267">
        <ele>470.642992</ele>
        <time>2025-11-11T18:50:05.156Z</time>
      </trkpt>
      <trkpt lat="48.621927" lon="10.170276">
        <ele>470.576587</ele>
        <time>2025-11-11T18:50:05.508Z</time>
      </trkpt>
      <trkpt lat="48.621687" lon="10.170354">
        <ele>470.007127</ele>
        <time>2025-11-11T18:50:09.159Z</time>
      </trkpt>
      <trkpt lat="48.621598" lon="10.170385">
        <ele>469.795261</ele>
        <time>2025-11-11T18:50:10.778Z</time>
      </trkpt>
      <trkpt lat="48.621459" lon="10.170426">
        <ele>469.466734</ele>
        <time>2025-11-11T18:50:13.191Z</time>
      </trkpt>
      <trkpt lat="48.621424" lon="10.170437">
        <ele>469.383806</ele>
        <time>2025-11-11T18:50:13.758Z</time>
      </trkpt>
      <trkpt lat="48.621254" lon="10.170488">
        <ele>469.023798</ele>
        <time>2025-11-11T18:50:16.307Z</time>
      </trkpt>
      <trkpt lat="48.621020" lon="10.170559">
        <ele>469.120850</ele>
        <time>2025-11-11T18:50:19.732Z</time>
      </trkpt>
      <trkpt lat="48.620995" lon="10.170566">
        <ele>469.131189</ele>
        <time>2025-11-11T18:50:20.106Z</time>
      </trkpt>
      <trkpt lat="48.620802" lon="10.170625">
        <ele>469.211260</ele>
        <time>2025-11-11T18:50:23.184Z</time>
      </trkpt>
      <trkpt lat="48.620686" lon="10.170660">
        <ele>469.259362</ele>
        <time>2025-11-11T18:50:25.041Z</time>
      </trkpt>
      <trkpt lat="48.620593" lon="10.170696">
        <ele>469.298399</ele>
        <time>2025-11-11T18:50:26.615Z</time>
      </trkpt>
      <trkpt lat="48.620553" lon="10.170713">
        <ele>469.315295</ele>
        <time>2025-11-11T18:50:27.241Z</time>
      </trkpt>
      <trkpt lat="48.620500" lon="10.170736">
        <ele>469.337717</ele>
        <time>2025-11-11T18:50:28.127Z</time>
      </trkpt>
      <trkpt lat="48.620358" lon="10.170846">
        <ele>469.402593</ele>
        <time>2025-11-11T18:50:30.671Z</time>
      </trkpt>
      <trkpt lat="48.620235" lon="10.170883">
        <ele>469.453591</ele>
        <time>2025-11-11T18:50:32.710Z</time>
      </trkpt>
      <trkpt lat="48.620124" lon="10.170924">
        <ele>469.500056</ele>
        <time>2025-11-11T18:50:34.712Z</time>
      </trkpt>
      <trkpt lat="48.620052" lon="10.170862">
        <ele>469.533747</ele>
        <time>2025-11-11T18:50:36.222Z</time>
      </trkpt>
      <trkpt lat="48.620004" lon="10.170888">
        <ele>469.554480</ele>
        <time>2025-11-11T18:50:37.112Z</time>
      </trkpt>
      <trkpt lat="48.619976" lon="10.170953">
        <ele>469.575336</ele>
        <time>2025-11-11T18:50:37.974Z</time>
      </trkpt>
      <trkpt lat="48.619908" lon="10.170977">
        <ele>469.603731</ele>
        <time>2025-11-11T18:50:39.282Z</time>
      </trkpt>
      <trkpt lat="48.619736" lon="10.171051">
        <ele>469.676450</ele>
        <time>2025-11-11T18:50:42.487Z</time>
      </trkpt>
      <trkpt lat="48.619563" lon="10.171059">
        <ele>469.746834</ele>
        <time>2025-11-11T18:50:45.556Z</time>
      </trkpt>
      <trkpt lat="48.619376" lon="10.171107">
        <ele>469.721399</ele>
        <time>2025-11-11T18:50:48.872Z</time>
      </trkpt>
      <trkpt lat="48.619248" lon="10.171152">
        <ele>469.701766</ele>
        <time>2025-11-11T18:50:51.195Z</time>
      </trkpt>
      <trkpt lat="48.619111" lon="10.171227">
        <ele>469.679999</ele>
        <time>2025-11-11T18:50:53.770Z</time>
      </trkpt>
      <trkpt lat="48.618945" lon="10.171410">
        <ele>469.649312</ele>
        <time>2025-11-11T18:50:57.428Z</time>
      </trkpt>
      <trkpt lat="48.618787" lon="10.171755">
        <ele>469.607861</ele>
        <time>2025-11-11T18:51:01.866Z</time>
      </trkpt>
      <trkpt lat="48.618470" lon="10.172350">
        <ele>469.532387</ele>
        <time>2025-11-11T18:51:08.751Z</time>
      </trkpt>
      <trkpt lat="48.618401" lon="10.172475">
        <ele>469.516304</ele>
        <time>2025-11-11T18:51:10.093Z</time>
      </trkpt>
      <trkpt lat="48.618241" lon="10.172717">
        <ele>469.482500</ele>
        <time>2025-11-11T18:51:12.725Z</time>
      </trkpt>
      <trkpt lat="48.618133" lon="10.172899">
        <ele>469.342360</ele>
        <time>2025-11-11T18:51:14.526Z</time>
      </trkpt>
      <trkpt lat="48.618054" lon="10.173184">
        <ele>469.150133</ele>
        <time>2025-11-11T18:51:16.774Z</time>
      </trkpt>
      <trkpt lat="48.617826" lon="10.174490">
        <ele>468.309936</ele>
        <time>2025-11-11T18:51:26.987Z</time>
      </trkpt>
      <trkpt lat="48.617774" lon="10.174844">
        <ele>468.084372</ele>
        <time>2025-11-11T18:51:30.070Z</time>
      </trkpt>
      <trkpt lat="48.617765" lon="10.174897">
        <ele>468.050335</ele>
        <time>2025-11-11T18:51:30.559Z</time>
      </trkpt>
      <trkpt lat="48.617727" lon="10.175211">
        <ele>467.851777</ele>
        <time>2025-11-11T18:51:33.693Z</time>
      </trkpt>
      <trkpt lat="48.617721" lon="10.175273">
        <ele>467.812801</ele>
        <time>2025-11-11T18:51:34.383Z</time>
      </trkpt>
      <trkpt lat="48.617701" lon="10.175560">
        <ele>467.889486</ele>
        <time>2025-11-11T18:51:37.776Z</time>
      </trkpt>
      <trkpt lat="48.617680" lon="10.175915">
        <ele>468.035203</ele>
        <time>2025-11-11T18:51:42.287Z</time>
      </trkpt>
      <trkpt lat="48.617646" lon="10.176592">
        <ele>468.312781</ele>
        <time>2025-11-11T18:51:50.602Z</time>
      </trkpt>
      <trkpt lat="48.617642" lon="10.176637">
        <ele>468.331344</ele>
        <time>2025-11-11T18:51:51.141Z</time>
      </trkpt>
      <trkpt lat="48.617621" lon="10.176869">
        <ele>468.427079</ele>
        <time>2025-11-11T18:51:53.894Z</time>
      </trkpt>
      <trkpt lat="48.617604" lon="10.177020">
        <ele>468.489702</ele>
        <time>2025-11-11T18:51:55.699Z</time>
      </trkpt>
      <trkpt lat="48.617601" lon="10.177048">
        <ele>468.501299</ele>
        <time>2025-11-11T18:51:56.034Z</time>
      </trkpt>
      <trkpt lat="48.617587" lon="10.177131">
        <ele>468.536319</ele>
        <time>2025-11-11T18:51:57.066Z</time>
      </trkpt>
      <trkpt lat="48.617616" lon="10.177254">
        <ele>468.589708</ele>
        <time>2025-11-11T18:51:58.586Z</time>
      </trkpt>
      <trkpt lat="48.617531" lon="10.177228">
        <ele>468.643339</ele>
        <time>2025-11-11T18:52:00.137Z</time>
      </trkpt>
      <trkpt lat="48.617323" lon="10.177066">
        <ele>468.788023</ele>
        <time>2025-11-11T18:52:04.309Z</time>
      </trkpt>
      <trkpt lat="48.617080" lon="10.176881">
        <ele>468.954198</ele>
        <time>2025-11-11T18:52:08.993Z</time>
      </trkpt>
      <trkpt lat="48.616949" lon="10.176798">
        <ele>469.038796</ele>
        <time>2025-11-11T18:52:11.341Z</time>
      </trkpt>
      <trkpt lat="48.616573" lon="10.176649">
        <ele>469.270317</ele>
        <time>2025-11-11T18:52:17.538Z</time>
      </trkpt>
      <trkpt lat="48.616377" lon="10.176591">
        <ele>469.389277</ele>
        <time>2025-11-11T18:52:20.473Z</time>
      </trkpt>
      <trkpt lat="48.616201" lon="10.176572">
        <ele>469.494377</ele>
        <time>2025-11-11T18:52:23.397Z</time>
      </trkpt>
      <trkpt lat="48.616016" lon="10.176538">
        <ele>469.605382</ele>
        <time>2025-11-11T18:52:26.799Z</time>
      </trkpt>
      <trkpt lat="48.615617" lon="10.176469">
        <ele>469.844593</ele>
        <time>2025-11-11T18:52:34.299Z</time>
      </trkpt>
      <trkpt lat="48.615325" lon="10.176484">
        <ele>470.026124</ele>
        <time>2025-11-11T18:52:39.616Z</time>
      </trkpt>
      <trkpt lat="48.615194" lon="10.176558">
        <ele>470.122701</ele>
        <time>2025-11-11T18:52:42.139Z</time>
      </trkpt>
      <trkpt lat="48.615050" lon="10.176693">
        <ele>470.239706</ele>
        <time>2025-11-11T18:52:45.225Z</time>
      </trkpt>
      <trkpt lat="48.614918" lon="10.176800">
        <ele>470.343136</ele>
        <time>2025-11-11T18:52:47.953Z</time>
      </trkpt>
      <trkpt lat="48.614243" lon="10.177044">
        <ele>470.822443</ele>
        <time>2025-11-11T18:53:00.312Z</time>
      </trkpt>
      <trkpt lat="48.613480" lon="10.177574">
        <ele>471.308442</ele>
        <time>2025-11-11T18:53:14.065Z</time>
      </trkpt>
      <trkpt lat="48.613220" lon="10.177741">
        <ele>471.406391</ele>
        <time>2025-11-11T18:53:19.005Z</time>
      </trkpt>
      <trkpt lat="48.612696" lon="10.177994">
        <ele>471.597124</ele>
        <time>2025-11-11T18:53:28.095Z</time>
      </trkpt>
      <trkpt lat="48.612359" lon="10.178027">
        <ele>471.714226</ele>
        <time>2025-11-11T18:53:33.108Z</time>
      </trkpt>
      <trkpt lat="48.611836" lon="10.177876">
        <ele>472.040608</ele>
        <time>2025-11-11T18:53:41.139Z</time>
      </trkpt>
      <trkpt lat="48.611561" lon="10.177906">
        <ele>472.357029</ele>
        <time>2025-11-11T18:53:45.898Z</time>
      </trkpt>
      <trkpt lat="48.610787" lon="10.178176">
        <ele>473.268621</ele>
        <time>2025-11-11T18:54:02.004Z</time>
      </trkpt>
      <trkpt lat="48.610331" lon="10.178433">
        <ele>473.827098</ele>
        <time>2025-11-11T18:54:12.716Z</time>
      </trkpt>
      <trkpt lat="48.609887" lon="10.178458">
        <ele>474.068019</ele>
        <time>2025-11-11T18:54:22.658Z</time>
      </trkpt>
      <trkpt lat="48.608807" lon="10.178305">
        <ele>474.543702</ele>
        <time>2025-11-11T18:54:39.368Z</time>
      </trkpt>
      <trkpt lat="48.608637" lon="10.178241">
        <ele>474.620526</ele>
        <time>2025-11-11T18:54:41.710Z</time>
      </trkpt>
      <trkpt lat="48.608337" lon="10.178039">
        <ele>474.557811</ele>
        <time>2025-11-11T18:54:46.192Z</time>
      </trkpt>
      <trkpt lat="48.607937" lon="10.177931">
        <ele>474.238932</ele>
        <time>2025-11-11T18:54:51.791Z</time>
      </trkpt>
      <trkpt lat="48.607551" lon="10.177704">
        <ele>473.913908</ele>
        <time>2025-11-11T18:54:56.983Z</time>
      </trkpt>
      <trkpt lat="48.607094" lon="10.177317">
        <ele>473.502864</ele>
        <time>2025-11-11T18:55:03.882Z</time>
      </trkpt>
      <trkpt lat="48.606518" lon="10.176645">
        <ele>472.505322</ele>
        <time>2025-11-11T18:55:12.097Z</time>
      </trkpt>
      <trkpt lat="48.606293" lon="10.176438">
        <ele>472.044468</ele>
        <time>2025-11-11T18:55:14.911Z</time>
      </trkpt>
      <trkpt lat="48.606142" lon="10.176331">
        <ele>471.752667</ele>
        <time>2025-11-11T18:55:16.684Z</time>
      </trkpt>
      <trkpt lat="48.605961" lon="10.176250">
        <ele>471.422362</ele>
        <time>2025-11-11T18:55:18.706Z</time>
      </trkpt>
      <trkpt lat="48.605835" lon="10.176234">
        <ele>471.201100</ele>
        <time>2025-11-11T18:55:20.087Z</time>
      </trkpt>
      <trkpt lat="48.605659" lon="10.176130">
        <ele>470.870445</ele>
        <time>2025-11-11T18:55:22.182Z</time>
      </trkpt>
      <trkpt lat="48.605578" lon="10.175982">
        <ele>470.648145</ele>
        <time>2025-11-11T18:55:23.615Z</time>
      </trkpt>
      <trkpt lat="48.605387" lon="10.175105">
        <ele>469.892571</ele>
        <time>2025-11-11T18:55:30.815Z</time>
      </trkpt>
      <trkpt lat="48.605302" lon="10.174897">
        <ele>469.770067</ele>
        <time>2025-11-11T18:55:32.844Z</time>
      </trkpt>
      <trkpt lat="48.605101" lon="10.174612">
        <ele>469.561305</ele>
        <time>2025-11-11T18:55:36.397Z</time>
      </trkpt>
      <trkpt lat="48.604904" lon="10.174481">
        <ele>469.398251</ele>
        <time>2025-11-11T18:55:39.204Z</time>
      </trkpt>
      <trkpt lat="48.604613" lon="10.174406">
        <ele>469.174588</ele>
        <time>2025-11-11T18:55:43.087Z</time>
      </trkpt>
      <trkpt lat="48.604333" lon="10.174453">
        <ele>468.961136</ele>
        <time>2025-11-11T18:55:46.912Z</time>
      </trkpt>
      <trkpt lat="48.603794" lon="10.174744">
        <ele>468.710836</ele>
        <time>2025-11-11T18:55:54.518Z</time>
      </trkpt>
      <trkpt lat="48.603374" lon="10.175067">
        <ele>468.625231</ele>
        <time>2025-11-11T18:56:00.693Z</time>
      </trkpt>
      <trkpt lat="48.603084" lon="10.175372">
        <ele>468.561056</ele>
        <time>2025-11-11T18:56:05.606Z</time>
      </trkpt>
      <trkpt lat="48.602671" lon="10.175562">
        <ele>468.482627</ele>
        <time>2025-11-11T18:56:12.394Z</time>
      </trkpt>
      <trkpt lat="48.602449" lon="10.175778">
        <ele>468.453840</ele>
        <time>2025-11-11T18:56:16.864Z</time>
      </trkpt>
      <trkpt lat="48.602357" lon="10.175909">
        <ele>468.491843</ele>
        <time>2025-11-11T18:56:18.835Z</time>
      </trkpt>
      <trkpt lat="48.602079" lon="10.176489">
        <ele>468.634302</ele>
        <time>2025-11-11T18:56:25.758Z</time>
      </trkpt>
      <trkpt lat="48.601825" lon="10.177124">
        <ele>468.781892</ele>
        <time>2025-11-11T18:56:33.806Z</time>
      </trkpt>
      <trkpt lat="48.601683" lon="10.177550">
        <ele>468.876767</ele>
        <time>2025-11-11T18:56:39.509Z</time>
      </trkpt>
      <trkpt lat="48.601644" lon="10.177653">
        <ele>468.900372</ele>
        <time>2025-11-11T18:56:40.913Z</time>
      </trkpt>
      <trkpt lat="48.601401" lon="10.178236">
        <ele>469.226674</ele>
        <time>2025-11-11T18:56:48.177Z</time>
      </trkpt>
      <trkpt lat="48.601300" lon="10.178408">
        <ele>469.430931</ele>
        <time>2025-11-11T18:56:50.344Z</time>
      </trkpt>
      <trkpt lat="48.601197" lon="10.178558">
        <ele>469.622949</ele>
        <time>2025-11-11T18:56:52.308Z</time>
      </trkpt>
      <trkpt lat="48.600920" lon="10.178834">
        <ele>470.068390</ele>
        <time>2025-11-11T18:56:57.314Z</time>
      </trkpt>
      <trkpt lat="48.600781" lon="10.179042">
        <ele>470.330979</ele>
        <time>2025-11-11T18:57:00.748Z</time>
      </trkpt>
      <trkpt lat="48.600661" lon="10.179292">
        <ele>470.605293</ele>
        <time>2025-11-11T18:57:04.564Z</time>
      </trkpt>
      <trkpt lat="48.600482" lon="10.179814">
        <ele>471.127441</ele>
        <time>2025-11-11T18:57:12.476Z</time>
      </trkpt>
      <trkpt lat="48.600385" lon="10.180176">
        <ele>471.892284</ele>
        <time>2025-11-11T18:57:19.286Z</time>
      </trkpt>
      <trkpt lat="48.600235" lon="10.181184">
        <ele>477.838776</ele>
        <time>2025-11-11T18:57:45.963Z</time>
      </trkpt>
      <trkpt lat="48.600162" lon="10.181416">
        <ele>479.317468</ele>
        <time>2025-11-11T18:57:55.038Z</time>
      </trkpt>
      <trkpt lat="48.600072" lon="10.181607">
        <ele>480.667260</ele>
        <time>2025-11-11T18:58:03.841Z</time>
      </trkpt>
      <trkpt lat="48.600031" lon="10.181695">
        <ele>481.286810</ele>
        <time>2025-11-11T18:58:08.032Z</time>
      </trkpt>
      <trkpt lat="48.599939" lon="10.181873">
        <ele>482.587047</ele>
        <time>2025-11-11T18:58:17.044Z</time>
      </trkpt>
      <trkpt lat="48.599720" lon="10.182257">
        <ele>485.505469</ele>
        <time>2025-11-11T18:58:38.375Z</time>
      </trkpt>
      <trkpt lat="48.599726" lon="10.182858">
        <ele>489.381810</ele>
        <time>2025-11-11T18:59:05.275Z</time>
      </trkpt>
      <trkpt lat="48.599652" lon="10.183664">
        <ele>495.085784</ele>
        <time>2025-11-11T18:59:40.556Z</time>
      </trkpt>
      <trkpt lat="48.599655" lon="10.184431">
        <ele>500.462292</ele>
        <time>2025-11-11T19:00:08.627Z</time>
      </trkpt>
      <trkpt lat="48.599583" lon="10.184632">
        <ele>502.064649</ele>
        <time>2025-11-11T19:00:16.289Z</time>
      </trkpt>
      <trkpt lat="48.599503" lon="10.184936">
        <ele>504.358110</ele>
        <time>2025-11-11T19:00:27.333Z</time>
      </trkpt>
      <trkpt lat="48.599488" lon="10.185387">
        <ele>507.017790</ele>
        <time>2025-11-11T19:00:42.100Z</time>
      </trkpt>
      <trkpt lat="48.599537" lon="10.185992">
        <ele>509.754714</ele>
        <time>2025-11-11T19:01:00.045Z</time>
      </trkpt>
      <trkpt lat="48.599604" lon="10.186559">
        <ele>512.341031</ele>
        <time>2025-11-11T19:01:16.925Z</time>
      </trkpt>
      <trkpt lat="48.599646" lon="10.186736">
        <ele>513.185425</ele>
        <time>2025-11-11T19:01:22.244Z</time>
      </trkpt>
      <trkpt lat="48.599336" lon="10.186784">
        <ele>515.301303</ele>
        <time>2025-11-11T19:01:35.219Z</time>
      </trkpt>
      <trkpt lat="48.599313" lon="10.186924">
        <ele>515.949054</ele>
        <time>2025-11-11T19:01:38.928Z</time>
      </trkpt>
      <trkpt lat="48.599292" lon="10.187129">
        <ele>516.880546</ele>
        <time>2025-11-11T19:01:44.359Z</time>
      </trkpt>
      <trkpt lat="48.599293" lon="10.187315">
        <ele>517.715771</ele>
        <time>2025-11-11T19:01:49.043Z</time>
      </trkpt>
      <trkpt lat="48.599291" lon="10.187505">
        <ele>518.399612</ele>
        <time>2025-11-11T19:01:53.488Z</time>
      </trkpt>
      <trkpt lat="48.599292" lon="10.187610">
        <ele>518.538130</ele>
        <time>2025-11-11T19:01:55.613Z</time>
      </trkpt>
      <trkpt lat="48.599287" lon="10.187879">
        <ele>518.893103</ele>
        <time>2025-11-11T19:02:00.981Z</time>
      </trkpt>
      <trkpt lat="48.599274" lon="10.188043">
        <ele>519.110981</ele>
        <time>2025-11-11T19:02:03.946Z</time>
      </trkpt>
      <trkpt lat="48.599262" lon="10.188165">
        <ele>519.273680</ele>
        <time>2025-11-11T19:02:06.123Z</time>
      </trkpt>
      <trkpt lat="48.599194" lon="10.188373">
        <ele>519.579744</ele>
        <time>2025-11-11T19:02:10.116Z</time>
      </trkpt>
      <trkpt lat="48.599125" lon="10.188581">
        <ele>519.886697</ele>
        <time>2025-11-11T19:02:14.108Z</time>
      </trkpt>
      <trkpt lat="48.599393" lon="10.188784">
        <ele>520.484572</ele>
        <time>2025-11-11T19:02:20.890Z</time>
      </trkpt>
      <trkpt lat="48.601292" lon="10.190270">
        <ele>521.617756</ele>
        <time>2025-11-11T19:05:09.896Z</time>
      </trkpt>
      <trkpt lat="48.602104" lon="10.190905">
        <ele>521.039573</ele>
        <time>2025-11-11T19:06:20.489Z</time>
      </trkpt>
      <trkpt lat="48.601609" lon="10.193381">
        <ele>519.107250</ele>
        <time>2025-11-11T19:06:41.012Z</time>
      </trkpt>
      <trkpt lat="48.601701" lon="10.193799">
        <ele>518.614502</ele>
        <time>2025-11-11T19:06:44.368Z</time>
      </trkpt>
      <trkpt lat="48.602027" lon="10.194143">
        <ele>517.942137</ele>
        <time>2025-11-11T19:06:48.905Z</time>
      </trkpt>
      <trkpt lat="48.603839" lon="10.195677">
        <ele>512.824299</ele>
        <time>2025-11-11T19:07:11.363Z</time>
      </trkpt>
      <trkpt lat="48.604677" lon="10.196354">
        <ele>508.397056</ele>
        <time>2025-11-11T19:07:24.383Z</time>
      </trkpt>
      <trkpt lat="48.604777" lon="10.196492">
        <ele>507.597679</ele>
        <time>2025-11-11T19:07:26.154Z</time>
      </trkpt>
      <trkpt lat="48.604837" lon="10.196644">
        <ele>506.906483</ele>
        <time>2025-11-11T19:07:27.671Z</time>
      </trkpt>
      <trkpt lat="48.604872" lon="10.196846">
        <ele>506.091138</ele>
        <time>2025-11-11T19:07:29.459Z</time>
      </trkpt>
      <trkpt lat="48.604602" lon="10.198821">
        <ele>498.286697</ele>
        <time>2025-11-11T19:07:46.580Z</time>
      </trkpt>
      <trkpt lat="48.604571" lon="10.199205">
        <ele>496.812727</ele>
        <time>2025-11-11T19:07:49.918Z</time>
      </trkpt>
      <trkpt lat="48.604578" lon="10.199416">
        <ele>496.007768</ele>
        <time>2025-11-11T19:07:51.752Z</time>
      </trkpt>
      <trkpt lat="48.604608" lon="10.199533">
        <ele>495.529636</ele>
        <time>2025-11-11T19:07:52.845Z</time>
      </trkpt>
      <trkpt lat="48.603976" lon="10.200357">
        <ele>490.728847</ele>
        <time>2025-11-11T19:08:00.719Z</time>
      </trkpt>
      <trkpt lat="48.603646" lon="10.200679">
        <ele>488.983632</ele>
        <time>2025-11-11T19:08:04.512Z</time>
      </trkpt>
      <trkpt lat="48.603018" lon="10.201079">
        <ele>485.955494</ele>
        <time>2025-11-11T19:08:11.077Z</time>
      </trkpt>
      <trkpt lat="48.601054" lon="10.202132">
        <ele>477.124719</ele>
        <time>2025-11-11T19:08:31.145Z</time>
      </trkpt>
      <trkpt lat="48.600167" lon="10.202577">
        <ele>473.628263</ele>
        <time>2025-11-11T19:08:40.423Z</time>
      </trkpt>
      <trkpt lat="48.599662" lon="10.202831">
        <ele>471.815951</ele>
        <time>2025-11-11T19:08:45.873Z</time>
      </trkpt>
      <trkpt lat="48.599179" lon="10.203007">
        <ele>470.124107</ele>
        <time>2025-11-11T19:08:50.908Z</time>
      </trkpt>
      <trkpt lat="48.598367" lon="10.203204">
        <ele>467.438948</ele>
        <time>2025-11-11T19:08:59.033Z</time>
      </trkpt>
      <trkpt lat="48.598222" lon="10.203211">
        <ele>466.975146</ele>
        <time>2025-11-11T19:09:00.462Z</time>
      </trkpt>
      <trkpt lat="48.598051" lon="10.203178">
        <ele>466.424024</ele>
        <time>2025-11-11T19:09:02.176Z</time>
      </trkpt>
      <trkpt lat="48.597366" lon="10.202936">
        <ele>464.175099</ele>
        <time>2025-11-11T19:09:09.305Z</time>
      </trkpt>
      <trkpt lat="48.597155" lon="10.202944">
        <ele>463.500319</ele>
        <time>2025-11-11T19:09:11.470Z</time>
      </trkpt>
      <trkpt lat="48.596925" lon="10.202980">
        <ele>463.506867</ele>
        <time>2025-11-11T19:09:13.976Z</time>
      </trkpt>
      <trkpt lat="48.596809" lon="10.202998">
        <ele>463.532734</ele>
        <time>2025-11-11T19:09:15.277Z</time>
      </trkpt>
      <trkpt lat="48.596779" lon="10.203003">
        <ele>463.539429</ele>
        <time>2025-11-11T19:09:15.610Z</time>
      </trkpt>
      <trkpt lat="48.596421" lon="10.203049">
        <ele>463.619130</ele>
        <time>2025-11-11T19:09:20.221Z</time>
      </trkpt>
      <trkpt lat="48.595701" lon="10.203140">
        <ele>463.779404</ele>
        <time>2025-11-11T19:09:33.510Z</time>
      </trkpt>
      <trkpt lat="48.595402" lon="10.203216">
        <ele>463.846661</ele>
        <time>2025-11-11T19:09:40.230Z</time>
      </trkpt>
      <trkpt lat="48.595339" lon="10.203227">
        <ele>463.875048</ele>
        <time>2025-11-11T19:09:41.823Z</time>
      </trkpt>
      <trkpt lat="48.595058" lon="10.203317">
        <ele>464.218477</ele>
        <time>2025-11-11T19:09:49.559Z</time>
      </trkpt>
      <trkpt lat="48.594941" lon="10.203341">
        <ele>464.359648</ele>
        <time>2025-11-11T19:09:52.986Z</time>
      </trkpt>
      <trkpt lat="48.594634" lon="10.203481">
        <ele>464.743040</ele>
        <time>2025-11-11T19:10:02.834Z</time>
      </trkpt>
      <trkpt lat="48.594025" lon="10.203864">
        <ele>465.531659</ele>
        <time>2025-11-11T19:10:16.315Z</time>
      </trkpt>
      <trkpt lat="48.593731" lon="10.204043">
        <ele>465.910606</ele>
        <time>2025-11-11T19:10:20.057Z</time>
      </trkpt>
      <trkpt lat="48.593592" lon="10.204198">
        <ele>465.764923</ele>
        <time>2025-11-11T19:10:21.991Z</time>
      </trkpt>
      <trkpt lat="48.593479" lon="10.204349">
        <ele>465.363276</ele>
        <time>2025-11-11T19:10:23.631Z</time>
      </trkpt>
      <trkpt lat="48.593360" lon="10.204527">
        <ele>464.917453</ele>
        <time>2025-11-11T19:10:25.375Z</time>
      </trkpt>
      <trkpt lat="48.593116" lon="10.204793">
        <ele>464.116300</ele>
        <time>2025-11-11T19:10:28.441Z</time>
      </trkpt>
      <trkpt lat="48.592904" lon="10.204943">
        <ele>463.492914</ele>
        <time>2025-11-11T19:10:30.791Z</time>
      </trkpt>
      <trkpt lat="48.592308" lon="10.205212">
        <ele>461.836372</ele>
        <time>2025-11-11T19:10:36.874Z</time>
      </trkpt>
      <trkpt lat="48.592165" lon="10.205265">
        <ele>461.444244</ele>
        <time>2025-11-11T19:10:38.384Z</time>
      </trkpt>
      <trkpt lat="48.592019" lon="10.205331">
        <ele>461.135385</ele>
        <time>2025-11-11T19:10:40.052Z</time>
      </trkpt>
      <trkpt lat="48.591835" lon="10.205410">
        <ele>460.901563</ele>
        <time>2025-11-11T19:10:42.338Z</time>
      </trkpt>
      <trkpt lat="48.591556" lon="10.205548">
        <ele>460.542716</ele>
        <time>2025-11-11T19:10:46.068Z</time>
      </trkpt>
      <trkpt lat="48.591306" lon="10.205622">
        <ele>460.231306</ele>
        <time>2025-11-11T19:10:49.369Z</time>
      </trkpt>
      <trkpt lat="48.591105" lon="10.205610">
        <ele>459.985405</ele>
        <time>2025-11-11T19:10:51.935Z</time>
      </trkpt>
      <trkpt lat="48.590680" lon="10.205571">
        <ele>459.464914</ele>
        <time>2025-11-11T19:10:56.923Z</time>
      </trkpt>
      <trkpt lat="48.590376" lon="10.205635">
        <ele>459.089709</ele>
        <time>2025-11-11T19:11:00.549Z</time>
      </trkpt>
      <trkpt lat="48.590069" lon="10.205700">
        <ele>459.201434</ele>
        <time>2025-11-11T19:11:04.655Z</time>
      </trkpt>
      <trkpt lat="48.589283" lon="10.205789">
        <ele>459.771955</ele>
        <time>2025-11-11T19:11:16.357Z</time>
      </trkpt>
      <trkpt lat="48.588739" lon="10.205868">
        <ele>460.167529</ele>
        <time>2025-11-11T19:11:28.340Z</time>
      </trkpt>
      <trkpt lat="48.587537" lon="10.206074">
        <ele>462.275628</ele>
        <time>2025-11-11T19:11:58.483Z</time>
      </trkpt>
      <trkpt lat="48.587028" lon="10.206255">
        <ele>463.299942</ele>
        <time>2025-11-11T19:12:09.444Z</time>
      </trkpt>
      <trkpt lat="48.586543" lon="10.206502">
        <ele>464.439369</ele>
        <time>2025-11-11T19:12:18.593Z</time>
      </trkpt>
      <trkpt lat="48.585394" lon="10.207231">
        <ele>467.609595</ele>
        <time>2025-11-11T19:12:49.613Z</time>
      </trkpt>
      <trkpt lat="48.584775" lon="10.207710">
        <ele>469.182055</ele>
        <time>2025-11-11T19:13:11.370Z</time>
      </trkpt>
      <trkpt lat="48.584488" lon="10.207954">
        <ele>469.847860</ele>
        <time>2025-11-11T19:13:20.781Z</time>
      </trkpt>
      <trkpt lat="48.584269" lon="10.208179">
        <ele>470.383277</ele>
        <time>2025-11-11T19:13:27.858Z</time>
      </trkpt>
      <trkpt lat="48.584143" lon="10.208318">
        <ele>470.698681</ele>
        <time>2025-11-11T19:13:31.646Z</time>
      </trkpt>
      <trkpt lat="48.583892" lon="10.208598">
        <ele>471.329444</ele>
        <time>2025-11-11T19:13:37.575Z</time>
      </trkpt>
      <trkpt lat="48.583381" lon="10.209251">
        <ele>471.280398</ele>
        <time>2025-11-11T19:13:46.086Z</time>
      </trkpt>
      <trkpt lat="48.583134" lon="10.209671">
        <ele>470.346476</ele>
        <time>2025-11-11T19:13:50.743Z</time>
      </trkpt>
      <trkpt lat="48.582954" lon="10.210061">
        <ele>469.556191</ele>
        <time>2025-11-11T19:13:54.447Z</time>
      </trkpt>
      <trkpt lat="48.582740" lon="10.210711">
        <ele>468.349583</ele>
        <time>2025-11-11T19:13:59.251Z</time>
      </trkpt>
      <trkpt lat="48.582492" lon="10.211595">
        <ele>465.670931</ele>
        <time>2025-11-11T19:14:05.185Z</time>
      </trkpt>
      <trkpt lat="48.582223" lon="10.212284">
        <ele>462.506931</ele>
        <time>2025-11-11T19:14:09.900Z</time>
      </trkpt>
      <trkpt lat="48.581609" lon="10.213341">
        <ele>456.943864</ele>
        <time>2025-11-11T19:14:18.277Z</time>
      </trkpt>
      <trkpt lat="48.581171" lon="10.212787">
        <ele>455.892979</ele>
        <time>2025-11-11T19:14:24.223Z</time>
      </trkpt>
      <trkpt lat="48.580861" lon="10.212457">
        <ele>455.271282</ele>
        <time>2025-11-11T19:14:28.811Z</time>
      </trkpt>
      <trkpt lat="48.580622" lon="10.212271">
        <ele>454.830509</ele>
        <time>2025-11-11T19:14:32.463Z</time>
      </trkpt>
      <trkpt lat="48.580235" lon="10.212029">
        <ele>454.143798</ele>
        <time>2025-11-11T19:14:38.531Z</time>
      </trkpt>
      <trkpt lat="48.579602" lon="10.211729">
        <ele>453.858810</ele>
        <time>2025-11-11T19:14:48.463Z</time>
      </trkpt>
      <trkpt lat="48.579216" lon="10.211624">
        <ele>453.876796</ele>
        <time>2025-11-11T19:14:54.005Z</time>
      </trkpt>
      <trkpt lat="48.578331" lon="10.211441">
        <ele>453.917758</ele>
        <time>2025-11-11T19:15:07.211Z</time>
      </trkpt>
      <trkpt lat="48.578098" lon="10.211315">
        <ele>453.980423</ele>
        <time>2025-11-11T19:15:11.459Z</time>
      </trkpt>
      <trkpt lat="48.577841" lon="10.211084">
        <ele>454.067022</ele>
        <time>2025-11-11T19:15:16.530Z</time>
      </trkpt>
      <trkpt lat="48.577668" lon="10.210781">
        <ele>454.143712</ele>
        <time>2025-11-11T19:15:20.839Z</time>
      </trkpt>
      <trkpt lat="48.577470" lon="10.210202">
        <ele>454.268600</ele>
        <time>2025-11-11T19:15:27.572Z</time>
      </trkpt>
      <trkpt lat="48.577331" lon="10.209807">
        <ele>454.354328</ele>
        <time>2025-11-11T19:15:32.109Z</time>
      </trkpt>
      <trkpt lat="48.577063" lon="10.209276">
        <ele>454.619663</ele>
        <time>2025-11-11T19:15:38.996Z</time>
      </trkpt>
      <trkpt lat="48.576444" lon="10.208390">
        <ele>455.675489</ele>
        <time>2025-11-11T19:15:54.367Z</time>
      </trkpt>
      <trkpt lat="48.576177" lon="10.208053">
        <ele>456.106303</ele>
        <time>2025-11-11T19:16:02.570Z</time>
      </trkpt>
      <trkpt lat="48.575657" lon="10.207465">
        <ele>457.082307</ele>
        <time>2025-11-11T19:16:16.984Z</time>
      </trkpt>
      <trkpt lat="48.575357" lon="10.207152">
        <ele>457.853270</ele>
        <time>2025-11-11T19:16:25.455Z</time>
      </trkpt>
      <trkpt lat="48.575214" lon="10.207009">
        <ele>458.215907</ele>
        <time>2025-11-11T19:16:29.618Z</time>
      </trkpt>
      <trkpt lat="48.575086" lon="10.206924">
        <ele>458.511594</ele>
        <time>2025-11-11T19:16:33.045Z</time>
      </trkpt>
      <trkpt lat="48.574591" lon="10.206704">
        <ele>459.602802</ele>
        <time>2025-11-11T19:16:45.486Z</time>
      </trkpt>
      <trkpt lat="48.574023" lon="10.206358">
        <ele>460.647252</ele>
        <time>2025-11-11T19:16:59.127Z</time>
      </trkpt>
      <trkpt lat="48.573826" lon="10.206283">
        <ele>460.824049</ele>
        <time>2025-11-11T19:17:04.040Z</time>
      </trkpt>
      <trkpt lat="48.573004" lon="10.206169">
        <ele>461.542408</ele>
        <time>2025-11-11T19:17:22.048Z</time>
      </trkpt>
      <trkpt lat="48.571938" lon="10.206075">
        <ele>462.463201</ele>
        <time>2025-11-11T19:17:34.656Z</time>
      </trkpt>
      <trkpt lat="48.571829" lon="10.206056">
        <ele>462.556824</ele>
        <time>2025-11-11T19:17:36.227Z</time>
      </trkpt>
      <trkpt lat="48.571246" lon="10.205833">
        <ele>463.069965</ele>
        <time>2025-11-11T19:17:47.206Z</time>
      </trkpt>
      <trkpt lat="48.570825" lon="10.205621">
        <ele>463.448607</ele>
        <time>2025-11-11T19:17:57.423Z</time>
      </trkpt>
      <trkpt lat="48.570666" lon="10.205598">
        <ele>463.593684</ele>
        <time>2025-11-11T19:18:01.430Z</time>
      </trkpt>
      <trkpt lat="48.570553" lon="10.205630">
        <ele>463.758407</ele>
        <time>2025-11-11T19:18:04.589Z</time>
      </trkpt>
      <trkpt lat="48.570386" lon="10.205753">
        <ele>464.024586</ele>
        <time>2025-11-11T19:18:10.097Z</time>
      </trkpt>
      <trkpt lat="48.570036" lon="10.206214">
        <ele>464.689795</ele>
        <time>2025-11-11T19:18:25.187Z</time>
      </trkpt>
      <trkpt lat="48.569910" lon="10.206402">
        <ele>464.943490</ele>
        <time>2025-11-11T19:18:29.428Z</time>
      </trkpt>
      <trkpt lat="48.569511" lon="10.207309">
        <ele>465.976096</ele>
        <time>2025-11-11T19:18:39.992Z</time>
      </trkpt>
      <trkpt lat="48.568937" lon="10.208451">
        <ele>464.765741</ele>
        <time>2025-11-11T19:18:50.543Z</time>
      </trkpt>
      <trkpt lat="48.568684" lon="10.209157">
        <ele>463.878436</ele>
        <time>2025-11-11T19:18:56.310Z</time>
      </trkpt>
      <trkpt lat="48.568341" lon="10.210704">
        <ele>462.299969</ele>
        <time>2025-11-11T19:19:08.667Z</time>
      </trkpt>
      <trkpt lat="48.568215" lon="10.211037">
        <ele>461.965054</ele>
        <time>2025-11-11T19:19:11.629Z</time>
      </trkpt>
      <trkpt lat="48.568121" lon="10.211176">
        <ele>461.791529</ele>
        <time>2025-11-11T19:19:13.172Z</time>
      </trkpt>
      <trkpt lat="48.567996" lon="10.211284">
        <ele>461.601549</ele>
        <time>2025-11-11T19:19:14.878Z</time>
      </trkpt>
      <trkpt lat="48.567817" lon="10.211348">
        <ele>461.358852</ele>
        <time>2025-11-11T19:19:17.061Z</time>
      </trkpt>
      <trkpt lat="48.567503" lon="10.211260">
        <ele>460.937490</ele>
        <time>2025-11-11T19:19:20.934Z</time>
      </trkpt>
      <trkpt lat="48.567372" lon="10.211144">
        <ele>460.745904</ele>
        <time>2025-11-11T19:19:22.809Z</time>
      </trkpt>
      <trkpt lat="48.567324" lon="10.211058">
        <ele>460.672387</ele>
        <time>2025-11-11T19:19:23.726Z</time>
      </trkpt>
      <trkpt lat="48.567287" lon="10.210682">
        <ele>460.423988</ele>
        <time>2025-11-11T19:19:26.835Z</time>
      </trkpt>
      <trkpt lat="48.567285" lon="10.209475">
        <ele>459.635271</ele>
        <time>2025-11-11T19:19:36.784Z</time>
      </trkpt>
      <trkpt lat="48.567342" lon="10.208301">
        <ele>458.984518</ele>
        <time>2025-11-11T19:19:46.104Z</time>
      </trkpt>
      <trkpt lat="48.567311" lon="10.208058">
        <ele>458.970447</ele>
        <time>2025-11-11T19:19:48.124Z</time>
      </trkpt>
      <trkpt lat="48.567271" lon="10.207944">
        <ele>458.963110</ele>
        <time>2025-11-11T19:19:49.171Z</time>
      </trkpt>
      <trkpt lat="48.567222" lon="10.207859">
        <ele>458.956700</ele>
        <time>2025-11-11T19:19:50.106Z</time>
      </trkpt>
      <trkpt lat="48.567154" lon="10.207807">
        <ele>458.950152</ele>
        <time>2025-11-11T19:19:51.061Z</time>
      </trkpt>
      <trkpt lat="48.566964" lon="10.207765">
        <ele>458.933652</ele>
        <time>2025-11-11T19:19:53.468Z</time>
      </trkpt>
      <trkpt lat="48.566709" lon="10.207826">
        <ele>458.911469</ele>
        <time>2025-11-11T19:19:56.727Z</time>
      </trkpt>
      <trkpt lat="48.566282" lon="10.208009">
        <ele>458.873332</ele>
        <time>2025-11-11T19:20:02.799Z</time>
      </trkpt>
      <trkpt lat="48.565796" lon="10.208303">
        <ele>459.493321</ele>
        <time>2025-11-11T19:20:12.453Z</time>
      </trkpt>
      <trkpt lat="48.565676" lon="10.208379">
        <ele>460.058007</ele>
        <time>2025-11-11T19:20:15.967Z</time>
      </trkpt>
      <trkpt lat="48.564956" lon="10.209013">
        <ele>463.674599</ele>
        <time>2025-11-11T19:20:43.316Z</time>
      </trkpt>
      <trkpt lat="48.564850" lon="10.209069">
        <ele>464.161939</ele>
        <time>2025-11-11T19:20:47.423Z</time>
      </trkpt>
      <trkpt lat="48.564699" lon="10.209074">
        <ele>464.817430</ele>
        <time>2025-11-11T19:20:53.157Z</time>
      </trkpt>
      <trkpt lat="48.564537" lon="10.208908">
        <ele>465.666909</ele>
        <time>2025-11-11T19:21:00.828Z</time>
      </trkpt>
      <trkpt lat="48.563921" lon="10.207652">
        <ele>469.812976</ele>
        <time>2025-11-11T19:21:41.706Z</time>
      </trkpt>
      <trkpt lat="48.563738" lon="10.207147">
        <ele>471.304553</ele>
        <time>2025-11-11T19:21:53.543Z</time>
      </trkpt>
      <trkpt lat="48.563698" lon="10.206898">
        <ele>471.968361</ele>
        <time>2025-11-11T19:21:58.136Z</time>
      </trkpt>
      <trkpt lat="48.563713" lon="10.205679">
        <ele>473.249406</ele>
        <time>2025-11-11T19:22:13.124Z</time>
      </trkpt>
      <trkpt lat="48.563848" lon="10.204191">
        <ele>472.062189</ele>
        <time>2025-11-11T19:22:24.045Z</time>
      </trkpt>
      <trkpt lat="48.563860" lon="10.203720">
        <ele>471.689604</ele>
        <time>2025-11-11T19:22:27.347Z</time>
      </trkpt>
      <trkpt lat="48.563759" lon="10.202289">
        <ele>470.253111</ele>
        <time>2025-11-11T19:22:38.067Z</time>
      </trkpt>
      <trkpt lat="48.563758" lon="10.202031">
        <ele>469.987459</ele>
        <time>2025-11-11T19:22:40.151Z</time>
      </trkpt>
      <trkpt lat="48.563756" lon="10.201550">
        <ele>469.492193</ele>
        <time>2025-11-11T19:22:44.047Z</time>
      </trkpt>
      <trkpt lat="48.563821" lon="10.199459">
        <ele>467.202308</ele>
        <time>2025-11-11T19:22:59.984Z</time>
      </trkpt>
      <trkpt lat="48.563857" lon="10.199137">
        <ele>466.833863</ele>
        <time>2025-11-11T19:23:02.382Z</time>
      </trkpt>
      <trkpt lat="48.564216" lon="10.197396">
        <ele>465.290699</ele>
        <time>2025-11-11T19:23:15.632Z</time>
      </trkpt>
      <trkpt lat="48.564256" lon="10.196792">
        <ele>464.997746</ele>
        <time>2025-11-11T19:23:20.383Z</time>
      </trkpt>
      <trkpt lat="48.564211" lon="10.196144">
        <ele>464.683296</ele>
        <time>2025-11-11T19:23:26.463Z</time>
      </trkpt>
      <trkpt lat="48.564097" lon="10.195665">
        <ele>464.437630</ele>
        <time>2025-11-11T19:23:32.262Z</time>
      </trkpt>
      <trkpt lat="48.563977" lon="10.195342">
        <ele>464.471019</ele>
        <time>2025-11-11T19:23:36.611Z</time>
      </trkpt>
      <trkpt lat="48.563793" lon="10.195001">
        <ele>464.689510</ele>
        <time>2025-11-11T19:23:41.834Z</time>
      </trkpt>
      <trkpt lat="48.563630" lon="10.194832">
        <ele>464.837845</ele>
        <time>2025-11-11T19:23:45.414Z</time>
      </trkpt>
      <trkpt lat="48.563486" lon="10.194735">
        <ele>464.956150</ele>
        <time>2025-11-11T19:23:48.277Z</time>
      </trkpt>
      <trkpt lat="48.563246" lon="10.194683">
        <ele>465.138083</ele>
        <time>2025-11-11T19:23:52.666Z</time>
      </trkpt>
      <trkpt lat="48.563071" lon="10.194712">
        <ele>465.270187</ele>
        <time>2025-11-11T19:23:55.886Z</time>
      </trkpt>
      <trkpt lat="48.562689" lon="10.194835">
        <ele>465.563268</ele>
        <time>2025-11-11T19:24:02.886Z</time>
      </trkpt>
      <trkpt lat="48.562438" lon="10.194971">
        <ele>465.773449</ele>
        <time>2025-11-11T19:24:07.392Z</time>
      </trkpt>
      <trkpt lat="48.562202" lon="10.195054">
        <ele>465.991780</ele>
        <time>2025-11-11T19:24:11.523Z</time>
      </trkpt>
      <trkpt lat="48.561584" lon="10.195182">
        <ele>466.553835</ele>
        <time>2025-11-11T19:24:23.462Z</time>
      </trkpt>
      <trkpt lat="48.561310" lon="10.195151">
        <ele>466.801413</ele>
        <time>2025-11-11T19:24:28.667Z</time>
      </trkpt>
      <trkpt lat="48.560966" lon="10.194906">
        <ele>467.144080</ele>
        <time>2025-11-11T19:24:35.548Z</time>
      </trkpt>
      <trkpt lat="48.559965" lon="10.193683">
        <ele>469.439432</ele>
        <time>2025-11-11T19:24:59.891Z</time>
      </trkpt>
      <trkpt lat="48.559887" lon="10.193501">
        <ele>469.720052</ele>
        <time>2025-11-11T19:25:03.376Z</time>
      </trkpt>
      <trkpt lat="48.559869" lon="10.193445">
        <ele>469.800623</ele>
        <time>2025-11-11T19:25:04.361Z</time>
      </trkpt>
      <trkpt lat="48.559773" lon="10.193492">
        <ele>469.997960</ele>
        <time>2025-11-11T19:25:07.069Z</time>
      </trkpt>
      <trkpt lat="48.559668" lon="10.193497">
        <ele>470.203388</ele>
        <time>2025-11-11T19:25:09.903Z</time>
      </trkpt>
      <trkpt lat="48.559148" lon="10.193428">
        <ele>471.330112</ele>
        <time>2025-11-11T19:25:25.478Z</time>
      </trkpt>
      <trkpt lat="48.558776" lon="10.193434">
        <ele>472.264151</ele>
        <time>2025-11-11T19:25:37.060Z</time>
      </trkpt>
      <trkpt lat="48.558625" lon="10.193490">
        <ele>472.654522</ele>
        <time>2025-11-11T19:25:41.670Z</time>
      </trkpt>
      <trkpt lat="48.558483" lon="10.193605">
        <ele>473.059029</ele>
        <time>2025-11-11T19:25:46.119Z</time>
      </trkpt>
      <trkpt lat="48.558366" lon="10.193777">
        <ele>473.468886</ele>
        <time>2025-11-11T19:25:50.311Z</time>
      </trkpt>
      <trkpt lat="48.558259" lon="10.194069">
        <ele>474.023517</ele>
        <time>2025-11-11T19:25:55.522Z</time>
      </trkpt>
      <trkpt lat="48.558167" lon="10.194367">
        <ele>474.569938</ele>
        <time>2025-11-11T19:26:00.185Z</time>
      </trkpt>
      <trkpt lat="48.557991" lon="10.195127">
        <ele>475.508690</ele>
        <time>2025-11-11T19:26:09.342Z</time>
      </trkpt>
      <trkpt lat="48.557611" lon="10.196582">
        <ele>476.190009</ele>
        <time>2025-11-11T19:26:26.895Z</time>
      </trkpt>
      <trkpt lat="48.557532" lon="10.197112">
        <ele>476.426647</ele>
        <time>2025-11-11T19:26:33.654Z</time>
      </trkpt>
      <trkpt lat="48.557378" lon="10.197808">
        <ele>476.383162</ele>
        <time>2025-11-11T19:26:41.849Z</time>
      </trkpt>
      <trkpt lat="48.557257" lon="10.198390">
        <ele>476.155917</ele>
        <time>2025-11-11T19:26:47.729Z</time>
      </trkpt>
      <trkpt lat="48.557231" lon="10.198697">
        <ele>476.040624</ele>
        <time>2025-11-11T19:26:50.407Z</time>
      </trkpt>
      <trkpt lat="48.557256" lon="10.200391">
        <ele>475.683387</ele>
        <time>2025-11-11T19:27:03.215Z</time>
      </trkpt>
      <trkpt lat="48.557255" lon="10.202806">
        <ele>476.812602</ele>
        <time>2025-11-11T19:27:30.695Z</time>
      </trkpt>
      <trkpt lat="48.556073" lon="10.202310">
        <ele>482.542885</ele>
        <time>2025-11-11T19:28:12.434Z</time>
      </trkpt>
      <trkpt lat="48.555959" lon="10.202214">
        <ele>483.152526</ele>
        <time>2025-11-11T19:28:17.874Z</time>
      </trkpt>
      <trkpt lat="48.555889" lon="10.202218">
        <ele>483.479739</ele>
        <time>2025-11-11T19:28:20.692Z</time>
      </trkpt>
      <trkpt lat="48.555001" lon="10.201670">
        <ele>487.013701</ele>
        <time>2025-11-11T19:28:58.287Z</time>
      </trkpt>
      <trkpt lat="48.554718" lon="10.201356">
        <ele>488.114700</ele>
        <time>2025-11-11T19:29:08.452Z</time>
      </trkpt>
      <trkpt lat="48.554687" lon="10.201296">
        <ele>488.272678</ele>
        <time>2025-11-11T19:29:09.741Z</time>
      </trkpt>
      <trkpt lat="48.554592" lon="10.201110">
        <ele>488.760295</ele>
        <time>2025-11-11T19:29:13.473Z</time>
      </trkpt>
      <trkpt lat="48.554493" lon="10.200910">
        <ele>489.278639</ele>
        <time>2025-11-11T19:29:17.007Z</time>
      </trkpt>
      <trkpt lat="48.553986" lon="10.201440">
        <ele>490.766249</ele>
        <time>2025-11-11T19:29:26.243Z</time>
      </trkpt>
      <trkpt lat="48.553072" lon="10.202488">
        <ele>491.102257</ele>
        <time>2025-11-11T19:29:41.705Z</time>
      </trkpt>
      <trkpt lat="48.552797" lon="10.202617">
        <ele>491.186579</ele>
        <time>2025-11-11T19:29:47.242Z</time>
      </trkpt>
      <trkpt lat="48.552513" lon="10.202683">
        <ele>491.373227</ele>
        <time>2025-11-11T19:29:53.155Z</time>
      </trkpt>
      <trkpt lat="48.551509" lon="10.202489">
        <ele>492.952966</ele>
        <time>2025-11-11T19:30:16.655Z</time>
      </trkpt>
      <trkpt lat="48.551181" lon="10.202475">
        <ele>493.465090</ele>
        <time>2025-11-11T19:30:23.237Z</time>
      </trkpt>
      <trkpt lat="48.550934" lon="10.202484">
        <ele>493.850702</ele>
        <time>2025-11-11T19:30:28.138Z</time>
      </trkpt>
      <trkpt lat="48.550804" lon="10.202503">
        <ele>494.054353</ele>
        <time>2025-11-11T19:30:30.764Z</time>
      </trkpt>
      <trkpt lat="48.550796" lon="10.202420">
        <ele>494.085403</ele>
        <time>2025-11-11T19:30:31.640Z</time>
      </trkpt>
      <trkpt lat="48.550715" lon="10.202229">
        <ele>494.169377</ele>
        <time>2025-11-11T19:30:34.510Z</time>
      </trkpt>
      <trkpt lat="48.550557" lon="10.202190">
        <ele>494.258909</ele>
        <time>2025-11-11T19:30:37.497Z</time>
      </trkpt>
      <trkpt lat="48.550319" lon="10.202240">
        <ele>494.393291</ele>
        <time>2025-11-11T19:30:41.861Z</time>
      </trkpt>
      <trkpt lat="48.549658" lon="10.202395">
        <ele>494.767381</ele>
        <time>2025-11-11T19:30:51.703Z</time>
      </trkpt>
      <trkpt lat="48.549500" lon="10.202444">
        <ele>494.857584</ele>
        <time>2025-11-11T19:30:54.337Z</time>
      </trkpt>
      <trkpt lat="48.549205" lon="10.202407">
        <ele>495.023130</ele>
        <time>2025-11-11T19:30:59.175Z</time>
      </trkpt>
      <trkpt lat="48.549020" lon="10.202293">
        <ele>495.266698</ele>
        <time>2025-11-11T19:31:02.638Z</time>
      </trkpt>
      <trkpt lat="48.548819" lon="10.202078">
        <ele>495.647392</ele>
        <time>2025-11-11T19:31:07.285Z</time>
      </trkpt>
      <trkpt lat="48.548457" lon="10.201527">
        <ele>496.441736</ele>
        <time>2025-11-11T19:31:18.051Z</time>
      </trkpt>
      <trkpt lat="48.548348" lon="10.201425">
        <ele>496.639929</ele>
        <time>2025-11-11T19:31:20.872Z</time>
      </trkpt>
      <trkpt lat="48.547741" lon="10.201144">
        <ele>497.621257</ele>
        <time>2025-11-11T19:31:35.568Z</time>
      </trkpt>
      <trkpt lat="48.546920" lon="10.200725">
        <ele>498.902756</ele>
        <time>2025-11-11T19:31:55.523Z</time>
      </trkpt>
      <trkpt lat="48.546755" lon="10.200672">
        <ele>499.150002</ele>
        <time>2025-11-11T19:31:59.052Z</time>
      </trkpt>
      <trkpt lat="48.546555" lon="10.200652">
        <ele>499.443782</ele>
        <time>2025-11-11T19:32:02.949Z</time>
      </trkpt>
      <trkpt lat="48.545881" lon="10.200724">
        <ele>500.434124</ele>
        <time>2025-11-11T19:32:15.571Z</time>
      </trkpt>
      <trkpt lat="48.545379" lon="10.200712">
        <ele>500.994496</ele>
        <time>2025-11-11T19:32:24.641Z</time>
      </trkpt>
      <trkpt lat="48.544583" lon="10.200499">
        <ele>501.879464</ele>
        <time>2025-11-11T19:32:39.357Z</time>
      </trkpt>
      <trkpt lat="48.544233" lon="10.200535">
        <ele>502.263504</ele>
        <time>2025-11-11T19:32:45.985Z</time>
      </trkpt>
      <trkpt lat="48.543115" lon="10.200352">
        <ele>504.712286</ele>
        <time>2025-11-11T19:33:12.317Z</time>
      </trkpt>
      <trkpt lat="48.542938" lon="10.200366">
        <ele>505.131566</ele>
        <time>2025-11-11T19:33:16.910Z</time>
      </trkpt>
      <trkpt lat="48.542813" lon="10.200419">
        <ele>505.438693</ele>
        <time>2025-11-11T19:33:20.358Z</time>
      </trkpt>
      <trkpt lat="48.542553" lon="10.200637">
        <ele>506.142152</ele>
        <time>2025-11-11T19:33:28.339Z</time>
      </trkpt>
      <trkpt lat="48.542229" lon="10.201091">
        <ele>506.963598</ele>
        <time>2025-11-11T19:33:40.087Z</time>
      </trkpt>
      <trkpt lat="48.541901" lon="10.201091">
        <ele>507.382709</ele>
        <time>2025-11-11T19:33:48.328Z</time>
      </trkpt>
      <trkpt lat="48.541493" lon="10.200981">
        <ele>507.912282</ele>
        <time>2025-11-11T19:33:57.483Z</time>
      </trkpt>
      <trkpt lat="48.539412" lon="10.200205">
        <ele>509.031984</ele>
        <time>2025-11-11T19:34:29.446Z</time>
      </trkpt>
      <trkpt lat="48.539029" lon="10.199979">
        <ele>509.042565</ele>
        <time>2025-11-11T19:34:35.143Z</time>
      </trkpt>
      <trkpt lat="48.538721" lon="10.199622">
        <ele>509.334943</ele>
        <time>2025-11-11T19:34:41.094Z</time>
      </trkpt>
      <trkpt lat="48.538472" lon="10.199227">
        <ele>509.691041</ele>
        <time>2025-11-11T19:34:47.387Z</time>
      </trkpt>
      <trkpt lat="48.538234" lon="10.198878">
        <ele>510.018160</ele>
        <time>2025-11-11T19:34:53.816Z</time>
      </trkpt>
      <trkpt lat="48.538007" lon="10.198616">
        <ele>510.299891</ele>
        <time>2025-11-11T19:34:59.752Z</time>
      </trkpt>
      <trkpt lat="48.537739" lon="10.198423">
        <ele>510.592676</ele>
        <time>2025-11-11T19:35:06.154Z</time>
      </trkpt>
      <trkpt lat="48.537557" lon="10.198337">
        <ele>510.780728</ele>
        <time>2025-11-11T19:35:10.407Z</time>
      </trkpt>
      <trkpt lat="48.536264" lon="10.197703">
        <ele>511.342833</ele>
        <time>2025-11-11T19:35:37.198Z</time>
      </trkpt>
      <trkpt lat="48.536239" lon="10.197690">
        <ele>511.353325</ele>
        <time>2025-11-11T19:35:37.549Z</time>
      </trkpt>
      <trkpt lat="48.536116" lon="10.197629">
        <ele>511.404696</ele>
        <time>2025-11-11T19:35:39.269Z</time>
      </trkpt>
      <trkpt lat="48.535725" lon="10.197414">
        <ele>511.211170</ele>
        <time>2025-11-11T19:35:44.219Z</time>
      </trkpt>
      <trkpt lat="48.534957" lon="10.196371">
        <ele>507.694760</ele>
        <time>2025-11-11T19:35:54.592Z</time>
      </trkpt>
      <trkpt lat="48.534746" lon="10.196130">
        <ele>506.794084</ele>
        <time>2025-11-11T19:35:57.086Z</time>
      </trkpt>
      <trkpt lat="48.533853" lon="10.195251">
        <ele>504.543692</ele>
        <time>2025-11-11T19:36:07.367Z</time>
      </trkpt>
      <trkpt lat="48.533378" lon="10.194899">
        <ele>503.849144</ele>
        <time>2025-11-11T19:36:13.457Z</time>
      </trkpt>
      <trkpt lat="48.532805" lon="10.194887">
        <ele>503.096908</ele>
        <time>2025-11-11T19:36:24.585Z</time>
      </trkpt>
      <trkpt lat="48.532223" lon="10.194859">
        <ele>504.081748</ele>
        <time>2025-11-11T19:36:41.292Z</time>
      </trkpt>
      <trkpt lat="48.531668" lon="10.194761">
        <ele>505.142123</ele>
        <time>2025-11-11T19:36:57.165Z</time>
      </trkpt>
      <trkpt lat="48.531512" lon="10.194693">
        <ele>505.450244</ele>
        <time>2025-11-11T19:37:01.154Z</time>
      </trkpt>
      <trkpt lat="48.531345" lon="10.194737">
        <ele>505.771940</ele>
        <time>2025-11-11T19:37:04.805Z</time>
      </trkpt>
      <trkpt lat="48.531236" lon="10.194812">
        <ele>505.999244</ele>
        <time>2025-11-11T19:37:07.081Z</time>
      </trkpt>
      <trkpt lat="48.531194" lon="10.194468">
        <ele>506.438818</ele>
        <time>2025-11-11T19:37:10.572Z</time>
      </trkpt>
      <trkpt lat="48.531176" lon="10.194315">
        <ele>506.125396</ele>
        <time>2025-11-11T19:37:11.915Z</time>
      </trkpt>
      <trkpt lat="48.531131" lon="10.193988">
        <ele>505.311772</ele>
        <time>2025-11-11T19:37:14.477Z</time>
      </trkpt>
      <trkpt lat="48.531093" lon="10.193705">
        <ele>504.608325</ele>
        <time>2025-11-11T19:37:16.498Z</time>
      </trkpt>
      <trkpt lat="48.531041" lon="10.193468">
        <ele>504.000103</ele>
        <time>2025-11-11T19:37:18.136Z</time>
      </trkpt>
      <trkpt lat="48.530982" lon="10.193195">
        <ele>503.300525</ele>
        <time>2025-11-11T19:37:19.945Z</time>
      </trkpt>
      <trkpt lat="48.530929" lon="10.192944">
        <ele>502.658729</ele>
        <time>2025-11-11T19:37:21.572Z</time>
      </trkpt>
      <trkpt lat="48.530797" lon="10.192613">
        <ele>501.717449</ele>
        <time>2025-11-11T19:37:23.932Z</time>
      </trkpt>
      <trkpt lat="48.530557" lon="10.192268">
        <ele>500.498482</ele>
        <time>2025-11-11T19:37:26.964Z</time>
      </trkpt>
      <trkpt lat="48.530394" lon="10.191852">
        <ele>499.696293</ele>
        <time>2025-11-11T19:37:29.963Z</time>
      </trkpt>
      <trkpt lat="48.530351" lon="10.191790">
        <ele>499.634451</ele>
        <time>2025-11-11T19:37:30.545Z</time>
      </trkpt>
      <trkpt lat="48.530329" lon="10.191759">
        <ele>499.603152</ele>
        <time>2025-11-11T19:37:30.839Z</time>
      </trkpt>
      <trkpt lat="48.530255" lon="10.191664">
        <ele>499.502122</ele>
        <time>2025-11-11T19:37:31.786Z</time>
      </trkpt>
      <trkpt lat="48.529837" lon="10.191493">
        <ele>499.051657</ele>
        <time>2025-11-11T19:37:36.319Z</time>
      </trkpt>
      <trkpt lat="48.529725" lon="10.191408">
        <ele>498.921271</ele>
        <time>2025-11-11T19:37:37.788Z</time>
      </trkpt>
      <trkpt lat="48.529588" lon="10.191121">
        <ele>498.677569</ele>
        <time>2025-11-11T19:37:41.020Z</time>
      </trkpt>
      <trkpt lat="48.529562" lon="10.190912">
        <ele>498.531084</ele>
        <time>2025-11-11T19:37:43.409Z</time>
      </trkpt>
      <trkpt lat="48.529569" lon="10.190462">
        <ele>498.221021</ele>
        <time>2025-11-11T19:37:49.593Z</time>
      </trkpt>
      <trkpt lat="48.529571" lon="10.190397">
        <ele>498.176198</ele>
        <time>2025-11-11T19:37:50.613Z</time>
      </trkpt>
      <trkpt lat="48.529604" lon="10.190138">
        <ele>497.994517</ele>
        <time>2025-11-11T19:37:54.940Z</time>
      </trkpt>
      <trkpt lat="48.529639" lon="10.189860">
        <ele>498.423850</ele>
        <time>2025-11-11T19:38:00.135Z</time>
      </trkpt>
      <trkpt lat="48.529651" lon="10.189622">
        <ele>498.850081</ele>
        <time>2025-11-11T19:38:04.718Z</time>
      </trkpt>
      <trkpt lat="48.529641" lon="10.189340">
        <ele>499.354376</ele>
        <time>2025-11-11T19:38:09.925Z</time>
      </trkpt>
      <trkpt lat="48.529582" lon="10.188514">
        <ele>500.837938</ele>
        <time>2025-11-11T19:38:24.845Z</time>
      </trkpt>
      <trkpt lat="48.529569" lon="10.188298">
        <ele>501.225244</ele>
        <time>2025-11-11T19:38:28.546Z</time>
      </trkpt>
      <trkpt lat="48.529555" lon="10.187985">
        <ele>501.785449</ele>
        <time>2025-11-11T19:38:33.599Z</time>
      </trkpt>
      <trkpt lat="48.529509" lon="10.187577">
        <ele>502.524508</ele>
        <time>2025-11-11T19:38:40.115Z</time>
      </trkpt>
      <trkpt lat="48.529425" lon="10.187283">
        <ele>503.117793</ele>
        <time>2025-11-11T19:38:45.274Z</time>
      </trkpt>
      <trkpt lat="48.529273" lon="10.186934">
        <ele>503.922500</ele>
        <time>2025-11-11T19:38:52.272Z</time>
      </trkpt>
      <trkpt lat="48.529418" lon="10.186779">
        <ele>504.439304</ele>
        <time>2025-11-11T19:38:56.779Z</time>
      </trkpt>
      <trkpt lat="48.529442" lon="10.186663">
        <ele>504.673425</ele>
        <time>2025-11-11T19:38:58.824Z</time>
      </trkpt>
      <trkpt lat="48.529429" lon="10.186082">
        <ele>505.793338</ele>
        <time>2025-11-11T19:39:08.843Z</time>
      </trkpt>
      <trkpt lat="48.529456" lon="10.185338">
        <ele>507.228775</ele>
        <time>2025-11-11T19:39:21.935Z</time>
      </trkpt>
      <trkpt lat="48.529455" lon="10.185265">
        <ele>507.369437</ele>
        <time>2025-11-11T19:39:23.208Z</time>
      </trkpt>
      <trkpt lat="48.529454" lon="10.184920">
        <ele>508.034072</ele>
        <time>2025-11-11T19:39:29.646Z</time>
      </trkpt>
      <trkpt lat="48.529453" lon="10.184767">
        <ele>508.371918</ele>
        <time>2025-11-11T19:39:32.651Z</time>
      </trkpt>
      <trkpt lat="48.529452" lon="10.184558">
        <ele>508.838079</ele>
        <time>2025-11-11T19:39:36.808Z</time>
      </trkpt>
      <trkpt lat="48.529424" lon="10.184000">
        <ele>510.086198</ele>
        <time>2025-11-11T19:39:48.145Z</time>
      </trkpt>
      <trkpt lat="48.529238" lon="10.182636">
        <ele>513.192266</ele>
        <time>2025-11-11T19:40:15.747Z</time>
      </trkpt>
      <trkpt lat="48.529200" lon="10.181822">
        <ele>514.299747</ele>
        <time>2025-11-11T19:40:29.632Z</time>
      </trkpt>
      <trkpt lat="48.529302" lon="10.180696">
        <ele>514.825023</ele>
        <time>2025-11-11T19:40:42.817Z</time>
      </trkpt>
      <trkpt lat="48.529526" lon="10.178816">
        <ele>515.884880</ele>
        <time>2025-11-11T19:40:59.573Z</time>
      </trkpt>
      <trkpt lat="48.529790" lon="10.176846">
        <ele>517.307245</ele>
        <time>2025-11-11T19:41:28.127Z</time>
      </trkpt>
      <trkpt lat="48.529921" lon="10.176435">
        <ele>517.769236</ele>
        <time>2025-11-11T19:41:35.352Z</time>
      </trkpt>
      <trkpt lat="48.530100" lon="10.175899">
        <ele>518.377250</ele>
        <time>2025-11-11T19:41:44.226Z</time>
      </trkpt>
      <trkpt lat="48.530131" lon="10.175045">
        <ele>519.243523</ele>
        <time>2025-11-11T19:41:55.877Z</time>
      </trkpt>
      <trkpt lat="48.530060" lon="10.174415">
        <ele>519.890793</ele>
        <time>2025-11-11T19:42:04.326Z</time>
      </trkpt>
      <trkpt lat="48.529758" lon="10.171864">
        <ele>521.238680</ele>
        <time>2025-11-11T19:42:36.213Z</time>
      </trkpt>
      <trkpt lat="48.529663" lon="10.171567">
        <ele>521.379842</ele>
        <time>2025-11-11T19:42:39.259Z</time>
      </trkpt>
      <trkpt lat="48.529657" lon="10.171456">
        <ele>521.399591</ele>
        <time>2025-11-11T19:42:40.260Z</time>
      </trkpt>
      <trkpt lat="48.530363" lon="10.171488">
        <ele>521.588726</ele>
        <time>2025-11-11T19:42:49.614Z</time>
      </trkpt>
      <trkpt lat="48.530635" lon="10.171579">
        <ele>521.663328</ele>
        <time>2025-11-11T19:42:53.517Z</time>
      </trkpt>
      <trkpt lat="48.530957" lon="10.171757">
        <ele>521.755147</ele>
        <time>2025-11-11T19:42:58.581Z</time>
      </trkpt>
      <trkpt lat="48.531036" lon="10.170285">
        <ele>523.471127</ele>
        <time>2025-11-11T19:43:19.454Z</time>
      </trkpt>
      <trkpt lat="48.531025" lon="10.169909">
        <ele>524.117179</ele>
        <time>2025-11-11T19:43:26.197Z</time>
      </trkpt>
      <trkpt lat="48.530972" lon="10.169134">
        <ele>525.454579</ele>
        <time>2025-11-11T19:43:40.606Z</time>
      </trkpt>
      <trkpt lat="48.530770" lon="10.167098">
        <ele>529.481962</ele>
        <time>2025-11-11T19:44:18.511Z</time>
      </trkpt>
      <trkpt lat="48.530726" lon="10.166684">
        <ele>530.345121</ele>
        <time>2025-11-11T19:44:26.075Z</time>
      </trkpt>
      <trkpt lat="48.530727" lon="10.166498">
        <ele>530.728030</ele>
        <time>2025-11-11T19:44:29.417Z</time>
      </trkpt>
      <trkpt lat="48.530762" lon="10.166104">
        <ele>531.546376</ele>
        <time>2025-11-11T19:44:36.510Z</time>
      </trkpt>
      <trkpt lat="48.531144" lon="10.163172">
        <ele>537.167199</ele>
        <time>2025-11-11T19:45:28.398Z</time>
      </trkpt>
      <trkpt lat="48.531307" lon="10.161409">
        <ele>540.057866</ele>
        <time>2025-11-11T19:45:56.774Z</time>
      </trkpt>
      <trkpt lat="48.531274" lon="10.161297">
        <ele>540.256931</ele>
        <time>2025-11-11T19:45:58.747Z</time>
      </trkpt>
      <trkpt lat="48.531116" lon="10.161281">
        <ele>540.645249</ele>
        <time>2025-11-11T19:46:02.654Z</time>
      </trkpt>
      <trkpt lat="48.530792" lon="10.161248">
        <ele>541.441569</ele>
        <time>2025-11-11T19:46:10.835Z</time>
      </trkpt>
      <trkpt lat="48.529917" lon="10.161234">
        <ele>542.728264</ele>
        <time>2025-11-11T19:46:32.765Z</time>
      </trkpt>
      <trkpt lat="48.529278" lon="10.161173">
        <ele>543.628011</ele>
        <time>2025-11-11T19:46:46.024Z</time>
      </trkpt>
      <trkpt lat="48.529489" lon="10.158271">
        <ele>542.622331</ele>
        <time>2025-11-11T19:47:10.102Z</time>
      </trkpt>
      <trkpt lat="48.529794" lon="10.153932">
        <ele>538.215670</ele>
        <time>2025-11-11T19:47:42.630Z</time>
      </trkpt>
      <trkpt lat="48.530056" lon="10.150282">
        <ele>535.215544</ele>
        <time>2025-11-11T19:48:12.234Z</time>
      </trkpt>
      <trkpt lat="48.530031" lon="10.150055">
        <ele>535.040360</ele>
        <time>2025-11-11T19:48:13.961Z</time>
      </trkpt>
      <trkpt lat="48.529810" lon="10.149219">
        <ele>533.617469</ele>
        <time>2025-11-11T19:48:20.818Z</time>
      </trkpt>
      <trkpt lat="48.529708" lon="10.148758">
        <ele>532.742658</ele>
        <time>2025-11-11T19:48:24.257Z</time>
      </trkpt>
      <trkpt lat="48.529673" lon="10.148497">
        <ele>532.263366</ele>
        <time>2025-11-11T19:48:26.049Z</time>
      </trkpt>
      <trkpt lat="48.529699" lon="10.147780">
        <ele>530.970949</ele>
        <time>2025-11-11T19:48:30.720Z</time>
      </trkpt>
      <trkpt lat="48.528964" lon="10.147632">
        <ele>529.454387</ele>
        <time>2025-11-11T19:48:38.220Z</time>
      </trkpt>
      <trkpt lat="48.528892" lon="10.147586">
        <ele>529.342667</ele>
        <time>2025-11-11T19:48:39.013Z</time>
      </trkpt>
      <trkpt lat="48.528773" lon="10.147312">
        <ele>529.032577</ele>
        <time>2025-11-11T19:48:41.184Z</time>
      </trkpt>
      <trkpt lat="48.528826" lon="10.147210">
        <ele>528.909882</ele>
        <time>2025-11-11T19:48:42.039Z</time>
      </trkpt>
      <trkpt lat="48.528938" lon="10.146938">
        <ele>528.606771</ele>
        <time>2025-11-11T19:48:44.165Z</time>
      </trkpt>
      <trkpt lat="48.529086" lon="10.146358">
        <ele>528.018547</ele>
        <time>2025-11-11T19:48:49.283Z</time>
      </trkpt>
      <trkpt lat="48.529118" lon="10.146240">
        <ele>527.897877</ele>
        <time>2025-11-11T19:48:50.638Z</time>
      </trkpt>
      <trkpt lat="48.529248" lon="10.145829">
        <ele>527.466838</ele>
        <time>2025-11-11T19:48:57.103Z</time>
      </trkpt>
      <trkpt lat="48.529350" lon="10.145616">
        <ele>527.856284</ele>
        <time>2025-11-11T19:49:01.646Z</time>
      </trkpt>
      <trkpt lat="48.529445" lon="10.145529">
        <ele>528.160226</ele>
        <time>2025-11-11T19:49:04.597Z</time>
      </trkpt>
      <trkpt lat="48.529616" lon="10.145493">
        <ele>528.632541</ele>
        <time>2025-11-11T19:49:09.246Z</time>
      </trkpt>
      <trkpt lat="48.529781" lon="10.145538">
        <ele>529.091220</ele>
        <time>2025-11-11T19:49:13.900Z</time>
      </trkpt>
      <trkpt lat="48.530585" lon="10.145732">
        <ele>531.318557</ele>
        <time>2025-11-11T19:49:38.675Z</time>
      </trkpt>
      <trkpt lat="48.530739" lon="10.145766">
        <ele>531.744321</ele>
        <time>2025-11-11T19:49:43.016Z</time>
      </trkpt>
      <trkpt lat="48.531395" lon="10.145891">
        <ele>531.589834</ele>
        <time>2025-11-11T19:49:56.973Z</time>
      </trkpt>
      <trkpt lat="48.531928" lon="10.145982">
        <ele>530.647743</ele>
        <time>2025-11-11T19:50:03.538Z</time>
      </trkpt>
      <trkpt lat="48.532204" lon="10.145990">
        <ele>530.162906</ele>
        <time>2025-11-11T19:50:06.355Z</time>
      </trkpt>
      <trkpt lat="48.532526" lon="10.145944">
        <ele>529.594841</ele>
        <time>2025-11-11T19:50:09.476Z</time>
      </trkpt>
      <trkpt lat="48.532895" lon="10.145765">
        <ele>528.317311</ele>
        <time>2025-11-11T19:50:13.093Z</time>
      </trkpt>
      <trkpt lat="48.533223" lon="10.145489">
        <ele>526.273479</ele>
        <time>2025-11-11T19:50:16.541Z</time>
      </trkpt>
      <trkpt lat="48.533716" lon="10.144931">
        <ele>522.919915</ele>
        <time>2025-11-11T19:50:22.143Z</time>
      </trkpt>
      <trkpt lat="48.534168" lon="10.144333">
        <ele>519.648971</ele>
        <time>2025-11-11T19:50:27.751Z</time>
      </trkpt>
      <trkpt lat="48.534479" lon="10.143758">
        <ele>517.925648</ele>
        <time>2025-11-11T19:50:32.574Z</time>
      </trkpt>
      <trkpt lat="48.534596" lon="10.143484">
        <ele>517.210272</ele>
        <time>2025-11-11T19:50:34.787Z</time>
      </trkpt>
      <trkpt lat="48.534700" lon="10.143201">
        <ele>516.500096</ele>
        <time>2025-11-11T19:50:37.020Z</time>
      </trkpt>
      <trkpt lat="48.534779" lon="10.142898">
        <ele>515.785576</ele>
        <time>2025-11-11T19:50:39.289Z</time>
      </trkpt>
      <trkpt lat="48.534970" lon="10.141818">
        <ele>513.311387</ele>
        <time>2025-11-11T19:50:47.054Z</time>
      </trkpt>
      <trkpt lat="48.535088" lon="10.141291">
        <ele>511.863793</ele>
        <time>2025-11-11T19:50:50.746Z</time>
      </trkpt>
      <trkpt lat="48.535311" lon="10.140568">
        <ele>509.788383</ele>
        <time>2025-11-11T19:50:55.874Z</time>
      </trkpt>
      <trkpt lat="48.535755" lon="10.139637">
        <ele>506.802912</ele>
        <time>2025-11-11T19:51:03.104Z</time>
      </trkpt>
      <trkpt lat="48.535972" lon="10.139306">
        <ele>505.709821</ele>
        <time>2025-11-11T19:51:06.111Z</time>
      </trkpt>
      <trkpt lat="48.536278" lon="10.138909">
        <ele>504.363533</ele>
        <time>2025-11-11T19:51:10.225Z</time>
      </trkpt>
      <trkpt lat="48.536679" lon="10.138496">
        <ele>502.743713</ele>
        <time>2025-11-11T19:51:15.203Z</time>
      </trkpt>
      <trkpt lat="48.536772" lon="10.138405">
        <ele>502.373896</ele>
        <time>2025-11-11T19:51:16.351Z</time>
      </trkpt>
      <trkpt lat="48.537066" lon="10.138201">
        <ele>501.294132</ele>
        <time>2025-11-11T19:51:19.657Z</time>
      </trkpt>
      <trkpt lat="48.538084" lon="10.137696">
        <ele>498.679293</ele>
        <time>2025-11-11T19:51:30.436Z</time>
      </trkpt>
      <trkpt lat="48.538179" lon="10.137594">
        <ele>498.430902</ele>
        <time>2025-11-11T19:51:31.611Z</time>
      </trkpt>
      <trkpt lat="48.538295" lon="10.137392">
        <ele>498.053617</ele>
        <time>2025-11-11T19:51:33.454Z</time>
      </trkpt>
      <trkpt lat="48.538371" lon="10.137199">
        <ele>497.736774</ele>
        <time>2025-11-11T19:51:35.079Z</time>
      </trkpt>
      <trkpt lat="48.538414" lon="10.136942">
        <ele>497.362752</ele>
        <time>2025-11-11T19:51:37.100Z</time>
      </trkpt>
      <trkpt lat="48.538395" lon="10.136473">
        <ele>496.699761</ele>
        <time>2025-11-11T19:51:41.150Z</time>
      </trkpt>
      <trkpt lat="48.538269" lon="10.135696">
        <ele>497.090738</ele>
        <time>2025-11-11T19:51:50.214Z</time>
      </trkpt>
      <trkpt lat="48.538243" lon="10.135388">
        <ele>497.336750</ele>
        <time>2025-11-11T19:51:54.608Z</time>
      </trkpt>
      <trkpt lat="48.538272" lon="10.135020">
        <ele>497.630383</ele>
        <time>2025-11-11T19:52:00.361Z</time>
      </trkpt>
      <trkpt lat="48.538297" lon="10.134643">
        <ele>497.930585</ele>
        <time>2025-11-11T19:52:06.204Z</time>
      </trkpt>
      <trkpt lat="48.538298" lon="10.134499">
        <ele>498.044686</ele>
        <time>2025-11-11T19:52:08.367Z</time>
      </trkpt>
      <trkpt lat="48.538379" lon="10.134456">
        <ele>498.147428</ele>
        <time>2025-11-11T19:52:10.270Z</time>
      </trkpt>
      <trkpt lat="48.538454" lon="10.134277">
        <ele>498.315265</ele>
        <time>2025-11-11T19:52:13.322Z</time>
      </trkpt>
      <trkpt lat="48.538595" lon="10.133803">
        <ele>498.722349</ele>
        <time>2025-11-11T19:52:20.368Z</time>
      </trkpt>
      <trkpt lat="48.538777" lon="10.133198">
        <ele>499.168536</ele>
        <time>2025-11-11T19:52:28.373Z</time>
      </trkpt>
      <trkpt lat="48.538778" lon="10.133197">
        <ele>499.169752</ele>
        <time>2025-11-11T19:52:28.391Z</time>
      </trkpt>
      <trkpt lat="48.538863" lon="10.132988">
        <ele>499.334443</ele>
        <time>2025-11-11T19:52:31.292Z</time>
      </trkpt>
      <trkpt lat="48.538968" lon="10.132805">
        <ele>499.497034</ele>
        <time>2025-11-11T19:52:34.167Z</time>
      </trkpt>
      <trkpt lat="48.539093" lon="10.132754">
        <ele>499.628340</ele>
        <time>2025-11-11T19:52:36.522Z</time>
      </trkpt>
      <trkpt lat="48.539128" lon="10.132629">
        <ele>499.719466</ele>
        <time>2025-11-11T19:52:38.158Z</time>
      </trkpt>
      <trkpt lat="48.539244" lon="10.131703">
        <ele>500.352249</ele>
        <time>2025-11-11T19:52:49.781Z</time>
      </trkpt>
      <trkpt lat="48.539278" lon="10.131394">
        <ele>500.604201</ele>
        <time>2025-11-11T19:52:53.765Z</time>
      </trkpt>
      <trkpt lat="48.539281" lon="10.131239">
        <ele>500.811546</ele>
        <time>2025-11-11T19:52:55.634Z</time>
      </trkpt>
      <trkpt lat="48.539249" lon="10.131027">
        <ele>501.102293</ele>
        <time>2025-11-11T19:52:58.352Z</time>
      </trkpt>
      <trkpt lat="48.539237" lon="10.130939">
        <ele>501.222431</ele>
        <time>2025-11-11T19:52:59.549Z</time>
      </trkpt>
      <trkpt lat="48.539177" lon="10.130538">
        <ele>501.772145</ele>
        <time>2025-11-11T19:53:05.116Z</time>
      </trkpt>
      <trkpt lat="48.539164" lon="10.130380">
        <ele>501.985039</ele>
        <time>2025-11-11T19:53:07.511Z</time>
      </trkpt>
      <trkpt lat="48.539138" lon="10.130120">
        <ele>502.336639</ele>
        <time>2025-11-11T19:53:11.495Z</time>
      </trkpt>
      <trkpt lat="48.539121" lon="10.129864">
        <ele>502.680665</ele>
        <time>2025-11-11T19:53:15.614Z</time>
      </trkpt>
      <trkpt lat="48.539098" lon="10.129531">
        <ele>503.128350</ele>
        <time>2025-11-11T19:53:21.285Z</time>
      </trkpt>
      <trkpt lat="48.539048" lon="10.129153">
        <ele>503.643778</ele>
        <time>2025-11-11T19:53:27.706Z</time>
      </trkpt>
      <trkpt lat="48.539033" lon="10.129040">
        <ele>503.797882</ele>
        <time>2025-11-11T19:53:29.691Z</time>
      </trkpt>
      <trkpt lat="48.538997" lon="10.128805">
        <ele>504.120412</ele>
        <time>2025-11-11T19:53:33.740Z</time>
      </trkpt>
      <trkpt lat="48.538948" lon="10.128278">
        <ele>505.000254</ele>
        <time>2025-11-11T19:53:42.819Z</time>
      </trkpt>
      <trkpt lat="48.538940" lon="10.128148">
        <ele>505.218091</ele>
        <time>2025-11-11T19:53:45.132Z</time>
      </trkpt>
      <trkpt lat="48.538930" lon="10.127990">
        <ele>505.482911</ele>
        <time>2025-11-11T19:53:47.875Z</time>
      </trkpt>
      <trkpt lat="48.538901" lon="10.127524">
        <ele>506.263846</ele>
        <time>2025-11-11T19:53:56.029Z</time>
      </trkpt>
      <trkpt lat="48.538562" lon="10.127462">
        <ele>507.124342</ele>
        <time>2025-11-11T19:54:04.642Z</time>
      </trkpt>
      <trkpt lat="48.538348" lon="10.127379">
        <ele>507.681104</ele>
        <time>2025-11-11T19:54:09.969Z</time>
      </trkpt>
      <trkpt lat="48.538327" lon="10.127237">
        <ele>507.923868</ele>
        <time>2025-11-11T19:54:12.199Z</time>
      </trkpt>
      <trkpt lat="48.538372" lon="10.126990">
        <ele>508.351301</ele>
        <time>2025-11-11T19:54:16.148Z</time>
      </trkpt>
      <trkpt lat="48.538055" lon="10.126836">
        <ele>509.035680</ele>
        <time>2025-11-11T19:54:23.857Z</time>
      </trkpt>
      <trkpt lat="48.538053" lon="10.126732">
        <ele>509.156082</ele>
        <time>2025-11-11T19:54:25.442Z</time>
      </trkpt>
      <trkpt lat="48.538000" lon="10.126631">
        <ele>509.305216</ele>
        <time>2025-11-11T19:54:27.409Z</time>
      </trkpt>
      <trkpt lat="48.537904" lon="10.126610">
        <ele>509.474751</ele>
        <time>2025-11-11T19:54:29.631Z</time>
      </trkpt>
      <trkpt lat="48.537852" lon="10.126652">
        <ele>509.577813</ele>
        <time>2025-11-11T19:54:31.024Z</time>
      </trkpt>
      <trkpt lat="48.537815" lon="10.126746">
        <ele>509.704363</ele>
        <time>2025-11-11T19:54:32.705Z</time>
      </trkpt>
      <trkpt lat="48.537816" lon="10.126840">
        <ele>509.813156</ele>
        <time>2025-11-11T19:54:34.135Z</time>
      </trkpt>
      <trkpt lat="48.537702" lon="10.126902">
        <ele>510.024923</ele>
        <time>2025-11-11T19:54:36.985Z</time>
      </trkpt>
      <trkpt lat="48.537641" lon="10.126936">
        <ele>510.138565</ele>
        <time>2025-11-11T19:54:38.540Z</time>
      </trkpt>
      <trkpt lat="48.537482" lon="10.127058">
        <ele>510.450263</ele>
        <time>2025-11-11T19:54:42.643Z</time>
      </trkpt>
      <trkpt lat="48.537361" lon="10.127079">
        <ele>510.663132</ele>
        <time>2025-11-11T19:54:45.382Z</time>
      </trkpt>
      <trkpt lat="48.536602" lon="10.127113">
        <ele>511.827856</ele>
        <time>2025-11-11T19:55:00.880Z</time>
      </trkpt>
      <trkpt lat="48.536389" lon="10.127122">
        <ele>511.825219</ele>
        <time>2025-11-11T19:55:04.725Z</time>
      </trkpt>
      <trkpt lat="48.536137" lon="10.127133">
        <ele>511.822099</ele>
        <time>2025-11-11T19:55:08.973Z</time>
      </trkpt>
      <trkpt lat="48.535844" lon="10.127146">
        <ele>511.818471</ele>
        <time>2025-11-11T19:55:13.414Z</time>
      </trkpt>
      <trkpt lat="48.533451" lon="10.127357">
        <ele>510.664221</ele>
        <time>2025-11-11T19:55:44.488Z</time>
      </trkpt>
      <trkpt lat="48.532222" lon="10.127434">
        <ele>509.384341</ele>
        <time>2025-11-11T19:55:58.848Z</time>
      </trkpt>
      <trkpt lat="48.530053" lon="10.126332">
        <ele>507.197542</ele>
        <time>2025-11-11T19:56:26.639Z</time>
      </trkpt>
      <trkpt lat="48.529427" lon="10.126060">
        <ele>506.885642</ele>
        <time>2025-11-11T19:56:35.402Z</time>
      </trkpt>
      <trkpt lat="48.529593" lon="10.128680">
        <ele>507.324509</ele>
        <time>2025-11-11T19:57:03.622Z</time>
      </trkpt>
      <trkpt lat="48.529619" lon="10.129931">
        <ele>507.946459</ele>
        <time>2025-11-11T19:57:18.436Z</time>
      </trkpt>
      <trkpt lat="48.529608" lon="10.130769">
        <ele>508.362958</ele>
        <time>2025-11-11T19:57:28.704Z</time>
      </trkpt>
      <trkpt lat="48.529571" lon="10.131427">
        <ele>508.750885</ele>
        <time>2025-11-11T19:57:36.846Z</time>
      </trkpt>
      <trkpt lat="48.529549" lon="10.131723">
        <ele>508.960976</ele>
        <time>2025-11-11T19:57:40.538Z</time>
      </trkpt>
      <trkpt lat="48.529380" lon="10.134317">
        <ele>510.827032</ele>
        <time>2025-11-11T19:58:13.838Z</time>
      </trkpt>
      <trkpt lat="48.529525" lon="10.136547">
        <ele>512.537537</ele>
        <time>2025-11-11T19:58:42.954Z</time>
      </trkpt>
      <trkpt lat="48.529720" lon="10.139276">
        <ele>513.532814</ele>
        <time>2025-11-11T19:59:16.537Z</time>
      </trkpt>
      <trkpt lat="48.528002" lon="10.139753">
        <ele>509.645072</ele>
        <time>2025-11-11T19:59:35.200Z</time>
      </trkpt>
      <trkpt lat="48.526408" lon="10.140473">
        <ele>502.494231</ele>
        <time>2025-11-11T19:59:51.081Z</time>
      </trkpt>
      <trkpt lat="48.526222" lon="10.140635">
        <ele>501.576606</ele>
        <time>2025-11-11T19:59:53.114Z</time>
      </trkpt>
      <trkpt lat="48.525095" lon="10.142023">
        <ele>495.704510</ele>
        <time>2025-11-11T20:00:07.117Z</time>
      </trkpt>
      <trkpt lat="48.524893" lon="10.142171">
        <ele>494.797967</ele>
        <time>2025-11-11T20:00:09.438Z</time>
      </trkpt>
      <trkpt lat="48.524207" lon="10.142553">
        <ele>492.880777</ele>
        <time>2025-11-11T20:00:17.163Z</time>
      </trkpt>
      <trkpt lat="48.524189" lon="10.142816">
        <ele>492.448991</ele>
        <time>2025-11-11T20:00:19.030Z</time>
      </trkpt>
      <trkpt lat="48.524046" lon="10.143164">
        <ele>491.780182</ele>
        <time>2025-11-11T20:00:21.967Z</time>
      </trkpt>
      <trkpt lat="48.523986" lon="10.143191">
        <ele>491.625807</ele>
        <time>2025-11-11T20:00:22.651Z</time>
      </trkpt>
      <trkpt lat="48.523775" lon="10.142997">
        <ele>491.016662</ele>
        <time>2025-11-11T20:00:25.358Z</time>
      </trkpt>
      <trkpt lat="48.523602" lon="10.142894">
        <ele>490.558121</ele>
        <time>2025-11-11T20:00:27.406Z</time>
      </trkpt>
      <trkpt lat="48.523416" lon="10.142823">
        <ele>490.085062</ele>
        <time>2025-11-11T20:00:29.506Z</time>
      </trkpt>
      <trkpt lat="48.523191" lon="10.142782">
        <ele>489.424761</ele>
        <time>2025-11-11T20:00:31.937Z</time>
      </trkpt>
      <trkpt lat="48.522770" lon="10.142627">
        <ele>488.156600</ele>
        <time>2025-11-11T20:00:36.360Z</time>
      </trkpt>
      <trkpt lat="48.522579" lon="10.142498">
        <ele>487.544260</ele>
        <time>2025-11-11T20:00:38.502Z</time>
      </trkpt>
      <trkpt lat="48.522427" lon="10.142347">
        <ele>487.011778</ele>
        <time>2025-11-11T20:00:40.365Z</time>
      </trkpt>
      <trkpt lat="48.522342" lon="10.142247">
        <ele>486.696423</ele>
        <time>2025-11-11T20:00:41.468Z</time>
      </trkpt>
      <trkpt lat="48.521449" lon="10.140760">
        <ele>482.683589</ele>
        <time>2025-11-11T20:00:54.922Z</time>
      </trkpt>
      <trkpt lat="48.521115" lon="10.140413">
        <ele>481.424594</ele>
        <time>2025-11-11T20:00:59.032Z</time>
      </trkpt>
      <trkpt lat="48.520552" lon="10.140130">
        <ele>479.581970</ele>
        <time>2025-11-11T20:01:05.111Z</time>
      </trkpt>
      <trkpt lat="48.520358" lon="10.140075">
        <ele>479.005734</ele>
        <time>2025-11-11T20:01:07.147Z</time>
      </trkpt>
      <trkpt lat="48.519439" lon="10.139912">
        <ele>476.552257</ele>
        <time>2025-11-11T20:01:16.718Z</time>
      </trkpt>
      <trkpt lat="48.518281" lon="10.139402">
        <ele>473.887613</ele>
        <time>2025-11-11T20:01:29.544Z</time>
      </trkpt>
      <trkpt lat="48.517986" lon="10.139318">
        <ele>473.478807</ele>
        <time>2025-11-11T20:01:32.875Z</time>
      </trkpt>
      <trkpt lat="48.516804" lon="10.139242">
        <ele>471.957804</ele>
        <time>2025-11-11T20:01:47.364Z</time>
      </trkpt>
      <trkpt lat="48.516506" lon="10.139165">
        <ele>471.822592</ele>
        <time>2025-11-11T20:01:51.945Z</time>
      </trkpt>
      <trkpt lat="48.516280" lon="10.139056">
        <ele>471.716485</ele>
        <time>2025-11-11T20:01:55.702Z</time>
      </trkpt>
      <trkpt lat="48.516211" lon="10.139005">
        <ele>471.682126</ele>
        <time>2025-11-11T20:01:56.920Z</time>
      </trkpt>
      <trkpt lat="48.515594" lon="10.138568">
        <ele>471.377326</ele>
        <time>2025-11-11T20:02:07.279Z</time>
      </trkpt>
      <trkpt lat="48.515243" lon="10.138436">
        <ele>471.215551</ele>
        <time>2025-11-11T20:02:11.878Z</time>
      </trkpt>
      <trkpt lat="48.514850" lon="10.138385">
        <ele>470.302869</ele>
        <time>2025-11-11T20:02:16.396Z</time>
      </trkpt>
      <trkpt lat="48.514747" lon="10.138384">
        <ele>470.042551</ele>
        <time>2025-11-11T20:02:17.506Z</time>
      </trkpt>
      <trkpt lat="48.514345" lon="10.138309">
        <ele>469.018846</ele>
        <time>2025-11-11T20:02:21.732Z</time>
      </trkpt>
      <trkpt lat="48.514125" lon="10.138218">
        <ele>468.442345</ele>
        <time>2025-11-11T20:02:24.037Z</time>
      </trkpt>
      <trkpt lat="48.513854" lon="10.137999">
        <ele>467.665482</ele>
        <time>2025-11-11T20:02:27.111Z</time>
      </trkpt>
      <trkpt lat="48.513532" lon="10.137603">
        <ele>466.629376</ele>
        <time>2025-11-11T20:02:31.292Z</time>
      </trkpt>
      <trkpt lat="48.513272" lon="10.137241">
        <ele>466.072959</ele>
        <time>2025-11-11T20:02:34.955Z</time>
      </trkpt>
      <trkpt lat="48.513002" lon="10.136945">
        <ele>465.548026</ele>
        <time>2025-11-11T20:02:38.523Z</time>
      </trkpt>
      <trkpt lat="48.512741" lon="10.136773">
        <ele>465.100023</ele>
        <time>2025-11-11T20:02:41.678Z</time>
      </trkpt>
      <trkpt lat="48.512263" lon="10.136584">
        <ele>464.322707</ele>
        <time>2025-11-11T20:02:47.760Z</time>
      </trkpt>
      <trkpt lat="48.511856" lon="10.136497">
        <ele>463.877192</ele>
        <time>2025-11-11T20:02:53.719Z</time>
      </trkpt>
      <trkpt lat="48.511444" lon="10.136316">
        <ele>464.130834</ele>
        <time>2025-11-11T20:03:00.883Z</time>
      </trkpt>
      <trkpt lat="48.511235" lon="10.136150">
        <ele>464.270435</ele>
        <time>2025-11-11T20:03:05.161Z</time>
      </trkpt>
      <trkpt lat="48.510229" lon="10.134923">
        <ele>464.938807</ele>
        <time>2025-11-11T20:03:28.967Z</time>
      </trkpt>
      <trkpt lat="48.509995" lon="10.134665">
        <ele>464.999933</ele>
        <time>2025-11-11T20:03:33.583Z</time>
      </trkpt>
      <trkpt lat="48.509793" lon="10.134505">
        <ele>465.048053</ele>
        <time>2025-11-11T20:03:37.161Z</time>
      </trkpt>
      <trkpt lat="48.509645" lon="10.134434">
        <ele>465.080811</ele>
        <time>2025-11-11T20:03:39.540Z</time>
      </trkpt>
      <trkpt lat="48.509424" lon="10.134392">
        <ele>465.127798</ele>
        <time>2025-11-11T20:03:42.909Z</time>
      </trkpt>
      <trkpt lat="48.508209" lon="10.134337">
        <ele>465.600280</ele>
        <time>2025-11-11T20:04:00.549Z</time>
      </trkpt>
      <trkpt lat="48.508001" lon="10.134256">
        <ele>465.727633</ele>
        <time>2025-11-11T20:04:04.101Z</time>
      </trkpt>
      <trkpt lat="48.507951" lon="10.134156">
        <ele>465.776842</ele>
        <time>2025-11-11T20:04:05.518Z</time>
      </trkpt>
      <trkpt lat="48.507846" lon="10.134128">
        <ele>465.840056</ele>
        <time>2025-11-11T20:04:07.367Z</time>
      </trkpt>
      <trkpt lat="48.507762" lon="10.134233">
        <ele>465.904717</ele>
        <time>2025-11-11T20:04:09.315Z</time>
      </trkpt>
      <trkpt lat="48.507571" lon="10.134283">
        <ele>466.019644</ele>
        <time>2025-11-11T20:04:12.967Z</time>
      </trkpt>
      <trkpt lat="48.507503" lon="10.134280">
        <ele>466.059976</ele>
        <time>2025-11-11T20:04:14.281Z</time>
      </trkpt>
      <trkpt lat="48.506791" lon="10.134222">
        <ele>466.211769</ele>
        <time>2025-11-11T20:04:28.470Z</time>
      </trkpt>
      <trkpt lat="48.506447" lon="10.134194">
        <ele>466.050735</ele>
        <time>2025-11-11T20:04:34.593Z</time>
      </trkpt>
      <trkpt lat="48.506081" lon="10.134213">
        <ele>465.879551</ele>
        <time>2025-11-11T20:04:40.665Z</time>
      </trkpt>
      <trkpt lat="48.505882" lon="10.134086">
        <ele>465.778557</ele>
        <time>2025-11-11T20:04:43.665Z</time>
      </trkpt>
      <trkpt lat="48.505772" lon="10.133987">
        <ele>465.718691</ele>
        <time>2025-11-11T20:04:45.223Z</time>
      </trkpt>
      <trkpt lat="48.505581" lon="10.133873">
        <ele>465.622682</ele>
        <time>2025-11-11T20:04:47.519Z</time>
      </trkpt>
      <trkpt lat="48.505440" lon="10.133807">
        <ele>465.553676</ele>
        <time>2025-11-11T20:04:49.092Z</time>
      </trkpt>
      <trkpt lat="48.505102" lon="10.133698">
        <ele>464.983959</ele>
        <time>2025-11-11T20:04:52.595Z</time>
      </trkpt>
      <trkpt lat="48.504930" lon="10.133735">
        <ele>464.565676</ele>
        <time>2025-11-11T20:04:54.313Z</time>
      </trkpt>
      <trkpt lat="48.504737" lon="10.133890">
        <ele>464.039333</ele>
        <time>2025-11-11T20:04:56.488Z</time>
      </trkpt>
      <trkpt lat="48.504568" lon="10.134025">
        <ele>463.578985</ele>
        <time>2025-11-11T20:04:58.421Z</time>
      </trkpt>
      <trkpt lat="48.504527" lon="10.134045">
        <ele>463.475248</ele>
        <time>2025-11-11T20:04:58.866Z</time>
      </trkpt>
      <trkpt lat="48.504480" lon="10.134067">
        <ele>463.356776</ele>
        <time>2025-11-11T20:04:59.368Z</time>
      </trkpt>
      <trkpt lat="48.504076" lon="10.134229">
        <ele>462.350384</ele>
        <time>2025-11-11T20:05:03.745Z</time>
      </trkpt>
      <trkpt lat="48.503965" lon="10.134205">
        <ele>462.080418</ele>
        <time>2025-11-11T20:05:04.931Z</time>
      </trkpt>
      <trkpt lat="48.503925" lon="10.134071">
        <ele>461.845974</ele>
        <time>2025-11-11T20:05:05.985Z</time>
      </trkpt>
      <trkpt lat="48.503905" lon="10.133751">
        <ele>461.333255</ele>
        <time>2025-11-11T20:05:08.355Z</time>
      </trkpt>
      <trkpt lat="48.503887" lon="10.133353">
        <ele>461.208773</ele>
        <time>2025-11-11T20:05:11.737Z</time>
      </trkpt>
      <trkpt lat="48.503879" lon="10.133135">
        <ele>461.245341</ele>
        <time>2025-11-11T20:05:13.835Z</time>
      </trkpt>
      <trkpt lat="48.503867" lon="10.132935">
        <ele>461.278976</ele>
        <time>2025-11-11T20:05:15.954Z</time>
      </trkpt>
      <trkpt lat="48.503866" lon="10.132906">
        <ele>461.283840</ele>
        <time>2025-11-11T20:05:16.266Z</time>
      </trkpt>
      <trkpt lat="48.503856" lon="10.132644">
        <ele>461.327795</ele>
        <time>2025-11-11T20:05:19.307Z</time>
      </trkpt>
      <trkpt lat="48.503846" lon="10.132341">
        <ele>461.378606</ele>
        <time>2025-11-11T20:05:23.038Z</time>
      </trkpt>
      <trkpt lat="48.503842" lon="10.132180">
        <ele>461.405591</ele>
        <time>2025-11-11T20:05:24.956Z</time>
      </trkpt>
      <trkpt lat="48.503825" lon="10.131901">
        <ele>461.452517</ele>
        <time>2025-11-11T20:05:28.268Z</time>
      </trkpt>
      <trkpt lat="48.503778" lon="10.131453">
        <ele>461.528487</ele>
        <time>2025-11-11T20:05:33.809Z</time>
      </trkpt>
      <trkpt lat="48.503766" lon="10.131358">
        <ele>461.544685</ele>
        <time>2025-11-11T20:05:34.992Z</time>
      </trkpt>
      <trkpt lat="48.503680" lon="10.130847">
        <ele>461.677902</ele>
        <time>2025-11-11T20:05:41.044Z</time>
      </trkpt>
      <trkpt lat="48.503602" lon="10.130515">
        <ele>461.882628</ele>
        <time>2025-11-11T20:05:44.911Z</time>
      </trkpt>
      <trkpt lat="48.503536" lon="10.130250">
        <ele>462.047164</ele>
        <time>2025-11-11T20:05:48.183Z</time>
      </trkpt>
      <trkpt lat="48.503438" lon="10.129858">
        <ele>462.290669</ele>
        <time>2025-11-11T20:05:53.029Z</time>
      </trkpt>
      <trkpt lat="48.503313" lon="10.129378">
        <ele>462.590415</ele>
        <time>2025-11-11T20:05:59.289Z</time>
      </trkpt>
      <trkpt lat="48.503240" lon="10.129100">
        <ele>462.764212</ele>
        <time>2025-11-11T20:06:03.069Z</time>
      </trkpt>
      <trkpt lat="48.503200" lon="10.128938">
        <ele>462.864691</ele>
        <time>2025-11-11T20:06:05.290Z</time>
      </trkpt>
      <trkpt lat="48.503117" lon="10.128602">
        <ele>463.073102</ele>
        <time>2025-11-11T20:06:09.926Z</time>
      </trkpt>
      <trkpt lat="48.503051" lon="10.128362">
        <ele>463.174058</ele>
        <time>2025-11-11T20:06:13.310Z</time>
      </trkpt>
      <trkpt lat="48.502989" lon="10.128065">
        <ele>463.068332</ele>
        <time>2025-11-11T20:06:17.416Z</time>
      </trkpt>
      <trkpt lat="48.502884" lon="10.127581">
        <ele>462.895416</ele>
        <time>2025-11-11T20:06:24.026Z</time>
      </trkpt>
      <trkpt lat="48.502810" lon="10.127249">
        <ele>462.776485</ele>
        <time>2025-11-11T20:06:28.160Z</time>
      </trkpt>
      <trkpt lat="48.502704" lon="10.126653">
        <ele>462.566963</ele>
        <time>2025-11-11T20:06:33.358Z</time>
      </trkpt>
      <trkpt lat="48.502600" lon="10.126238">
        <ele>462.416317</ele>
        <time>2025-11-11T20:06:36.600Z</time>
      </trkpt>
      <trkpt lat="48.502547" lon="10.126383">
        <ele>462.360091</ele>
        <time>2025-11-11T20:06:38.245Z</time>
      </trkpt>
      <trkpt lat="48.502464" lon="10.126489">
        <ele>462.304375</ele>
        <time>2025-11-11T20:06:39.849Z</time>
      </trkpt>
      <trkpt lat="48.502382" lon="10.126562">
        <ele>462.210650</ele>
        <time>2025-11-11T20:06:41.272Z</time>
      </trkpt>
      <trkpt lat="48.502188" lon="10.126698">
        <ele>461.778015</ele>
        <time>2025-11-11T20:06:44.438Z</time>
      </trkpt>
      <trkpt lat="48.501959" lon="10.126858">
        <ele>461.267628</ele>
        <time>2025-11-11T20:06:48.180Z</time>
      </trkpt>
      <trkpt lat="48.501659" lon="10.127068">
        <ele>460.598778</ele>
        <time>2025-11-11T20:06:53.089Z</time>
      </trkpt>
      <trkpt lat="48.501646" lon="10.127077">
        <ele>460.569851</ele>
        <time>2025-11-11T20:06:53.302Z</time>
      </trkpt>
      <trkpt lat="48.501482" lon="10.127200">
        <ele>460.199454</ele>
        <time>2025-11-11T20:06:56.060Z</time>
      </trkpt>
      <trkpt lat="48.501460" lon="10.127217">
        <ele>460.149465</ele>
        <time>2025-11-11T20:06:56.446Z</time>
      </trkpt>
      <trkpt lat="48.501372" lon="10.127285">
        <ele>459.949508</ele>
        <time>2025-11-11T20:06:57.947Z</time>
      </trkpt>
      <trkpt lat="48.501344" lon="10.127307">
        <ele>459.885662</ele>
        <time>2025-11-11T20:06:58.429Z</time>
      </trkpt>
      <trkpt lat="48.501193" lon="10.127417">
        <ele>459.546541</ele>
        <time>2025-11-11T20:07:01.057Z</time>
      </trkpt>
      <trkpt lat="48.501061" lon="10.127514">
        <ele>459.249600</ele>
        <time>2025-11-11T20:07:03.475Z</time>
      </trkpt>
      <trkpt lat="48.501027" lon="10.127538">
        <ele>459.173683</ele>
        <time>2025-11-11T20:07:04.141Z</time>
      </trkpt>
      <trkpt lat="48.500712" lon="10.127759">
        <ele>458.617473</ele>
        <time>2025-11-11T20:07:10.607Z</time>
      </trkpt>
      <trkpt lat="48.500591" lon="10.127846">
        <ele>458.591455</ele>
        <time>2025-11-11T20:07:13.211Z</time>
      </trkpt>
      <trkpt lat="48.500526" lon="10.127896">
        <ele>458.577293</ele>
        <time>2025-11-11T20:07:14.631Z</time>
      </trkpt>
      <trkpt lat="48.500112" lon="10.128222">
        <ele>458.486645</ele>
        <time>2025-11-11T20:07:24.312Z</time>
      </trkpt>
      <trkpt lat="48.499978" lon="10.128316">
        <ele>458.457960</ele>
        <time>2025-11-11T20:07:27.309Z</time>
      </trkpt>
      <trkpt lat="48.499764" lon="10.128466">
        <ele>458.412157</ele>
        <time>2025-11-11T20:07:31.997Z</time>
      </trkpt>
      <trkpt lat="48.499691" lon="10.128518">
        <ele>458.396487</ele>
        <time>2025-11-11T20:07:33.088Z</time>
      </trkpt>
      <trkpt lat="48.497898" lon="10.129568">
        <ele>458.303522</ele>
        <time>2025-11-11T20:08:11.314Z</time>
      </trkpt>
      <trkpt lat="48.497262" lon="10.129953">
        <ele>458.381465</ele>
        <time>2025-11-11T20:08:25.911Z</time>
      </trkpt>
      <trkpt lat="48.496345" lon="10.130459">
        <ele>458.684436</ele>
        <time>2025-11-11T20:08:47.135Z</time>
      </trkpt>
      <trkpt lat="48.496231" lon="10.130520">
        <ele>458.721968</ele>
        <time>2025-11-11T20:08:49.141Z</time>
      </trkpt>
      <trkpt lat="48.496169" lon="10.130401">
        <ele>458.753095</ele>
        <time>2025-11-11T20:08:50.806Z</time>
      </trkpt>
      <trkpt lat="48.495322" lon="10.128807">
        <ele>459.134678</ele>
        <time>2025-11-11T20:09:11.968Z</time>
      </trkpt>
      <trkpt lat="48.495061" lon="10.128316">
        <ele>459.247748</ele>
        <time>2025-11-11T20:09:18.614Z</time>
      </trkpt>
      <trkpt lat="48.494541" lon="10.127459">
        <ele>459.422355</ele>
        <time>2025-11-11T20:09:31.040Z</time>
      </trkpt>
      <trkpt lat="48.494065" lon="10.126551">
        <ele>459.559788</ele>
        <time>2025-11-11T20:09:43.289Z</time>
      </trkpt>
      <trkpt lat="48.494045" lon="10.126452">
        <ele>459.572074</ele>
        <time>2025-11-11T20:09:44.351Z</time>
      </trkpt>
      <trkpt lat="48.493606" lon="10.125719">
        <ele>459.672444</ele>
        <time>2025-11-11T20:09:54.169Z</time>
      </trkpt>
      <trkpt lat="48.493504" lon="10.125591">
        <ele>459.660633</ele>
        <time>2025-11-11T20:09:56.122Z</time>
      </trkpt>
      <trkpt lat="48.493432" lon="10.125552">
        <ele>459.653823</ele>
        <time>2025-11-11T20:09:57.220Z</time>
      </trkpt>
      <trkpt lat="48.493423" lon="10.125540">
        <ele>459.652754</ele>
        <time>2025-11-11T20:09:57.400Z</time>
      </trkpt>
      <trkpt lat="48.493028" lon="10.124879">
        <ele>459.600242</ele>
        <time>2025-11-11T20:10:05.815Z</time>
      </trkpt>
      <trkpt lat="48.492910" lon="10.124680">
        <ele>459.584488</ele>
        <time>2025-11-11T20:10:08.409Z</time>
      </trkpt>
      <trkpt lat="48.492856" lon="10.124593">
        <ele>459.577455</ele>
        <time>2025-11-11T20:10:09.576Z</time>
      </trkpt>
      <trkpt lat="48.492644" lon="10.124240">
        <ele>459.549349</ele>
        <time>2025-11-11T20:10:14.035Z</time>
      </trkpt>
      <trkpt lat="48.492480" lon="10.123950">
        <ele>459.526857</ele>
        <time>2025-11-11T20:10:17.545Z</time>
      </trkpt>
      <trkpt lat="48.492441" lon="10.123789">
        <ele>459.522784</ele>
        <time>2025-11-11T20:10:19.125Z</time>
      </trkpt>
      <trkpt lat="48.492426" lon="10.123645">
        <ele>459.557864</ele>
        <time>2025-11-11T20:10:20.504Z</time>
      </trkpt>
      <trkpt lat="48.492438" lon="10.123414">
        <ele>459.613626</ele>
        <time>2025-11-11T20:10:22.786Z</time>
      </trkpt>
      <trkpt lat="48.492445" lon="10.123352">
        <ele>459.628762</ele>
        <time>2025-11-11T20:10:23.419Z</time>
      </trkpt>
      <trkpt lat="48.492461" lon="10.123202">
        <ele>459.665325</ele>
        <time>2025-11-11T20:10:25.028Z</time>
      </trkpt>
      <trkpt lat="48.492483" lon="10.122948">
        <ele>459.726972</ele>
        <time>2025-11-11T20:10:27.788Z</time>
      </trkpt>
      <trkpt lat="48.492534" lon="10.122240">
        <ele>459.898360</ele>
        <time>2025-11-11T20:10:35.932Z</time>
      </trkpt>
      <trkpt lat="48.492546" lon="10.122021">
        <ele>459.951243</ele>
        <time>2025-11-11T20:10:38.531Z</time>
      </trkpt>
      <trkpt lat="48.492559" lon="10.121809">
        <ele>460.002481</ele>
        <time>2025-11-11T20:10:40.978Z</time>
      </trkpt>
      <trkpt lat="48.492567" lon="10.121676">
        <ele>460.034619</ele>
        <time>2025-11-11T20:10:42.465Z</time>
      </trkpt>
      <trkpt lat="48.492573" lon="10.121571">
        <ele>460.059982</ele>
        <time>2025-11-11T20:10:43.581Z</time>
      </trkpt>
      <trkpt lat="48.492597" lon="10.121210">
        <ele>460.147295</ele>
        <time>2025-11-11T20:10:47.496Z</time>
      </trkpt>
      <trkpt lat="48.492617" lon="10.120867">
        <ele>460.211480</ele>
        <time>2025-11-11T20:10:51.234Z</time>
      </trkpt>
      <trkpt lat="48.492622" lon="10.120752">
        <ele>460.230446</ele>
        <time>2025-11-11T20:10:52.536Z</time>
      </trkpt>
      <trkpt lat="48.492631" lon="10.120590">
        <ele>460.257199</ele>
        <time>2025-11-11T20:10:54.341Z</time>
      </trkpt>
      <trkpt lat="48.492642" lon="10.120408">
        <ele>460.287274</ele>
        <time>2025-11-11T20:10:56.361Z</time>
      </trkpt>
      <trkpt lat="48.492646" lon="10.120353">
        <ele>460.296379</ele>
        <time>2025-11-11T20:10:56.968Z</time>
      </trkpt>
      <trkpt lat="48.492650" lon="10.120270">
        <ele>460.310074</ele>
        <time>2025-11-11T20:10:57.847Z</time>
      </trkpt>
      <trkpt lat="48.492660" lon="10.120090">
        <ele>460.339800</ele>
        <time>2025-11-11T20:10:59.712Z</time>
      </trkpt>
      <trkpt lat="48.492672" lon="10.119843">
        <ele>460.380556</ele>
        <time>2025-11-11T20:11:02.233Z</time>
      </trkpt>
      <trkpt lat="48.492672" lon="10.119783">
        <ele>460.390430</ele>
        <time>2025-11-11T20:11:02.839Z</time>
      </trkpt>
      <trkpt lat="48.492669" lon="10.119633">
        <ele>460.415126</ele>
        <time>2025-11-11T20:11:04.420Z</time>
      </trkpt>
      <trkpt lat="48.492616" lon="10.119154">
        <ele>460.495043</ele>
        <time>2025-11-11T20:11:09.217Z</time>
      </trkpt>
      <trkpt lat="48.492541" lon="10.118938">
        <ele>460.535173</ele>
        <time>2025-11-11T20:11:11.534Z</time>
      </trkpt>
      <trkpt lat="48.492394" lon="10.118641">
        <ele>460.596175</ele>
        <time>2025-11-11T20:11:14.995Z</time>
      </trkpt>
      <trkpt lat="48.492391" lon="10.118509">
        <ele>460.618294</ele>
        <time>2025-11-11T20:11:16.366Z</time>
      </trkpt>
      <trkpt lat="48.492384" lon="10.118361">
        <ele>460.691743</ele>
        <time>2025-11-11T20:11:17.924Z</time>
      </trkpt>
      <trkpt lat="48.492423" lon="10.118287">
        <ele>460.738546</ele>
        <time>2025-11-11T20:11:18.997Z</time>
      </trkpt>
      <trkpt lat="48.492444" lon="10.118146">
        <ele>460.810085</ele>
        <time>2025-11-11T20:11:20.652Z</time>
      </trkpt>
      <trkpt lat="48.492429" lon="10.118060">
        <ele>460.854106</ele>
        <time>2025-11-11T20:11:21.751Z</time>
      </trkpt>
      <trkpt lat="48.492359" lon="10.117948">
        <ele>460.930314</ele>
        <time>2025-11-11T20:11:23.566Z</time>
      </trkpt>
      <trkpt lat="48.492311" lon="10.117791">
        <ele>461.015904</ele>
        <time>2025-11-11T20:11:25.655Z</time>
      </trkpt>
      <trkpt lat="48.492273" lon="10.117692">
        <ele>461.072538</ele>
        <time>2025-11-11T20:11:27.087Z</time>
      </trkpt>
      <trkpt lat="48.492141" lon="10.117332">
        <ele>461.276203</ele>
        <time>2025-11-11T20:11:32.108Z</time>
      </trkpt>
      <trkpt lat="48.492080" lon="10.117155">
        <ele>461.374961</ele>
        <time>2025-11-11T20:11:34.578Z</time>
      </trkpt>
      <trkpt lat="48.492030" lon="10.116988">
        <ele>461.465674</ele>
        <time>2025-11-11T20:11:36.938Z</time>
      </trkpt>
      <trkpt lat="48.491956" lon="10.116539">
        <ele>461.694710</ele>
        <time>2025-11-11T20:11:42.574Z</time>
      </trkpt>
      <trkpt lat="48.491899" lon="10.116190">
        <ele>461.872642</ele>
        <time>2025-11-11T20:11:46.877Z</time>
      </trkpt>
      <trkpt lat="48.491887" lon="10.116120">
        <ele>461.908434</ele>
        <time>2025-11-11T20:11:47.781Z</time>
      </trkpt>
      <trkpt lat="48.491748" lon="10.115311">
        <ele>462.210595</ele>
        <time>2025-11-11T20:11:57.937Z</time>
      </trkpt>
      <trkpt lat="48.491694" lon="10.114998">
        <ele>462.321218</ele>
        <time>2025-11-11T20:12:01.612Z</time>
      </trkpt>
      <trkpt lat="48.491644" lon="10.114673">
        <ele>462.435332</ele>
        <time>2025-11-11T20:12:05.182Z</time>
      </trkpt>
      <trkpt lat="48.491495" lon="10.113610">
        <ele>462.806951</ele>
        <time>2025-11-11T20:12:16.820Z</time>
      </trkpt>
      <trkpt lat="48.491385" lon="10.112959">
        <ele>463.003142</ele>
        <time>2025-11-11T20:12:24.081Z</time>
      </trkpt>
      <trkpt lat="48.491182" lon="10.112196">
        <ele>463.220204</ele>
        <time>2025-11-11T20:12:33.118Z</time>
      </trkpt>
      <trkpt lat="48.490994" lon="10.111704">
        <ele>463.370138</ele>
        <time>2025-11-11T20:12:39.190Z</time>
      </trkpt>
      <trkpt lat="48.490756" lon="10.111238">
        <ele>463.525459</ele>
        <time>2025-11-11T20:12:45.622Z</time>
      </trkpt>
      <trkpt lat="48.490524" lon="10.110779">
        <ele>463.697145</ele>
        <time>2025-11-11T20:12:51.893Z</time>
      </trkpt>
      <trkpt lat="48.490436" lon="10.110521">
        <ele>463.794305</ele>
        <time>2025-11-11T20:12:55.051Z</time>
      </trkpt>
      <trkpt lat="48.490415" lon="10.110356">
        <ele>463.850564</ele>
        <time>2025-11-11T20:12:56.872Z</time>
      </trkpt>
      <trkpt lat="48.490444" lon="10.110134">
        <ele>463.926330</ele>
        <time>2025-11-11T20:12:59.354Z</time>
      </trkpt>
      <trkpt lat="48.490509" lon="10.109930">
        <ele>464.002123</ele>
        <time>2025-11-11T20:13:01.782Z</time>
      </trkpt>
      <trkpt lat="48.490956" lon="10.109086">
        <ele>464.363887</ele>
        <time>2025-11-11T20:13:13.638Z</time>
      </trkpt>
      <trkpt lat="48.491014" lon="10.108997">
        <ele>464.405682</ele>
        <time>2025-11-11T20:13:15.073Z</time>
      </trkpt>
      <trkpt lat="48.490999" lon="10.108899">
        <ele>464.439360</ele>
        <time>2025-11-11T20:13:16.632Z</time>
      </trkpt>
      <trkpt lat="48.490898" lon="10.108274">
        <ele>464.782351</ele>
        <time>2025-11-11T20:13:26.666Z</time>
      </trkpt>
      <trkpt lat="48.490828" lon="10.107367">
        <ele>465.366669</ele>
        <time>2025-11-11T20:13:41.536Z</time>
      </trkpt>
      <trkpt lat="48.490720" lon="10.106762">
        <ele>465.767611</ele>
        <time>2025-11-11T20:13:51.830Z</time>
      </trkpt>
      <trkpt lat="48.490523" lon="10.105866">
        <ele>466.324057</ele>
        <time>2025-11-11T20:14:06.964Z</time>
      </trkpt>
      <trkpt lat="48.490404" lon="10.105237">
        <ele>466.576860</ele>
        <time>2025-11-11T20:14:17.020Z</time>
      </trkpt>
      <trkpt lat="48.490378" lon="10.104991">
        <ele>466.673134</ele>
        <time>2025-11-11T20:14:20.785Z</time>
      </trkpt>
      <trkpt lat="48.490358" lon="10.103785">
        <ele>467.139367</ele>
        <time>2025-11-11T20:14:38.317Z</time>
      </trkpt>
      <trkpt lat="48.490329" lon="10.103426">
        <ele>467.279139</ele>
        <time>2025-11-11T20:14:43.501Z</time>
      </trkpt>
      <trkpt lat="48.490032" lon="10.101695">
        <ele>467.809595</ele>
        <time>2025-11-11T20:15:09.013Z</time>
      </trkpt>
      <trkpt lat="48.489944" lon="10.100662">
        <ele>468.122480</ele>
        <time>2025-11-11T20:15:24.495Z</time>
      </trkpt>
      <trkpt lat="48.489925" lon="10.099067">
        <ele>468.770638</ele>
        <time>2025-11-11T20:15:48.674Z</time>
      </trkpt>
      <trkpt lat="48.489807" lon="10.099108">
        <ele>468.844871</ele>
        <time>2025-11-11T20:15:51.493Z</time>
      </trkpt>
      <trkpt lat="48.489792" lon="10.098968">
        <ele>468.902492</ele>
        <time>2025-11-11T20:15:53.195Z</time>
      </trkpt>
      <trkpt lat="48.489258" lon="10.096602">
        <ele>470.104137</ele>
        <time>2025-11-11T20:16:21.639Z</time>
      </trkpt>
      <trkpt lat="48.489109" lon="10.096075">
        <ele>470.397303</ele>
        <time>2025-11-11T20:16:28.496Z</time>
      </trkpt>
      <trkpt lat="48.488656" lon="10.094483">
        <ele>471.396491</ele>
        <time>2025-11-11T20:16:51.524Z</time>
      </trkpt>
      <trkpt lat="48.488236" lon="10.093636">
        <ele>472.025551</ele>
        <time>2025-11-11T20:17:04.068Z</time>
      </trkpt>
      <trkpt lat="48.487997" lon="10.093177">
        <ele>472.247705</ele>
        <time>2025-11-11T20:17:10.341Z</time>
      </trkpt>
      <trkpt lat="48.487905" lon="10.092996">
        <ele>472.283542</ele>
        <time>2025-11-11T20:17:12.724Z</time>
      </trkpt>
      <trkpt lat="48.487382" lon="10.091909">
        <ele>472.494578</ele>
        <time>2025-11-11T20:17:25.696Z</time>
      </trkpt>
      <trkpt lat="48.487328" lon="10.091754">
        <ele>472.522090</ele>
        <time>2025-11-11T20:17:27.516Z</time>
      </trkpt>
      <trkpt lat="48.487274" lon="10.091599">
        <ele>472.549602</ele>
        <time>2025-11-11T20:17:29.396Z</time>
      </trkpt>
      <trkpt lat="48.487153" lon="10.091028">
        <ele>472.667252</ele>
        <time>2025-11-11T20:17:35.931Z</time>
      </trkpt>
      <trkpt lat="48.487074" lon="10.090497">
        <ele>472.890321</ele>
        <time>2025-11-11T20:17:42.056Z</time>
      </trkpt>
      <trkpt lat="48.486964" lon="10.089577">
        <ele>473.273508</ele>
        <time>2025-11-11T20:17:56.277Z</time>
      </trkpt>
      <trkpt lat="48.486859" lon="10.088860">
        <ele>473.574490</ele>
        <time>2025-11-11T20:18:07.376Z</time>
      </trkpt>
      <trkpt lat="48.486650" lon="10.087034">
        <ele>474.494650</ele>
        <time>2025-11-11T20:18:35.975Z</time>
      </trkpt>
      <trkpt lat="48.486582" lon="10.085726">
        <ele>475.176242</ele>
        <time>2025-11-11T20:18:56.617Z</time>
      </trkpt>
      <trkpt lat="48.486165" lon="10.081271">
        <ele>477.446633</ele>
        <time>2025-11-11T20:20:05.417Z</time>
      </trkpt>
      <trkpt lat="48.486101" lon="10.079709">
        <ele>478.382005</ele>
        <time>2025-11-11T20:20:30.458Z</time>
      </trkpt>
      <trkpt lat="48.485970" lon="10.078715">
        <ele>479.054623</ele>
        <time>2025-11-11T20:20:46.938Z</time>
      </trkpt>
      <trkpt lat="48.485910" lon="10.077808">
        <ele>479.659576</ele>
        <time>2025-11-11T20:21:01.546Z</time>
      </trkpt>
      <trkpt lat="48.485968" lon="10.076962">
        <ele>480.079821</ele>
        <time>2025-11-11T20:21:14.826Z</time>
      </trkpt>
      <trkpt lat="48.486075" lon="10.076035">
        <ele>480.521492</ele>
        <time>2025-11-11T20:21:29.087Z</time>
      </trkpt>
      <trkpt lat="48.486016" lon="10.075659">
        <ele>480.702860</ele>
        <time>2025-11-11T20:21:34.878Z</time>
      </trkpt>
      <trkpt lat="48.485973" lon="10.075440">
        <ele>480.810071</ele>
        <time>2025-11-11T20:21:38.301Z</time>
      </trkpt>
      <trkpt lat="48.485914" lon="10.074758">
        <ele>481.182712</ele>
        <time>2025-11-11T20:21:48.610Z</time>
      </trkpt>
      <trkpt lat="48.485908" lon="10.074532">
        <ele>481.330269</ele>
        <time>2025-11-11T20:21:52.062Z</time>
      </trkpt>
      <trkpt lat="48.485985" lon="10.074084">
        <ele>481.632202</ele>
        <time>2025-11-11T20:21:59.184Z</time>
      </trkpt>
      <trkpt lat="48.485985" lon="10.073968">
        <ele>481.707879</ele>
        <time>2025-11-11T20:22:01.021Z</time>
      </trkpt>
      <trkpt lat="48.485938" lon="10.073709">
        <ele>481.883064</ele>
        <time>2025-11-11T20:22:05.296Z</time>
      </trkpt>
      <trkpt lat="48.485373" lon="10.071178">
        <ele>483.677895</ele>
        <time>2025-11-11T20:22:49.735Z</time>
      </trkpt>
      <trkpt lat="48.485371" lon="10.071169">
        <ele>483.684470</ele>
        <time>2025-11-11T20:22:49.894Z</time>
      </trkpt>
      <trkpt lat="48.485191" lon="10.070007">
        <ele>484.511076</ele>
        <time>2025-11-11T20:23:09.227Z</time>
      </trkpt>
      <trkpt lat="48.485086" lon="10.069489">
        <ele>484.776878</ele>
        <time>2025-11-11T20:23:17.396Z</time>
      </trkpt>
      <trkpt lat="48.485051" lon="10.069339">
        <ele>484.834862</ele>
        <time>2025-11-11T20:23:19.169Z</time>
      </trkpt>
      <trkpt lat="48.484986" lon="10.069088">
        <ele>484.933120</ele>
        <time>2025-11-11T20:23:22.097Z</time>
      </trkpt>
      <trkpt lat="48.484214" lon="10.067000">
        <ele>486.133794</ele>
        <time>2025-11-11T20:23:47.741Z</time>
      </trkpt>
      <trkpt lat="48.483571" lon="10.065251">
        <ele>488.360515</ele>
        <time>2025-11-11T20:24:17.416Z</time>
      </trkpt>
      <trkpt lat="48.483331" lon="10.064845">
        <ele>489.031310</ele>
        <time>2025-11-11T20:24:26.668Z</time>
      </trkpt>
      <trkpt lat="48.483262" lon="10.064593">
        <ele>489.400708</ele>
        <time>2025-11-11T20:24:31.311Z</time>
      </trkpt>
      <trkpt lat="48.483357" lon="10.064491">
        <ele>489.639040</ele>
        <time>2025-11-11T20:24:34.894Z</time>
      </trkpt>
      <trkpt lat="48.483467" lon="10.064378">
        <ele>489.911050</ele>
        <time>2025-11-11T20:24:38.960Z</time>
      </trkpt>
      <trkpt lat="48.484228" lon="10.063695">
        <ele>491.720940</ele>
        <time>2025-11-11T20:25:04.702Z</time>
      </trkpt>
      <trkpt lat="48.484398" lon="10.063558">
        <ele>492.114881</ele>
        <time>2025-11-11T20:25:09.800Z</time>
      </trkpt>
      <trkpt lat="48.484540" lon="10.063504">
        <ele>492.348222</ele>
        <time>2025-11-11T20:25:13.449Z</time>
      </trkpt>
      <trkpt lat="48.484504" lon="10.063116">
        <ele>492.392155</ele>
        <time>2025-11-11T20:25:18.377Z</time>
      </trkpt>
      <trkpt lat="48.484414" lon="10.062620">
        <ele>492.449821</ele>
        <time>2025-11-11T20:25:24.457Z</time>
      </trkpt>
      <trkpt lat="48.484016" lon="10.061268">
        <ele>492.615710</ele>
        <time>2025-11-11T20:25:37.870Z</time>
      </trkpt>
      <trkpt lat="48.483781" lon="10.060495">
        <ele>492.905483</ele>
        <time>2025-11-11T20:25:45.099Z</time>
      </trkpt>
      <trkpt lat="48.483909" lon="10.060266">
        <ele>493.040301</ele>
        <time>2025-11-11T20:25:47.726Z</time>
      </trkpt>
      <trkpt lat="48.483914" lon="10.060155">
        <ele>493.090373</ele>
        <time>2025-11-11T20:25:48.731Z</time>
      </trkpt>
      <trkpt lat="48.483948" lon="10.059524">
        <ele>493.375299</ele>
        <time>2025-11-11T20:25:55.616Z</time>
      </trkpt>
      <trkpt lat="48.483964" lon="10.059318">
        <ele>493.468646</ele>
        <time>2025-11-11T20:25:58.246Z</time>
      </trkpt>
      <trkpt lat="48.484002" lon="10.058999">
        <ele>493.614516</ele>
        <time>2025-11-11T20:26:02.662Z</time>
      </trkpt>
      <trkpt lat="48.484059" lon="10.058639">
        <ele>493.781097</ele>
        <time>2025-11-11T20:26:08.223Z</time>
      </trkpt>
      <trkpt lat="48.484111" lon="10.058310">
        <ele>494.133547</ele>
        <time>2025-11-11T20:26:13.592Z</time>
      </trkpt>
      <trkpt lat="48.484181" lon="10.058024">
        <ele>494.690361</ele>
        <time>2025-11-11T20:26:18.677Z</time>
      </trkpt>
      <trkpt lat="48.484362" lon="10.057313">
        <ele>496.081385</ele>
        <time>2025-11-11T20:26:31.989Z</time>
      </trkpt>
      <trkpt lat="48.484414" lon="10.056827">
        <ele>496.980484</ele>
        <time>2025-11-11T20:26:40.614Z</time>
      </trkpt>
      <trkpt lat="48.484504" lon="10.055808">
        <ele>498.884753</ele>
        <time>2025-11-11T20:26:58.257Z</time>
      </trkpt>
      <trkpt lat="48.484495" lon="10.055563">
        <ele>499.684268</ele>
        <time>2025-11-11T20:27:03.578Z</time>
      </trkpt>
      <trkpt lat="48.484450" lon="10.055334">
        <ele>500.462527</ele>
        <time>2025-11-11T20:27:08.926Z</time>
      </trkpt>
      <trkpt lat="48.484507" lon="10.054987">
        <ele>501.627370</ele>
        <time>2025-11-11T20:27:17.333Z</time>
      </trkpt>
      <trkpt lat="48.484588" lon="10.054058">
        <ele>504.680432</ele>
        <time>2025-11-11T20:27:41.288Z</time>
      </trkpt>
      <trkpt lat="48.484640" lon="10.053733">
        <ele>505.769802</ele>
        <time>2025-11-11T20:27:50.851Z</time>
      </trkpt>
      <trkpt lat="48.484765" lon="10.053326">
        <ele>507.231383</ele>
        <time>2025-11-11T20:28:04.700Z</time>
      </trkpt>
      <trkpt lat="48.484870" lon="10.053123">
        <ele>508.251462</ele>
        <time>2025-11-11T20:28:12.846Z</time>
      </trkpt>
      <trkpt lat="48.485644" lon="10.052022">
        <ele>515.820685</ele>
        <time>2025-11-11T20:29:07.995Z</time>
      </trkpt>
      <trkpt lat="48.485864" lon="10.051834">
        <ele>517.619734</ele>
        <time>2025-11-11T20:29:21.209Z</time>
      </trkpt>
      <trkpt lat="48.486040" lon="10.051746">
        <ele>518.939027</ele>
        <time>2025-11-11T20:29:30.410Z</time>
      </trkpt>
      <trkpt lat="48.486225" lon="10.051720">
        <ele>520.261079</ele>
        <time>2025-11-11T20:29:39.245Z</time>
      </trkpt>
      <trkpt lat="48.486689" lon="10.051820">
        <ele>521.402299</ele>
        <time>2025-11-11T20:29:58.551Z</time>
      </trkpt>
      <trkpt lat="48.486728" lon="10.051831">
        <ele>521.486882</ele>
        <time>2025-11-11T20:29:59.992Z</time>
      </trkpt>
      <trkpt lat="48.487263" lon="10.052233">
        <ele>522.761058</ele>
        <time>2025-11-11T20:30:17.686Z</time>
      </trkpt>
      <trkpt lat="48.487250" lon="10.050662">
        <ele>524.003575</ele>
        <time>2025-11-11T20:30:36.319Z</time>
      </trkpt>
      <trkpt lat="48.487275" lon="10.045457">
        <ele>520.950666</ele>
        <time>2025-11-11T20:31:36.281Z</time>
      </trkpt>
      <trkpt lat="48.487285" lon="10.044108">
        <ele>520.787921</ele>
        <time>2025-11-11T20:31:53.583Z</time>
      </trkpt>
      <trkpt lat="48.487288" lon="10.042713">
        <ele>520.833361</ele>
        <time>2025-11-11T20:32:12.488Z</time>
      </trkpt>
      <trkpt lat="48.487293" lon="10.041049">
        <ele>521.854211</ele>
        <time>2025-11-11T20:32:37.876Z</time>
      </trkpt>
      <trkpt lat="48.487301" lon="10.038451">
        <ele>524.572358</ele>
        <time>2025-11-11T20:33:25.787Z</time>
      </trkpt>
      <trkpt lat="48.487321" lon="10.036195">
        <ele>527.119738</ele>
        <time>2025-11-11T20:34:06.879Z</time>
      </trkpt>
      <trkpt lat="48.487331" lon="10.034728">
        <ele>528.460436</ele>
        <time>2025-11-11T20:34:33.296Z</time>
      </trkpt>
      <trkpt lat="48.487342" lon="10.033219">
        <ele>527.539502</ele>
        <time>2025-11-11T20:34:54.036Z</time>
      </trkpt>
      <trkpt lat="48.487342" lon="10.032851">
        <ele>527.314927</ele>
        <time>2025-11-11T20:34:58.003Z</time>
      </trkpt>
      <trkpt lat="48.487204" lon="10.032806">
        <ele>527.184931</ele>
        <time>2025-11-11T20:34:59.510Z</time>
      </trkpt>
      <trkpt lat="48.487143" lon="10.032786">
        <ele>527.127454</ele>
        <time>2025-11-11T20:35:00.152Z</time>
      </trkpt>
      <trkpt lat="48.486982" lon="10.032734">
        <ele>526.975855</ele>
        <time>2025-11-11T20:35:01.826Z</time>
      </trkpt>
      <trkpt lat="48.486673" lon="10.032633">
        <ele>525.772319</ele>
        <time>2025-11-11T20:35:04.942Z</time>
      </trkpt>
      <trkpt lat="48.486622" lon="10.032616">
        <ele>525.507099</ele>
        <time>2025-11-11T20:35:05.443Z</time>
      </trkpt>
      <trkpt lat="48.486587" lon="10.032605">
        <ele>525.325555</ele>
        <time>2025-11-11T20:35:05.788Z</time>
      </trkpt>
      <trkpt lat="48.486532" lon="10.032590">
        <ele>525.041742</ele>
        <time>2025-11-11T20:35:06.307Z</time>
      </trkpt>
      <trkpt lat="48.486358" lon="10.032544">
        <ele>524.144716</ele>
        <time>2025-11-11T20:35:07.959Z</time>
      </trkpt>
      <trkpt lat="48.486309" lon="10.032531">
        <ele>523.892079</ele>
        <time>2025-11-11T20:35:08.417Z</time>
      </trkpt>
      <trkpt lat="48.486213" lon="10.032505">
        <ele>523.396803</ele>
        <time>2025-11-11T20:35:09.317Z</time>
      </trkpt>
      <trkpt lat="48.485860" lon="10.032411">
        <ele>521.576580</ele>
        <time>2025-11-11T20:35:12.621Z</time>
      </trkpt>
      <trkpt lat="48.485667" lon="10.032360">
        <ele>520.581616</ele>
        <time>2025-11-11T20:35:14.424Z</time>
      </trkpt>
      <trkpt lat="48.485410" lon="10.032323">
        <ele>519.270654</ele>
        <time>2025-11-11T20:35:16.805Z</time>
      </trkpt>
      <trkpt lat="48.485402" lon="10.032265">
        <ele>519.071260</ele>
        <time>2025-11-11T20:35:17.169Z</time>
      </trkpt>
      <trkpt lat="48.485365" lon="10.032028">
        <ele>518.251755</ele>
        <time>2025-11-11T20:35:18.658Z</time>
      </trkpt>
      <trkpt lat="48.485323" lon="10.031801">
        <ele>517.545438</ele>
        <time>2025-11-11T20:35:20.109Z</time>
      </trkpt>
      <trkpt lat="48.485302" lon="10.031687">
        <ele>517.264578</ele>
        <time>2025-11-11T20:35:20.840Z</time>
      </trkpt>
      <trkpt lat="48.485284" lon="10.031594">
        <ele>517.034604</ele>
        <time>2025-11-11T20:35:21.442Z</time>
      </trkpt>
      <trkpt lat="48.485256" lon="10.031440">
        <ele>516.655548</ele>
        <time>2025-11-11T20:35:22.436Z</time>
      </trkpt>
      <trkpt lat="48.485253" lon="10.031408">
        <ele>516.578833</ele>
        <time>2025-11-11T20:35:22.643Z</time>
      </trkpt>
      <trkpt lat="48.485233" lon="10.031172">
        <ele>516.014075</ele>
        <time>2025-11-11T20:35:24.138Z</time>
      </trkpt>
      <trkpt lat="48.485226" lon="10.031047">
        <ele>515.716304</ele>
        <time>2025-11-11T20:35:24.924Z</time>
      </trkpt>
      <trkpt lat="48.485219" lon="10.030840">
        <ele>515.224305</ele>
        <time>2025-11-11T20:35:26.246Z</time>
      </trkpt>
      <trkpt lat="48.485203" lon="10.030626">
        <ele>514.713108</ele>
        <time>2025-11-11T20:35:27.630Z</time>
      </trkpt>
      <trkpt lat="48.485173" lon="10.030071">
        <ele>513.391321</ele>
        <time>2025-11-11T20:35:31.366Z</time>
      </trkpt>
      <trkpt lat="48.485061" lon="10.029361">
        <ele>511.658906</ele>
        <time>2025-11-11T20:35:36.639Z</time>
      </trkpt>
      <trkpt lat="48.485045" lon="10.028998">
        <ele>511.150517</ele>
        <time>2025-11-11T20:35:39.376Z</time>
      </trkpt>
      <trkpt lat="48.485042" lon="10.028925">
        <ele>511.096261</ele>
        <time>2025-11-11T20:35:39.938Z</time>
      </trkpt>
      <trkpt lat="48.485011" lon="10.028317">
        <ele>510.643910</ele>
        <time>2025-11-11T20:35:44.656Z</time>
      </trkpt>
      <trkpt lat="48.484937" lon="10.027790">
        <ele>510.244302</ele>
        <time>2025-11-11T20:35:48.950Z</time>
      </trkpt>
      <trkpt lat="48.484867" lon="10.027399">
        <ele>509.943861</ele>
        <time>2025-11-11T20:35:52.289Z</time>
      </trkpt>
      <trkpt lat="48.484721" lon="10.027065">
        <ele>509.647067</ele>
        <time>2025-11-11T20:35:55.670Z</time>
      </trkpt>
      <trkpt lat="48.484712" lon="10.027046">
        <ele>509.629743</ele>
        <time>2025-11-11T20:35:55.861Z</time>
      </trkpt>
      <trkpt lat="48.484394" lon="10.026385">
        <ele>509.355631</ele>
        <time>2025-11-11T20:36:02.776Z</time>
      </trkpt>
      <trkpt lat="48.484341" lon="10.026281">
        <ele>509.375674</ele>
        <time>2025-11-11T20:36:03.879Z</time>
      </trkpt>
      <trkpt lat="48.484144" lon="10.026008">
        <ele>509.437331</ele>
        <time>2025-11-11T20:36:07.396Z</time>
      </trkpt>
      <trkpt lat="48.484122" lon="10.025978">
        <ele>509.444166</ele>
        <time>2025-11-11T20:36:07.790Z</time>
      </trkpt>
      <trkpt lat="48.483840" lon="10.025652">
        <ele>509.526055</ele>
        <time>2025-11-11T20:36:13.186Z</time>
      </trkpt>
      <trkpt lat="48.483489" lon="10.025270">
        <ele>509.625814</ele>
        <time>2025-11-11T20:36:20.469Z</time>
      </trkpt>
      <trkpt lat="48.483788" lon="10.024931">
        <ele>509.712025</ele>
        <time>2025-11-11T20:36:27.693Z</time>
      </trkpt>
      <trkpt lat="48.484076" lon="10.024622">
        <ele>510.657882</ele>
        <time>2025-11-11T20:36:35.050Z</time>
      </trkpt>
      <trkpt lat="48.484323" lon="10.024430">
        <ele>511.414564</ele>
        <time>2025-11-11T20:36:41.398Z</time>
      </trkpt>
      <trkpt lat="48.484769" lon="10.024117">
        <ele>512.754120</ele>
        <time>2025-11-11T20:36:54.509Z</time>
      </trkpt>
      <trkpt lat="48.485390" lon="10.023838">
        <ele>514.518665</ele>
        <time>2025-11-11T20:37:13.840Z</time>
      </trkpt>
      <trkpt lat="48.485716" lon="10.023784">
        <ele>515.560138</ele>
        <time>2025-11-11T20:37:23.595Z</time>
      </trkpt>
      <trkpt lat="48.486047" lon="10.023730">
        <ele>516.634920</ele>
        <time>2025-11-11T20:37:33.234Z</time>
      </trkpt>
      <trkpt lat="48.486044" lon="10.023222">
        <ele>517.721929</ele>
        <time>2025-11-11T20:37:42.676Z</time>
      </trkpt>
      <trkpt lat="48.485958" lon="10.021658">
        <ele>521.199397</ele>
        <time>2025-11-11T20:38:09.786Z</time>
      </trkpt>
      <trkpt lat="48.485926" lon="10.021407">
        <ele>521.845068</ele>
        <time>2025-11-11T20:38:14.468Z</time>
      </trkpt>
      <trkpt lat="48.485830" lon="10.020975">
        <ele>522.996040</ele>
        <time>2025-11-11T20:38:23.160Z</time>
      </trkpt>
      <trkpt lat="48.485758" lon="10.020512">
        <ele>524.197381</ele>
        <time>2025-11-11T20:38:32.618Z</time>
      </trkpt>
      <trkpt lat="48.485738" lon="10.019938">
        <ele>525.649362</ele>
        <time>2025-11-11T20:38:44.599Z</time>
      </trkpt>
      <trkpt lat="48.485757" lon="10.019296">
        <ele>527.272731</ele>
        <time>2025-11-11T20:38:58.548Z</time>
      </trkpt>
      <trkpt lat="48.485790" lon="10.019013">
        <ele>528.149464</ele>
        <time>2025-11-11T20:39:05.004Z</time>
      </trkpt>
      <trkpt lat="48.485927" lon="10.018409">
        <ele>530.097511</ele>
        <time>2025-11-11T20:39:19.434Z</time>
      </trkpt>
      <trkpt lat="48.486634" lon="10.016454">
        <ele>536.702889</ele>
        <time>2025-11-11T20:40:08.081Z</time>
      </trkpt>
      <trkpt lat="48.486744" lon="10.016012">
        <ele>537.938666</ele>
        <time>2025-11-11T20:40:19.382Z</time>
      </trkpt>
      <trkpt lat="48.486843" lon="10.015291">
        <ele>539.865910</ele>
        <time>2025-11-11T20:40:35.997Z</time>
      </trkpt>
      <trkpt lat="48.486901" lon="10.014532">
        <ele>541.865703</ele>
        <time>2025-11-11T20:40:51.579Z</time>
      </trkpt>
      <trkpt lat="48.486959" lon="10.014570">
        <ele>542.115414</ele>
        <time>2025-11-11T20:40:53.373Z</time>
      </trkpt>
      <trkpt lat="48.487190" lon="10.006763">
        <ele>547.455480</ele>
        <time>2025-11-11T20:42:29.515Z</time>
      </trkpt>
      <trkpt lat="48.487686" lon="10.006867">
        <ele>547.740534</ele>
        <time>2025-11-11T20:42:35.841Z</time>
      </trkpt>
      <trkpt lat="48.486632" lon="10.003803">
        <ele>550.000090</ele>
        <time>2025-11-11T20:43:14.415Z</time>
      </trkpt>
      <trkpt lat="48.486376" lon="10.003159">
        <ele>551.246313</ele>
        <time>2025-11-11T20:43:27.270Z</time>
      </trkpt>
      <trkpt lat="48.485827" lon="10.002728">
        <ele>552.795880</ele>
        <time>2025-11-11T20:43:46.119Z</time>
      </trkpt>
      <trkpt lat="48.485628" lon="10.002569">
        <ele>553.848145</ele>
        <time>2025-11-11T20:43:53.735Z</time>
      </trkpt>
      <trkpt lat="48.485238" lon="10.000796">
        <ele>560.313481</ele>
        <time>2025-11-11T20:44:38.333Z</time>
      </trkpt>
      <trkpt lat="48.485117" lon="10.000439">
        <ele>561.701214</ele>
        <time>2025-11-11T20:44:48.233Z</time>
      </trkpt>
      <trkpt lat="48.484629" lon="9.999618">
        <ele>566.198703</ele>
        <time>2025-11-11T20:45:16.161Z</time>
      </trkpt>
      <trkpt lat="48.484624" lon="9.999606">
        <ele>566.258143</ele>
        <time>2025-11-11T20:45:16.531Z</time>
      </trkpt>
      <trkpt lat="48.484003" lon="9.998211">
        <ele>573.305184</ele>
        <time>2025-11-11T20:46:03.352Z</time>
      </trkpt>
      <trkpt lat="48.483919" lon="9.997975">
        <ele>574.252242</ele>
        <time>2025-11-11T20:46:10.762Z</time>
      </trkpt>
      <trkpt lat="48.483640" lon="9.997235">
        <ele>576.980028</ele>
        <time>2025-11-11T20:46:33.006Z</time>
      </trkpt>
      <trkpt lat="48.482768" lon="9.994459">
        <ele>585.021759</ele>
        <time>2025-11-11T20:47:34.455Z</time>
      </trkpt>
      <trkpt lat="48.482733" lon="9.994292">
        <ele>585.355652</ele>
        <time>2025-11-11T20:47:37.298Z</time>
      </trkpt>
      <trkpt lat="48.482735" lon="9.994116">
        <ele>585.691218</ele>
        <time>2025-11-11T20:47:40.089Z</time>
      </trkpt>
      <trkpt lat="48.482941" lon="9.993010">
        <ele>587.698842</ele>
        <time>2025-11-11T20:47:57.346Z</time>
      </trkpt>
      <trkpt lat="48.483060" lon="9.992645">
        <ele>588.048699</ele>
        <time>2025-11-11T20:48:02.721Z</time>
      </trkpt>
      <trkpt lat="48.483317" lon="9.992149">
        <ele>588.590183</ele>
        <time>2025-11-11T20:48:10.590Z</time>
      </trkpt>
      <trkpt lat="48.483289" lon="9.992082">
        <ele>588.658306</ele>
        <time>2025-11-11T20:48:11.584Z</time>
      </trkpt>
      <trkpt lat="48.483248" lon="9.991990">
        <ele>588.753657</ele>
        <time>2025-11-11T20:48:12.963Z</time>
      </trkpt>
      <trkpt lat="48.483255" lon="9.991847">
        <ele>588.876986</ele>
        <time>2025-11-11T20:48:14.779Z</time>
      </trkpt>
      <trkpt lat="48.483237" lon="9.991771">
        <ele>588.946401</ele>
        <time>2025-11-11T20:48:15.795Z</time>
      </trkpt>
      <trkpt lat="48.482851" lon="9.990808">
        <ele>589.907028</ele>
        <time>2025-11-11T20:48:30.525Z</time>
      </trkpt>
      <trkpt lat="48.482613" lon="9.990074">
        <ele>590.447015</ele>
        <time>2025-11-11T20:48:41.596Z</time>
      </trkpt>
      <trkpt lat="48.482420" lon="9.989220">
        <ele>591.043279</ele>
        <time>2025-11-11T20:48:53.158Z</time>
      </trkpt>
      <trkpt lat="48.482376" lon="9.988986">
        <ele>591.204020</ele>
        <time>2025-11-11T20:48:56.171Z</time>
      </trkpt>
      <trkpt lat="48.482391" lon="9.988926">
        <ele>591.246397</ele>
        <time>2025-11-11T20:48:56.960Z</time>
      </trkpt>
      <trkpt lat="48.482307" lon="9.988471">
        <ele>591.558529</ele>
        <time>2025-11-11T20:49:02.462Z</time>
      </trkpt>
      <trkpt lat="48.482255" lon="9.988199">
        <ele>591.744739</ele>
        <time>2025-11-11T20:49:05.563Z</time>
      </trkpt>
      <trkpt lat="48.482230" lon="9.987933">
        <ele>591.920071</ele>
        <time>2025-11-11T20:49:08.406Z</time>
      </trkpt>
      <trkpt lat="48.482219" lon="9.987606">
        <ele>592.133750</ele>
        <time>2025-11-11T20:49:11.868Z</time>
      </trkpt>
      <trkpt lat="48.482174" lon="9.987265">
        <ele>592.360659</ele>
        <time>2025-11-11T20:49:15.509Z</time>
      </trkpt>
      <trkpt lat="48.481990" lon="9.986616">
        <ele>592.821323</ele>
        <time>2025-11-11T20:49:23.704Z</time>
      </trkpt>
      <trkpt lat="48.481899" lon="9.986295">
        <ele>593.049168</ele>
        <time>2025-11-11T20:49:28.423Z</time>
      </trkpt>
      <trkpt lat="48.481870" lon="9.986160">
        <ele>593.141782</ele>
        <time>2025-11-11T20:49:30.466Z</time>
      </trkpt>
      <trkpt lat="48.481836" lon="9.985869">
        <ele>593.334622</ele>
        <time>2025-11-11T20:49:34.897Z</time>
      </trkpt>
      <trkpt lat="48.481771" lon="9.985662">
        <ele>593.497724</ele>
        <time>2025-11-11T20:49:38.359Z</time>
      </trkpt>
      <trkpt lat="48.481646" lon="9.985005">
        <ele>594.106829</ele>
        <time>2025-11-11T20:49:48.868Z</time>
      </trkpt>
      <trkpt lat="48.481583" lon="9.984783">
        <ele>594.322026</ele>
        <time>2025-11-11T20:49:52.544Z</time>
      </trkpt>
      <trkpt lat="48.481470" lon="9.984436">
        <ele>594.666546</ele>
        <time>2025-11-11T20:49:58.282Z</time>
      </trkpt>
      <trkpt lat="48.481240" lon="9.983789">
        <ele>595.320783</ele>
        <time>2025-11-11T20:50:07.920Z</time>
      </trkpt>
      <trkpt lat="48.481230" lon="9.983763">
        <ele>595.347571</ele>
        <time>2025-11-11T20:50:08.250Z</time>
      </trkpt>
      <trkpt lat="48.481215" lon="9.983727">
        <ele>595.385463</ele>
        <time>2025-11-11T20:50:08.734Z</time>
      </trkpt>
      <trkpt lat="48.481096" lon="9.983427">
        <ele>595.697013</ele>
        <time>2025-11-11T20:50:12.814Z</time>
      </trkpt>
      <trkpt lat="48.480932" lon="9.983018">
        <ele>595.868105</ele>
        <time>2025-11-11T20:50:18.072Z</time>
      </trkpt>
      <trkpt lat="48.480897" lon="9.982922">
        <ele>595.869331</ele>
        <time>2025-11-11T20:50:19.117Z</time>
      </trkpt>
      <trkpt lat="48.480691" lon="9.982355">
        <ele>595.876565</ele>
        <time>2025-11-11T20:50:25.165Z</time>
      </trkpt>
      <trkpt lat="48.480510" lon="9.981782">
        <ele>595.883666</ele>
        <time>2025-11-11T20:50:30.964Z</time>
      </trkpt>
      <trkpt lat="48.480339" lon="9.981176">
        <ele>595.891035</ele>
        <time>2025-11-11T20:50:37.323Z</time>
      </trkpt>
      <trkpt lat="48.480230" lon="9.980682">
        <ele>595.894830</ele>
        <time>2025-11-11T20:50:42.611Z</time>
      </trkpt>
      <trkpt lat="48.480172" lon="9.980282">
        <ele>595.893732</ele>
        <time>2025-11-11T20:50:46.637Z</time>
      </trkpt>
      <trkpt lat="48.480115" lon="9.980051">
        <ele>595.893072</ele>
        <time>2025-11-11T20:50:48.915Z</time>
      </trkpt>
      <trkpt lat="48.480084" lon="9.979854">
        <ele>595.892529</ele>
        <time>2025-11-11T20:50:50.818Z</time>
      </trkpt>
      <trkpt lat="48.480047" lon="9.979588">
        <ele>595.891801</ele>
        <time>2025-11-11T20:50:53.412Z</time>
      </trkpt>
      <trkpt lat="48.479961" lon="9.978740">
        <ele>595.889502</ele>
        <time>2025-11-11T20:51:02.018Z</time>
      </trkpt>
      <trkpt lat="48.479943" lon="9.978015">
        <ele>595.908662</ele>
        <time>2025-11-11T20:51:09.039Z</time>
      </trkpt>
      <trkpt lat="48.479979" lon="9.977018">
        <ele>596.049727</ele>
        <time>2025-11-11T20:51:18.869Z</time>
      </trkpt>
      <trkpt lat="48.480077" lon="9.976157">
        <ele>596.173148</ele>
        <time>2025-11-11T20:51:28.177Z</time>
      </trkpt>
      <trkpt lat="48.480226" lon="9.975267">
        <ele>596.340768</ele>
        <time>2025-11-11T20:51:38.234Z</time>
      </trkpt>
      <trkpt lat="48.480441" lon="9.974438">
        <ele>596.617783</ele>
        <time>2025-11-11T20:51:48.396Z</time>
      </trkpt>
      <trkpt lat="48.480775" lon="9.973472">
        <ele>596.956822</ele>
        <time>2025-11-11T20:52:00.454Z</time>
      </trkpt>
      <trkpt lat="48.481267" lon="9.972466">
        <ele>597.263691</ele>
        <time>2025-11-11T20:52:13.992Z</time>
      </trkpt>
      <trkpt lat="48.481695" lon="9.971761">
        <ele>597.454996</ele>
        <time>2025-11-11T20:52:24.164Z</time>
      </trkpt>
      <trkpt lat="48.482126" lon="9.971146">
        <ele>597.634091</ele>
        <time>2025-11-11T20:52:33.495Z</time>
      </trkpt>
      <trkpt lat="48.482963" lon="9.969931">
        <ele>598.387313</ele>
        <time>2025-11-11T20:52:52.307Z</time>
      </trkpt>
      <trkpt lat="48.483497" lon="9.968793">
        <ele>599.143330</ele>
        <time>2025-11-11T20:53:09.717Z</time>
      </trkpt>
      <trkpt lat="48.483927" lon="9.967665">
        <ele>600.280951</ele>
        <time>2025-11-11T20:53:28.842Z</time>
      </trkpt>
      <trkpt lat="48.484267" lon="9.966433">
        <ele>601.285759</ele>
        <time>2025-11-11T20:53:46.276Z</time>
      </trkpt>
      <trkpt lat="48.484371" lon="9.965953">
        <ele>601.375740</ele>
        <time>2025-11-11T20:53:51.739Z</time>
      </trkpt>
      <trkpt lat="48.484474" lon="9.965438">
        <ele>601.471589</ele>
        <time>2025-11-11T20:53:56.902Z</time>
      </trkpt>
      <trkpt lat="48.484559" lon="9.964882">
        <ele>601.573259</ele>
        <time>2025-11-11T20:54:02.065Z</time>
      </trkpt>
      <trkpt lat="48.484674" lon="9.963871">
        <ele>601.872883</ele>
        <time>2025-11-11T20:54:11.615Z</time>
      </trkpt>
      <trkpt lat="48.484797" lon="9.962486">
        <ele>603.153463</ele>
        <time>2025-11-11T20:54:30.474Z</time>
      </trkpt>
      <trkpt lat="48.484857" lon="9.961104">
        <ele>604.382675</ele>
        <time>2025-11-11T20:54:51.742Z</time>
      </trkpt>
      <trkpt lat="48.484863" lon="9.960687">
        <ele>604.691432</ele>
        <time>2025-11-11T20:54:57.899Z</time>
      </trkpt>
      <trkpt lat="48.484866" lon="9.959575">
        <ele>605.514596</ele>
        <time>2025-11-11T20:55:12.439Z</time>
      </trkpt>
      <trkpt lat="48.484843" lon="9.958596">
        <ele>606.225409</ele>
        <time>2025-11-11T20:55:23.065Z</time>
      </trkpt>
      <trkpt lat="48.484738" lon="9.957161">
        <ele>606.356380</ele>
        <time>2025-11-11T20:55:38.012Z</time>
      </trkpt>
      <trkpt lat="48.484612" lon="9.955850">
        <ele>606.478908</ele>
        <time>2025-11-11T20:55:51.168Z</time>
      </trkpt>
      <trkpt lat="48.484560" lon="9.954928">
        <ele>606.591161</ele>
        <time>2025-11-11T20:55:59.726Z</time>
      </trkpt>
      <trkpt lat="48.484677" lon="9.953898">
        <ele>606.717933</ele>
        <time>2025-11-11T20:56:10.110Z</time>
      </trkpt>
      <trkpt lat="48.484996" lon="9.951680">
        <ele>607.683850</ele>
        <time>2025-11-11T20:56:37.059Z</time>
      </trkpt>
      <trkpt lat="48.485669" lon="9.947001">
        <ele>610.362583</ele>
        <time>2025-11-11T20:57:36.091Z</time>
      </trkpt>
      <trkpt lat="48.485832" lon="9.945859">
        <ele>610.816585</ele>
        <time>2025-11-11T20:57:49.463Z</time>
      </trkpt>
      <trkpt lat="48.486032" lon="9.944471">
        <ele>610.976681</ele>
        <time>2025-11-11T20:58:04.269Z</time>
      </trkpt>
      <trkpt lat="48.486382" lon="9.942049">
        <ele>610.775000</ele>
        <time>2025-11-11T20:58:26.788Z</time>
      </trkpt>
      <trkpt lat="48.486703" lon="9.939804">
        <ele>610.668740</ele>
        <time>2025-11-11T20:58:48.427Z</time>
      </trkpt>
      <trkpt lat="48.486762" lon="9.939386">
        <ele>610.859048</ele>
        <time>2025-11-11T20:58:53.186Z</time>
      </trkpt>
      <trkpt lat="48.487036" lon="9.937493">
        <ele>611.721859</ele>
        <time>2025-11-11T20:59:16.876Z</time>
      </trkpt>
      <trkpt lat="48.487136" lon="9.936728">
        <ele>612.005819</ele>
        <time>2025-11-11T20:59:26.186Z</time>
      </trkpt>
      <trkpt lat="48.487150" lon="9.936175">
        <ele>612.195596</ele>
        <time>2025-11-11T20:59:32.407Z</time>
      </trkpt>
      <trkpt lat="48.487049" lon="9.934143">
        <ele>612.889501</ele>
        <time>2025-11-11T20:59:54.151Z</time>
      </trkpt>
      <trkpt lat="48.486969" lon="9.933024">
        <ele>613.264377</ele>
        <time>2025-11-11T21:00:06.885Z</time>
      </trkpt>
      <trkpt lat="48.486690" lon="9.930505">
        <ele>613.719275</ele>
        <time>2025-11-11T21:00:35.846Z</time>
      </trkpt>
      <trkpt lat="48.486517" lon="9.929034">
        <ele>613.699875</ele>
        <time>2025-11-11T21:00:49.398Z</time>
      </trkpt>
      <trkpt lat="48.486370" lon="9.927612">
        <ele>613.119225</ele>
        <time>2025-11-11T21:01:01.249Z</time>
      </trkpt>
      <trkpt lat="48.486275" lon="9.925865">
        <ele>612.846162</ele>
        <time>2025-11-11T21:01:16.684Z</time>
      </trkpt>
      <trkpt lat="48.486131" lon="9.925039">
        <ele>613.016919</ele>
        <time>2025-11-11T21:01:26.092Z</time>
      </trkpt>
      <trkpt lat="48.485869" lon="9.923756">
        <ele>613.289812</ele>
        <time>2025-11-11T21:01:42.198Z</time>
      </trkpt>
      <trkpt lat="48.485500" lon="9.922261">
        <ele>613.644118</ele>
        <time>2025-11-11T21:01:59.778Z</time>
      </trkpt>
      <trkpt lat="48.484824" lon="9.920190">
        <ele>614.157751</ele>
        <time>2025-11-11T21:02:22.310Z</time>
      </trkpt>
      <trkpt lat="48.484751" lon="9.919871">
        <ele>614.232928</ele>
        <time>2025-11-11T21:02:26.057Z</time>
      </trkpt>
      <trkpt lat="48.484384" lon="9.917804">
        <ele>614.506582</ele>
        <time>2025-11-11T21:02:51.110Z</time>
      </trkpt>
      <trkpt lat="48.484212" lon="9.916466">
        <ele>614.570880</ele>
        <time>2025-11-11T21:03:03.823Z</time>
      </trkpt>
      <trkpt lat="48.484203" lon="9.916412">
        <ele>614.573506</ele>
        <time>2025-11-11T21:03:04.275Z</time>
      </trkpt>
      <trkpt lat="48.484034" lon="9.915865">
        <ele>614.535818</ele>
        <time>2025-11-11T21:03:09.385Z</time>
      </trkpt>
      <trkpt lat="48.484015" lon="9.915817">
        <ele>614.530497</ele>
        <time>2025-11-11T21:03:09.848Z</time>
      </trkpt>
      <trkpt lat="48.483968" lon="9.915713">
        <ele>614.518518</ele>
        <time>2025-11-11T21:03:10.879Z</time>
      </trkpt>
      <trkpt lat="48.483882" lon="9.915532">
        <ele>614.497325</ele>
        <time>2025-11-11T21:03:12.715Z</time>
      </trkpt>
      <trkpt lat="48.483762" lon="9.915278">
        <ele>614.467641</ele>
        <time>2025-11-11T21:03:15.372Z</time>
      </trkpt>
      <trkpt lat="48.483731" lon="9.915212">
        <ele>614.459942</ele>
        <time>2025-11-11T21:03:16.038Z</time>
      </trkpt>
      <trkpt lat="48.483627" lon="9.914991">
        <ele>614.434149</ele>
        <time>2025-11-11T21:03:18.412Z</time>
      </trkpt>
      <trkpt lat="48.483514" lon="9.914775">
        <ele>614.407961</ele>
        <time>2025-11-11T21:03:20.976Z</time>
      </trkpt>
      <trkpt lat="48.483418" lon="9.914597">
        <ele>614.386123</ele>
        <time>2025-11-11T21:03:23.260Z</time>
      </trkpt>
      <trkpt lat="48.483368" lon="9.914504">
        <ele>614.374727</ele>
        <time>2025-11-11T21:03:24.471Z</time>
      </trkpt>
      <trkpt lat="48.483305" lon="9.914392">
        <ele>614.360747</ele>
        <time>2025-11-11T21:03:26.027Z</time>
      </trkpt>
      <trkpt lat="48.483162" lon="9.914146">
        <ele>614.329608</ele>
        <time>2025-11-11T21:03:29.763Z</time>
      </trkpt>
      <trkpt lat="48.482950" lon="9.913753">
        <ele>614.926160</ele>
        <time>2025-11-11T21:03:36.162Z</time>
      </trkpt>
      <trkpt lat="48.482906" lon="9.913648">
        <ele>615.102918</ele>
        <time>2025-11-11T21:03:37.842Z</time>
      </trkpt>
      <trkpt lat="48.482804" lon="9.913331">
        <ele>615.604315</ele>
        <time>2025-11-11T21:03:42.705Z</time>
      </trkpt>
      <trkpt lat="48.482736" lon="9.913076">
        <ele>615.995418</ele>
        <time>2025-11-11T21:03:46.578Z</time>
      </trkpt>
      <trkpt lat="48.482543" lon="9.912120">
        <ele>617.417413</ele>
        <time>2025-11-11T21:04:03.428Z</time>
      </trkpt>
      <trkpt lat="48.482512" lon="9.911943">
        <ele>617.677912</ele>
        <time>2025-11-11T21:04:06.752Z</time>
      </trkpt>
      <trkpt lat="48.482472" lon="9.911597">
        <ele>618.177672</ele>
        <time>2025-11-11T21:04:13.173Z</time>
      </trkpt>
      <trkpt lat="48.482453" lon="9.911402">
        <ele>618.594380</ele>
        <time>2025-11-11T21:04:16.866Z</time>
      </trkpt>
      <trkpt lat="48.482444" lon="9.911306">
        <ele>618.800639</ele>
        <time>2025-11-11T21:04:18.716Z</time>
      </trkpt>
      <trkpt lat="48.482408" lon="9.910984">
        <ele>619.495322</ele>
        <time>2025-11-11T21:04:25.102Z</time>
      </trkpt>
      <trkpt lat="48.482361" lon="9.910568">
        <ele>620.393066</ele>
        <time>2025-11-11T21:04:33.279Z</time>
      </trkpt>
      <trkpt lat="48.482269" lon="9.909964">
        <ele>621.711479</ele>
        <time>2025-11-11T21:04:45.279Z</time>
      </trkpt>
      <trkpt lat="48.482194" lon="9.909672">
        <ele>622.377674</ele>
        <time>2025-11-11T21:04:51.308Z</time>
      </trkpt>
      <trkpt lat="48.482160" lon="9.909602">
        <ele>622.562289</ele>
        <time>2025-11-11T21:04:53.013Z</time>
      </trkpt>
      <trkpt lat="48.481895" lon="9.909112">
        <ele>623.907637</ele>
        <time>2025-11-11T21:05:03.854Z</time>
      </trkpt>
      <trkpt lat="48.481809" lon="9.908845">
        <ele>624.235145</ele>
        <time>2025-11-11T21:05:08.614Z</time>
      </trkpt>
      <trkpt lat="48.481715" lon="9.908490">
        <ele>624.624818</ele>
        <time>2025-11-11T21:05:14.614Z</time>
      </trkpt>
      <trkpt lat="48.481670" lon="9.908283">
        <ele>624.846881</ele>
        <time>2025-11-11T21:05:18.029Z</time>
      </trkpt>
      <trkpt lat="48.481604" lon="9.908023">
        <ele>625.130682</ele>
        <time>2025-11-11T21:05:22.158Z</time>
      </trkpt>
      <trkpt lat="48.481488" lon="9.907305">
        <ele>625.884003</ele>
        <time>2025-11-11T21:05:31.736Z</time>
      </trkpt>
      <trkpt lat="48.481477" lon="9.907194">
        <ele>625.998409</ele>
        <time>2025-11-11T21:05:33.052Z</time>
      </trkpt>
      <trkpt lat="48.481467" lon="9.906623">
        <ele>626.580664</ele>
        <time>2025-11-11T21:05:39.755Z</time>
      </trkpt>
      <trkpt lat="48.481495" lon="9.906396">
        <ele>626.747911</ele>
        <time>2025-11-11T21:05:42.482Z</time>
      </trkpt>
      <trkpt lat="48.481381" lon="9.906349">
        <ele>626.798778</ele>
        <time>2025-11-11T21:05:44.565Z</time>
      </trkpt>
      <trkpt lat="48.481034" lon="9.906361">
        <ele>626.948174</ele>
        <time>2025-11-11T21:05:50.402Z</time>
      </trkpt>
      <trkpt lat="48.480720" lon="9.906378">
        <ele>627.083414</ele>
        <time>2025-11-11T21:05:55.651Z</time>
      </trkpt>
      <trkpt lat="48.480566" lon="9.906393">
        <ele>627.149837</ele>
        <time>2025-11-11T21:05:58.112Z</time>
      </trkpt>
      <trkpt lat="48.480501" lon="9.906399">
        <ele>627.177866</ele>
        <time>2025-11-11T21:05:59.171Z</time>
      </trkpt>
      <trkpt lat="48.480218" lon="9.906469">
        <ele>627.301302</ele>
        <time>2025-11-11T21:06:03.735Z</time>
      </trkpt>
      <trkpt lat="48.480182" lon="9.906070">
        <ele>627.416194</ele>
        <time>2025-11-11T21:06:09.505Z</time>
      </trkpt>
      <trkpt lat="48.480165" lon="9.905665">
        <ele>627.491887</ele>
        <time>2025-11-11T21:06:15.406Z</time>
      </trkpt>
      <trkpt lat="48.480153" lon="9.905395">
        <ele>627.483983</ele>
        <time>2025-11-11T21:06:19.237Z</time>
      </trkpt>
      <trkpt lat="48.480137" lon="9.905035">
        <ele>627.473445</ele>
        <time>2025-11-11T21:06:24.195Z</time>
      </trkpt>
      <trkpt lat="48.480135" lon="9.904982">
        <ele>627.471894</ele>
        <time>2025-11-11T21:06:24.899Z</time>
      </trkpt>
      <trkpt lat="48.480112" lon="9.904350">
        <ele>627.453407</ele>
        <time>2025-11-11T21:06:33.438Z</time>
      </trkpt>
      <trkpt lat="48.480101" lon="9.904035">
        <ele>627.444194</ele>
        <time>2025-11-11T21:06:37.608Z</time>
      </trkpt>
      <trkpt lat="48.480097" lon="9.903917">
        <ele>627.440743</ele>
        <time>2025-11-11T21:06:39.144Z</time>
      </trkpt>
      <trkpt lat="48.480051" lon="9.901159">
        <ele>627.273709</ele>
        <time>2025-11-11T21:07:13.874Z</time>
      </trkpt>
      <trkpt lat="48.479998" lon="9.898643">
        <ele>627.450532</ele>
        <time>2025-11-11T21:07:50.137Z</time>
      </trkpt>
      <trkpt lat="48.479982" lon="9.897705">
        <ele>627.578335</ele>
        <time>2025-11-11T21:08:03.267Z</time>
      </trkpt>
      <trkpt lat="48.479988" lon="9.896446">
        <ele>626.664155</ele>
        <time>2025-11-11T21:08:18.733Z</time>
      </trkpt>
      <trkpt lat="48.479982" lon="9.893988">
        <ele>624.455715</ele>
        <time>2025-11-11T21:08:44.833Z</time>
      </trkpt>
      <trkpt lat="48.480085" lon="9.892215">
        <ele>622.506571</ele>
        <time>2025-11-11T21:09:03.300Z</time>
      </trkpt>
      <trkpt lat="48.480087" lon="9.891960">
        <ele>622.641480</ele>
        <time>2025-11-11T21:09:06.307Z</time>
      </trkpt>
      <trkpt lat="48.480056" lon="9.891647">
        <ele>622.808902</ele>
        <time>2025-11-11T21:09:10.314Z</time>
      </trkpt>
      <trkpt lat="48.479565" lon="9.889034">
        <ele>624.198649</ele>
        <time>2025-11-11T21:09:57.984Z</time>
      </trkpt>
      <trkpt lat="48.479250" lon="9.887360">
        <ele>624.982070</ele>
        <time>2025-11-11T21:10:24.925Z</time>
      </trkpt>
      <trkpt lat="48.479120" lon="9.886723">
        <ele>624.976587</ele>
        <time>2025-11-11T21:10:33.381Z</time>
      </trkpt>
      <trkpt lat="48.478662" lon="9.884945">
        <ele>623.827844</ele>
        <time>2025-11-11T21:10:54.891Z</time>
      </trkpt>
      <trkpt lat="48.478332" lon="9.882704">
        <ele>623.666317</ele>
        <time>2025-11-11T21:11:21.055Z</time>
      </trkpt>
      <trkpt lat="48.478188" lon="9.882212">
        <ele>623.711301</ele>
        <time>2025-11-11T21:11:30.018Z</time>
      </trkpt>
      <trkpt lat="48.477375" lon="9.880195">
        <ele>627.465078</ele>
        <time>2025-11-11T21:12:21.798Z</time>
      </trkpt>
      <trkpt lat="48.477143" lon="9.879595">
        <ele>628.780128</ele>
        <time>2025-11-11T21:12:33.913Z</time>
      </trkpt>
      <trkpt lat="48.477116" lon="9.879525">
        <ele>628.904193</ele>
        <time>2025-11-11T21:12:35.237Z</time>
      </trkpt>
      <trkpt lat="48.477077" lon="9.879438">
        <ele>628.991843</ele>
        <time>2025-11-11T21:12:36.950Z</time>
      </trkpt>
      <trkpt lat="48.476892" lon="9.878974">
        <ele>629.443726</ele>
        <time>2025-11-11T21:12:45.300Z</time>
      </trkpt>
      <trkpt lat="48.476330" lon="9.877680">
        <ele>630.734792</ele>
        <time>2025-11-11T21:13:04.987Z</time>
      </trkpt>
      <trkpt lat="48.473843" lon="9.871473">
        <ele>632.339453</ele>
        <time>2025-11-11T21:14:18.261Z</time>
      </trkpt>
      <trkpt lat="48.469712" lon="9.863895">
        <ele>637.384275</ele>
        <time>2025-11-11T21:16:19.994Z</time>
      </trkpt>
      <trkpt lat="48.469310" lon="9.863115">
        <ele>636.893611</ele>
        <time>2025-11-11T21:16:27.920Z</time>
      </trkpt>
      <trkpt lat="48.469164" lon="9.862620">
        <ele>636.624538</ele>
        <time>2025-11-11T21:16:31.982Z</time>
      </trkpt>
      <trkpt lat="48.469000" lon="9.860735">
        <ele>636.238525</ele>
        <time>2025-11-11T21:16:47.458Z</time>
      </trkpt>
      <trkpt lat="48.468838" lon="9.858612">
        <ele>636.462899</ele>
        <time>2025-11-11T21:17:12.948Z</time>
      </trkpt>
      <trkpt lat="48.466138" lon="9.857633">
        <ele>638.503020</ele>
        <time>2025-11-11T21:17:57.977Z</time>
      </trkpt>
      <trkpt lat="48.464090" lon="9.856896">
        <ele>642.578204</ele>
        <time>2025-11-11T21:18:51.569Z</time>
      </trkpt>
      <trkpt lat="48.463777" lon="9.856783">
        <ele>643.128133</ele>
        <time>2025-11-11T21:18:58.313Z</time>
      </trkpt>
      <trkpt lat="48.460416" lon="9.855568">
        <ele>644.580267</ele>
        <time>2025-11-11T21:19:52.413Z</time>
      </trkpt>
      <trkpt lat="48.460619" lon="9.852966">
        <ele>645.577727</ele>
        <time>2025-11-11T21:20:25.032Z</time>
      </trkpt>
      <trkpt lat="48.458638" lon="9.852272">
        <ele>643.778316</ele>
        <time>2025-11-11T21:20:49.766Z</time>
      </trkpt>
      <trkpt lat="48.458572" lon="9.852246">
        <ele>643.650136</ele>
        <time>2025-11-11T21:20:50.556Z</time>
      </trkpt>
      <trkpt lat="48.457825" lon="9.853755">
        <ele>641.303608</ele>
        <time>2025-11-11T21:21:04.654Z</time>
      </trkpt>
      <trkpt lat="48.457378" lon="9.854539">
        <ele>639.716957</ele>
        <time>2025-11-11T21:21:11.791Z</time>
      </trkpt>
      <trkpt lat="48.456871" lon="9.855438">
        <ele>637.547231</ele>
        <time>2025-11-11T21:21:19.692Z</time>
      </trkpt>
      <trkpt lat="48.456506" lon="9.856155">
        <ele>635.885360</ele>
        <time>2025-11-11T21:21:25.841Z</time>
      </trkpt>
      <trkpt lat="48.456256" lon="9.856714">
        <ele>635.384074</ele>
        <time>2025-11-11T21:21:30.735Z</time>
      </trkpt>
      <trkpt lat="48.455405" lon="9.858711">
        <ele>634.360688</ele>
        <time>2025-11-11T21:21:52.450Z</time>
      </trkpt>
      <trkpt lat="48.455404" lon="9.858714">
        <ele>634.361436</ele>
        <time>2025-11-11T21:21:52.487Z</time>
      </trkpt>
      <trkpt lat="48.454977" lon="9.859499">
        <ele>634.587496</ele>
        <time>2025-11-11T21:22:04.504Z</time>
      </trkpt>
      <trkpt lat="48.454383" lon="9.860347">
        <ele>634.862129</ele>
        <time>2025-11-11T21:22:18.713Z</time>
      </trkpt>
      <trkpt lat="48.452433" lon="9.862386">
        <ele>633.474706</ele>
        <time>2025-11-11T21:22:49.949Z</time>
      </trkpt>
      <trkpt lat="48.452025" lon="9.862840">
        <ele>632.755212</ele>
        <time>2025-11-11T21:22:55.790Z</time>
      </trkpt>
      <trkpt lat="48.451684" lon="9.863556">
        <ele>631.925681</ele>
        <time>2025-11-11T21:23:02.350Z</time>
      </trkpt>
      <trkpt lat="48.451434" lon="9.863952">
        <ele>631.375890</ele>
        <time>2025-11-11T21:23:06.369Z</time>
      </trkpt>
      <trkpt lat="48.450734" lon="9.864758">
        <ele>629.648112</ele>
        <time>2025-11-11T21:23:16.131Z</time>
      </trkpt>
      <trkpt lat="48.450228" lon="9.865452">
        <ele>628.306265</ele>
        <time>2025-11-11T21:23:23.598Z</time>
      </trkpt>
      <trkpt lat="48.450096" lon="9.865779">
        <ele>627.842402</ele>
        <time>2025-11-11T21:23:26.357Z</time>
      </trkpt>
      <trkpt lat="48.449705" lon="9.866924">
        <ele>626.509984</ele>
        <time>2025-11-11T21:23:35.766Z</time>
      </trkpt>
      <trkpt lat="48.449704" lon="9.866928">
        <ele>626.505561</ele>
        <time>2025-11-11T21:23:35.796Z</time>
      </trkpt>
      <trkpt lat="48.449525" lon="9.867547">
        <ele>625.806911</ele>
        <time>2025-11-11T21:23:40.952Z</time>
      </trkpt>
      <trkpt lat="48.449433" lon="9.867787">
        <ele>625.520115</ele>
        <time>2025-11-11T21:23:43.114Z</time>
      </trkpt>
      <trkpt lat="48.449033" lon="9.869234">
        <ele>625.278185</ele>
        <time>2025-11-11T21:23:56.708Z</time>
      </trkpt>
      <trkpt lat="48.448462" lon="9.871510">
        <ele>626.103822</ele>
        <time>2025-11-11T21:24:25.920Z</time>
      </trkpt>
      <trkpt lat="48.448290" lon="9.872288">
        <ele>626.703082</ele>
        <time>2025-11-11T21:24:37.468Z</time>
      </trkpt>
      <trkpt lat="48.448240" lon="9.872545">
        <ele>626.898793</ele>
        <time>2025-11-11T21:24:41.186Z</time>
      </trkpt>
      <trkpt lat="48.448115" lon="9.872932">
        <ele>627.213337</ele>
        <time>2025-11-11T21:24:46.949Z</time>
      </trkpt>
      <trkpt lat="48.447708" lon="9.873633">
        <ele>627.249764</ele>
        <time>2025-11-11T21:24:57.815Z</time>
      </trkpt>
      <trkpt lat="48.447558" lon="9.873985">
        <ele>627.164073</ele>
        <time>2025-11-11T21:25:01.699Z</time>
      </trkpt>
      <trkpt lat="48.447442" lon="9.874297">
        <ele>627.090816</ele>
        <time>2025-11-11T21:25:04.735Z</time>
      </trkpt>
      <trkpt lat="48.447138" lon="9.875356">
        <ele>626.854474</ele>
        <time>2025-11-11T21:25:13.980Z</time>
      </trkpt>
      <trkpt lat="48.446812" lon="9.876643">
        <ele>626.478190</ele>
        <time>2025-11-11T21:25:25.715Z</time>
      </trkpt>
      <trkpt lat="48.446723" lon="9.877189">
        <ele>626.321842</ele>
        <time>2025-11-11T21:25:31.231Z</time>
      </trkpt>
      <trkpt lat="48.446693" lon="9.877605">
        <ele>626.205480</ele>
        <time>2025-11-11T21:25:35.402Z</time>
      </trkpt>
      <trkpt lat="48.446707" lon="9.878354">
        <ele>625.857913</ele>
        <time>2025-11-11T21:25:42.949Z</time>
      </trkpt>
      <trkpt lat="48.446760" lon="9.880420">
        <ele>624.333435</ele>
        <time>2025-11-11T21:25:59.927Z</time>
      </trkpt>
      <trkpt lat="48.446760" lon="9.880427">
        <ele>624.328274</ele>
        <time>2025-11-11T21:25:59.973Z</time>
      </trkpt>
      <trkpt lat="48.446755" lon="9.881103">
        <ele>623.264123</ele>
        <time>2025-11-11T21:26:04.688Z</time>
      </trkpt>
      <trkpt lat="48.446711" lon="9.881861">
        <ele>621.444888</ele>
        <time>2025-11-11T21:26:09.778Z</time>
      </trkpt>
      <trkpt lat="48.446606" lon="9.884823">
        <ele>613.809097</ele>
        <time>2025-11-11T21:26:28.798Z</time>
      </trkpt>
      <trkpt lat="48.446600" lon="9.885222">
        <ele>612.695014</ele>
        <time>2025-11-11T21:26:31.337Z</time>
      </trkpt>
      <trkpt lat="48.446642" lon="9.886115">
        <ele>610.195974</ele>
        <time>2025-11-11T21:26:37.082Z</time>
      </trkpt>
      <trkpt lat="48.446688" lon="9.886585">
        <ele>609.106297</ele>
        <time>2025-11-11T21:26:40.171Z</time>
      </trkpt>
      <trkpt lat="48.446691" lon="9.887044">
        <ele>608.086260</ele>
        <time>2025-11-11T21:26:43.193Z</time>
      </trkpt>
      <trkpt lat="48.446601" lon="9.887654">
        <ele>606.697592</ele>
        <time>2025-11-11T21:26:47.399Z</time>
      </trkpt>
      <trkpt lat="48.446483" lon="9.888079">
        <ele>605.673760</ele>
        <time>2025-11-11T21:26:50.527Z</time>
      </trkpt>
      <trkpt lat="48.446208" lon="9.888708">
        <ele>604.001355</ele>
        <time>2025-11-11T21:26:55.593Z</time>
      </trkpt>
      <trkpt lat="48.446066" lon="9.889032">
        <ele>603.481896</ele>
        <time>2025-11-11T21:26:58.276Z</time>
      </trkpt>
      <trkpt lat="48.446017" lon="9.888985">
        <ele>603.364777</ele>
        <time>2025-11-11T21:26:59.148Z</time>
      </trkpt>
      <trkpt lat="48.445889" lon="9.889297">
        <ele>602.874052</ele>
        <time>2025-11-11T21:27:01.713Z</time>
      </trkpt>
      <trkpt lat="48.445780" lon="9.889453">
        <ele>602.570964</ele>
        <time>2025-11-11T21:27:03.299Z</time>
      </trkpt>
      <trkpt lat="48.445712" lon="9.889707">
        <ele>602.204567</ele>
        <time>2025-11-11T21:27:05.193Z</time>
      </trkpt>
      <trkpt lat="48.445687" lon="9.889761">
        <ele>602.116479</ele>
        <time>2025-11-11T21:27:05.643Z</time>
      </trkpt>
      <trkpt lat="48.445465" lon="9.890242">
        <ele>601.332633</ele>
        <time>2025-11-11T21:27:09.747Z</time>
      </trkpt>
      <trkpt lat="48.445359" lon="9.890418">
        <ele>601.014638</ele>
        <time>2025-11-11T21:27:11.494Z</time>
      </trkpt>
      <trkpt lat="48.445136" lon="9.890688">
        <ele>600.437854</ele>
        <time>2025-11-11T21:27:15.020Z</time>
      </trkpt>
      <trkpt lat="48.444792" lon="9.890938">
        <ele>600.665883</ele>
        <time>2025-11-11T21:27:21.604Z</time>
      </trkpt>
      <trkpt lat="48.444238" lon="9.891201">
        <ele>601.143575</ele>
        <time>2025-11-11T21:27:32.884Z</time>
      </trkpt>
      <trkpt lat="48.444154" lon="9.891235">
        <ele>601.215107</ele>
        <time>2025-11-11T21:27:34.781Z</time>
      </trkpt>
      <trkpt lat="48.444004" lon="9.891287">
        <ele>601.341694</ele>
        <time>2025-11-11T21:27:38.142Z</time>
      </trkpt>
      <trkpt lat="48.442983" lon="9.891736">
        <ele>601.369296</ele>
        <time>2025-11-11T21:27:59.430Z</time>
      </trkpt>
      <trkpt lat="48.442740" lon="9.891849">
        <ele>601.086841</ele>
        <time>2025-11-11T21:28:02.532Z</time>
      </trkpt>
      <trkpt lat="48.442092" lon="9.892265">
        <ele>600.304544</ele>
        <time>2025-11-11T21:28:10.241Z</time>
      </trkpt>
      <trkpt lat="48.441104" lon="9.892808">
        <ele>599.319260</ele>
        <time>2025-11-11T21:28:26.199Z</time>
      </trkpt>
      <trkpt lat="48.440700" lon="9.893178">
        <ele>598.927164</ele>
        <time>2025-11-11T21:28:34.540Z</time>
      </trkpt>
      <trkpt lat="48.440492" lon="9.893402">
        <ele>598.715134</ele>
        <time>2025-11-11T21:28:39.721Z</time>
      </trkpt>
      <trkpt lat="48.439903" lon="9.893885">
        <ele>598.585646</ele>
        <time>2025-11-11T21:28:56.186Z</time>
      </trkpt>
      <trkpt lat="48.439624" lon="9.894096">
        <ele>598.859444</ele>
        <time>2025-11-11T21:29:04.236Z</time>
      </trkpt>
      <trkpt lat="48.439189" lon="9.894322">
        <ele>599.263033</ele>
        <time>2025-11-11T21:29:15.497Z</time>
      </trkpt>
      <trkpt lat="48.438270" lon="9.894395">
        <ele>600.025992</ele>
        <time>2025-11-11T21:29:36.724Z</time>
      </trkpt>
      <trkpt lat="48.437833" lon="9.894603">
        <ele>600.287016</ele>
        <time>2025-11-11T21:29:46.407Z</time>
      </trkpt>
      <trkpt lat="48.437222" lon="9.895146">
        <ele>600.691019</ele>
        <time>2025-11-11T21:30:02.437Z</time>
      </trkpt>
      <trkpt lat="48.436951" lon="9.895340">
        <ele>600.861901</ele>
        <time>2025-11-11T21:30:09.365Z</time>
      </trkpt>
      <trkpt lat="48.436603" lon="9.895536">
        <ele>601.158141</ele>
        <time>2025-11-11T21:30:17.868Z</time>
      </trkpt>
      <trkpt lat="48.436568" lon="9.895549">
        <ele>601.195224</ele>
        <time>2025-11-11T21:30:18.671Z</time>
      </trkpt>
      <trkpt lat="48.436141" lon="9.895716">
        <ele>601.649041</ele>
        <time>2025-11-11T21:30:28.547Z</time>
      </trkpt>
      <trkpt lat="48.435382" lon="9.895887">
        <ele>602.438526</ele>
        <time>2025-11-11T21:30:46.604Z</time>
      </trkpt>
      <trkpt lat="48.435192" lon="9.895960">
        <ele>602.640236</ele>
        <time>2025-11-11T21:30:51.584Z</time>
      </trkpt>
      <trkpt lat="48.434883" lon="9.896161">
        <ele>603.226140</ele>
        <time>2025-11-11T21:31:00.780Z</time>
      </trkpt>
      <trkpt lat="48.434378" lon="9.896644">
        <ele>604.721231</ele>
        <time>2025-11-11T21:31:19.121Z</time>
      </trkpt>
      <trkpt lat="48.434225" lon="9.896779">
        <ele>605.164411</ele>
        <time>2025-11-11T21:31:25.031Z</time>
      </trkpt>
      <trkpt lat="48.433676" lon="9.896969">
        <ele>606.572490</ele>
        <time>2025-11-11T21:31:44.184Z</time>
      </trkpt>
      <trkpt lat="48.433086" lon="9.897068">
        <ele>606.776119</ele>
        <time>2025-11-11T21:32:01.908Z</time>
      </trkpt>
      <trkpt lat="48.432732" lon="9.897182">
        <ele>606.118460</ele>
        <time>2025-11-11T21:32:09.961Z</time>
      </trkpt>
      <trkpt lat="48.432395" lon="9.897317">
        <ele>605.484945</ele>
        <time>2025-11-11T21:32:15.890Z</time>
      </trkpt>
      <trkpt lat="48.431894" lon="9.897512">
        <ele>604.544874</ele>
        <time>2025-11-11T21:32:23.349Z</time>
      </trkpt>
      <trkpt lat="48.431690" lon="9.897623">
        <ele>604.150835</ele>
        <time>2025-11-11T21:32:26.236Z</time>
      </trkpt>
      <trkpt lat="48.431013" lon="9.898318">
        <ele>598.077735</ele>
        <time>2025-11-11T21:32:36.559Z</time>
      </trkpt>
      <trkpt lat="48.430916" lon="9.898399">
        <ele>597.209125</ele>
        <time>2025-11-11T21:32:37.938Z</time>
      </trkpt>
      <trkpt lat="48.430765" lon="9.898522">
        <ele>595.864675</ele>
        <time>2025-11-11T21:32:40.069Z</time>
      </trkpt>
      <trkpt lat="48.430502" lon="9.898745">
        <ele>593.501007</ele>
        <time>2025-11-11T21:32:43.829Z</time>
      </trkpt>
      <trkpt lat="48.430383" lon="9.898894">
        <ele>592.289192</ele>
        <time>2025-11-11T21:32:45.768Z</time>
      </trkpt>
      <trkpt lat="48.429960" lon="9.899571">
        <ele>586.771381</ele>
        <time>2025-11-11T21:32:53.478Z</time>
      </trkpt>
      <trkpt lat="48.429723" lon="9.899819">
        <ele>583.893037</ele>
        <time>2025-11-11T21:32:57.065Z</time>
      </trkpt>
      <trkpt lat="48.429525" lon="9.899941">
        <ele>581.759082</ele>
        <time>2025-11-11T21:32:59.714Z</time>
      </trkpt>
      <trkpt lat="48.429339" lon="9.899993">
        <ele>579.871892</ele>
        <time>2025-11-11T21:33:02.035Z</time>
      </trkpt>
      <trkpt lat="48.429063" lon="9.900002">
        <ele>577.117877</ele>
        <time>2025-11-11T21:33:05.382Z</time>
      </trkpt>
      <trkpt lat="48.428776" lon="9.899877">
        <ele>574.137601</ele>
        <time>2025-11-11T21:33:08.929Z</time>
      </trkpt>
      <trkpt lat="48.428709" lon="9.899831">
        <ele>573.403117</ele>
        <time>2025-11-11T21:33:09.808Z</time>
      </trkpt>
      <trkpt lat="48.428357" lon="9.899590">
        <ele>569.295765</ele>
        <time>2025-11-11T21:33:14.421Z</time>
      </trkpt>
      <trkpt lat="48.428185" lon="9.899521">
        <ele>567.340093</ele>
        <time>2025-11-11T21:33:16.568Z</time>
      </trkpt>
      <trkpt lat="48.427898" lon="9.899482">
        <ele>564.173870</ele>
        <time>2025-11-11T21:33:20.041Z</time>
      </trkpt>
      <trkpt lat="48.427604" lon="9.899602">
        <ele>560.827142</ele>
        <time>2025-11-11T21:33:23.689Z</time>
      </trkpt>
      <trkpt lat="48.427277" lon="9.899848">
        <ele>556.811410</ele>
        <time>2025-11-11T21:33:28.088Z</time>
      </trkpt>
      <trkpt lat="48.427114" lon="9.899926">
        <ele>554.932315</ele>
        <time>2025-11-11T21:33:30.141Z</time>
      </trkpt>
      <trkpt lat="48.426929" lon="9.899918">
        <ele>552.898779</ele>
        <time>2025-11-11T21:33:32.367Z</time>
      </trkpt>
      <trkpt lat="48.426571" lon="9.899742">
        <ele>549.366576</ele>
        <time>2025-11-11T21:33:37.079Z</time>
      </trkpt>
      <trkpt lat="48.426372" lon="9.899680">
        <ele>547.520906</ele>
        <time>2025-11-11T21:33:39.650Z</time>
      </trkpt>
      <trkpt lat="48.426147" lon="9.899686">
        <ele>545.476990</ele>
        <time>2025-11-11T21:33:42.413Z</time>
      </trkpt>
      <trkpt lat="48.425894" lon="9.899737">
        <ele>543.158613</ele>
        <time>2025-11-11T21:33:45.528Z</time>
      </trkpt>
      <trkpt lat="48.425588" lon="9.899812">
        <ele>540.342803</ele>
        <time>2025-11-11T21:33:49.313Z</time>
      </trkpt>
      <trkpt lat="48.425419" lon="9.899809">
        <ele>538.807729</ele>
        <time>2025-11-11T21:33:51.396Z</time>
      </trkpt>
      <trkpt lat="48.425046" lon="9.899736">
        <ele>535.497502</ele>
        <time>2025-11-11T21:33:56.124Z</time>
      </trkpt>
      <trkpt lat="48.424330" lon="9.899445">
        <ele>530.122373</ele>
        <time>2025-11-11T21:34:05.587Z</time>
      </trkpt>
      <trkpt lat="48.424164" lon="9.899342">
        <ele>528.821170</ele>
        <time>2025-11-11T21:34:07.850Z</time>
      </trkpt>
      <trkpt lat="48.423998" lon="9.899240">
        <ele>527.521791</ele>
        <time>2025-11-11T21:34:09.439Z</time>
      </trkpt>
      <trkpt lat="48.423423" lon="9.898703">
        <ele>522.760997</ele>
        <time>2025-11-11T21:34:15.494Z</time>
      </trkpt>
      <trkpt lat="48.422821" lon="9.898219">
        <ele>520.513308</ele>
        <time>2025-11-11T21:34:21.896Z</time>
      </trkpt>
      <trkpt lat="48.422712" lon="9.898136">
        <ele>520.111004</ele>
        <time>2025-11-11T21:34:23.078Z</time>
      </trkpt>
      <trkpt lat="48.422815" lon="9.898047">
        <ele>519.719880</ele>
        <time>2025-11-11T21:34:24.262Z</time>
      </trkpt>
      <trkpt lat="48.422941" lon="9.898033">
        <ele>519.303690</ele>
        <time>2025-11-11T21:34:25.564Z</time>
      </trkpt>
      <trkpt lat="48.423338" lon="9.898077">
        <ele>517.992379</ele>
        <time>2025-11-11T21:34:30.126Z</time>
      </trkpt>
      <trkpt lat="48.423740" lon="9.898124">
        <ele>516.893351</ele>
        <time>2025-11-11T21:34:36.094Z</time>
      </trkpt>
      <trkpt lat="48.423932" lon="9.898462">
        <ele>516.688147</ele>
        <time>2025-11-11T21:34:41.000Z</time>
      </trkpt>
      <trkpt lat="48.424162" lon="9.898719">
        <ele>516.489144</ele>
        <time>2025-11-11T21:34:45.529Z</time>
      </trkpt>
      <trkpt lat="48.424334" lon="9.898836">
        <ele>516.357987</ele>
        <time>2025-11-11T21:34:48.365Z</time>
      </trkpt>
      <trkpt lat="48.425112" lon="9.898917">
        <ele>515.815983</ele>
        <time>2025-11-11T21:34:57.924Z</time>
      </trkpt>
      <trkpt lat="48.425472" lon="9.898802">
        <ele>515.418559</ele>
        <time>2025-11-11T21:35:01.963Z</time>
      </trkpt>
      <trkpt lat="48.425745" lon="9.898593">
        <ele>514.996887</ele>
        <time>2025-11-11T21:35:05.265Z</time>
      </trkpt>
      <trkpt lat="48.425879" lon="9.898490">
        <ele>514.789741</ele>
        <time>2025-11-11T21:35:06.862Z</time>
      </trkpt>
      <trkpt lat="48.426011" lon="9.898387">
        <ele>514.585045</ele>
        <time>2025-11-11T21:35:08.466Z</time>
      </trkpt>
      <trkpt lat="48.426042" lon="9.898362">
        <ele>514.536627</ele>
        <time>2025-11-11T21:35:08.844Z</time>
      </trkpt>
      <trkpt lat="48.426232" lon="9.898136">
        <ele>514.203299</ele>
        <time>2025-11-11T21:35:11.597Z</time>
      </trkpt>
      <trkpt lat="48.426381" lon="9.897955">
        <ele>513.939752</ele>
        <time>2025-11-11T21:35:13.862Z</time>
      </trkpt>
      <trkpt lat="48.426525" lon="9.897779">
        <ele>513.684432</ele>
        <time>2025-11-11T21:35:16.130Z</time>
      </trkpt>
      <trkpt lat="48.426631" lon="9.897618">
        <ele>513.477184</ele>
        <time>2025-11-11T21:35:18.141Z</time>
      </trkpt>
      <trkpt lat="48.426749" lon="9.897415">
        <ele>513.230578</ele>
        <time>2025-11-11T21:35:20.781Z</time>
      </trkpt>
      <trkpt lat="48.427018" lon="9.896843">
        <ele>513.103865</ele>
        <time>2025-11-11T21:35:27.867Z</time>
      </trkpt>
      <trkpt lat="48.427048" lon="9.896767">
        <ele>513.088173</ele>
        <time>2025-11-11T21:35:28.689Z</time>
      </trkpt>
      <trkpt lat="48.427889" lon="9.894580">
        <ele>512.563574</ele>
        <time>2025-11-11T21:35:51.930Z</time>
      </trkpt>
      <trkpt lat="48.427935" lon="9.894478">
        <ele>512.526143</ele>
        <time>2025-11-11T21:35:52.957Z</time>
      </trkpt>
      <trkpt lat="48.427975" lon="9.894379">
        <ele>512.490964</ele>
        <time>2025-11-11T21:35:53.940Z</time>
      </trkpt>
      <trkpt lat="48.428244" lon="9.893718">
        <ele>512.255622</ele>
        <time>2025-11-11T21:36:00.454Z</time>
      </trkpt>
      <trkpt lat="48.428485" lon="9.893255">
        <ele>512.077022</ele>
        <time>2025-11-11T21:36:05.457Z</time>
      </trkpt>
      <trkpt lat="48.428922" lon="9.892773">
        <ele>512.023444</ele>
        <time>2025-11-11T21:36:13.001Z</time>
      </trkpt>
      <trkpt lat="48.429446" lon="9.892264">
        <ele>512.322583</ele>
        <time>2025-11-11T21:36:23.226Z</time>
      </trkpt>
      <trkpt lat="48.430567" lon="9.891574">
        <ele>512.922056</ele>
        <time>2025-11-11T21:36:45.408Z</time>
      </trkpt>
      <trkpt lat="48.430906" lon="9.891261">
        <ele>513.143017</ele>
        <time>2025-11-11T21:36:52.335Z</time>
      </trkpt>
      <trkpt lat="48.431432" lon="9.890499">
        <ele>513.548523</ele>
        <time>2025-11-11T21:37:04.573Z</time>
      </trkpt>
      <trkpt lat="48.432247" lon="9.889150">
        <ele>513.844442</ele>
        <time>2025-11-11T21:37:23.800Z</time>
      </trkpt>
      <trkpt lat="48.432992" lon="9.888122">
        <ele>513.918917</ele>
        <time>2025-11-11T21:37:38.910Z</time>
      </trkpt>
      <trkpt lat="48.434118" lon="9.886828">
        <ele>513.200747</ele>
        <time>2025-11-11T21:37:58.284Z</time>
      </trkpt>
      <trkpt lat="48.435108" lon="9.885974">
        <ele>512.427585</ele>
        <time>2025-11-11T21:38:11.928Z</time>
      </trkpt>
      <trkpt lat="48.435941" lon="9.884417">
        <ele>511.961203</ele>
        <time>2025-11-11T21:38:28.956Z</time>
      </trkpt>
      <trkpt lat="48.436256" lon="9.883823">
        <ele>512.564953</ele>
        <time>2025-11-11T21:38:37.683Z</time>
      </trkpt>
      <trkpt lat="48.436342" lon="9.883708">
        <ele>512.702533</ele>
        <time>2025-11-11T21:38:39.886Z</time>
      </trkpt>
      <trkpt lat="48.436608" lon="9.883652">
        <ele>513.023944</ele>
        <time>2025-11-11T21:38:45.375Z</time>
      </trkpt>
      <trkpt lat="48.436729" lon="9.883698">
        <ele>513.173280</ele>
        <time>2025-11-11T21:38:48.101Z</time>
      </trkpt>
      <trkpt lat="48.436841" lon="9.883833">
        <ele>513.344896</ele>
        <time>2025-11-11T21:38:51.393Z</time>
      </trkpt>
      <trkpt lat="48.437114" lon="9.884394">
        <ele>514.029640</ele>
        <time>2025-11-11T21:39:03.094Z</time>
      </trkpt>
      <trkpt lat="48.437461" lon="9.885008">
        <ele>515.386610</ele>
        <time>2025-11-11T21:39:18.385Z</time>
      </trkpt>
      <trkpt lat="48.437898" lon="9.885493">
        <ele>516.762774</ele>
        <time>2025-11-11T21:39:34.372Z</time>
      </trkpt>
      <trkpt lat="48.438269" lon="9.885734">
        <ele>517.787228</ele>
        <time>2025-11-11T21:39:44.532Z</time>
      </trkpt>
      <trkpt lat="48.438611" lon="9.885899">
        <ele>518.077835</ele>
        <time>2025-11-11T21:39:51.471Z</time>
      </trkpt>
      <trkpt lat="48.438899" lon="9.885961">
        <ele>517.537005</ele>
        <time>2025-11-11T21:39:55.088Z</time>
      </trkpt>
      <trkpt lat="48.439393" lon="9.885828">
        <ele>516.604116</ele>
        <time>2025-11-11T21:40:00.537Z</time>
      </trkpt>
      <trkpt lat="48.439585" lon="9.885697">
        <ele>516.212322</ele>
        <time>2025-11-11T21:40:02.702Z</time>
      </trkpt>
      <trkpt lat="48.439765" lon="9.885509">
        <ele>515.805221</ele>
        <time>2025-11-11T21:40:04.889Z</time>
      </trkpt>
      <trkpt lat="48.440103" lon="9.885058">
        <ele>514.978584</ele>
        <time>2025-11-11T21:40:09.362Z</time>
      </trkpt>
      <trkpt lat="48.440378" lon="9.884538">
        <ele>514.497213</ele>
        <time>2025-11-11T21:40:13.904Z</time>
      </trkpt>
      <trkpt lat="48.440556" lon="9.884030">
        <ele>514.081354</ele>
        <time>2025-11-11T21:40:18.259Z</time>
      </trkpt>
      <trkpt lat="48.440906" lon="9.882792">
        <ele>513.107245</ele>
        <time>2025-11-11T21:40:30.945Z</time>
      </trkpt>
      <trkpt lat="48.440972" lon="9.882624">
        <ele>513.048569</ele>
        <time>2025-11-11T21:40:33.283Z</time>
      </trkpt>
      <trkpt lat="48.441103" lon="9.882227">
        <ele>513.118258</ele>
        <time>2025-11-11T21:40:39.070Z</time>
      </trkpt>
      <trkpt lat="48.441225" lon="9.881555">
        <ele>513.227760</ele>
        <time>2025-11-11T21:40:47.985Z</time>
      </trkpt>
      <trkpt lat="48.441301" lon="9.880932">
        <ele>513.327318</ele>
        <time>2025-11-11T21:40:54.897Z</time>
      </trkpt>
      <trkpt lat="48.441306" lon="9.880407">
        <ele>513.409841</ele>
        <time>2025-11-11T21:40:59.801Z</time>
      </trkpt>
      <trkpt lat="48.441249" lon="9.879861">
        <ele>513.393018</ele>
        <time>2025-11-11T21:41:04.413Z</time>
      </trkpt>
      <trkpt lat="48.440989" lon="9.878893">
        <ele>513.094076</ele>
        <time>2025-11-11T21:41:12.777Z</time>
      </trkpt>
      <trkpt lat="48.440941" lon="9.878621">
        <ele>513.013507</ele>
        <time>2025-11-11T21:41:15.010Z</time>
      </trkpt>
      <trkpt lat="48.440949" lon="9.878346">
        <ele>512.934712</ele>
        <time>2025-11-11T21:41:17.343Z</time>
      </trkpt>
      <trkpt lat="48.440996" lon="9.878073">
        <ele>512.853976</ele>
        <time>2025-11-11T21:41:19.970Z</time>
      </trkpt>
      <trkpt lat="48.441195" lon="9.877412">
        <ele>512.785515</ele>
        <time>2025-11-11T21:41:27.749Z</time>
      </trkpt>
      <trkpt lat="48.441585" lon="9.875934">
        <ele>514.014945</ele>
        <time>2025-11-11T21:41:48.663Z</time>
      </trkpt>
      <trkpt lat="48.441705" lon="9.875598">
        <ele>514.309889</ele>
        <time>2025-11-11T21:41:54.152Z</time>
      </trkpt>
      <trkpt lat="48.441867" lon="9.875298">
        <ele>514.608874</ele>
        <time>2025-11-11T21:41:59.597Z</time>
      </trkpt>
      <trkpt lat="48.442386" lon="9.874811">
        <ele>515.389393</ele>
        <time>2025-11-11T21:42:11.820Z</time>
      </trkpt>
      <trkpt lat="48.442642" lon="9.874531">
        <ele>515.804328</ele>
        <time>2025-11-11T21:42:18.015Z</time>
      </trkpt>
      <trkpt lat="48.442991" lon="9.873974">
        <ele>516.471114</ele>
        <time>2025-11-11T21:42:28.836Z</time>
      </trkpt>
      <trkpt lat="48.443127" lon="9.873643">
        <ele>516.809951</ele>
        <time>2025-11-11T21:42:34.280Z</time>
      </trkpt>
      <trkpt lat="48.443352" lon="9.872549">
        <ele>517.146077</ele>
        <time>2025-11-11T21:42:48.028Z</time>
      </trkpt>
      <trkpt lat="48.443427" lon="9.872290">
        <ele>517.148644</ele>
        <time>2025-11-11T21:42:51.312Z</time>
      </trkpt>
      <trkpt lat="48.443454" lon="9.871940">
        <ele>517.151844</ele>
        <time>2025-11-11T21:42:55.238Z</time>
      </trkpt>
      <trkpt lat="48.443450" lon="9.871116">
        <ele>517.159327</ele>
        <time>2025-11-11T21:43:02.945Z</time>
      </trkpt>
      <trkpt lat="48.443487" lon="9.870682">
        <ele>517.163301</ele>
        <time>2025-11-11T21:43:06.424Z</time>
      </trkpt>
      <trkpt lat="48.443481" lon="9.869708">
        <ele>516.602503</ele>
        <time>2025-11-11T21:43:13.537Z</time>
      </trkpt>
      <trkpt lat="48.443563" lon="9.869331">
        <ele>516.362126</ele>
        <time>2025-11-11T21:43:16.557Z</time>
      </trkpt>
      <trkpt lat="48.443918" lon="9.868494">
        <ele>515.760222</ele>
        <time>2025-11-11T21:43:24.797Z</time>
      </trkpt>
      <trkpt lat="48.444088" lon="9.867983">
        <ele>515.629400</ele>
        <time>2025-11-11T21:43:30.597Z</time>
      </trkpt>
      <trkpt lat="48.444583" lon="9.866792">
        <ele>516.491523</ele>
        <time>2025-11-11T21:43:48.043Z</time>
      </trkpt>
      <trkpt lat="48.444718" lon="9.866411">
        <ele>516.756482</ele>
        <time>2025-11-11T21:43:53.839Z</time>
      </trkpt>
      <trkpt lat="48.444887" lon="9.865822">
        <ele>517.150127</ele>
        <time>2025-11-11T21:44:02.249Z</time>
      </trkpt>
      <trkpt lat="48.445001" lon="9.865567">
        <ele>517.479908</ele>
        <time>2025-11-11T21:44:06.182Z</time>
      </trkpt>
      <trkpt lat="48.445939" lon="9.863743">
        <ele>520.188619</ele>
        <time>2025-11-11T21:44:38.888Z</time>
      </trkpt>
      <trkpt lat="48.446171" lon="9.863261">
        <ele>521.330450</ele>
        <time>2025-11-11T21:44:48.910Z</time>
      </trkpt>
      <trkpt lat="48.446594" lon="9.862376">
        <ele>523.699054</ele>
        <time>2025-11-11T21:45:10.106Z</time>
      </trkpt>
      <trkpt lat="48.446652" lon="9.862108">
        <ele>524.311177</ele>
        <time>2025-11-11T21:45:15.881Z</time>
      </trkpt>
      <trkpt lat="48.446669" lon="9.861884">
        <ele>524.800741</ele>
        <time>2025-11-11T21:45:20.281Z</time>
      </trkpt>
      <trkpt lat="48.446684" lon="9.861695">
        <ele>525.214060</ele>
        <time>2025-11-11T21:45:23.830Z</time>
      </trkpt>
      <trkpt lat="48.446707" lon="9.861551">
        <ele>525.535677</ele>
        <time>2025-11-11T21:45:26.669Z</time>
      </trkpt>
      <trkpt lat="48.446756" lon="9.861424">
        <ele>525.854700</ele>
        <time>2025-11-11T21:45:29.527Z</time>
      </trkpt>
      <trkpt lat="48.446879" lon="9.861323">
        <ele>526.327900</ele>
        <time>2025-11-11T21:45:33.454Z</time>
      </trkpt>
      <trkpt lat="48.447668" lon="9.860903">
        <ele>529.753159</ele>
        <time>2025-11-11T21:45:57.397Z</time>
      </trkpt>
      <trkpt lat="48.448092" lon="9.860724">
        <ele>531.555603</ele>
        <time>2025-11-11T21:46:11.344Z</time>
      </trkpt>
      <trkpt lat="48.448336" lon="9.860596">
        <ele>532.613176</ele>
        <time>2025-11-11T21:46:20.079Z</time>
      </trkpt>
      <trkpt lat="48.448379" lon="9.860536">
        <ele>532.853021</ele>
        <time>2025-11-11T21:46:21.981Z</time>
      </trkpt>
      <trkpt lat="48.448433" lon="9.860459">
        <ele>533.157284</ele>
        <time>2025-11-11T21:46:24.626Z</time>
      </trkpt>
      <trkpt lat="48.448528" lon="9.860304">
        <ele>533.769934</ele>
        <time>2025-11-11T21:46:29.422Z</time>
      </trkpt>
      <trkpt lat="48.448620" lon="9.860173">
        <ele>534.469721</ele>
        <time>2025-11-11T21:46:33.826Z</time>
      </trkpt>
      <trkpt lat="48.448665" lon="9.860098">
        <ele>534.840665</ele>
        <time>2025-11-11T21:46:36.212Z</time>
      </trkpt>
      <trkpt lat="48.448717" lon="9.860021">
        <ele>535.243720</ele>
        <time>2025-11-11T21:46:38.745Z</time>
      </trkpt>
      <trkpt lat="48.448807" lon="9.859890">
        <ele>535.935507</ele>
        <time>2025-11-11T21:46:43.242Z</time>
      </trkpt>
      <trkpt lat="48.449094" lon="9.859512">
        <ele>538.042893</ele>
        <time>2025-11-11T21:46:57.419Z</time>
      </trkpt>
      <trkpt lat="48.449592" lon="9.859350">
        <ele>540.860142</ele>
        <time>2025-11-11T21:47:17.651Z</time>
      </trkpt>
      <trkpt lat="48.449832" lon="9.859168">
        <ele>542.345737</ele>
        <time>2025-11-11T21:47:28.053Z</time>
      </trkpt>
      <trkpt lat="48.449929" lon="9.858929">
        <ele>543.373437</ele>
        <time>2025-11-11T21:47:35.042Z</time>
      </trkpt>
      <trkpt lat="48.449961" lon="9.858789">
        <ele>543.753797</ele>
        <time>2025-11-11T21:47:38.728Z</time>
      </trkpt>
      <trkpt lat="48.449934" lon="9.858566">
        <ele>544.201769</ele>
        <time>2025-11-11T21:47:44.183Z</time>
      </trkpt>
      <trkpt lat="48.449879" lon="9.858385">
        <ele>544.595210</ele>
        <time>2025-11-11T21:47:48.851Z</time>
      </trkpt>
      <trkpt lat="48.449804" lon="9.858237">
        <ele>544.963281</ele>
        <time>2025-11-11T21:47:53.091Z</time>
      </trkpt>
      <trkpt lat="48.449660" lon="9.858074">
        <ele>545.499786</ele>
        <time>2025-11-11T21:47:58.978Z</time>
      </trkpt>
      <trkpt lat="48.449456" lon="9.857992">
        <ele>546.128824</ele>
        <time>2025-11-11T21:48:05.322Z</time>
      </trkpt>
      <trkpt lat="48.449304" lon="9.857841">
        <ele>546.671174</ele>
        <time>2025-11-11T21:48:10.197Z</time>
      </trkpt>
      <trkpt lat="48.449215" lon="9.857650">
        <ele>547.132465</ele>
        <time>2025-11-11T21:48:13.956Z</time>
      </trkpt>
      <trkpt lat="48.449188" lon="9.857454">
        <ele>547.528070</ele>
        <time>2025-11-11T21:48:16.926Z</time>
      </trkpt>
      <trkpt lat="48.449196" lon="9.857229">
        <ele>547.973357</ele>
        <time>2025-11-11T21:48:19.970Z</time>
      </trkpt>
      <trkpt lat="48.449267" lon="9.856421">
        <ele>548.932595</ele>
        <time>2025-11-11T21:48:28.056Z</time>
      </trkpt>
      <trkpt lat="48.449252" lon="9.856118">
        <ele>548.941661</ele>
        <time>2025-11-11T21:48:30.590Z</time>
      </trkpt>
      <trkpt lat="48.449180" lon="9.855677">
        <ele>548.955212</ele>
        <time>2025-11-11T21:48:34.335Z</time>
      </trkpt>
      <trkpt lat="48.449070" lon="9.855095">
        <ele>548.973269</ele>
        <time>2025-11-11T21:48:39.725Z</time>
      </trkpt>
      <trkpt lat="48.448775" lon="9.854118">
        <ele>549.027378</ele>
        <time>2025-11-11T21:48:51.571Z</time>
      </trkpt>
      <trkpt lat="48.448736" lon="9.853882">
        <ele>549.124665</ele>
        <time>2025-11-11T21:48:54.454Z</time>
      </trkpt>
      <trkpt lat="48.448729" lon="9.853655">
        <ele>549.215564</ele>
        <time>2025-11-11T21:48:57.250Z</time>
      </trkpt>
      <trkpt lat="48.448753" lon="9.853475">
        <ele>549.289004</ele>
        <time>2025-11-11T21:48:59.585Z</time>
      </trkpt>
      <trkpt lat="48.448828" lon="9.853231">
        <ele>549.396576</ele>
        <time>2025-11-11T21:49:03.025Z</time>
      </trkpt>
      <trkpt lat="48.448969" lon="9.853007">
        <ele>549.520101</ele>
        <time>2025-11-11T21:49:06.920Z</time>
      </trkpt>
      <trkpt lat="48.449427" lon="9.852527">
        <ele>549.856480</ele>
        <time>2025-11-11T21:49:16.713Z</time>
      </trkpt>
      <trkpt lat="48.449594" lon="9.852249">
        <ele>550.006506</ele>
        <time>2025-11-11T21:49:20.639Z</time>
      </trkpt>
      <trkpt lat="48.449752" lon="9.851887">
        <ele>550.049366</ele>
        <time>2025-11-11T21:49:25.023Z</time>
      </trkpt>
      <trkpt lat="48.450076" lon="9.851497">
        <ele>549.943385</ele>
        <time>2025-11-11T21:49:31.038Z</time>
      </trkpt>
      <trkpt lat="48.450120" lon="9.851385">
        <ele>549.921314</ele>
        <time>2025-11-11T21:49:32.247Z</time>
      </trkpt>
      <trkpt lat="48.450748" lon="9.849118">
        <ele>549.913525</ele>
        <time>2025-11-11T21:49:53.963Z</time>
      </trkpt>
      <trkpt lat="48.450886" lon="9.848133">
        <ele>550.307051</ele>
        <time>2025-11-11T21:50:03.889Z</time>
      </trkpt>
      <trkpt lat="48.450994" lon="9.847656">
        <ele>550.504071</ele>
        <time>2025-11-11T21:50:09.874Z</time>
      </trkpt>
      <trkpt lat="48.451169" lon="9.847129">
        <ele>550.978718</ele>
        <time>2025-11-11T21:50:18.970Z</time>
      </trkpt>
      <trkpt lat="48.451310" lon="9.846927">
        <ele>551.702216</ele>
        <time>2025-11-11T21:50:24.291Z</time>
      </trkpt>
      <trkpt lat="48.451440" lon="9.846815">
        <ele>552.259163</ele>
        <time>2025-11-11T21:50:28.601Z</time>
      </trkpt>
      <trkpt lat="48.451709" lon="9.846732">
        <ele>553.280512</ele>
        <time>2025-11-11T21:50:36.641Z</time>
      </trkpt>
      <trkpt lat="48.451981" lon="9.846559">
        <ele>554.378623</ele>
        <time>2025-11-11T21:50:45.406Z</time>
      </trkpt>
      <trkpt lat="48.452016" lon="9.846532">
        <ele>554.524866</ele>
        <time>2025-11-11T21:50:46.540Z</time>
      </trkpt>
      <trkpt lat="48.452319" lon="9.846188">
        <ele>555.935744</ele>
        <time>2025-11-11T21:50:58.378Z</time>
      </trkpt>
      <trkpt lat="48.452527" lon="9.845813">
        <ele>557.141788</ele>
        <time>2025-11-11T21:51:09.361Z</time>
      </trkpt>
      <trkpt lat="48.452646" lon="9.845538">
        <ele>558.324011</ele>
        <time>2025-11-11T21:51:16.901Z</time>
      </trkpt>
      <trkpt lat="48.452735" lon="9.845255">
        <ele>559.598618</ele>
        <time>2025-11-11T21:51:23.936Z</time>
      </trkpt>
      <trkpt lat="48.453055" lon="9.843706">
        <ele>566.201107</ele>
        <time>2025-11-11T21:52:04.986Z</time>
      </trkpt>
      <trkpt lat="48.453056" lon="9.843702">
        <ele>566.218503</ele>
        <time>2025-11-11T21:52:05.111Z</time>
      </trkpt>
      <trkpt lat="48.453141" lon="9.843145">
        <ele>568.612761</ele>
        <time>2025-11-11T21:52:23.062Z</time>
      </trkpt>
      <trkpt lat="48.453223" lon="9.841470">
        <ele>579.061574</ele>
        <time>2025-11-11T21:53:17.622Z</time>
      </trkpt>
      <trkpt lat="48.453268" lon="9.840935">
        <ele>582.416556</ele>
        <time>2025-11-11T21:53:37.082Z</time>
      </trkpt>
      <trkpt lat="48.453334" lon="9.840344">
        <ele>586.358460</ele>
        <time>2025-11-11T21:54:01.650Z</time>
      </trkpt>
      <trkpt lat="48.453440" lon="9.839846">
        <ele>590.421414</ele>
        <time>2025-11-11T21:54:24.866Z</time>
      </trkpt>
      <trkpt lat="48.453494" lon="9.839733">
        <ele>591.503359</ele>
        <time>2025-11-11T21:54:30.914Z</time>
      </trkpt>
      <trkpt lat="48.453550" lon="9.839681">
        <ele>592.273687</ele>
        <time>2025-11-11T21:54:35.280Z</time>
      </trkpt>
      <trkpt lat="48.453641" lon="9.839662">
        <ele>593.349725</ele>
        <time>2025-11-11T21:54:41.132Z</time>
      </trkpt>
      <trkpt lat="48.454129" lon="9.839837">
        <ele>599.225022</ele>
        <time>2025-11-11T21:55:12.561Z</time>
      </trkpt>
      <trkpt lat="48.454289" lon="9.839724">
        <ele>601.294469</ele>
        <time>2025-11-11T21:55:23.365Z</time>
      </trkpt>
      <trkpt lat="48.454337" lon="9.839536">
        <ele>602.859361</ele>
        <time>2025-11-11T21:55:31.480Z</time>
      </trkpt>
      <trkpt lat="48.454385" lon="9.838807">
        <ele>608.451795</ele>
        <time>2025-11-11T21:56:00.871Z</time>
      </trkpt>
      <trkpt lat="48.454505" lon="9.838307">
        <ele>612.397324</ele>
        <time>2025-11-11T21:56:21.361Z</time>
      </trkpt>
      <trkpt lat="48.454668" lon="9.837952">
        <ele>615.601151</ele>
        <time>2025-11-11T21:56:37.753Z</time>
      </trkpt>
      <trkpt lat="48.454779" lon="9.837781">
        <ele>617.376604</ele>
        <time>2025-11-11T21:56:46.969Z</time>
      </trkpt>
      <trkpt lat="48.454938" lon="9.837582">
        <ele>619.688505</ele>
        <time>2025-11-11T21:56:59.617Z</time>
      </trkpt>
      <trkpt lat="48.455448" lon="9.837054">
        <ele>626.561155</ele>
        <time>2025-11-11T21:57:39.023Z</time>
      </trkpt>
      <trkpt lat="48.455640" lon="9.836892">
        <ele>628.115714</ele>
        <time>2025-11-11T21:57:52.713Z</time>
      </trkpt>
      <trkpt lat="48.455793" lon="9.836825">
        <ele>629.241428</ele>
        <time>2025-11-11T21:58:02.016Z</time>
      </trkpt>
      <trkpt lat="48.456367" lon="9.836607">
        <ele>633.423790</ele>
        <time>2025-11-11T21:58:30.278Z</time>
      </trkpt>
      <trkpt lat="48.456465" lon="9.836585">
        <ele>634.123857</ele>
        <time>2025-11-11T21:58:34.066Z</time>
      </trkpt>
      <trkpt lat="48.456843" lon="9.836486">
        <ele>636.834666</ele>
        <time>2025-11-11T21:58:46.620Z</time>
      </trkpt>
      <trkpt lat="48.457307" lon="9.836461">
        <ele>639.508736</ele>
        <time>2025-11-11T21:58:59.267Z</time>
      </trkpt>
      <trkpt lat="48.457389" lon="9.836461">
        <ele>639.709943</ele>
        <time>2025-11-11T21:59:01.342Z</time>
      </trkpt>
      <trkpt lat="48.457561" lon="9.837534">
        <ele>641.506280</ele>
        <time>2025-11-11T21:59:18.642Z</time>
      </trkpt>
      <trkpt lat="48.457688" lon="9.838115">
        <ele>642.501750</ele>
        <time>2025-11-11T21:59:28.123Z</time>
      </trkpt>
      <trkpt lat="48.457936" lon="9.838817">
        <ele>643.776604</ele>
        <time>2025-11-11T21:59:40.721Z</time>
      </trkpt>
      <trkpt lat="48.457966" lon="9.838895">
        <ele>643.908813</ele>
        <time>2025-11-11T21:59:42.108Z</time>
      </trkpt>
      <trkpt lat="48.458258" lon="9.839509">
        <ele>645.016636</ele>
        <time>2025-11-11T21:59:54.313Z</time>
      </trkpt>
      <trkpt lat="48.458382" lon="9.839763">
        <ele>645.479086</ele>
        <time>2025-11-11T21:59:59.325Z</time>
      </trkpt>
      <trkpt lat="48.458505" lon="9.840008">
        <ele>645.929638</ele>
        <time>2025-11-11T22:00:04.196Z</time>
      </trkpt>
      <trkpt lat="48.458683" lon="9.840389">
        <ele>646.612973</ele>
        <time>2025-11-11T22:00:11.626Z</time>
      </trkpt>
      <trkpt lat="48.458987" lon="9.840804">
        <ele>647.519616</ele>
        <time>2025-11-11T22:00:21.329Z</time>
      </trkpt>
      <trkpt lat="48.459067" lon="9.840905">
        <ele>647.655562</ele>
        <time>2025-11-11T22:00:23.774Z</time>
      </trkpt>
      <trkpt lat="48.459298" lon="9.841285">
        <ele>648.000152</ele>
        <time>2025-11-11T22:00:31.566Z</time>
      </trkpt>
      <trkpt lat="48.459417" lon="9.841542">
        <ele>648.209680</ele>
        <time>2025-11-11T22:00:35.952Z</time>
      </trkpt>
      <trkpt lat="48.459486" lon="9.841757">
        <ele>648.369343</ele>
        <time>2025-11-11T22:00:39.060Z</time>
      </trkpt>
      <trkpt lat="48.459603" lon="9.842173">
        <ele>648.671397</ele>
        <time>2025-11-11T22:00:44.663Z</time>
      </trkpt>
      <trkpt lat="48.459668" lon="9.842230">
        <ele>648.747190</ele>
        <time>2025-11-11T22:00:46.014Z</time>
      </trkpt>
      <trkpt lat="48.459721" lon="9.842247">
        <ele>648.801810</ele>
        <time>2025-11-11T22:00:46.946Z</time>
      </trkpt>
      <trkpt lat="48.459955" lon="9.842301">
        <ele>649.040429</ele>
        <time>2025-11-11T22:00:50.882Z</time>
      </trkpt>
      <trkpt lat="48.459987" lon="9.842207">
        <ele>649.111059</ele>
        <time>2025-11-11T22:00:51.975Z</time>
      </trkpt>
      <trkpt lat="48.459986" lon="9.842102">
        <ele>649.181254</ele>
        <time>2025-11-11T22:00:53.083Z</time>
      </trkpt>
      <trkpt lat="48.459980" lon="9.842020">
        <ele>649.236399</ele>
        <time>2025-11-11T22:00:53.915Z</time>
      </trkpt>
      <trkpt lat="48.459968" lon="9.841833">
        <ele>649.361983</ele>
        <time>2025-11-11T22:00:55.849Z</time>
      </trkpt>
      <trkpt lat="48.460213" lon="9.841514">
        <ele>649.171942</ele>
        <time>2025-11-11T22:01:00.238Z</time>
      </trkpt>
      <trkpt lat="48.460311" lon="9.841425">
        <ele>649.088159</ele>
        <time>2025-11-11T22:01:01.707Z</time>
      </trkpt>
      <trkpt lat="48.460459" lon="9.841364">
        <ele>648.975793</ele>
        <time>2025-11-11T22:01:03.642Z</time>
      </trkpt>
      <trkpt lat="48.460506" lon="9.841357">
        <ele>648.941204</ele>
        <time>2025-11-11T22:01:04.222Z</time>
      </trkpt>
      <trkpt lat="48.460667" lon="9.841333">
        <ele>648.822717</ele>
        <time>2025-11-11T22:01:06.232Z</time>
      </trkpt>
      <trkpt lat="48.460937" lon="9.841359">
        <ele>648.624575</ele>
        <time>2025-11-11T22:01:09.620Z</time>
      </trkpt>
      <trkpt lat="48.461169" lon="9.841361">
        <ele>648.454662</ele>
        <time>2025-11-11T22:01:12.474Z</time>
      </trkpt>
      <trkpt lat="48.461416" lon="9.841434">
        <ele>648.270325</ele>
        <time>2025-11-11T22:01:15.537Z</time>
      </trkpt>
      <trkpt lat="48.461613" lon="9.841473">
        <ele>648.124810</ele>
        <time>2025-11-11T22:01:17.951Z</time>
      </trkpt>
      <trkpt lat="48.461947" lon="9.841524">
        <ele>647.771558</ele>
        <time>2025-11-11T22:01:22.012Z</time>
      </trkpt>
      <trkpt lat="48.462007" lon="9.841533">
        <ele>647.702827</ele>
        <time>2025-11-11T22:01:22.728Z</time>
      </trkpt>
      <trkpt lat="48.462210" lon="9.841563">
        <ele>647.470322</ele>
        <time>2025-11-11T22:01:25.128Z</time>
      </trkpt>
      <trkpt lat="48.462526" lon="9.841629">
        <ele>647.106679</ele>
        <time>2025-11-11T22:01:29.007Z</time>
      </trkpt>
      <trkpt lat="48.462691" lon="9.841645">
        <ele>646.918209</ele>
        <time>2025-11-11T22:01:31.023Z</time>
      </trkpt>
      <trkpt lat="48.462740" lon="9.841616">
        <ele>646.858208</ele>
        <time>2025-11-11T22:01:31.647Z</time>
      </trkpt>
      <trkpt lat="48.463722" lon="9.841852">
        <ele>645.699144</ele>
        <time>2025-11-11T22:01:43.539Z</time>
      </trkpt>
      <trkpt lat="48.464089" lon="9.841941">
        <ele>645.238950</ele>
        <time>2025-11-11T22:01:47.928Z</time>
      </trkpt>
      <trkpt lat="48.464217" lon="9.841900">
        <ele>645.076947</ele>
        <time>2025-11-11T22:01:49.462Z</time>
      </trkpt>
      <trkpt lat="48.464397" lon="9.841718">
        <ele>644.808650</ele>
        <time>2025-11-11T22:01:53.067Z</time>
      </trkpt>
      <trkpt lat="48.465301" lon="9.840882">
        <ele>643.709232</ele>
        <time>2025-11-11T22:02:10.941Z</time>
      </trkpt>
      <trkpt lat="48.465533" lon="9.840757">
        <ele>643.621859</ele>
        <time>2025-11-11T22:02:15.264Z</time>
      </trkpt>
      <trkpt lat="48.466113" lon="9.840521">
        <ele>643.408804</ele>
        <time>2025-11-11T22:02:26.453Z</time>
      </trkpt>
      <trkpt lat="48.466509" lon="9.840297">
        <ele>643.258807</ele>
        <time>2025-11-11T22:02:35.104Z</time>
      </trkpt>
      <trkpt lat="48.466822" lon="9.840027">
        <ele>643.239429</ele>
        <time>2025-11-11T22:02:42.927Z</time>
      </trkpt>
      <trkpt lat="48.467099" lon="9.839728">
        <ele>643.620981</ele>
        <time>2025-11-11T22:02:50.568Z</time>
      </trkpt>
      <trkpt lat="48.467410" lon="9.839267">
        <ele>644.109423</ele>
        <time>2025-11-11T22:03:00.812Z</time>
      </trkpt>
      <trkpt lat="48.467692" lon="9.838672">
        <ele>644.652607</ele>
        <time>2025-11-11T22:03:13.068Z</time>
      </trkpt>
      <trkpt lat="48.467972" lon="9.837719">
        <ele>645.593013</ele>
        <time>2025-11-11T22:03:32.173Z</time>
      </trkpt>
      <trkpt lat="48.468185" lon="9.837237">
        <ele>646.303623</ele>
        <time>2025-11-11T22:03:43.144Z</time>
      </trkpt>
      <trkpt lat="48.468274" lon="9.837034">
        <ele>646.602179</ele>
        <time>2025-11-11T22:03:47.853Z</time>
      </trkpt>
      <trkpt lat="48.468323" lon="9.836923">
        <ele>646.765772</ele>
        <time>2025-11-11T22:03:50.427Z</time>
      </trkpt>
      <trkpt lat="48.468348" lon="9.836866">
        <ele>646.849613</ele>
        <time>2025-11-11T22:03:51.504Z</time>
      </trkpt>
      <trkpt lat="48.469183" lon="9.834822">
        <ele>648.926272</ele>
        <time>2025-11-11T22:04:26.084Z</time>
      </trkpt>
      <trkpt lat="48.469398" lon="9.834342">
        <ele>649.160340</ele>
        <time>2025-11-11T22:04:32.491Z</time>
      </trkpt>
      <trkpt lat="48.469674" lon="9.833845">
        <ele>649.422301</ele>
        <time>2025-11-11T22:04:38.820Z</time>
      </trkpt>
      <trkpt lat="48.470103" lon="9.833127">
        <ele>649.172053</ele>
        <time>2025-11-11T22:04:47.128Z</time>
      </trkpt>
      <trkpt lat="48.470486" lon="9.832562">
        <ele>648.534542</ele>
        <time>2025-11-11T22:04:53.448Z</time>
      </trkpt>
      <trkpt lat="48.470654" lon="9.832377">
        <ele>648.287016</ele>
        <time>2025-11-11T22:04:55.844Z</time>
      </trkpt>
      <trkpt lat="48.470906" lon="9.832114">
        <ele>647.922355</ele>
        <time>2025-11-11T22:04:59.362Z</time>
      </trkpt>
      <trkpt lat="48.470985" lon="9.832036">
        <ele>647.809997</ele>
        <time>2025-11-11T22:05:00.431Z</time>
      </trkpt>
      <trkpt lat="48.471629" lon="9.831357">
        <ele>646.990578</ele>
        <time>2025-11-11T22:05:09.430Z</time>
      </trkpt>
      <trkpt lat="48.472192" lon="9.830708">
        <ele>646.315275</ele>
        <time>2025-11-11T22:05:17.951Z</time>
      </trkpt>
      <trkpt lat="48.472555" lon="9.830241">
        <ele>645.860587</ele>
        <time>2025-11-11T22:05:24.199Z</time>
      </trkpt>
      <trkpt lat="48.473466" lon="9.829062">
        <ele>645.702951</ele>
        <time>2025-11-11T22:05:42.342Z</time>
      </trkpt>
      <trkpt lat="48.473717" lon="9.828602">
        <ele>645.688846</ele>
        <time>2025-11-11T22:05:48.322Z</time>
      </trkpt>
      <trkpt lat="48.473825" lon="9.828305">
        <ele>645.680826</ele>
        <time>2025-11-11T22:05:51.663Z</time>
      </trkpt>
      <trkpt lat="48.474085" lon="9.827413">
        <ele>645.085196</ele>
        <time>2025-11-11T22:06:01.145Z</time>
      </trkpt>
      <trkpt lat="48.474398" lon="9.826571">
        <ele>644.386474</ele>
        <time>2025-11-11T22:06:09.329Z</time>
      </trkpt>
      <trkpt lat="48.474580" lon="9.826231">
        <ele>644.070171</ele>
        <time>2025-11-11T22:06:12.623Z</time>
      </trkpt>
      <trkpt lat="48.474845" lon="9.825814">
        <ele>643.570550</ele>
        <time>2025-11-11T22:06:16.738Z</time>
      </trkpt>
      <trkpt lat="48.475534" lon="9.824873">
        <ele>641.206210</ele>
        <time>2025-11-11T22:06:25.968Z</time>
      </trkpt>
      <trkpt lat="48.476126" lon="9.824321">
        <ele>639.435802</ele>
        <time>2025-11-11T22:06:33.169Z</time>
      </trkpt>
      <trkpt lat="48.476292" lon="9.824072">
        <ele>639.226170</ele>
        <time>2025-11-11T22:06:36.132Z</time>
      </trkpt>
      <trkpt lat="48.476333" lon="9.823991">
        <ele>639.277079</ele>
        <time>2025-11-11T22:06:37.132Z</time>
      </trkpt>
      <trkpt lat="48.476538" lon="9.823267">
        <ele>639.670353</ele>
        <time>2025-11-11T22:06:46.859Z</time>
      </trkpt>
      <trkpt lat="48.476810" lon="9.822674">
        <ele>640.030572</ele>
        <time>2025-11-11T22:06:57.849Z</time>
      </trkpt>
      <trkpt lat="48.476874" lon="9.822479">
        <ele>640.139265</ele>
        <time>2025-11-11T22:07:01.395Z</time>
      </trkpt>
      <trkpt lat="48.477037" lon="9.822012">
        <ele>640.402906</ele>
        <time>2025-11-11T22:07:09.171Z</time>
      </trkpt>
      <trkpt lat="48.477348" lon="9.821290">
        <ele>639.723878</ele>
        <time>2025-11-11T22:07:18.136Z</time>
      </trkpt>
      <trkpt lat="48.477417" lon="9.820957">
        <ele>639.329117</ele>
        <time>2025-11-11T22:07:20.767Z</time>
      </trkpt>
      <trkpt lat="48.477446" lon="9.820517">
        <ele>638.828810</ele>
        <time>2025-11-11T22:07:23.867Z</time>
      </trkpt>
      <trkpt lat="48.477502" lon="9.820116">
        <ele>638.365128</ele>
        <time>2025-11-11T22:07:26.653Z</time>
      </trkpt>
      <trkpt lat="48.477583" lon="9.819625">
        <ele>637.792627</ele>
        <time>2025-11-11T22:07:30.061Z</time>
      </trkpt>
      <trkpt lat="48.477673" lon="9.819299">
        <ele>637.393414</ele>
        <time>2025-11-11T22:07:32.437Z</time>
      </trkpt>
      <trkpt lat="48.477796" lon="9.818776">
        <ele>636.772911</ele>
        <time>2025-11-11T22:07:36.223Z</time>
      </trkpt>
      <trkpt lat="48.477900" lon="9.818100">
        <ele>635.996956</ele>
        <time>2025-11-11T22:07:41.157Z</time>
      </trkpt>
      <trkpt lat="48.477991" lon="9.817235">
        <ele>635.017657</ele>
        <time>2025-11-11T22:07:48.025Z</time>
      </trkpt>
      <trkpt lat="48.478227" lon="9.816016">
        <ele>633.224946</ele>
        <time>2025-11-11T22:07:59.887Z</time>
      </trkpt>
      <trkpt lat="48.478255" lon="9.815609">
        <ele>632.552035</ele>
        <time>2025-11-11T22:08:03.786Z</time>
      </trkpt>
      <trkpt lat="48.478255" lon="9.815136">
        <ele>631.774180</ele>
        <time>2025-11-11T22:08:07.497Z</time>
      </trkpt>
      <trkpt lat="48.478231" lon="9.814463">
        <ele>630.665823</ele>
        <time>2025-11-11T22:08:11.957Z</time>
      </trkpt>
      <trkpt lat="48.478206" lon="9.814277">
        <ele>630.353719</ele>
        <time>2025-11-11T22:08:13.109Z</time>
      </trkpt>
      <trkpt lat="48.478091" lon="9.814030">
        <ele>629.732043</ele>
        <time>2025-11-11T22:08:14.939Z</time>
      </trkpt>
      <trkpt lat="48.477693" lon="9.813623">
        <ele>626.408955</ele>
        <time>2025-11-11T22:08:19.257Z</time>
      </trkpt>
      <trkpt lat="48.477524" lon="9.813385">
        <ele>624.811100</ele>
        <time>2025-11-11T22:08:21.295Z</time>
      </trkpt>
      <trkpt lat="48.477444" lon="9.813159">
        <ele>623.637312</ele>
        <time>2025-11-11T22:08:22.783Z</time>
      </trkpt>
      <trkpt lat="48.477465" lon="9.812743">
        <ele>621.725891</ele>
        <time>2025-11-11T22:08:25.198Z</time>
      </trkpt>
      <trkpt lat="48.477778" lon="9.811783">
        <ele>617.232254</ele>
        <time>2025-11-11T22:08:31.563Z</time>
      </trkpt>
      <trkpt lat="48.477878" lon="9.811591">
        <ele>616.792037</ele>
        <time>2025-11-11T22:08:33.144Z</time>
      </trkpt>
      <trkpt lat="48.477979" lon="9.811457">
        <ele>616.426226</ele>
        <time>2025-11-11T22:08:34.506Z</time>
      </trkpt>
      <trkpt lat="48.478091" lon="9.811367">
        <ele>616.081101</ele>
        <time>2025-11-11T22:08:35.789Z</time>
      </trkpt>
      <trkpt lat="48.478225" lon="9.811287">
        <ele>615.689162</ele>
        <time>2025-11-11T22:08:37.267Z</time>
      </trkpt>
      <trkpt lat="48.478769" lon="9.811088">
        <ele>614.166781</ele>
        <time>2025-11-11T22:08:43.234Z</time>
      </trkpt>
      <trkpt lat="48.479045" lon="9.810903">
        <ele>613.345388</ele>
        <time>2025-11-11T22:08:46.593Z</time>
      </trkpt>
      <trkpt lat="48.479213" lon="9.810610">
        <ele>612.646965</ele>
        <time>2025-11-11T22:08:49.745Z</time>
      </trkpt>
      <trkpt lat="48.479292" lon="9.810328">
        <ele>613.286768</ele>
        <time>2025-11-11T22:08:52.789Z</time>
      </trkpt>
      <trkpt lat="48.479343" lon="9.810082">
        <ele>613.907745</ele>
        <time>2025-11-11T22:08:55.867Z</time>
      </trkpt>
      <trkpt lat="48.479342" lon="9.809727">
        <ele>614.763026</ele>
        <time>2025-11-11T22:09:00.747Z</time>
      </trkpt>
      <trkpt lat="48.479325" lon="9.809411">
        <ele>615.526842</ele>
        <time>2025-11-11T22:09:05.893Z</time>
      </trkpt>
      <trkpt lat="48.479238" lon="9.808897">
        <ele>616.804914</ele>
        <time>2025-11-11T22:09:16.503Z</time>
      </trkpt>
      <trkpt lat="48.479168" lon="9.808647">
        <ele>617.458747</ele>
        <time>2025-11-11T22:09:22.985Z</time>
      </trkpt>
      <trkpt lat="48.479042" lon="9.808340">
        <ele>618.328669</ele>
        <time>2025-11-11T22:09:32.609Z</time>
      </trkpt>
      <trkpt lat="48.478896" lon="9.808209">
        <ele>618.946061</ele>
        <time>2025-11-11T22:09:40.321Z</time>
      </trkpt>
      <trkpt lat="48.478755" lon="9.807977">
        <ele>620.417801</ele>
        <time>2025-11-11T22:09:50.509Z</time>
      </trkpt>
      <trkpt lat="48.478440" lon="9.806884">
        <ele>626.932867</ele>
        <time>2025-11-11T22:10:30.501Z</time>
      </trkpt>
      <trkpt lat="48.478374" lon="9.806562">
        <ele>628.775293</ele>
        <time>2025-11-11T22:10:41.677Z</time>
      </trkpt>
      <trkpt lat="48.478332" lon="9.806204">
        <ele>630.762705</ele>
        <time>2025-11-11T22:10:53.480Z</time>
      </trkpt>
      <trkpt lat="48.478336" lon="9.804586">
        <ele>638.600123</ele>
        <time>2025-11-11T22:11:43.275Z</time>
      </trkpt>
      <trkpt lat="48.478433" lon="9.802900">
        <ele>646.173797</ele>
        <time>2025-11-11T22:12:29.439Z</time>
      </trkpt>
      <trkpt lat="48.478416" lon="9.802586">
        <ele>646.828963</ele>
        <time>2025-11-11T22:12:36.575Z</time>
      </trkpt>
      <trkpt lat="48.478202" lon="9.801172">
        <ele>649.845174</ele>
        <time>2025-11-11T22:13:03.022Z</time>
      </trkpt>
      <trkpt lat="48.478179" lon="9.801038">
        <ele>650.133030</ele>
        <time>2025-11-11T22:13:04.998Z</time>
      </trkpt>
      <trkpt lat="48.477618" lon="9.796953">
        <ele>655.495327</ele>
        <time>2025-11-11T22:14:03.229Z</time>
      </trkpt>
      <trkpt lat="48.477067" lon="9.792893">
        <ele>661.844598</ele>
        <time>2025-11-11T22:15:06.874Z</time>
      </trkpt>
      <trkpt lat="48.477083" lon="9.792609">
        <ele>662.351831</ele>
        <time>2025-11-11T22:15:12.375Z</time>
      </trkpt>
      <trkpt lat="48.477212" lon="9.792387">
        <ele>662.877197</ele>
        <time>2025-11-11T22:15:18.408Z</time>
      </trkpt>
      <trkpt lat="48.477601" lon="9.792627">
        <ele>664.956875</ele>
        <time>2025-11-11T22:15:32.598Z</time>
      </trkpt>
      <trkpt lat="48.477840" lon="9.792701">
        <ele>666.204770</ele>
        <time>2025-11-11T22:15:41.167Z</time>
      </trkpt>
      <trkpt lat="48.478155" lon="9.792697">
        <ele>667.815954</ele>
        <time>2025-11-11T22:15:52.507Z</time>
      </trkpt>
      <trkpt lat="48.478316" lon="9.792669">
        <ele>668.644873</ele>
        <time>2025-11-11T22:15:58.511Z</time>
      </trkpt>
      <trkpt lat="48.478380" lon="9.792653">
        <ele>668.976678</ele>
        <time>2025-11-11T22:16:00.959Z</time>
      </trkpt>
      <trkpt lat="48.478656" lon="9.792536">
        <ele>670.443011</ele>
        <time>2025-11-11T22:16:11.577Z</time>
      </trkpt>
      <trkpt lat="48.478686" lon="9.792513">
        <ele>670.615131</ele>
        <time>2025-11-11T22:16:12.834Z</time>
      </trkpt>
      <trkpt lat="48.478841" lon="9.792393">
        <ele>671.506215</ele>
        <time>2025-11-11T22:16:19.633Z</time>
      </trkpt>
      <trkpt lat="48.479053" lon="9.792228">
        <ele>672.605830</ele>
        <time>2025-11-11T22:16:28.967Z</time>
      </trkpt>
      <trkpt lat="48.479158" lon="9.792196">
        <ele>673.038375</ele>
        <time>2025-11-11T22:16:33.027Z</time>
      </trkpt>
      <trkpt lat="48.479239" lon="9.792224">
        <ele>673.373922</ele>
        <time>2025-11-11T22:16:36.101Z</time>
      </trkpt>
      <trkpt lat="48.479457" lon="9.792326">
        <ele>674.295552</ele>
        <time>2025-11-11T22:16:44.153Z</time>
      </trkpt>
      <trkpt lat="48.479483" lon="9.792183">
        <ele>674.692454</ele>
        <time>2025-11-11T22:16:47.923Z</time>
      </trkpt>
      <trkpt lat="48.479502" lon="9.791653">
        <ele>676.113165</ele>
        <time>2025-11-11T22:17:01.347Z</time>
      </trkpt>
      <trkpt lat="48.479497" lon="9.791144">
        <ele>677.475742</ele>
        <time>2025-11-11T22:17:13.625Z</time>
      </trkpt>
      <trkpt lat="48.479436" lon="9.790527">
        <ele>679.145518</ele>
        <time>2025-11-11T22:17:26.756Z</time>
      </trkpt>
      <trkpt lat="48.479374" lon="9.789917">
        <ele>679.645711</ele>
        <time>2025-11-11T22:17:37.242Z</time>
      </trkpt>
      <trkpt lat="48.479327" lon="9.789694">
        <ele>679.749614</ele>
        <time>2025-11-11T22:17:39.838Z</time>
      </trkpt>
      <trkpt lat="48.479273" lon="9.789437">
        <ele>679.869325</ele>
        <time>2025-11-11T22:17:42.845Z</time>
      </trkpt>
      <trkpt lat="48.479052" lon="9.788377">
        <ele>680.362730</ele>
        <time>2025-11-11T22:17:54.679Z</time>
      </trkpt>
      <trkpt lat="48.478913" lon="9.787714">
        <ele>680.629981</ele>
        <time>2025-11-11T22:18:01.286Z</time>
      </trkpt>
      <trkpt lat="48.478764" lon="9.787159">
        <ele>680.675209</ele>
        <time>2025-11-11T22:18:07.116Z</time>
      </trkpt>
      <trkpt lat="48.478789" lon="9.787077">
        <ele>680.682027</ele>
        <time>2025-11-11T22:18:07.992Z</time>
      </trkpt>
      <trkpt lat="48.478840" lon="9.786532">
        <ele>680.723601</ele>
        <time>2025-11-11T22:18:13.385Z</time>
      </trkpt>
      <trkpt lat="48.478714" lon="9.785157">
        <ele>680.842047</ele>
        <time>2025-11-11T22:18:27.185Z</time>
      </trkpt>
      <trkpt lat="48.478382" lon="9.781885">
        <ele>682.401373</ele>
        <time>2025-11-11T22:19:08.728Z</time>
      </trkpt>
      <trkpt lat="48.478210" lon="9.780333">
        <ele>682.394404</ele>
        <time>2025-11-11T22:19:24.503Z</time>
      </trkpt>
      <trkpt lat="48.478040" lon="9.779358">
        <ele>681.683852</ele>
        <time>2025-11-11T22:19:32.458Z</time>
      </trkpt>
      <trkpt lat="48.477804" lon="9.778292">
        <ele>680.066322</ele>
        <time>2025-11-11T22:19:40.547Z</time>
      </trkpt>
      <trkpt lat="48.477692" lon="9.777035">
        <ele>678.202555</ele>
        <time>2025-11-11T22:19:49.273Z</time>
      </trkpt>
      <trkpt lat="48.477745" lon="9.775396">
        <ele>675.472743</ele>
        <time>2025-11-11T22:20:00.350Z</time>
      </trkpt>
      <trkpt lat="48.478218" lon="9.775092">
        <ele>674.182520</ele>
        <time>2025-11-11T22:20:05.866Z</time>
      </trkpt>
      <trkpt lat="48.477776" lon="9.773380">
        <ele>673.677796</ele>
        <time>2025-11-11T22:20:21.678Z</time>
      </trkpt>
      <trkpt lat="48.477753" lon="9.773293">
        <ele>673.661618</ele>
        <time>2025-11-11T22:20:22.768Z</time>
      </trkpt>
      <trkpt lat="48.477580" lon="9.772621">
        <ele>673.537097</ele>
        <time>2025-11-11T22:20:31.217Z</time>
      </trkpt>
      <trkpt lat="48.477106" lon="9.770850">
        <ele>674.946855</ele>
        <time>2025-11-11T22:20:54.946Z</time>
      </trkpt>
      <trkpt lat="48.476810" lon="9.767475">
        <ele>678.847616</ele>
        <time>2025-11-11T22:21:44.610Z</time>
      </trkpt>
      <trkpt lat="48.476776" lon="9.766876">
        <ele>679.716655</ele>
        <time>2025-11-11T22:21:54.627Z</time>
      </trkpt>
      <trkpt lat="48.476722" lon="9.766348">
        <ele>680.580559</ele>
        <time>2025-11-11T22:22:03.587Z</time>
      </trkpt>
      <trkpt lat="48.476665" lon="9.766117">
        <ele>680.979135</ele>
        <time>2025-11-11T22:22:07.800Z</time>
      </trkpt>
      <trkpt lat="48.475909" lon="9.764109">
        <ele>684.872907</ele>
        <time>2025-11-11T22:22:45.188Z</time>
      </trkpt>
      <trkpt lat="48.475701" lon="9.763654">
        <ele>685.896612</ele>
        <time>2025-11-11T22:22:54.454Z</time>
      </trkpt>
      <trkpt lat="48.475272" lon="9.763576">
        <ele>687.103899</ele>
        <time>2025-11-11T22:23:06.034Z</time>
      </trkpt>
      <trkpt lat="48.474713" lon="9.763470">
        <ele>688.680714</ele>
        <time>2025-11-11T22:23:24.349Z</time>
      </trkpt>
      <trkpt lat="48.474227" lon="9.763199">
        <ele>690.234235</ele>
        <time>2025-11-11T22:23:41.415Z</time>
      </trkpt>
      <trkpt lat="48.473380" lon="9.762490">
        <ele>693.138578</ele>
        <time>2025-11-11T22:24:13.095Z</time>
      </trkpt>
      <trkpt lat="48.472922" lon="9.762227">
        <ele>694.416288</ele>
        <time>2025-11-11T22:24:28.267Z</time>
      </trkpt>
      <trkpt lat="48.472557" lon="9.762090">
        <ele>695.167550</ele>
        <time>2025-11-11T22:24:39.593Z</time>
      </trkpt>
      <trkpt lat="48.472105" lon="9.761981">
        <ele>696.081812</ele>
        <time>2025-11-11T22:24:52.923Z</time>
      </trkpt>
      <trkpt lat="48.471182" lon="9.761834">
        <ele>697.754170</ele>
        <time>2025-11-11T22:25:16.836Z</time>
      </trkpt>
      <trkpt lat="48.470731" lon="9.761865">
        <ele>698.126809</ele>
        <time>2025-11-11T22:25:27.963Z</time>
      </trkpt>
      <trkpt lat="48.469573" lon="9.762156">
        <ele>699.095791</ele>
        <time>2025-11-11T22:25:55.623Z</time>
      </trkpt>
      <trkpt lat="48.469314" lon="9.762223">
        <ele>699.063756</ele>
        <time>2025-11-11T22:26:01.133Z</time>
      </trkpt>
      <trkpt lat="48.468606" lon="9.762240">
        <ele>698.926940</ele>
        <time>2025-11-11T22:26:14.186Z</time>
      </trkpt>
      <trkpt lat="48.467508" lon="9.762188">
        <ele>699.010892</ele>
        <time>2025-11-11T22:26:34.376Z</time>
      </trkpt>
      <trkpt lat="48.467631" lon="9.759270">
        <ele>700.855815</ele>
        <time>2025-11-11T22:27:14.017Z</time>
      </trkpt>
      <trkpt lat="48.467716" lon="9.757207">
        <ele>702.004276</ele>
        <time>2025-11-11T22:27:39.839Z</time>
      </trkpt>
      <trkpt lat="48.467734" lon="9.756588">
        <ele>701.554560</ele>
        <time>2025-11-11T22:27:44.989Z</time>
      </trkpt>
      <trkpt lat="48.467689" lon="9.756332">
        <ele>701.329981</ele>
        <time>2025-11-11T22:27:47.051Z</time>
      </trkpt>
      <trkpt lat="48.467332" lon="9.756596">
        <ele>700.821482</ele>
        <time>2025-11-11T22:27:51.502Z</time>
      </trkpt>
      <trkpt lat="48.467167" lon="9.756718">
        <ele>700.586467</ele>
        <time>2025-11-11T22:27:53.509Z</time>
      </trkpt>
      <trkpt lat="48.466660" lon="9.757043">
        <ele>699.881923</ele>
        <time>2025-11-11T22:27:59.625Z</time>
      </trkpt>
      <trkpt lat="48.466427" lon="9.757132">
        <ele>699.591731</ele>
        <time>2025-11-11T22:28:02.412Z</time>
      </trkpt>
      <trkpt lat="48.466386" lon="9.757147">
        <ele>699.543598</ele>
        <time>2025-11-11T22:28:02.905Z</time>
      </trkpt>
      <trkpt lat="48.465927" lon="9.757319">
        <ele>699.004006</ele>
        <time>2025-11-11T22:28:08.552Z</time>
      </trkpt>
      <trkpt lat="48.465648" lon="9.757509">
        <ele>698.654750</ele>
        <time>2025-11-11T22:28:12.100Z</time>
      </trkpt>
      <trkpt lat="48.465534" lon="9.757627">
        <ele>698.497002</ele>
        <time>2025-11-11T22:28:13.736Z</time>
      </trkpt>
      <trkpt lat="48.465393" lon="9.757544">
        <ele>698.324316</ele>
        <time>2025-11-11T22:28:15.550Z</time>
      </trkpt>
      <trkpt lat="48.465110" lon="9.757542">
        <ele>698.001440</ele>
        <time>2025-11-11T22:28:19.018Z</time>
      </trkpt>
      <trkpt lat="48.465058" lon="9.757585">
        <ele>697.933781</ele>
        <time>2025-11-11T22:28:19.780Z</time>
      </trkpt>
      <trkpt lat="48.464847" lon="9.757808">
        <ele>697.683361</ele>
        <time>2025-11-11T22:28:23.042Z</time>
      </trkpt>
      <trkpt lat="48.464746" lon="9.757937">
        <ele>697.688686</ele>
        <time>2025-11-11T22:28:24.772Z</time>
      </trkpt>
      <trkpt lat="48.464475" lon="9.757918">
        <ele>697.699599</ele>
        <time>2025-11-11T22:28:28.483Z</time>
      </trkpt>
      <trkpt lat="48.464312" lon="9.757906">
        <ele>697.706164</ele>
        <time>2025-11-11T22:28:30.750Z</time>
      </trkpt>
      <trkpt lat="48.464217" lon="9.757899">
        <ele>697.709991</ele>
        <time>2025-11-11T22:28:32.111Z</time>
      </trkpt>
      <trkpt lat="48.464187" lon="9.757897">
        <ele>697.711199</ele>
        <time>2025-11-11T22:28:32.539Z</time>
      </trkpt>
      <trkpt lat="48.463825" lon="9.757870">
        <ele>697.725779</ele>
        <time>2025-11-11T22:28:38.149Z</time>
      </trkpt>
      <trkpt lat="48.463823" lon="9.757807">
        <ele>697.727462</ele>
        <time>2025-11-11T22:28:38.888Z</time>
      </trkpt>
      <trkpt lat="48.463392" lon="9.757790">
        <ele>697.744806</ele>
        <time>2025-11-11T22:28:46.797Z</time>
      </trkpt>
      <trkpt lat="48.462816" lon="9.757247">
        <ele>697.153875</ele>
        <time>2025-11-11T22:28:57.750Z</time>
      </trkpt>
      <trkpt lat="48.462723" lon="9.757165">
        <ele>697.008500</ele>
        <time>2025-11-11T22:28:59.242Z</time>
      </trkpt>
      <trkpt lat="48.462566" lon="9.757001">
        <ele>696.750775</ele>
        <time>2025-11-11T22:29:01.683Z</time>
      </trkpt>
      <trkpt lat="48.462543" lon="9.756976">
        <ele>696.712515</ele>
        <time>2025-11-11T22:29:02.033Z</time>
      </trkpt>
      <trkpt lat="48.462433" lon="9.756861">
        <ele>696.531895</ele>
        <time>2025-11-11T22:29:03.645Z</time>
      </trkpt>
      <trkpt lat="48.462373" lon="9.756798">
        <ele>696.433235</ele>
        <time>2025-11-11T22:29:04.876Z</time>
      </trkpt>
      <trkpt lat="48.461976" lon="9.756389">
        <ele>695.784425</ele>
        <time>2025-11-11T22:29:12.516Z</time>
      </trkpt>
      <trkpt lat="48.461231" lon="9.755734">
        <ele>693.623742</ele>
        <time>2025-11-11T22:29:24.926Z</time>
      </trkpt>
      <trkpt lat="48.460861" lon="9.755451">
        <ele>692.273721</ele>
        <time>2025-11-11T22:29:30.598Z</time>
      </trkpt>
      <trkpt lat="48.460224" lon="9.755073">
        <ele>690.046162</ele>
        <time>2025-11-11T22:29:37.426Z</time>
      </trkpt>
      <trkpt lat="48.459937" lon="9.754633">
        <ele>689.497953</ele>
        <time>2025-11-11T22:29:42.033Z</time>
      </trkpt>
      <trkpt lat="48.459725" lon="9.754325">
        <ele>689.527968</ele>
        <time>2025-11-11T22:29:45.927Z</time>
      </trkpt>
      <trkpt lat="48.459385" lon="9.753782">
        <ele>689.578463</ele>
        <time>2025-11-11T22:29:55.052Z</time>
      </trkpt>
      <trkpt lat="48.458953" lon="9.752915">
        <ele>689.651789</ele>
        <time>2025-11-11T22:30:10.289Z</time>
      </trkpt>
      <trkpt lat="48.458734" lon="9.752693">
        <ele>689.480991</ele>
        <time>2025-11-11T22:30:14.562Z</time>
      </trkpt>
      <trkpt lat="48.458592" lon="9.752618">
        <ele>689.352990</ele>
        <time>2025-11-11T22:30:16.594Z</time>
      </trkpt>
      <trkpt lat="48.458430" lon="9.752562">
        <ele>689.211596</ele>
        <time>2025-11-11T22:30:18.668Z</time>
      </trkpt>
      <trkpt lat="48.457006" lon="9.752787">
        <ele>688.172962</ele>
        <time>2025-11-11T22:30:34.823Z</time>
      </trkpt>
      <trkpt lat="48.453455" lon="9.753375">
        <ele>689.958967</ele>
        <time>2025-11-11T22:31:37.729Z</time>
      </trkpt>
      <trkpt lat="48.453250" lon="9.753200">
        <ele>690.104911</ele>
        <time>2025-11-11T22:31:41.634Z</time>
      </trkpt>
      <trkpt lat="48.453122" lon="9.753037">
        <ele>690.208709</ele>
        <time>2025-11-11T22:31:44.414Z</time>
      </trkpt>
      <trkpt lat="48.452602" lon="9.748776">
        <ele>692.094937</ele>
        <time>2025-11-11T22:32:34.484Z</time>
      </trkpt>
      <trkpt lat="48.452559" lon="9.748489">
        <ele>692.232304</ele>
        <time>2025-11-11T22:32:38.019Z</time>
      </trkpt>
      <trkpt lat="48.452460" lon="9.748136">
        <ele>692.540508</ele>
        <time>2025-11-11T22:32:42.683Z</time>
      </trkpt>
      <trkpt lat="48.452337" lon="9.747910">
        <ele>692.775606</ele>
        <time>2025-11-11T22:32:46.299Z</time>
      </trkpt>
      <trkpt lat="48.452073" lon="9.747682">
        <ele>693.144491</ele>
        <time>2025-11-11T22:32:52.093Z</time>
      </trkpt>
      <trkpt lat="48.450469" lon="9.746458">
        <ele>695.721234</ele>
        <time>2025-11-11T22:33:28.862Z</time>
      </trkpt>
      <trkpt lat="48.450310" lon="9.746348">
        <ele>696.024939</ele>
        <time>2025-11-11T22:33:32.631Z</time>
      </trkpt>
      <trkpt lat="48.449686" lon="9.746186">
        <ele>697.124177</ele>
        <time>2025-11-11T22:33:46.640Z</time>
      </trkpt>
      <trkpt lat="48.449682" lon="9.743510">
        <ele>701.402781</ele>
        <time>2025-11-11T22:34:29.898Z</time>
      </trkpt>
      <trkpt lat="48.449682" lon="9.743441">
        <ele>701.517750</ele>
        <time>2025-11-11T22:34:31.075Z</time>
      </trkpt>
      <trkpt lat="48.449697" lon="9.741646">
        <ele>705.868788</ele>
        <time>2025-11-11T22:35:04.251Z</time>
      </trkpt>
      <trkpt lat="48.449724" lon="9.741388">
        <ele>706.544270</ele>
        <time>2025-11-11T22:35:09.658Z</time>
      </trkpt>
      <trkpt lat="48.449815" lon="9.741055">
        <ele>707.475688</ele>
        <time>2025-11-11T22:35:17.316Z</time>
      </trkpt>
      <trkpt lat="48.450075" lon="9.740470">
        <ele>709.377129</ele>
        <time>2025-11-11T22:35:33.407Z</time>
      </trkpt>
      <trkpt lat="48.450178" lon="9.740168">
        <ele>710.551504</ele>
        <time>2025-11-11T22:35:41.681Z</time>
      </trkpt>
      <trkpt lat="48.450263" lon="9.739826">
        <ele>711.814529</ele>
        <time>2025-11-11T22:35:50.910Z</time>
      </trkpt>
      <trkpt lat="48.450656" lon="9.737822">
        <ele>718.833294</ele>
        <time>2025-11-11T22:36:42.022Z</time>
      </trkpt>
      <trkpt lat="48.450905" lon="9.736346">
        <ele>722.287703</ele>
        <time>2025-11-11T22:37:11.229Z</time>
      </trkpt>
      <trkpt lat="48.451071" lon="9.735285">
        <ele>724.709930</ele>
        <time>2025-11-11T22:37:28.692Z</time>
      </trkpt>
      <trkpt lat="48.451094" lon="9.735127">
        <ele>724.969918</ele>
        <time>2025-11-11T22:37:31.315Z</time>
      </trkpt>
      <trkpt lat="48.451282" lon="9.733853">
        <ele>727.067601</ele>
        <time>2025-11-11T22:37:53.125Z</time>
      </trkpt>
      <trkpt lat="48.451452" lon="9.732699">
        <ele>728.967217</ele>
        <time>2025-11-11T22:38:12.099Z</time>
      </trkpt>
      <trkpt lat="48.451627" lon="9.731839">
        <ele>730.391214</ele>
        <time>2025-11-11T22:38:25.930Z</time>
      </trkpt>
      <trkpt lat="48.451716" lon="9.731468">
        <ele>731.015733</ele>
        <time>2025-11-11T22:38:31.803Z</time>
      </trkpt>
      <trkpt lat="48.452140" lon="9.729618">
        <ele>734.910533</ele>
        <time>2025-11-11T22:39:04.069Z</time>
      </trkpt>
      <trkpt lat="48.452258" lon="9.729258">
        <ele>736.124567</ele>
        <time>2025-11-11T22:39:12.279Z</time>
      </trkpt>
      <trkpt lat="48.452612" lon="9.728461">
        <ele>739.024515</ele>
        <time>2025-11-11T22:39:34.052Z</time>
      </trkpt>
      <trkpt lat="48.452750" lon="9.728045">
        <ele>740.430726</ele>
        <time>2025-11-11T22:39:45.881Z</time>
      </trkpt>
      <trkpt lat="48.452819" lon="9.727624">
        <ele>741.809201</ele>
        <time>2025-11-11T22:39:57.427Z</time>
      </trkpt>
      <trkpt lat="48.452915" lon="9.726391">
        <ele>746.394252</ele>
        <time>2025-11-11T22:40:30.339Z</time>
      </trkpt>
      <trkpt lat="48.452995" lon="9.725957">
        <ele>748.057876</ele>
        <time>2025-11-11T22:40:41.927Z</time>
      </trkpt>
      <trkpt lat="48.453415" lon="9.723986">
        <ele>753.767059</ele>
        <time>2025-11-11T22:41:27.313Z</time>
      </trkpt>
      <trkpt lat="48.453603" lon="9.723112">
        <ele>755.614229</ele>
        <time>2025-11-11T22:41:42.549Z</time>
      </trkpt>
      <trkpt lat="48.453766" lon="9.722315">
        <ele>756.935237</ele>
        <time>2025-11-11T22:41:54.007Z</time>
      </trkpt>
      <trkpt lat="48.453948" lon="9.721625">
        <ele>757.050413</ele>
        <time>2025-11-11T22:42:02.513Z</time>
      </trkpt>
      <trkpt lat="48.454146" lon="9.720982">
        <ele>757.160370</ele>
        <time>2025-11-11T22:42:09.636Z</time>
      </trkpt>
      <trkpt lat="48.454677" lon="9.719577">
        <ele>756.951111</ele>
        <time>2025-11-11T22:42:23.994Z</time>
      </trkpt>
      <trkpt lat="48.454873" lon="9.718817">
        <ele>756.393418</ele>
        <time>2025-11-11T22:42:30.755Z</time>
      </trkpt>
      <trkpt lat="48.455003" lon="9.718093">
        <ele>755.880436</ele>
        <time>2025-11-11T22:42:36.661Z</time>
      </trkpt>
      <trkpt lat="48.455050" lon="9.717533">
        <ele>755.494389</ele>
        <time>2025-11-11T22:42:40.989Z</time>
      </trkpt>
      <trkpt lat="48.455072" lon="9.717018">
        <ele>755.017812</ele>
        <time>2025-11-11T22:42:44.891Z</time>
      </trkpt>
      <trkpt lat="48.455072" lon="9.716815">
        <ele>754.826947</ele>
        <time>2025-11-11T22:42:46.405Z</time>
      </trkpt>
      <trkpt lat="48.455071" lon="9.716564">
        <ele>754.590948</ele>
        <time>2025-11-11T22:42:48.271Z</time>
      </trkpt>
      <trkpt lat="48.455060" lon="9.716390">
        <ele>754.426608</ele>
        <time>2025-11-11T22:42:50.155Z</time>
      </trkpt>
      <trkpt lat="48.455030" lon="9.716236">
        <ele>754.275697</ele>
        <time>2025-11-11T22:42:51.891Z</time>
      </trkpt>
      <trkpt lat="48.455113" lon="9.716147">
        <ele>754.131309</ele>
        <time>2025-11-11T22:42:53.069Z</time>
      </trkpt>
      <trkpt lat="48.455701" lon="9.715477">
        <ele>753.086457</ele>
        <time>2025-11-11T22:43:01.626Z</time>
      </trkpt>
      <trkpt lat="48.455901" lon="9.715185">
        <ele>752.770480</ele>
        <time>2025-11-11T22:43:05.021Z</time>
      </trkpt>
      <trkpt lat="48.455972" lon="9.715061">
        <ele>752.669237</ele>
        <time>2025-11-11T22:43:06.347Z</time>
      </trkpt>
      <trkpt lat="48.456132" lon="9.714782">
        <ele>752.441288</ele>
        <time>2025-11-11T22:43:09.304Z</time>
      </trkpt>
      <trkpt lat="48.456192" lon="9.714635">
        <ele>752.334614</ele>
        <time>2025-11-11T22:43:10.705Z</time>
      </trkpt>
      <trkpt lat="48.456251" lon="9.714392">
        <ele>752.174690</ele>
        <time>2025-11-11T22:43:12.780Z</time>
      </trkpt>
      <trkpt lat="48.456375" lon="9.713719">
        <ele>751.743019</ele>
        <time>2025-11-11T22:43:18.532Z</time>
      </trkpt>
      <trkpt lat="48.456466" lon="9.713518">
        <ele>751.592615</ele>
        <time>2025-11-11T22:43:20.536Z</time>
      </trkpt>
      <trkpt lat="48.456653" lon="9.713233">
        <ele>751.344849</ele>
        <time>2025-11-11T22:43:23.848Z</time>
      </trkpt>
      <trkpt lat="48.456909" lon="9.712973">
        <ele>751.267954</ele>
        <time>2025-11-11T22:43:27.802Z</time>
      </trkpt>
      <trkpt lat="48.457132" lon="9.712874">
        <ele>751.294009</ele>
        <time>2025-11-11T22:43:30.998Z</time>
      </trkpt>
      <trkpt lat="48.457435" lon="9.712841">
        <ele>751.328058</ele>
        <time>2025-11-11T22:43:35.698Z</time>
      </trkpt>
      <trkpt lat="48.457659" lon="9.712839">
        <ele>751.353165</ele>
        <time>2025-11-11T22:43:39.226Z</time>
      </trkpt>
      <trkpt lat="48.457833" lon="9.712837">
        <ele>751.372667</ele>
        <time>2025-11-11T22:43:42.127Z</time>
      </trkpt>
      <trkpt lat="48.457979" lon="9.712782">
        <ele>751.389534</ele>
        <time>2025-11-11T22:43:44.767Z</time>
      </trkpt>
      <trkpt lat="48.457966" lon="9.712667">
        <ele>751.398205</ele>
        <time>2025-11-11T22:43:46.162Z</time>
      </trkpt>
      <trkpt lat="48.457949" lon="9.712518">
        <ele>751.409443</ele>
        <time>2025-11-11T22:43:47.892Z</time>
      </trkpt>
      <trkpt lat="48.457934" lon="9.712231">
        <ele>751.430842</ele>
        <time>2025-11-11T22:43:51.181Z</time>
      </trkpt>
      <trkpt lat="48.457945" lon="9.711965">
        <ele>751.468786</ele>
        <time>2025-11-11T22:43:54.136Z</time>
      </trkpt>
      <trkpt lat="48.457957" lon="9.711810">
        <ele>751.536812</ele>
        <time>2025-11-11T22:43:55.803Z</time>
      </trkpt>
      <trkpt lat="48.458033" lon="9.711558">
        <ele>751.657490</ele>
        <time>2025-11-11T22:43:58.778Z</time>
      </trkpt>
      <trkpt lat="48.457973" lon="9.711508">
        <ele>751.702551</ele>
        <time>2025-11-11T22:43:59.874Z</time>
      </trkpt>
      <trkpt lat="48.457912" lon="9.711355">
        <ele>751.780372</ele>
        <time>2025-11-11T22:44:01.813Z</time>
      </trkpt>
      <trkpt lat="48.457844" lon="9.711080">
        <ele>751.908312</ele>
        <time>2025-11-11T22:44:04.957Z</time>
      </trkpt>
      <trkpt lat="48.457829" lon="9.711001">
        <ele>751.944133</ele>
        <time>2025-11-11T22:44:05.900Z</time>
      </trkpt>
      <trkpt lat="48.457801" lon="9.710857">
        <ele>752.009548</ele>
        <time>2025-11-11T22:44:07.588Z</time>
      </trkpt>
      <trkpt lat="48.457798" lon="9.710837">
        <ele>752.018487</ele>
        <time>2025-11-11T22:44:07.838Z</time>
      </trkpt>
      <trkpt lat="48.457706" lon="9.710192">
        <ele>752.306085</ele>
        <time>2025-11-11T22:44:15.130Z</time>
      </trkpt>
      <trkpt lat="48.457592" lon="9.709622">
        <ele>752.565614</ele>
        <time>2025-11-11T22:44:22.147Z</time>
      </trkpt>
      <trkpt lat="48.457583" lon="9.709561">
        <ele>752.592855</ele>
        <time>2025-11-11T22:44:22.847Z</time>
      </trkpt>
      <trkpt lat="48.457503" lon="9.709539">
        <ele>752.678592</ele>
        <time>2025-11-11T22:44:24.501Z</time>
      </trkpt>
      <trkpt lat="48.457352" lon="9.709386">
        <ele>753.024068</ele>
        <time>2025-11-11T22:44:28.225Z</time>
      </trkpt>
      <trkpt lat="48.457349" lon="9.709382">
        <ele>753.031673</ele>
        <time>2025-11-11T22:44:28.307Z</time>
      </trkpt>
      <trkpt lat="48.457255" lon="9.709244">
        <ele>753.280811</ele>
        <time>2025-11-11T22:44:31.136Z</time>
      </trkpt>
      <trkpt lat="48.457131" lon="9.709113">
        <ele>753.568333</ele>
        <time>2025-11-11T22:44:34.474Z</time>
      </trkpt>
      <trkpt lat="48.456967" lon="9.708873">
        <ele>754.002328</ele>
        <time>2025-11-11T22:44:39.699Z</time>
      </trkpt>
      <trkpt lat="48.456860" lon="9.708690">
        <ele>754.309581</ele>
        <time>2025-11-11T22:44:43.565Z</time>
      </trkpt>
      <trkpt lat="48.456577" lon="9.708170">
        <ele>755.156753</ele>
        <time>2025-11-11T22:44:54.377Z</time>
      </trkpt>
      <trkpt lat="48.456451" lon="9.707959">
        <ele>755.514340</ele>
        <time>2025-11-11T22:44:58.670Z</time>
      </trkpt>
      <trkpt lat="48.456184" lon="9.707736">
        <ele>756.075057</ele>
        <time>2025-11-11T22:45:05.762Z</time>
      </trkpt>
      <trkpt lat="48.455837" lon="9.707463">
        <ele>756.532060</ele>
        <time>2025-11-11T22:45:14.967Z</time>
      </trkpt>
      <trkpt lat="48.455540" lon="9.707249">
        <ele>756.916407</ele>
        <time>2025-11-11T22:45:22.033Z</time>
      </trkpt>
      <trkpt lat="48.455244" lon="9.707081">
        <ele>757.285700</ele>
        <time>2025-11-11T22:45:28.327Z</time>
      </trkpt>
      <trkpt lat="48.455099" lon="9.707026">
        <ele>757.460281</ele>
        <time>2025-11-11T22:45:31.144Z</time>
      </trkpt>
      <trkpt lat="48.454615" lon="9.707228">
        <ele>758.046664</ele>
        <time>2025-11-11T22:45:39.819Z</time>
      </trkpt>
      <trkpt lat="48.454335" lon="9.707329">
        <ele>757.876570</ele>
        <time>2025-11-11T22:45:44.406Z</time>
      </trkpt>
      <trkpt lat="48.452926" lon="9.707414">
        <ele>756.017804</ele>
        <time>2025-11-11T22:46:01.172Z</time>
      </trkpt>
      <trkpt lat="48.451452" lon="9.707526">
        <ele>751.719149</ele>
        <time>2025-11-11T22:46:15.973Z</time>
      </trkpt>
      <trkpt lat="48.450404" lon="9.707502">
        <ele>749.530297</ele>
        <time>2025-11-11T22:46:26.505Z</time>
      </trkpt>
      <trkpt lat="48.448348" lon="9.707486">
        <ele>749.235778</ele>
        <time>2025-11-11T22:46:56.517Z</time>
      </trkpt>
      <trkpt lat="48.446891" lon="9.707572">
        <ele>750.543163</ele>
        <time>2025-11-11T22:47:33.944Z</time>
      </trkpt>
      <trkpt lat="48.445790" lon="9.707634">
        <ele>750.401612</ele>
        <time>2025-11-11T22:47:48.417Z</time>
      </trkpt>
      <trkpt lat="48.444912" lon="9.707748">
        <ele>748.991203</ele>
        <time>2025-11-11T22:47:57.417Z</time>
      </trkpt>
      <trkpt lat="48.443976" lon="9.707922">
        <ele>746.963669</ele>
        <time>2025-11-11T22:48:07.378Z</time>
      </trkpt>
      <trkpt lat="48.443384" lon="9.708007">
        <ele>746.656356</ele>
        <time>2025-11-11T22:48:14.903Z</time>
      </trkpt>
      <trkpt lat="48.442682" lon="9.707903">
        <ele>746.938608</ele>
        <time>2025-11-11T22:48:27.438Z</time>
      </trkpt>
      <trkpt lat="48.442180" lon="9.707813">
        <ele>747.140894</ele>
        <time>2025-11-11T22:48:37.329Z</time>
      </trkpt>
      <trkpt lat="48.441600" lon="9.707607">
        <ele>747.398589</ele>
        <time>2025-11-11T22:48:48.939Z</time>
      </trkpt>
      <trkpt lat="48.440908" lon="9.707548">
        <ele>747.710242</ele>
        <time>2025-11-11T22:49:01.473Z</time>
      </trkpt>
      <trkpt lat="48.440690" lon="9.707483">
        <ele>747.810164</ele>
        <time>2025-11-11T22:49:04.933Z</time>
      </trkpt>
      <trkpt lat="48.440443" lon="9.707169">
        <ele>747.955450</ele>
        <time>2025-11-11T22:49:09.498Z</time>
      </trkpt>
      <trkpt lat="48.440385" lon="9.707036">
        <ele>748.002927</ele>
        <time>2025-11-11T22:49:10.913Z</time>
      </trkpt>
      <trkpt lat="48.440351" lon="9.706883">
        <ele>748.001563</ele>
        <time>2025-11-11T22:49:12.303Z</time>
      </trkpt>
      <trkpt lat="48.440312" lon="9.706336">
        <ele>747.729733</ele>
        <time>2025-11-11T22:49:16.954Z</time>
      </trkpt>
      <trkpt lat="48.440306" lon="9.705400">
        <ele>747.267232</ele>
        <time>2025-11-11T22:49:24.575Z</time>
      </trkpt>
      <trkpt lat="48.440276" lon="9.705252">
        <ele>747.190768</ele>
        <time>2025-11-11T22:49:25.793Z</time>
      </trkpt>
      <trkpt lat="48.440193" lon="9.705168">
        <ele>747.116309</ele>
        <time>2025-11-11T22:49:26.976Z</time>
      </trkpt>
      <trkpt lat="48.436419" lon="9.704552">
        <ele>743.769152</ele>
        <time>2025-11-11T22:50:16.586Z</time>
      </trkpt>
      <trkpt lat="48.436291" lon="9.705382">
        <ele>742.244721</ele>
        <time>2025-11-11T22:50:24.929Z</time>
      </trkpt>
      <trkpt lat="48.436076" lon="9.705965">
        <ele>739.883166</ele>
        <time>2025-11-11T22:50:30.992Z</time>
      </trkpt>
      <trkpt lat="48.435720" lon="9.706731">
        <ele>736.571926</ele>
        <time>2025-11-11T22:50:39.117Z</time>
      </trkpt>
      <trkpt lat="48.435544" lon="9.707173">
        <ele>734.746796</ele>
        <time>2025-11-11T22:50:43.508Z</time>
      </trkpt>
      <trkpt lat="48.435047" lon="9.708190">
        <ele>730.110012</ele>
        <time>2025-11-11T22:50:54.365Z</time>
      </trkpt>
      <trkpt lat="48.434428" lon="9.709343">
        <ele>724.605394</ele>
        <time>2025-11-11T22:51:07.506Z</time>
      </trkpt>
      <trkpt lat="48.434349" lon="9.709430">
        <ele>724.058089</ele>
        <time>2025-11-11T22:51:08.842Z</time>
      </trkpt>
      <trkpt lat="48.434154" lon="9.709735">
        <ele>722.932785</ele>
        <time>2025-11-11T22:51:12.706Z</time>
      </trkpt>
      <trkpt lat="48.433368" lon="9.710767">
        <ele>719.382169</ele>
        <time>2025-11-11T22:51:27.473Z</time>
      </trkpt>
      <trkpt lat="48.432945" lon="9.711486">
        <ele>717.432951</ele>
        <time>2025-11-11T22:51:37.172Z</time>
      </trkpt>
      <trkpt lat="48.432051" lon="9.713137">
        <ele>716.294057</ele>
        <time>2025-11-11T22:52:01.831Z</time>
      </trkpt>
      <trkpt lat="48.431577" lon="9.714226">
        <ele>716.700336</ele>
        <time>2025-11-11T22:52:22.090Z</time>
      </trkpt>
      <trkpt lat="48.431343" lon="9.714799">
        <ele>717.211758</ele>
        <time>2025-11-11T22:52:34.146Z</time>
      </trkpt>
      <trkpt lat="48.431135" lon="9.715738">
        <ele>717.964220</ele>
        <time>2025-11-11T22:52:51.920Z</time>
      </trkpt>
      <trkpt lat="48.430499" lon="9.718635">
        <ele>718.720883</ele>
        <time>2025-11-11T22:53:38.008Z</time>
      </trkpt>
      <trkpt lat="48.430367" lon="9.719065">
        <ele>717.906692</ele>
        <time>2025-11-11T22:53:43.128Z</time>
      </trkpt>
      <trkpt lat="48.430190" lon="9.719519">
        <ele>717.001799</ele>
        <time>2025-11-11T22:53:48.423Z</time>
      </trkpt>
      <trkpt lat="48.430059" lon="9.719782">
        <ele>716.436666</ele>
        <time>2025-11-11T22:53:51.618Z</time>
      </trkpt>
      <trkpt lat="48.429454" lon="9.720674">
        <ele>714.218489</ele>
        <time>2025-11-11T22:54:03.623Z</time>
      </trkpt>
      <trkpt lat="48.429308" lon="9.721016">
        <ele>713.241665</ele>
        <time>2025-11-11T22:54:07.436Z</time>
      </trkpt>
      <trkpt lat="48.429089" lon="9.721622">
        <ele>711.584145</ele>
        <time>2025-11-11T22:54:13.950Z</time>
      </trkpt>
      <trkpt lat="48.429034" lon="9.721896">
        <ele>710.896530</ele>
        <time>2025-11-11T22:54:16.681Z</time>
      </trkpt>
      <trkpt lat="48.428985" lon="9.722534">
        <ele>709.353794</ele>
        <time>2025-11-11T22:54:22.860Z</time>
      </trkpt>
      <trkpt lat="48.428947" lon="9.723118">
        <ele>707.944271</ele>
        <time>2025-11-11T22:54:28.453Z</time>
      </trkpt>
      <trkpt lat="48.428902" lon="9.723329">
        <ele>707.371908</ele>
        <time>2025-11-11T22:54:30.532Z</time>
      </trkpt>
      <trkpt lat="48.428781" lon="9.723607">
        <ele>706.490863</ele>
        <time>2025-11-11T22:54:33.644Z</time>
      </trkpt>
      <trkpt lat="48.428131" lon="9.724560">
        <ele>702.869179</ele>
        <time>2025-11-11T22:54:46.221Z</time>
      </trkpt>
      <trkpt lat="48.427956" lon="9.724822">
        <ele>701.884031</ele>
        <time>2025-11-11T22:54:49.702Z</time>
      </trkpt>
      <trkpt lat="48.427831" lon="9.725085">
        <ele>701.026730</ele>
        <time>2025-11-11T22:54:52.715Z</time>
      </trkpt>
      <trkpt lat="48.427313" lon="9.725943">
        <ele>698.386395</ele>
        <time>2025-11-11T22:55:03.600Z</time>
      </trkpt>
      <trkpt lat="48.426974" lon="9.726389">
        <ele>696.881831</ele>
        <time>2025-11-11T22:55:10.118Z</time>
      </trkpt>
      <trkpt lat="48.426688" lon="9.726681">
        <ele>695.726830</ele>
        <time>2025-11-11T22:55:15.175Z</time>
      </trkpt>
      <trkpt lat="48.426059" lon="9.727184">
        <ele>694.132797</ele>
        <time>2025-11-11T22:55:25.753Z</time>
      </trkpt>
      <trkpt lat="48.425547" lon="9.727594">
        <ele>693.408004</ele>
        <time>2025-11-11T22:55:35.011Z</time>
      </trkpt>
      <trkpt lat="48.423967" lon="9.728836">
        <ele>693.091853</ele>
        <time>2025-11-11T22:56:10.635Z</time>
      </trkpt>
      <trkpt lat="48.423513" lon="9.729232">
        <ele>693.503950</ele>
        <time>2025-11-11T22:56:24.521Z</time>
      </trkpt>
      <trkpt lat="48.423125" lon="9.729647">
        <ele>693.962138</ele>
        <time>2025-11-11T22:56:37.773Z</time>
      </trkpt>
      <trkpt lat="48.422869" lon="9.729997">
        <ele>694.440951</ele>
        <time>2025-11-11T22:56:47.542Z</time>
      </trkpt>
      <trkpt lat="48.422584" lon="9.730508">
        <ele>695.054551</ele>
        <time>2025-11-11T22:56:59.591Z</time>
      </trkpt>
      <trkpt lat="48.422176" lon="9.731375">
        <ele>696.031592</ele>
        <time>2025-11-11T22:57:17.204Z</time>
      </trkpt>
      <trkpt lat="48.421107" lon="9.733703">
        <ele>697.071700</ele>
        <time>2025-11-11T22:57:59.004Z</time>
      </trkpt>
      <trkpt lat="48.420366" lon="9.735409">
        <ele>697.244457</ele>
        <time>2025-11-11T22:58:26.115Z</time>
      </trkpt>
      <trkpt lat="48.420038" lon="9.736162">
        <ele>697.357365</ele>
        <time>2025-11-11T22:58:38.135Z</time>
      </trkpt>
      <trkpt lat="48.420036" lon="9.736167">
        <ele>697.360617</ele>
        <time>2025-11-11T22:58:38.216Z</time>
      </trkpt>
      <trkpt lat="48.419444" lon="9.737289">
        <ele>698.158855</ele>
        <time>2025-11-11T22:58:59.570Z</time>
      </trkpt>
      <trkpt lat="48.419249" lon="9.737662">
        <ele>698.423284</ele>
        <time>2025-11-11T22:59:07.402Z</time>
      </trkpt>
      <trkpt lat="48.419131" lon="9.737887">
        <ele>698.582986</ele>
        <time>2025-11-11T22:59:12.188Z</time>
      </trkpt>
      <trkpt lat="48.419105" lon="9.737928">
        <ele>698.614567</ele>
        <time>2025-11-11T22:59:13.149Z</time>
      </trkpt>
      <trkpt lat="48.418646" lon="9.738796">
        <ele>699.720675</ele>
        <time>2025-11-11T22:59:28.954Z</time>
      </trkpt>
      <trkpt lat="48.418450" lon="9.739167">
        <ele>700.289120</ele>
        <time>2025-11-11T22:59:36.147Z</time>
      </trkpt>
      <trkpt lat="48.418363" lon="9.739293">
        <ele>700.507085</ele>
        <time>2025-11-11T22:59:38.908Z</time>
      </trkpt>
      <trkpt lat="48.418222" lon="9.739429">
        <ele>700.809479</ele>
        <time>2025-11-11T22:59:42.751Z</time>
      </trkpt>
      <trkpt lat="48.417989" lon="9.739565">
        <ele>701.260808</ele>
        <time>2025-11-11T22:59:48.468Z</time>
      </trkpt>
      <trkpt lat="48.417800" lon="9.739657">
        <ele>701.619561</ele>
        <time>2025-11-11T22:59:52.926Z</time>
      </trkpt>
      <trkpt lat="48.417673" lon="9.739713">
        <ele>701.858574</ele>
        <time>2025-11-11T22:59:55.834Z</time>
      </trkpt>
      <trkpt lat="48.417605" lon="9.739743">
        <ele>701.986556</ele>
        <time>2025-11-11T22:59:57.391Z</time>
      </trkpt>
      <trkpt lat="48.417464" lon="9.739822">
        <ele>702.178573</ele>
        <time>2025-11-11T23:00:00.694Z</time>
      </trkpt>
      <trkpt lat="48.417199" lon="9.739970">
        <ele>702.485924</ele>
        <time>2025-11-11T23:00:06.973Z</time>
      </trkpt>
      <trkpt lat="48.416905" lon="9.740173">
        <ele>702.837626</ele>
        <time>2025-11-11T23:00:13.740Z</time>
      </trkpt>
      <trkpt lat="48.416767" lon="9.740379">
        <ele>703.048887</ele>
        <time>2025-11-11T23:00:17.580Z</time>
      </trkpt>
      <trkpt lat="48.416687" lon="9.740627">
        <ele>703.247913</ele>
        <time>2025-11-11T23:00:21.009Z</time>
      </trkpt>
      <trkpt lat="48.416611" lon="9.740891">
        <ele>703.455618</ele>
        <time>2025-11-11T23:00:24.472Z</time>
      </trkpt>
      <trkpt lat="48.416582" lon="9.741037">
        <ele>703.565617</ele>
        <time>2025-11-11T23:00:26.258Z</time>
      </trkpt>
      <trkpt lat="48.416595" lon="9.741272">
        <ele>703.735826</ele>
        <time>2025-11-11T23:00:28.941Z</time>
      </trkpt>
      <trkpt lat="48.416628" lon="9.741785">
        <ele>704.060891</ele>
        <time>2025-11-11T23:00:34.199Z</time>
      </trkpt>
      <trkpt lat="48.416602" lon="9.741918">
        <ele>704.110890</ele>
        <time>2025-11-11T23:00:35.522Z</time>
      </trkpt>
      <trkpt lat="48.416590" lon="9.741941">
        <ele>704.121440</ele>
        <time>2025-11-11T23:00:35.818Z</time>
      </trkpt>
      <trkpt lat="48.416541" lon="9.742035">
        <ele>704.164542</ele>
        <time>2025-11-11T23:00:36.978Z</time>
      </trkpt>
      <trkpt lat="48.416503" lon="9.742073">
        <ele>704.189322</ele>
        <time>2025-11-11T23:00:37.669Z</time>
      </trkpt>
      <trkpt lat="48.416372" lon="9.742173">
        <ele>704.269112</ele>
        <time>2025-11-11T23:00:39.971Z</time>
      </trkpt>
      <trkpt lat="48.416223" lon="9.742338">
        <ele>704.369582</ele>
        <time>2025-11-11T23:00:43.005Z</time>
      </trkpt>
      <trkpt lat="48.416105" lon="9.742544">
        <ele>704.467709</ele>
        <time>2025-11-11T23:00:46.047Z</time>
      </trkpt>
      <trkpt lat="48.416073" lon="9.742600">
        <ele>704.494356</ele>
        <time>2025-11-11T23:00:46.869Z</time>
      </trkpt>
      <trkpt lat="48.415993" lon="9.743113">
        <ele>704.684389</ele>
        <time>2025-11-11T23:00:53.020Z</time>
      </trkpt>
      <trkpt lat="48.415988" lon="9.743156">
        <ele>704.700132</ele>
        <time>2025-11-11T23:00:53.553Z</time>
      </trkpt>
      <trkpt lat="48.415954" lon="9.743409">
        <ele>704.793219</ele>
        <time>2025-11-11T23:00:56.634Z</time>
      </trkpt>
      <trkpt lat="48.415896" lon="9.743732">
        <ele>704.913885</ele>
        <time>2025-11-11T23:01:00.648Z</time>
      </trkpt>
      <trkpt lat="48.415806" lon="9.743962">
        <ele>704.997587</ele>
        <time>2025-11-11T23:01:03.794Z</time>
      </trkpt>
      <trkpt lat="48.415789" lon="9.744029">
        <ele>705.006235</ele>
        <time>2025-11-11T23:01:04.667Z</time>
      </trkpt>
      <trkpt lat="48.415745" lon="9.744262">
        <ele>705.035442</ele>
        <time>2025-11-11T23:01:07.480Z</time>
      </trkpt>
      <trkpt lat="48.415705" lon="9.744482">
        <ele>705.062943</ele>
        <time>2025-11-11T23:01:10.188Z</time>
      </trkpt>
      <trkpt lat="48.415665" lon="9.744736">
        <ele>705.094417</ele>
        <time>2025-11-11T23:01:13.348Z</time>
      </trkpt>
      <trkpt lat="48.415661" lon="9.744804">
        <ele>705.102648</ele>
        <time>2025-11-11T23:01:14.192Z</time>
      </trkpt>
      <trkpt lat="48.415646" lon="9.745032">
        <ele>705.130272</ele>
        <time>2025-11-11T23:01:16.923Z</time>
      </trkpt>
      <trkpt lat="48.415654" lon="9.745169">
        <ele>705.146853</ele>
        <time>2025-11-11T23:01:18.504Z</time>
      </trkpt>
      <trkpt lat="48.415701" lon="9.745564">
        <ele>705.195236</ele>
        <time>2025-11-11T23:01:22.606Z</time>
      </trkpt>
      <trkpt lat="48.415766" lon="9.745959">
        <ele>705.244301</ele>
        <time>2025-11-11T23:01:26.343Z</time>
      </trkpt>
      <trkpt lat="48.415906" lon="9.746473">
        <ele>705.311287</ele>
        <time>2025-11-11T23:01:31.306Z</time>
      </trkpt>
      <trkpt lat="48.416037" lon="9.746514">
        <ele>705.194239</ele>
        <time>2025-11-11T23:01:33.021Z</time>
      </trkpt>
      <trkpt lat="48.416410" lon="9.746633">
        <ele>704.707187</ele>
        <time>2025-11-11T23:01:37.810Z</time>
      </trkpt>
      <trkpt lat="48.416442" lon="9.746644">
        <ele>704.665259</ele>
        <time>2025-11-11T23:01:38.211Z</time>
      </trkpt>
      <trkpt lat="48.416769" lon="9.746837">
        <ele>704.216628</ele>
        <time>2025-11-11T23:01:42.534Z</time>
      </trkpt>
      <trkpt lat="48.416995" lon="9.747052">
        <ele>703.875193</ele>
        <time>2025-11-11T23:01:45.682Z</time>
      </trkpt>
      <trkpt lat="48.417015" lon="9.747170">
        <ele>703.771937</ele>
        <time>2025-11-11T23:01:46.617Z</time>
      </trkpt>
      <trkpt lat="48.417005" lon="9.747424">
        <ele>703.556206</ele>
        <time>2025-11-11T23:01:48.513Z</time>
      </trkpt>
      <trkpt lat="48.417001" lon="9.747454">
        <ele>703.530262</ele>
        <time>2025-11-11T23:01:48.738Z</time>
      </trkpt>
      <trkpt lat="48.416948" lon="9.747918">
        <ele>703.131079</ele>
        <time>2025-11-11T23:01:52.214Z</time>
      </trkpt>
      <trkpt lat="48.416922" lon="9.748146">
        <ele>702.806913</ele>
        <time>2025-11-11T23:01:53.904Z</time>
      </trkpt>
      <trkpt lat="48.416923" lon="9.748177">
        <ele>702.741147</ele>
        <time>2025-11-11T23:01:54.130Z</time>
      </trkpt>
      <trkpt lat="48.416930" lon="9.748507">
        <ele>702.041524</ele>
        <time>2025-11-11T23:01:56.501Z</time>
      </trkpt>
      <trkpt lat="48.416993" lon="9.748744">
        <ele>701.500543</ele>
        <time>2025-11-11T23:01:58.316Z</time>
      </trkpt>
      <trkpt lat="48.417087" lon="9.748980">
        <ele>700.917322</ele>
        <time>2025-11-11T23:02:00.235Z</time>
      </trkpt>
      <trkpt lat="48.417132" lon="9.749043">
        <ele>700.721204</ele>
        <time>2025-11-11T23:02:00.867Z</time>
      </trkpt>
      <trkpt lat="48.417257" lon="9.749218">
        <ele>700.176434</ele>
        <time>2025-11-11T23:02:02.604Z</time>
      </trkpt>
      <trkpt lat="48.417410" lon="9.749378">
        <ele>699.581828</ele>
        <time>2025-11-11T23:02:04.462Z</time>
      </trkpt>
      <trkpt lat="48.417706" lon="9.749673">
        <ele>698.448770</ele>
        <time>2025-11-11T23:02:07.937Z</time>
      </trkpt>
      <trkpt lat="48.417914" lon="9.749954">
        <ele>697.556848</ele>
        <time>2025-11-11T23:02:10.660Z</time>
      </trkpt>
      <trkpt lat="48.418267" lon="9.750430">
        <ele>695.505221</ele>
        <time>2025-11-11T23:02:15.248Z</time>
      </trkpt>
      <trkpt lat="48.418380" lon="9.750534">
        <ele>694.897669</ele>
        <time>2025-11-11T23:02:16.517Z</time>
      </trkpt>
      <trkpt lat="48.418689" lon="9.750728">
        <ele>693.361724</ele>
        <time>2025-11-11T23:02:19.702Z</time>
      </trkpt>
      <trkpt lat="48.418975" lon="9.750965">
        <ele>691.864100</ele>
        <time>2025-11-11T23:02:22.785Z</time>
      </trkpt>
      <trkpt lat="48.419448" lon="9.751468">
        <ele>689.207748</ele>
        <time>2025-11-11T23:02:28.299Z</time>
      </trkpt>
      <trkpt lat="48.420013" lon="9.752078">
        <ele>685.957327</ele>
        <time>2025-11-11T23:02:34.909Z</time>
      </trkpt>
      <trkpt lat="48.420296" lon="9.752333">
        <ele>684.413557</ele>
        <time>2025-11-11T23:02:38.026Z</time>
      </trkpt>
      <trkpt lat="48.421197" lon="9.753225">
        <ele>679.479585</ele>
        <time>2025-11-11T23:02:48.304Z</time>
      </trkpt>
      <trkpt lat="48.421390" lon="9.753530">
        <ele>678.290040</ele>
        <time>2025-11-11T23:02:51.036Z</time>
      </trkpt>
      <trkpt lat="48.421535" lon="9.753836">
        <ele>677.228727</ele>
        <time>2025-11-11T23:02:53.488Z</time>
      </trkpt>
      <trkpt lat="48.421641" lon="9.754192">
        <ele>676.127357</ele>
        <time>2025-11-11T23:02:56.019Z</time>
      </trkpt>
      <trkpt lat="48.421720" lon="9.754598">
        <ele>674.933118</ele>
        <time>2025-11-11T23:02:58.713Z</time>
      </trkpt>
      <trkpt lat="48.421757" lon="9.754967">
        <ele>673.879740</ele>
        <time>2025-11-11T23:03:01.104Z</time>
      </trkpt>
      <trkpt lat="48.421770" lon="9.755499">
        <ele>672.323246</ele>
        <time>2025-11-11T23:03:04.536Z</time>
      </trkpt>
      <trkpt lat="48.421741" lon="9.756117">
        <ele>670.411389</ele>
        <time>2025-11-11T23:03:08.482Z</time>
      </trkpt>
      <trkpt lat="48.421728" lon="9.756431">
        <ele>669.440528</ele>
        <time>2025-11-11T23:03:10.479Z</time>
      </trkpt>
      <trkpt lat="48.421527" lon="9.759333">
        <ele>659.038678</ele>
        <time>2025-11-11T23:03:28.846Z</time>
      </trkpt>
      <trkpt lat="48.421469" lon="9.761160">
        <ele>650.826029</ele>
        <time>2025-11-11T23:03:39.657Z</time>
      </trkpt>
      <trkpt lat="48.421421" lon="9.761677">
        <ele>647.922060</ele>
        <time>2025-11-11T23:03:42.666Z</time>
      </trkpt>
      <trkpt lat="48.421345" lon="9.762242">
        <ele>644.715169</ele>
        <time>2025-11-11T23:03:45.994Z</time>
      </trkpt>
      <trkpt lat="48.421250" lon="9.762702">
        <ele>642.035239</ele>
        <time>2025-11-11T23:03:48.788Z</time>
      </trkpt>
      <trkpt lat="48.420904" lon="9.763813">
        <ele>636.000562</ele>
        <time>2025-11-11T23:03:55.963Z</time>
      </trkpt>
      <trkpt lat="48.420889" lon="9.764012">
        <ele>635.168657</ele>
        <time>2025-11-11T23:03:57.148Z</time>
      </trkpt>
      <trkpt lat="48.421024" lon="9.764682">
        <ele>632.260226</ele>
        <time>2025-11-11T23:04:01.333Z</time>
      </trkpt>
      <trkpt lat="48.421205" lon="9.765235">
        <ele>629.699062</ele>
        <time>2025-11-11T23:04:05.161Z</time>
      </trkpt>
      <trkpt lat="48.421321" lon="9.765436">
        <ele>628.592644</ele>
        <time>2025-11-11T23:04:06.838Z</time>
      </trkpt>
      <trkpt lat="48.421452" lon="9.765547">
        <ele>627.651989</ele>
        <time>2025-11-11T23:04:08.274Z</time>
      </trkpt>
      <trkpt lat="48.421415" lon="9.765785">
        <ele>626.821980</ele>
        <time>2025-11-11T23:04:09.831Z</time>
      </trkpt>
      <trkpt lat="48.421402" lon="9.766142">
        <ele>625.959743</ele>
        <time>2025-11-11T23:04:12.125Z</time>
      </trkpt>
      <trkpt lat="48.421385" lon="9.766468">
        <ele>625.171137</ele>
        <time>2025-11-11T23:04:14.238Z</time>
      </trkpt>
      <trkpt lat="48.421379" lon="9.766576">
        <ele>624.909772</ele>
        <time>2025-11-11T23:04:14.961Z</time>
      </trkpt>
      <trkpt lat="48.421207" lon="9.768060">
        <ele>621.276776</ele>
        <time>2025-11-11T23:04:25.194Z</time>
      </trkpt>
      <trkpt lat="48.421129" lon="9.768417">
        <ele>620.353863</ele>
        <time>2025-11-11T23:04:27.652Z</time>
      </trkpt>
      <trkpt lat="48.421054" lon="9.768628">
        <ele>619.721260</ele>
        <time>2025-11-11T23:04:29.206Z</time>
      </trkpt>
      <trkpt lat="48.420744" lon="9.769227">
        <ele>617.713695</ele>
        <time>2025-11-11T23:04:34.141Z</time>
      </trkpt>
      <trkpt lat="48.419881" lon="9.770741">
        <ele>612.146128</ele>
        <time>2025-11-11T23:04:47.083Z</time>
      </trkpt>
      <trkpt lat="48.419733" lon="9.771140">
        <ele>610.561994</ele>
        <time>2025-11-11T23:04:49.913Z</time>
      </trkpt>
      <trkpt lat="48.419719" lon="9.771182">
        <ele>610.399106</ele>
        <time>2025-11-11T23:04:50.216Z</time>
      </trkpt>
      <trkpt lat="48.419473" lon="9.771936">
        <ele>607.487275</ele>
        <time>2025-11-11T23:04:55.403Z</time>
      </trkpt>
      <trkpt lat="48.419375" lon="9.772290">
        <ele>606.157954</ele>
        <time>2025-11-11T23:04:57.785Z</time>
      </trkpt>
      <trkpt lat="48.419326" lon="9.772585">
        <ele>605.104031</ele>
        <time>2025-11-11T23:04:59.659Z</time>
      </trkpt>
      <trkpt lat="48.419173" lon="9.773784">
        <ele>600.089977</ele>
        <time>2025-11-11T23:05:07.101Z</time>
      </trkpt>
      <trkpt lat="48.419086" lon="9.774302">
        <ele>597.772854</ele>
        <time>2025-11-11T23:05:10.394Z</time>
      </trkpt>
      <trkpt lat="48.418549" lon="9.776514">
        <ele>586.380565</ele>
        <time>2025-11-11T23:05:24.316Z</time>
      </trkpt>
      <trkpt lat="48.418368" lon="9.776991">
        <ele>583.397351</ele>
        <time>2025-11-11T23:05:27.477Z</time>
      </trkpt>
      <trkpt lat="48.418136" lon="9.777210">
        <ele>581.157739</ele>
        <time>2025-11-11T23:05:29.852Z</time>
      </trkpt>
      <trkpt lat="48.417972" lon="9.777254">
        <ele>579.795011</ele>
        <time>2025-11-11T23:05:31.321Z</time>
      </trkpt>
      <trkpt lat="48.417703" lon="9.777183">
        <ele>577.560911</ele>
        <time>2025-11-11T23:05:33.739Z</time>
      </trkpt>
      <trkpt lat="48.417390" lon="9.776927">
        <ele>574.823086</ele>
        <time>2025-11-11T23:05:36.928Z</time>
      </trkpt>
      <trkpt lat="48.417105" lon="9.776763">
        <ele>572.479926</ele>
        <time>2025-11-11T23:05:39.608Z</time>
      </trkpt>
      <trkpt lat="48.416946" lon="9.776718">
        <ele>571.237365</ele>
        <time>2025-11-11T23:05:41.041Z</time>
      </trkpt>
      <trkpt lat="48.416613" lon="9.776723">
        <ele>568.679623</ele>
        <time>2025-11-11T23:05:44.001Z</time>
      </trkpt>
      <trkpt lat="48.416297" lon="9.776840">
        <ele>566.180369</ele>
        <time>2025-11-11T23:05:46.925Z</time>
      </trkpt>
      <trkpt lat="48.416323" lon="9.776977">
        <ele>565.453999</ele>
        <time>2025-11-11T23:05:47.770Z</time>
      </trkpt>
      <trkpt lat="48.416318" lon="9.777109">
        <ele>564.780012</ele>
        <time>2025-11-11T23:05:48.568Z</time>
      </trkpt>
      <trkpt lat="48.416257" lon="9.777301">
        <ele>563.693911</ele>
        <time>2025-11-11T23:05:49.839Z</time>
      </trkpt>
      <trkpt lat="48.414686" lon="9.778648">
        <ele>548.568888</ele>
        <time>2025-11-11T23:06:05.730Z</time>
      </trkpt>
      <trkpt lat="48.414617" lon="9.778708">
        <ele>547.878821</ele>
        <time>2025-11-11T23:06:06.412Z</time>
      </trkpt>
      <trkpt lat="48.414499" lon="9.778812">
        <ele>546.694686</ele>
        <time>2025-11-11T23:06:07.584Z</time>
      </trkpt>
      <trkpt lat="48.414381" lon="9.778915">
        <ele>545.513444</ele>
        <time>2025-11-11T23:06:08.744Z</time>
      </trkpt>
      <trkpt lat="48.414298" lon="9.778989">
        <ele>544.678064</ele>
        <time>2025-11-11T23:06:09.577Z</time>
      </trkpt>
      <trkpt lat="48.414147" lon="9.779120">
        <ele>543.168788</ele>
        <time>2025-11-11T23:06:11.081Z</time>
      </trkpt>
      <trkpt lat="48.413822" lon="9.779407">
        <ele>539.905766</ele>
        <time>2025-11-11T23:06:14.341Z</time>
      </trkpt>
      <trkpt lat="48.413494" lon="9.779732">
        <ele>536.505322</ele>
        <time>2025-11-11T23:06:17.734Z</time>
      </trkpt>
      <trkpt lat="48.413414" lon="9.779850">
        <ele>535.535569</ele>
        <time>2025-11-11T23:06:18.748Z</time>
      </trkpt>
      <trkpt lat="48.413338" lon="9.780010">
        <ele>534.404399</ele>
        <time>2025-11-11T23:06:19.922Z</time>
      </trkpt>
      <trkpt lat="48.413227" lon="9.780436">
        <ele>532.913554</ele>
        <time>2025-11-11T23:06:22.668Z</time>
      </trkpt>
      <trkpt lat="48.413135" lon="9.780949">
        <ele>532.525760</ele>
        <time>2025-11-11T23:06:25.908Z</time>
      </trkpt>
      <trkpt lat="48.413203" lon="9.780994">
        <ele>532.444103</ele>
        <time>2025-11-11T23:06:26.679Z</time>
      </trkpt>
      <trkpt lat="48.413324" lon="9.781216">
        <ele>532.234474</ele>
        <time>2025-11-11T23:06:28.936Z</time>
      </trkpt>
      <trkpt lat="48.413246" lon="9.781266">
        <ele>532.141277</ele>
        <time>2025-11-11T23:06:37.456Z</time>
      </trkpt>
      <trkpt lat="48.413335" lon="9.781724">
        <ele>531.793016</ele>
        <time>2025-11-11T23:07:11.982Z</time>
      </trkpt>
      <trkpt lat="48.413380" lon="9.781858">
        <ele>531.683424</ele>
        <time>2025-11-11T23:07:23.289Z</time>
      </trkpt>
      <trkpt lat="48.413453" lon="9.781788">
        <ele>531.588286</ele>
        <time>2025-11-11T23:07:33.627Z</time>
      </trkpt>
      <trkpt lat="48.413500" lon="9.781933">
        <ele>531.470528</ele>
        <time>2025-11-11T23:07:35.177Z</time>
      </trkpt>
      <trkpt lat="48.413595" lon="9.782020">
        <ele>531.348297</ele>
        <time>2025-11-11T23:07:38.385Z</time>
      </trkpt>
      <trkpt lat="48.414511" lon="9.782583">
        <ele>537.553092</ele>
        <time>2025-11-11T23:08:16.368Z</time>
      </trkpt>
      <trkpt lat="48.414820" lon="9.782720">
        <ele>540.269009</ele>
        <time>2025-11-11T23:08:34.352Z</time>
      </trkpt>
      <trkpt lat="48.415303" lon="9.782836">
        <ele>544.393015</ele>
        <time>2025-11-11T23:09:04.033Z</time>
      </trkpt>
      <trkpt lat="48.415753" lon="9.782793">
        <ele>547.357438</ele>
        <time>2025-11-11T23:09:33.906Z</time>
      </trkpt>
      <trkpt lat="48.415995" lon="9.782834">
        <ele>548.518462</ele>
        <time>2025-11-11T23:09:47.237Z</time>
      </trkpt>
      <trkpt lat="48.416578" lon="9.782933">
        <ele>551.315555</ele>
        <time>2025-11-11T23:10:08.301Z</time>
      </trkpt>
      <trkpt lat="48.416701" lon="9.783035">
        <ele>551.984921</ele>
        <time>2025-11-11T23:10:11.844Z</time>
      </trkpt>
      <trkpt lat="48.416821" lon="9.783218">
        <ele>552.798937</ele>
        <time>2025-11-11T23:10:15.469Z</time>
      </trkpt>
      <trkpt lat="48.416933" lon="9.783479">
        <ele>553.782395</ele>
        <time>2025-11-11T23:10:18.619Z</time>
      </trkpt>
      <trkpt lat="48.416994" lon="9.783727">
        <ele>554.619288</ele>
        <time>2025-11-11T23:10:20.787Z</time>
      </trkpt>
      <trkpt lat="48.417004" lon="9.784258">
        <ele>555.550794</ele>
        <time>2025-11-11T23:10:24.632Z</time>
      </trkpt>
      <trkpt lat="48.417082" lon="9.784708">
        <ele>556.265684</ele>
        <time>2025-11-11T23:10:27.695Z</time>
      </trkpt>
      <trkpt lat="48.417021" lon="9.784935">
        <ele>556.642117</ele>
        <time>2025-11-11T23:10:29.409Z</time>
      </trkpt>
      <trkpt lat="48.416981" lon="9.785116">
        <ele>556.935348</ele>
        <time>2025-11-11T23:10:31.035Z</time>
      </trkpt>
      <trkpt lat="48.416935" lon="9.786293">
        <ele>558.747639</ele>
        <time>2025-11-11T23:11:00.720Z</time>
      </trkpt>
      <trkpt lat="48.416962" lon="9.786528">
        <ele>559.413409</ele>
        <time>2025-11-11T23:11:08.354Z</time>
      </trkpt>
      <trkpt lat="48.417099" lon="9.786924">
        <ele>562.040618</ele>
        <time>2025-11-11T23:11:21.778Z</time>
      </trkpt>
      <trkpt lat="48.417124" lon="9.786982">
        <ele>562.447481</ele>
        <time>2025-11-11T23:11:24.039Z</time>
      </trkpt>
      <trkpt lat="48.417288" lon="9.787360">
        <ele>565.104273</ele>
        <time>2025-11-11T23:11:38.261Z</time>
      </trkpt>
      <trkpt lat="48.417367" lon="9.787648">
        <ele>566.937599</ele>
        <time>2025-11-11T23:11:49.375Z</time>
      </trkpt>
      <trkpt lat="48.417385" lon="9.787868">
        <ele>568.241669</ele>
        <time>2025-11-11T23:11:57.864Z</time>
      </trkpt>
      <trkpt lat="48.417353" lon="9.788125">
        <ele>569.779991</ele>
        <time>2025-11-11T23:12:08.387Z</time>
      </trkpt>
      <trkpt lat="48.417336" lon="9.788395">
        <ele>571.375548</ele>
        <time>2025-11-11T23:12:19.184Z</time>
      </trkpt>
      <trkpt lat="48.417359" lon="9.788679">
        <ele>573.058729</ele>
        <time>2025-11-11T23:12:29.942Z</time>
      </trkpt>
      <trkpt lat="48.417434" lon="9.788947">
        <ele>574.769814</ele>
        <time>2025-11-11T23:12:39.728Z</time>
      </trkpt>
      <trkpt lat="48.417716" lon="9.789540">
        <ele>578.480120</ele>
        <time>2025-11-11T23:13:00.790Z</time>
      </trkpt>
      <trkpt lat="48.417760" lon="9.789809">
        <ele>579.879427</ele>
        <time>2025-11-11T23:13:09.436Z</time>
      </trkpt>
      <trkpt lat="48.417656" lon="9.791023">
        <ele>586.061915</ele>
        <time>2025-11-11T23:13:48.545Z</time>
      </trkpt>
      <trkpt lat="48.417659" lon="9.791471">
        <ele>588.324773</ele>
        <time>2025-11-11T23:13:59.366Z</time>
      </trkpt>
      <trkpt lat="48.417465" lon="9.791949">
        <ele>590.570064</ele>
        <time>2025-11-11T23:14:12.175Z</time>
      </trkpt>
      <trkpt lat="48.417209" lon="9.792863">
        <ele>594.416125</ele>
        <time>2025-11-11T23:14:38.042Z</time>
      </trkpt>
      <trkpt lat="48.417113" lon="9.793298">
        <ele>596.193353</ele>
        <time>2025-11-11T23:14:50.735Z</time>
      </trkpt>
      <trkpt lat="48.416988" lon="9.794152">
        <ele>599.577893</ele>
        <time>2025-11-11T23:15:12.182Z</time>
      </trkpt>
      <trkpt lat="48.416914" lon="9.794716">
        <ele>601.776866</ele>
        <time>2025-11-11T23:15:25.450Z</time>
      </trkpt>
      <trkpt lat="48.416697" lon="9.795922">
        <ele>606.556178</ele>
        <time>2025-11-11T23:15:54.621Z</time>
      </trkpt>
      <trkpt lat="48.416395" lon="9.797309">
        <ele>614.111763</ele>
        <time>2025-11-11T23:16:35.012Z</time>
      </trkpt>
      <trkpt lat="48.416168" lon="9.798122">
        <ele>620.016972</ele>
        <time>2025-11-11T23:17:08.234Z</time>
      </trkpt>
      <trkpt lat="48.415854" lon="9.798995">
        <ele>626.664961</ele>
        <time>2025-11-11T23:17:50.526Z</time>
      </trkpt>
      <trkpt lat="48.415680" lon="9.799851">
        <ele>632.755537</ele>
        <time>2025-11-11T23:18:28.518Z</time>
      </trkpt>
      <trkpt lat="48.415556" lon="9.800292">
        <ele>636.024139</ele>
        <time>2025-11-11T23:18:48.190Z</time>
      </trkpt>
      <trkpt lat="48.415002" lon="9.801772">
        <ele>647.383985</ele>
        <time>2025-11-11T23:19:44.776Z</time>
      </trkpt>
      <trkpt lat="48.414270" lon="9.802988">
        <ele>656.788088</ele>
        <time>2025-11-11T23:20:39.803Z</time>
      </trkpt>
      <trkpt lat="48.414241" lon="9.803215">
        <ele>658.112344</ele>
        <time>2025-11-11T23:20:47.317Z</time>
      </trkpt>
      <trkpt lat="48.414260" lon="9.803294">
        <ele>658.593695</ele>
        <time>2025-11-11T23:20:50.207Z</time>
      </trkpt>
      <trkpt lat="48.414336" lon="9.803409">
        <ele>659.523346</ele>
        <time>2025-11-11T23:20:55.382Z</time>
      </trkpt>
      <trkpt lat="48.414448" lon="9.803492">
        <ele>660.600599</ele>
        <time>2025-11-11T23:21:01.388Z</time>
      </trkpt>
      <trkpt lat="48.414559" lon="9.803557">
        <ele>661.628431</ele>
        <time>2025-11-11T23:21:07.144Z</time>
      </trkpt>
      <trkpt lat="48.414863" lon="9.803769">
        <ele>663.480191</ele>
        <time>2025-11-11T23:21:23.411Z</time>
      </trkpt>
      <trkpt lat="48.414989" lon="9.803905">
        <ele>664.329486</ele>
        <time>2025-11-11T23:21:30.939Z</time>
      </trkpt>
      <trkpt lat="48.415498" lon="9.804723">
        <ele>668.407336</ele>
        <time>2025-11-11T23:21:58.409Z</time>
      </trkpt>
      <trkpt lat="48.415573" lon="9.804852">
        <ele>669.031023</ele>
        <time>2025-11-11T23:22:01.780Z</time>
      </trkpt>
      <trkpt lat="48.415856" lon="9.805322">
        <ele>671.338897</ele>
        <time>2025-11-11T23:22:12.630Z</time>
      </trkpt>
      <trkpt lat="48.416024" lon="9.805611">
        <ele>672.112030</ele>
        <time>2025-11-11T23:22:19.085Z</time>
      </trkpt>
      <trkpt lat="48.416061" lon="9.805700">
        <ele>672.296605</ele>
        <time>2025-11-11T23:22:20.829Z</time>
      </trkpt>
      <trkpt lat="48.416108" lon="9.805813">
        <ele>672.530985</ele>
        <time>2025-11-11T23:22:23.104Z</time>
      </trkpt>
      <trkpt lat="48.416224" lon="9.806136">
        <ele>673.176454</ele>
        <time>2025-11-11T23:22:29.302Z</time>
      </trkpt>
      <trkpt lat="48.416266" lon="9.806267">
        <ele>673.432149</ele>
        <time>2025-11-11T23:22:31.706Z</time>
      </trkpt>
      <trkpt lat="48.416533" lon="9.807208">
        <ele>675.230798</ele>
        <time>2025-11-11T23:22:48.917Z</time>
      </trkpt>
      <trkpt lat="48.416579" lon="9.807479">
        <ele>675.722423</ele>
        <time>2025-11-11T23:22:53.583Z</time>
      </trkpt>
      <trkpt lat="48.416579" lon="9.807675">
        <ele>676.066902</ele>
        <time>2025-11-11T23:22:56.820Z</time>
      </trkpt>
      <trkpt lat="48.416532" lon="9.807905">
        <ele>676.436739</ele>
        <time>2025-11-11T23:23:00.751Z</time>
      </trkpt>
      <trkpt lat="48.416384" lon="9.808245">
        <ele>676.960150</ele>
        <time>2025-11-11T23:23:07.321Z</time>
      </trkpt>
      <trkpt lat="48.416274" lon="9.808608">
        <ele>677.473837</ele>
        <time>2025-11-11T23:23:13.691Z</time>
      </trkpt>
      <trkpt lat="48.416285" lon="9.808927">
        <ele>677.885037</ele>
        <time>2025-11-11T23:23:18.720Z</time>
      </trkpt>
      <trkpt lat="48.416308" lon="9.809362">
        <ele>678.446782</ele>
        <time>2025-11-11T23:23:25.288Z</time>
      </trkpt>
      <trkpt lat="48.416312" lon="9.809407">
        <ele>678.505227</ele>
        <time>2025-11-11T23:23:25.953Z</time>
      </trkpt>
      <trkpt lat="48.416372" lon="9.810030">
        <ele>679.315608</ele>
        <time>2025-11-11T23:23:35.116Z</time>
      </trkpt>
      <trkpt lat="48.416441" lon="9.810412">
        <ele>679.779508</ele>
        <time>2025-11-11T23:23:40.411Z</time>
      </trkpt>
      <trkpt lat="48.416581" lon="9.810764">
        <ele>679.775688</ele>
        <time>2025-11-11T23:23:45.478Z</time>
      </trkpt>
      <trkpt lat="48.416674" lon="9.810971">
        <ele>679.773361</ele>
        <time>2025-11-11T23:23:48.491Z</time>
      </trkpt>
      <trkpt lat="48.416763" lon="9.811169">
        <ele>679.771135</ele>
        <time>2025-11-11T23:23:51.292Z</time>
      </trkpt>
      <trkpt lat="48.416813" lon="9.811281">
        <ele>679.769878</ele>
        <time>2025-11-11T23:23:52.847Z</time>
      </trkpt>
      <trkpt lat="48.417016" lon="9.811733">
        <ele>679.764797</ele>
        <time>2025-11-11T23:23:58.782Z</time>
      </trkpt>
      <trkpt lat="48.417096" lon="9.811906">
        <ele>679.762835</ele>
        <time>2025-11-11T23:24:00.819Z</time>
      </trkpt>
      <trkpt lat="48.417163" lon="9.811966">
        <ele>679.761741</ele>
        <time>2025-11-11T23:24:01.900Z</time>
      </trkpt>
      <trkpt lat="48.417281" lon="9.811979">
        <ele>679.760082</ele>
        <time>2025-11-11T23:24:03.448Z</time>
      </trkpt>
      <trkpt lat="48.417431" lon="9.811980">
        <ele>679.757978</ele>
        <time>2025-11-11T23:24:05.308Z</time>
      </trkpt>
      <trkpt lat="48.417824" lon="9.812032">
        <ele>679.264742</ele>
        <time>2025-11-11T23:24:09.801Z</time>
      </trkpt>
      <trkpt lat="48.417854" lon="9.812054">
        <ele>679.158797</ele>
        <time>2025-11-11T23:24:10.168Z</time>
      </trkpt>
      <trkpt lat="48.417877" lon="9.812071">
        <ele>679.077449</ele>
        <time>2025-11-11T23:24:10.454Z</time>
      </trkpt>
      <trkpt lat="48.417938" lon="9.812131">
        <ele>678.846130</ele>
        <time>2025-11-11T23:24:11.229Z</time>
      </trkpt>
      <trkpt lat="48.418007" lon="9.812220">
        <ele>678.557710</ele>
        <time>2025-11-11T23:24:12.195Z</time>
      </trkpt>
      <trkpt lat="48.418306" lon="9.812606">
        <ele>677.307434</ele>
        <time>2025-11-11T23:24:16.212Z</time>
      </trkpt>
      <trkpt lat="48.418584" lon="9.812806">
        <ele>676.329214</ele>
        <time>2025-11-11T23:24:19.260Z</time>
      </trkpt>
      <trkpt lat="48.418880" lon="9.812824">
        <ele>675.388535</ele>
        <time>2025-11-11T23:24:22.140Z</time>
      </trkpt>
      <trkpt lat="48.419081" lon="9.812787">
        <ele>674.745537</ele>
        <time>2025-11-11T23:24:24.088Z</time>
      </trkpt>
      <trkpt lat="48.419060" lon="9.812662">
        <ele>674.473799</ele>
        <time>2025-11-11T23:24:25.288Z</time>
      </trkpt>
      <trkpt lat="48.419616" lon="9.812500">
        <ele>672.782593</ele>
        <time>2025-11-11T23:24:30.856Z</time>
      </trkpt>
      <trkpt lat="48.419946" lon="9.812498">
        <ele>671.816701</ele>
        <time>2025-11-11T23:24:34.188Z</time>
      </trkpt>
      <trkpt lat="48.420859" lon="9.812722">
        <ele>669.109229</ele>
        <time>2025-11-11T23:24:43.869Z</time>
      </trkpt>
      <trkpt lat="48.421324" lon="9.812874">
        <ele>668.429444</ele>
        <time>2025-11-11T23:24:49.210Z</time>
      </trkpt>
      <trkpt lat="48.421922" lon="9.812965">
        <ele>667.850940</ele>
        <time>2025-11-11T23:24:56.450Z</time>
      </trkpt>
      <trkpt lat="48.422492" lon="9.813052">
        <ele>667.299507</ele>
        <time>2025-11-11T23:25:04.213Z</time>
      </trkpt>
      <trkpt lat="48.422813" lon="9.813233">
        <ele>667.010016</ele>
        <time>2025-11-11T23:25:09.152Z</time>
      </trkpt>
      <trkpt lat="48.423299" lon="9.813583">
        <ele>666.760344</ele>
        <time>2025-11-11T23:25:16.715Z</time>
      </trkpt>
      <trkpt lat="48.423562" lon="9.813819">
        <ele>666.618463</ele>
        <time>2025-11-11T23:25:20.921Z</time>
      </trkpt>
      <trkpt lat="48.423817" lon="9.814103">
        <ele>666.471489</ele>
        <time>2025-11-11T23:25:25.135Z</time>
      </trkpt>
      <trkpt lat="48.424701" lon="9.815544">
        <ele>665.789889</ele>
        <time>2025-11-11T23:25:41.674Z</time>
      </trkpt>
      <trkpt lat="48.425159" lon="9.816088">
        <ele>665.458655</ele>
        <time>2025-11-11T23:25:49.272Z</time>
      </trkpt>
      <trkpt lat="48.425598" lon="9.816472">
        <ele>665.186985</ele>
        <time>2025-11-11T23:25:56.147Z</time>
      </trkpt>
      <trkpt lat="48.426588" lon="9.817110">
        <ele>665.040372</ele>
        <time>2025-11-11T23:26:11.789Z</time>
      </trkpt>
      <trkpt lat="48.427877" lon="9.817734">
        <ele>664.959064</ele>
        <time>2025-11-11T23:26:31.368Z</time>
      </trkpt>
      <trkpt lat="48.428280" lon="9.817869">
        <ele>664.966296</ele>
        <time>2025-11-11T23:26:37.103Z</time>
      </trkpt>
      <trkpt lat="48.428429" lon="9.817896">
        <ele>664.968925</ele>
        <time>2025-11-11T23:26:39.273Z</time>
      </trkpt>
      <trkpt lat="48.429122" lon="9.818022">
        <ele>665.066076</ele>
        <time>2025-11-11T23:26:50.160Z</time>
      </trkpt>
      <trkpt lat="48.429555" lon="9.817957">
        <ele>665.352003</ele>
        <time>2025-11-11T23:26:57.692Z</time>
      </trkpt>
      <trkpt lat="48.429812" lon="9.818063">
        <ele>665.527084</ele>
        <time>2025-11-11T23:27:02.574Z</time>
      </trkpt>
      <trkpt lat="48.431962" lon="9.818283">
        <ele>666.813120</ele>
        <time>2025-11-11T23:27:41.372Z</time>
      </trkpt>
      <trkpt lat="48.432447" lon="9.818323">
        <ele>667.079271</ele>
        <time>2025-11-11T23:27:48.575Z</time>
      </trkpt>
      <trkpt lat="48.432646" lon="9.818205">
        <ele>667.240342</ele>
        <time>2025-11-11T23:27:51.576Z</time>
      </trkpt>
      <trkpt lat="48.432690" lon="9.818277">
        <ele>667.307048</ele>
        <time>2025-11-11T23:27:52.476Z</time>
      </trkpt>
      <trkpt lat="48.432739" lon="9.818304">
        <ele>667.360633</ele>
        <time>2025-11-11T23:27:53.211Z</time>
      </trkpt>
      <trkpt lat="48.433760" lon="9.818238">
        <ele>668.410244</ele>
        <time>2025-11-11T23:28:10.357Z</time>
      </trkpt>
      <trkpt lat="48.433790" lon="9.818230">
        <ele>668.441535</ele>
        <time>2025-11-11T23:28:11.025Z</time>
      </trkpt>
      <trkpt lat="48.434088" lon="9.818156">
        <ele>668.751731</ele>
        <time>2025-11-11T23:28:17.940Z</time>
      </trkpt>
      <trkpt lat="48.434117" lon="9.818354">
        <ele>668.889906</ele>
        <time>2025-11-11T23:28:21.209Z</time>
      </trkpt>
      <trkpt lat="48.434365" lon="9.818390">
        <ele>669.233259</ele>
        <time>2025-11-11T23:28:27.567Z</time>
      </trkpt>
      <trkpt lat="48.434818" lon="9.818564">
        <ele>669.989291</ele>
        <time>2025-11-11T23:28:39.960Z</time>
      </trkpt>
      <trkpt lat="48.434897" lon="9.818583">
        <ele>670.118670</ele>
        <time>2025-11-11T23:28:42.102Z</time>
      </trkpt>
      <trkpt lat="48.435083" lon="9.818601">
        <ele>670.420099</ele>
        <time>2025-11-11T23:28:46.861Z</time>
      </trkpt>
      <trkpt lat="48.435276" lon="9.818619">
        <ele>670.732825</ele>
        <time>2025-11-11T23:28:51.487Z</time>
      </trkpt>
      <trkpt lat="48.435496" lon="9.818620">
        <ele>671.088623</ele>
        <time>2025-11-11T23:28:56.227Z</time>
      </trkpt>
      <trkpt lat="48.435595" lon="9.818577">
        <ele>671.255246</ele>
        <time>2025-11-11T23:28:58.267Z</time>
      </trkpt>
      <trkpt lat="48.435829" lon="9.818452">
        <ele>671.656748</ele>
        <time>2025-11-11T23:29:02.653Z</time>
      </trkpt>
      <trkpt lat="48.435860" lon="9.818436">
        <ele>671.709741</ele>
        <time>2025-11-11T23:29:03.160Z</time>
      </trkpt>
      <trkpt lat="48.435992" lon="9.818374">
        <ele>671.872853</ele>
        <time>2025-11-11T23:29:05.036Z</time>
      </trkpt>
      <trkpt lat="48.436070" lon="9.818338">
        <ele>671.746393</ele>
        <time>2025-11-11T23:29:06.038Z</time>
      </trkpt>
      <trkpt lat="48.436285" lon="9.818284">
        <ele>671.408496</ele>
        <time>2025-11-11T23:29:08.565Z</time>
      </trkpt>
      <trkpt lat="48.436359" lon="9.818280">
        <ele>671.293705</ele>
        <time>2025-11-11T23:29:09.399Z</time>
      </trkpt>
      <trkpt lat="48.436560" lon="9.818271">
        <ele>670.981970</ele>
        <time>2025-11-11T23:29:11.601Z</time>
      </trkpt>
      <trkpt lat="48.436647" lon="9.818279">
        <ele>670.846849</ele>
        <time>2025-11-11T23:29:12.554Z</time>
      </trkpt>
      <trkpt lat="48.436735" lon="9.818288">
        <ele>670.710115</ele>
        <time>2025-11-11T23:29:13.505Z</time>
      </trkpt>
      <trkpt lat="48.436806" lon="9.818296">
        <ele>670.599741</ele>
        <time>2025-11-11T23:29:14.280Z</time>
      </trkpt>
      <trkpt lat="48.436911" lon="9.818300">
        <ele>670.436914</ele>
        <time>2025-11-11T23:29:15.387Z</time>
      </trkpt>
      <trkpt lat="48.437156" lon="9.818242">
        <ele>670.052451</ele>
        <time>2025-11-11T23:29:18.018Z</time>
      </trkpt>
      <trkpt lat="48.437384" lon="9.818235">
        <ele>669.698924</ele>
        <time>2025-11-11T23:29:20.471Z</time>
      </trkpt>
      <trkpt lat="48.437518" lon="9.818249">
        <ele>669.490694</ele>
        <time>2025-11-11T23:29:21.961Z</time>
      </trkpt>
      <trkpt lat="48.437700" lon="9.818268">
        <ele>669.207875</ele>
        <time>2025-11-11T23:29:24.048Z</time>
      </trkpt>
      <trkpt lat="48.437960" lon="9.818267">
        <ele>668.990048</ele>
        <time>2025-11-11T23:29:27.057Z</time>
      </trkpt>
      <trkpt lat="48.438098" lon="9.818257">
        <ele>668.904127</ele>
        <time>2025-11-11T23:29:28.726Z</time>
      </trkpt>
      <trkpt lat="48.438300" lon="9.818210">
        <ele>668.777015</ele>
        <time>2025-11-11T23:29:31.356Z</time>
      </trkpt>
      <trkpt lat="48.438373" lon="9.818194">
        <ele>668.731139</ele>
        <time>2025-11-11T23:29:32.436Z</time>
      </trkpt>
      <trkpt lat="48.438552" lon="9.818169">
        <ele>668.619343</ele>
        <time>2025-11-11T23:29:35.096Z</time>
      </trkpt>
      <trkpt lat="48.438603" lon="9.818203">
        <ele>668.584662</ele>
        <time>2025-11-11T23:29:35.957Z</time>
      </trkpt>
      <trkpt lat="48.438692" lon="9.818129">
        <ele>668.521451</ele>
        <time>2025-11-11T23:29:37.509Z</time>
      </trkpt>
      <trkpt lat="48.438800" lon="9.818095">
        <ele>668.452837</ele>
        <time>2025-11-11T23:29:39.215Z</time>
      </trkpt>
      <trkpt lat="48.439009" lon="9.817998">
        <ele>668.316838</ele>
        <time>2025-11-11T23:29:42.453Z</time>
      </trkpt>
      <trkpt lat="48.439271" lon="9.817692">
        <ele>668.110714</ele>
        <time>2025-11-11T23:29:47.031Z</time>
      </trkpt>
      <trkpt lat="48.439329" lon="9.817611">
        <ele>668.061542</ele>
        <time>2025-11-11T23:29:48.075Z</time>
      </trkpt>
      <trkpt lat="48.439485" lon="9.817406">
        <ele>667.875819</ele>
        <time>2025-11-11T23:29:50.744Z</time>
      </trkpt>
      <trkpt lat="48.439633" lon="9.817229">
        <ele>667.651537</ele>
        <time>2025-11-11T23:29:53.026Z</time>
      </trkpt>
      <trkpt lat="48.439855" lon="9.816985">
        <ele>667.325370</ele>
        <time>2025-11-11T23:29:56.216Z</time>
      </trkpt>
      <trkpt lat="48.439925" lon="9.816912">
        <ele>667.224320</ele>
        <time>2025-11-11T23:29:57.210Z</time>
      </trkpt>
      <trkpt lat="48.439966" lon="9.816868">
        <ele>667.164572</ele>
        <time>2025-11-11T23:29:57.790Z</time>
      </trkpt>
      <trkpt lat="48.440163" lon="9.816665">
        <ele>666.881279</ele>
        <time>2025-11-11T23:30:00.564Z</time>
      </trkpt>
      <trkpt lat="48.440240" lon="9.816588">
        <ele>666.771582</ele>
        <time>2025-11-11T23:30:01.665Z</time>
      </trkpt>
      <trkpt lat="48.440305" lon="9.816522">
        <ele>666.678544</ele>
        <time>2025-11-11T23:30:02.594Z</time>
      </trkpt>
      <trkpt lat="48.440656" lon="9.816171">
        <ele>666.178498</ele>
        <time>2025-11-11T23:30:07.591Z</time>
      </trkpt>
      <trkpt lat="48.440936" lon="9.815857">
        <ele>665.742398</ele>
        <time>2025-11-11T23:30:11.654Z</time>
      </trkpt>
      <trkpt lat="48.440992" lon="9.815815">
        <ele>665.651298</ele>
        <time>2025-11-11T23:30:12.388Z</time>
      </trkpt>
      <trkpt lat="48.441264" lon="9.815631">
        <ele>665.217079</ele>
        <time>2025-11-11T23:30:15.912Z</time>
      </trkpt>
      <trkpt lat="48.441336" lon="9.815635">
        <ele>665.112142</ele>
        <time>2025-11-11T23:30:16.724Z</time>
      </trkpt>
      <trkpt lat="48.441500" lon="9.815612">
        <ele>664.872251</ele>
        <time>2025-11-11T23:30:18.635Z</time>
      </trkpt>
      <trkpt lat="48.442754" lon="9.814909">
        <ele>663.001451</ele>
        <time>2025-11-11T23:30:33.908Z</time>
      </trkpt>
      <trkpt lat="48.443793" lon="9.814276">
        <ele>661.769905</ele>
        <time>2025-11-11T23:30:47.991Z</time>
      </trkpt>
      <trkpt lat="48.444669" lon="9.813874">
        <ele>659.586534</ele>
        <time>2025-11-11T23:30:59.071Z</time>
      </trkpt>
      <trkpt lat="48.444802" lon="9.813756">
        <ele>659.018014</ele>
        <time>2025-11-11T23:31:00.705Z</time>
      </trkpt>
      <trkpt lat="48.445329" lon="9.813232">
        <ele>656.692321</ele>
        <time>2025-11-11T23:31:06.833Z</time>
      </trkpt>
      <trkpt lat="48.445767" lon="9.813025">
        <ele>655.001325</ele>
        <time>2025-11-11T23:31:11.075Z</time>
      </trkpt>
      <trkpt lat="48.446107" lon="9.813023">
        <ele>653.617185</ele>
        <time>2025-11-11T23:31:14.187Z</time>
      </trkpt>
      <trkpt lat="48.446859" lon="9.813099">
        <ele>650.429722</ele>
        <time>2025-11-11T23:31:21.203Z</time>
      </trkpt>
      <trkpt lat="48.447515" lon="9.813175">
        <ele>647.647216</ele>
        <time>2025-11-11T23:31:27.858Z</time>
      </trkpt>
      <trkpt lat="48.448564" lon="9.813855">
        <ele>644.898241</ele>
        <time>2025-11-11T23:31:40.869Z</time>
      </trkpt>
      <trkpt lat="48.449002" lon="9.814132">
        <ele>643.881280</ele>
        <time>2025-11-11T23:31:46.161Z</time>
      </trkpt>
      <trkpt lat="48.449364" lon="9.814286">
        <ele>643.002698</ele>
        <time>2025-11-11T23:31:50.104Z</time>
      </trkpt>
      <trkpt lat="48.449787" lon="9.814413">
        <ele>641.430005</ele>
        <time>2025-11-11T23:31:54.424Z</time>
      </trkpt>
      <trkpt lat="48.450158" lon="9.814452">
        <ele>640.073924</ele>
        <time>2025-11-11T23:31:58.058Z</time>
      </trkpt>
      <trkpt lat="48.450823" lon="9.814376">
        <ele>637.642144</ele>
        <time>2025-11-11T23:32:04.565Z</time>
      </trkpt>
      <trkpt lat="48.451078" lon="9.814279">
        <ele>636.683187</ele>
        <time>2025-11-11T23:32:07.141Z</time>
      </trkpt>
      <trkpt lat="48.451426" lon="9.814042">
        <ele>635.439692</ele>
        <time>2025-11-11T23:32:10.875Z</time>
      </trkpt>
      <trkpt lat="48.451622" lon="9.813993">
        <ele>634.796293</ele>
        <time>2025-11-11T23:32:12.817Z</time>
      </trkpt>
      <trkpt lat="48.451895" lon="9.814026">
        <ele>633.909365</ele>
        <time>2025-11-11T23:32:15.562Z</time>
      </trkpt>
      <trkpt lat="48.452564" lon="9.814291">
        <ele>631.669336</ele>
        <time>2025-11-11T23:32:22.825Z</time>
      </trkpt>
      <trkpt lat="48.452789" lon="9.814413">
        <ele>630.895004</ele>
        <time>2025-11-11T23:32:25.347Z</time>
      </trkpt>
      <trkpt lat="48.452898" lon="9.814571">
        <ele>630.346368</ele>
        <time>2025-11-11T23:32:26.908Z</time>
      </trkpt>
      <trkpt lat="48.453004" lon="9.814933">
        <ele>629.368414</ele>
        <time>2025-11-11T23:32:29.565Z</time>
      </trkpt>
      <trkpt lat="48.453170" lon="9.815988">
        <ele>626.688743</ele>
        <time>2025-11-11T23:32:36.894Z</time>
      </trkpt>
      <trkpt lat="48.453303" lon="9.816452">
        <ele>625.439516</ele>
        <time>2025-11-11T23:32:40.257Z</time>
      </trkpt>
      <trkpt lat="48.453382" lon="9.816877">
        <ele>624.348714</ele>
        <time>2025-11-11T23:32:42.992Z</time>
      </trkpt>
      <trkpt lat="48.453448" lon="9.817139">
        <ele>623.356167</ele>
        <time>2025-11-11T23:32:44.705Z</time>
      </trkpt>
      <trkpt lat="48.453564" lon="9.817333">
        <ele>622.269199</ele>
        <time>2025-11-11T23:32:46.294Z</time>
      </trkpt>
      <trkpt lat="48.453646" lon="9.817417">
        <ele>621.647182</ele>
        <time>2025-11-11T23:32:47.204Z</time>
      </trkpt>
      <trkpt lat="48.453709" lon="9.817482">
        <ele>621.168204</ele>
        <time>2025-11-11T23:32:47.898Z</time>
      </trkpt>
      <trkpt lat="48.453882" lon="9.817565">
        <ele>620.029096</ele>
        <time>2025-11-11T23:32:49.566Z</time>
      </trkpt>
      <trkpt lat="48.454166" lon="9.817533">
        <ele>618.242180</ele>
        <time>2025-11-11T23:32:52.168Z</time>
      </trkpt>
      <trkpt lat="48.454433" lon="9.817402">
        <ele>616.480438</ele>
        <time>2025-11-11T23:32:54.727Z</time>
      </trkpt>
      <trkpt lat="48.454587" lon="9.817404">
        <ele>615.514135</ele>
        <time>2025-11-11T23:32:56.120Z</time>
      </trkpt>
      <trkpt lat="48.454721" lon="9.817475">
        <ele>614.622956</ele>
        <time>2025-11-11T23:32:57.395Z</time>
      </trkpt>
      <trkpt lat="48.454865" lon="9.817690">
        <ele>613.351422</ele>
        <time>2025-11-11T23:32:59.183Z</time>
      </trkpt>
      <trkpt lat="48.455611" lon="9.819146">
        <ele>606.193620</ele>
        <time>2025-11-11T23:33:10.176Z</time>
      </trkpt>
      <trkpt lat="48.455632" lon="9.819327">
        <ele>605.482575</ele>
        <time>2025-11-11T23:33:11.284Z</time>
      </trkpt>
      <trkpt lat="48.455631" lon="9.820127">
        <ele>602.386844</ele>
        <time>2025-11-11T23:33:16.325Z</time>
      </trkpt>
      <trkpt lat="48.455720" lon="9.820722">
        <ele>601.723708</ele>
        <time>2025-11-11T23:33:20.588Z</time>
      </trkpt>
      <trkpt lat="48.455701" lon="9.820949">
        <ele>601.495122</ele>
        <time>2025-11-11T23:33:22.391Z</time>
      </trkpt>
      <trkpt lat="48.455395" lon="9.822578">
        <ele>599.803624</ele>
        <time>2025-11-11T23:33:38.632Z</time>
      </trkpt>
      <trkpt lat="48.455375" lon="9.822935">
        <ele>599.246420</ele>
        <time>2025-11-11T23:33:41.415Z</time>
      </trkpt>
      <trkpt lat="48.455384" lon="9.823256">
        <ele>598.523555</ele>
        <time>2025-11-11T23:33:43.700Z</time>
      </trkpt>
      <trkpt lat="48.455608" lon="9.824800">
        <ele>594.967562</ele>
        <time>2025-11-11T23:33:53.948Z</time>
      </trkpt>
      <trkpt lat="48.455899" lon="9.826263">
        <ele>590.743625</ele>
        <time>2025-11-11T23:34:03.728Z</time>
      </trkpt>
      <trkpt lat="48.456141" lon="9.827583">
        <ele>586.431861</ele>
        <time>2025-11-11T23:34:12.530Z</time>
      </trkpt>
      <trkpt lat="48.456132" lon="9.827820">
        <ele>585.684469</ele>
        <time>2025-11-11T23:34:13.981Z</time>
      </trkpt>
      <trkpt lat="48.456020" lon="9.828337">
        <ele>583.599595</ele>
        <time>2025-11-11T23:34:17.263Z</time>
      </trkpt>
      <trkpt lat="48.456016" lon="9.828564">
        <ele>582.616218</ele>
        <time>2025-11-11T23:34:18.610Z</time>
      </trkpt>
      <trkpt lat="48.456029" lon="9.828750">
        <ele>581.806278</ele>
        <time>2025-11-11T23:34:19.720Z</time>
      </trkpt>
      <trkpt lat="48.456236" lon="9.830006">
        <ele>576.201709</ele>
        <time>2025-11-11T23:34:27.402Z</time>
      </trkpt>
      <trkpt lat="48.456239" lon="9.830104">
        <ele>575.776867</ele>
        <time>2025-11-11T23:34:27.987Z</time>
      </trkpt>
      <trkpt lat="48.456099" lon="9.830759">
        <ele>573.035320</ele>
        <time>2025-11-11T23:34:32.144Z</time>
      </trkpt>
      <trkpt lat="48.456149" lon="9.830974">
        <ele>572.605590</ele>
        <time>2025-11-11T23:34:33.547Z</time>
      </trkpt>
      <trkpt lat="48.456446" lon="9.831220">
        <ele>571.641868</ele>
        <time>2025-11-11T23:34:36.757Z</time>
      </trkpt>
      <trkpt lat="48.456489" lon="9.831236">
        <ele>571.515907</ele>
        <time>2025-11-11T23:34:37.388Z</time>
      </trkpt>
      <trkpt lat="48.456521" lon="9.831233">
        <ele>571.424722</ele>
        <time>2025-11-11T23:34:37.700Z</time>
      </trkpt>
      <trkpt lat="48.456594" lon="9.831174">
        <ele>571.189165</ele>
        <time>2025-11-11T23:34:38.501Z</time>
      </trkpt>
      <trkpt lat="48.456640" lon="9.831054">
        <ele>570.927742</ele>
        <time>2025-11-11T23:34:39.423Z</time>
      </trkpt>
      <trkpt lat="48.456814" lon="9.829648">
        <ele>568.230087</ele>
        <time>2025-11-11T23:34:50.273Z</time>
      </trkpt>
      <trkpt lat="48.456885" lon="9.829360">
        <ele>568.701097</ele>
        <time>2025-11-11T23:34:53.273Z</time>
      </trkpt>
      <trkpt lat="48.456993" lon="9.829156">
        <ele>569.349272</ele>
        <time>2025-11-11T23:34:56.383Z</time>
      </trkpt>
      <trkpt lat="48.457270" lon="9.828738">
        <ele>570.816602</ele>
        <time>2025-11-11T23:35:04.901Z</time>
      </trkpt>
      <trkpt lat="48.457780" lon="9.828128">
        <ele>573.253986</ele>
        <time>2025-11-11T23:35:25.166Z</time>
      </trkpt>
      <trkpt lat="48.458127" lon="9.827586">
        <ele>575.719539</ele>
        <time>2025-11-11T23:35:47.199Z</time>
      </trkpt>
      <trkpt lat="48.458256" lon="9.827504">
        <ele>577.334191</ele>
        <time>2025-11-11T23:35:54.188Z</time>
      </trkpt>
      <trkpt lat="48.458370" lon="9.827476">
        <ele>578.666370</ele>
        <time>2025-11-11T23:36:00.259Z</time>
      </trkpt>
      <trkpt lat="48.458532" lon="9.827522">
        <ele>580.567681</ele>
        <time>2025-11-11T23:36:09.498Z</time>
      </trkpt>
      <trkpt lat="48.458935" lon="9.828087">
        <ele>586.914382</ele>
        <time>2025-11-11T23:36:44.299Z</time>
      </trkpt>
      <trkpt lat="48.459344" lon="9.828496">
        <ele>592.574715</ele>
        <time>2025-11-11T23:37:19.213Z</time>
      </trkpt>
      <trkpt lat="48.459463" lon="9.828768">
        <ele>595.067102</ele>
        <time>2025-11-11T23:37:35.019Z</time>
      </trkpt>
      <trkpt lat="48.459526" lon="9.829068">
        <ele>597.455503</ele>
        <time>2025-11-11T23:37:50.117Z</time>
      </trkpt>
      <trkpt lat="48.459514" lon="9.830680">
        <ele>609.665248</ele>
        <time>2025-11-11T23:38:58.390Z</time>
      </trkpt>
      <trkpt lat="48.459563" lon="9.831586">
        <ele>616.378289</ele>
        <time>2025-11-11T23:39:30.680Z</time>
      </trkpt>
      <trkpt lat="48.459542" lon="9.831731">
        <ele>617.047197</ele>
        <time>2025-11-11T23:39:35.578Z</time>
      </trkpt>
      <trkpt lat="48.459206" lon="9.832672">
        <ele>621.863938</ele>
        <time>2025-11-11T23:40:06.198Z</time>
      </trkpt>
      <trkpt lat="48.459101" lon="9.833036">
        <ele>623.652959</ele>
        <time>2025-11-11T23:40:16.562Z</time>
      </trkpt>
      <trkpt lat="48.459080" lon="9.833175">
        <ele>624.295480</ele>
        <time>2025-11-11T23:40:20.325Z</time>
      </trkpt>
      <trkpt lat="48.459076" lon="9.833656">
        <ele>626.463506</ele>
        <time>2025-11-11T23:40:32.720Z</time>
      </trkpt>
      <trkpt lat="48.459027" lon="9.833926">
        <ele>627.725134</ele>
        <time>2025-11-11T23:40:39.757Z</time>
      </trkpt>
      <trkpt lat="48.458907" lon="9.834119">
        <ele>628.697789</ele>
        <time>2025-11-11T23:40:46.420Z</time>
      </trkpt>
      <trkpt lat="48.458759" lon="9.834200">
        <ele>629.353436</ele>
        <time>2025-11-11T23:40:52.095Z</time>
      </trkpt>
      <trkpt lat="48.458540" lon="9.834226">
        <ele>630.268229</ele>
        <time>2025-11-11T23:40:59.510Z</time>
      </trkpt>
      <trkpt lat="48.458056" lon="9.834184">
        <ele>632.287061</ele>
        <time>2025-11-11T23:41:13.851Z</time>
      </trkpt>
      <trkpt lat="48.457917" lon="9.834200">
        <ele>632.867576</ele>
        <time>2025-11-11T23:41:18.192Z</time>
      </trkpt>
      <trkpt lat="48.457698" lon="9.834280">
        <ele>633.805926</ele>
        <time>2025-11-11T23:41:25.172Z</time>
      </trkpt>
      <trkpt lat="48.457562" lon="9.834397">
        <ele>634.457953</ele>
        <time>2025-11-11T23:41:29.910Z</time>
      </trkpt>
      <trkpt lat="48.457386" lon="9.834686">
        <ele>635.541529</ele>
        <time>2025-11-11T23:41:37.584Z</time>
      </trkpt>
      <trkpt lat="48.457310" lon="9.835010">
        <ele>636.306835</ele>
        <time>2025-11-11T23:41:44.061Z</time>
      </trkpt>
      <trkpt lat="48.457319" lon="9.835240">
        <ele>636.763337</ele>
        <time>2025-11-11T23:41:48.160Z</time>
      </trkpt>
      <trkpt lat="48.457389" lon="9.836461">
        <ele>639.191583</ele>
        <time>2025-11-11T23:42:09.079Z</time>
      </trkpt>
      <trkpt lat="48.457561" lon="9.837534">
        <ele>641.349034</ele>
        <time>2025-11-11T23:42:29.212Z</time>
      </trkpt>
      <trkpt lat="48.457688" lon="9.838115">
        <ele>642.342428</ele>
        <time>2025-11-11T23:42:39.349Z</time>
      </trkpt>
      <trkpt lat="48.457936" lon="9.838817">
        <ele>643.634033</ele>
        <time>2025-11-11T23:42:51.947Z</time>
      </trkpt>
      <trkpt lat="48.457966" lon="9.838895">
        <ele>643.780454</ele>
        <time>2025-11-11T23:42:53.335Z</time>
      </trkpt>
      <trkpt lat="48.458258" lon="9.839509">
        <ele>645.007367</ele>
        <time>2025-11-11T23:43:05.539Z</time>
      </trkpt>
      <trkpt lat="48.458382" lon="9.839763">
        <ele>645.519530</ele>
        <time>2025-11-11T23:43:10.552Z</time>
      </trkpt>
      <trkpt lat="48.458505" lon="9.840008">
        <ele>645.921411</ele>
        <time>2025-11-11T23:43:15.422Z</time>
      </trkpt>
      <trkpt lat="48.458683" lon="9.840389">
        <ele>646.494680</ele>
        <time>2025-11-11T23:43:22.852Z</time>
      </trkpt>
      <trkpt lat="48.458987" lon="9.840804">
        <ele>647.255288</ele>
        <time>2025-11-11T23:43:32.556Z</time>
      </trkpt>
      <trkpt lat="48.459067" lon="9.840905">
        <ele>647.448815</ele>
        <time>2025-11-11T23:43:35.000Z</time>
      </trkpt>
      <trkpt lat="48.459298" lon="9.841285">
        <ele>648.082895</ele>
        <time>2025-11-11T23:43:42.792Z</time>
      </trkpt>
      <trkpt lat="48.459417" lon="9.841542">
        <ele>648.468447</ele>
        <time>2025-11-11T23:43:47.178Z</time>
      </trkpt>
      <trkpt lat="48.459486" lon="9.841757">
        <ele>648.762244</ele>
        <time>2025-11-11T23:43:50.286Z</time>
      </trkpt>
      <trkpt lat="48.459603" lon="9.842173">
        <ele>648.955161</ele>
        <time>2025-11-11T23:43:55.889Z</time>
      </trkpt>
      <trkpt lat="48.459668" lon="9.842230">
        <ele>648.955505</ele>
        <time>2025-11-11T23:43:57.240Z</time>
      </trkpt>
      <trkpt lat="48.459721" lon="9.842247">
        <ele>648.955754</ele>
        <time>2025-11-11T23:43:58.172Z</time>
      </trkpt>
      <trkpt lat="48.459955" lon="9.842301">
        <ele>648.956839</ele>
        <time>2025-11-11T23:44:02.109Z</time>
      </trkpt>
      <trkpt lat="48.459987" lon="9.842207">
        <ele>648.957160</ele>
        <time>2025-11-11T23:44:03.201Z</time>
      </trkpt>
      <trkpt lat="48.459986" lon="9.842102">
        <ele>648.957479</ele>
        <time>2025-11-11T23:44:04.309Z</time>
      </trkpt>
      <trkpt lat="48.459980" lon="9.842020">
        <ele>648.957730</ele>
        <time>2025-11-11T23:44:05.141Z</time>
      </trkpt>
      <trkpt lat="48.459968" lon="9.841833">
        <ele>648.958301</ele>
        <time>2025-11-11T23:44:07.075Z</time>
      </trkpt>
      <trkpt lat="48.460213" lon="9.841514">
        <ele>648.959784</ele>
        <time>2025-11-11T23:44:11.464Z</time>
      </trkpt>
      <trkpt lat="48.460311" lon="9.841425">
        <ele>648.960309</ele>
        <time>2025-11-11T23:44:12.934Z</time>
      </trkpt>
      <trkpt lat="48.460459" lon="9.841364">
        <ele>648.961012</ele>
        <time>2025-11-11T23:44:14.868Z</time>
      </trkpt>
      <trkpt lat="48.460506" lon="9.841357">
        <ele>648.961228</ele>
        <time>2025-11-11T23:44:15.448Z</time>
      </trkpt>
      <trkpt lat="48.460667" lon="9.841333">
        <ele>648.961970</ele>
        <time>2025-11-11T23:44:17.459Z</time>
      </trkpt>
      <trkpt lat="48.460937" lon="9.841359">
        <ele>648.801556</ele>
        <time>2025-11-11T23:44:20.846Z</time>
      </trkpt>
      <trkpt lat="48.461169" lon="9.841361">
        <ele>648.558567</ele>
        <time>2025-11-11T23:44:23.700Z</time>
      </trkpt>
      <trkpt lat="48.461416" lon="9.841434">
        <ele>648.294950</ele>
        <time>2025-11-11T23:44:26.763Z</time>
      </trkpt>
      <trkpt lat="48.461613" lon="9.841473">
        <ele>648.086852</ele>
        <time>2025-11-11T23:44:29.177Z</time>
      </trkpt>
      <trkpt lat="48.461947" lon="9.841524">
        <ele>647.735248</ele>
        <time>2025-11-11T23:44:33.238Z</time>
      </trkpt>
      <trkpt lat="48.462007" lon="9.841533">
        <ele>647.672097</ele>
        <time>2025-11-11T23:44:33.954Z</time>
      </trkpt>
      <trkpt lat="48.462210" lon="9.841563">
        <ele>647.458467</ele>
        <time>2025-11-11T23:44:36.354Z</time>
      </trkpt>
      <trkpt lat="48.462526" lon="9.841629">
        <ele>647.124345</ele>
        <time>2025-11-11T23:44:40.234Z</time>
      </trkpt>
      <trkpt lat="48.462691" lon="9.841645">
        <ele>646.931911</ele>
        <time>2025-11-11T23:44:42.249Z</time>
      </trkpt>
      <trkpt lat="48.462740" lon="9.841616">
        <ele>646.868451</ele>
        <time>2025-11-11T23:44:42.874Z</time>
      </trkpt>
      <trkpt lat="48.463722" lon="9.841852">
        <ele>645.669639</ele>
        <time>2025-11-11T23:44:54.765Z</time>
      </trkpt>
      <trkpt lat="48.464089" lon="9.841941">
        <ele>645.221510</ele>
        <time>2025-11-11T23:44:59.154Z</time>
      </trkpt>
      <trkpt lat="48.464217" lon="9.841900">
        <ele>645.063754</ele>
        <time>2025-11-11T23:45:00.688Z</time>
      </trkpt>
      <trkpt lat="48.464397" lon="9.841718">
        <ele>644.821824</ele>
        <time>2025-11-11T23:45:04.293Z</time>
      </trkpt>
      <trkpt lat="48.465301" lon="9.840882">
        <ele>643.772653</ele>
        <time>2025-11-11T23:45:22.167Z</time>
      </trkpt>
      <trkpt lat="48.465533" lon="9.840757">
        <ele>643.528906</ele>
        <time>2025-11-11T23:45:26.490Z</time>
      </trkpt>
      <trkpt lat="48.466113" lon="9.840521">
        <ele>643.208433</ele>
        <time>2025-11-11T23:45:37.679Z</time>
      </trkpt>
      <trkpt lat="48.466509" lon="9.840297">
        <ele>643.374121</ele>
        <time>2025-11-11T23:45:46.330Z</time>
      </trkpt>
      <trkpt lat="48.466822" lon="9.840027">
        <ele>643.515381</ele>
        <time>2025-11-11T23:45:54.153Z</time>
      </trkpt>
      <trkpt lat="48.467099" lon="9.839728">
        <ele>643.648827</ele>
        <time>2025-11-11T23:46:01.794Z</time>
      </trkpt>
      <trkpt lat="48.467410" lon="9.839267">
        <ele>643.819657</ele>
        <time>2025-11-11T23:46:12.038Z</time>
      </trkpt>
      <trkpt lat="48.467692" lon="9.838672">
        <ele>644.581489</ele>
        <time>2025-11-11T23:46:24.294Z</time>
      </trkpt>
      <trkpt lat="48.467972" lon="9.837719">
        <ele>645.740763</ele>
        <time>2025-11-11T23:46:43.399Z</time>
      </trkpt>
      <trkpt lat="48.468185" lon="9.837237">
        <ele>646.384966</ele>
        <time>2025-11-11T23:46:54.370Z</time>
      </trkpt>
      <trkpt lat="48.468274" lon="9.837034">
        <ele>646.655622</ele>
        <time>2025-11-11T23:46:59.079Z</time>
      </trkpt>
      <trkpt lat="48.468323" lon="9.836923">
        <ele>646.803928</ele>
        <time>2025-11-11T23:47:01.653Z</time>
      </trkpt>
      <trkpt lat="48.468348" lon="9.836866">
        <ele>646.877008</ele>
        <time>2025-11-11T23:47:02.730Z</time>
      </trkpt>
      <trkpt lat="48.469183" lon="9.834822">
        <ele>649.264146</ele>
        <time>2025-11-11T23:47:37.310Z</time>
      </trkpt>
      <trkpt lat="48.469398" lon="9.834342">
        <ele>649.461756</ele>
        <time>2025-11-11T23:47:43.718Z</time>
      </trkpt>
      <trkpt lat="48.469674" lon="9.833845">
        <ele>649.266770</ele>
        <time>2025-11-11T23:47:50.046Z</time>
      </trkpt>
      <trkpt lat="48.470103" lon="9.833127">
        <ele>648.976072</ele>
        <time>2025-11-11T23:47:58.354Z</time>
      </trkpt>
      <trkpt lat="48.470486" lon="9.832562">
        <ele>648.731754</ele>
        <time>2025-11-11T23:48:04.674Z</time>
      </trkpt>
      <trkpt lat="48.470654" lon="9.832377">
        <ele>648.453126</ele>
        <time>2025-11-11T23:48:07.070Z</time>
      </trkpt>
      <trkpt lat="48.470906" lon="9.832114">
        <ele>648.042645</ele>
        <time>2025-11-11T23:48:10.588Z</time>
      </trkpt>
      <trkpt lat="48.470985" lon="9.832036">
        <ele>647.916169</ele>
        <time>2025-11-11T23:48:11.657Z</time>
      </trkpt>
      <trkpt lat="48.471629" lon="9.831357">
        <ele>646.863673</ele>
        <time>2025-11-11T23:48:20.656Z</time>
      </trkpt>
      <trkpt lat="48.472192" lon="9.830708">
        <ele>646.213564</ele>
        <time>2025-11-11T23:48:29.177Z</time>
      </trkpt>
      <trkpt lat="48.472555" lon="9.830241">
        <ele>646.040705</ele>
        <time>2025-11-11T23:48:35.425Z</time>
      </trkpt>
      <trkpt lat="48.473466" lon="9.829062">
        <ele>645.634368</ele>
        <time>2025-11-11T23:48:53.569Z</time>
      </trkpt>
      <trkpt lat="48.473717" lon="9.828602">
        <ele>645.552304</ele>
        <time>2025-11-11T23:48:59.548Z</time>
      </trkpt>
      <trkpt lat="48.473825" lon="9.828305">
        <ele>645.505643</ele>
        <time>2025-11-11T23:49:02.889Z</time>
      </trkpt>
      <trkpt lat="48.474085" lon="9.827413">
        <ele>645.371423</ele>
        <time>2025-11-11T23:49:12.371Z</time>
      </trkpt>
      <trkpt lat="48.474398" lon="9.826571">
        <ele>644.612283</ele>
        <time>2025-11-11T23:49:20.555Z</time>
      </trkpt>
      <trkpt lat="48.474580" lon="9.826231">
        <ele>643.930271</ele>
        <time>2025-11-11T23:49:23.849Z</time>
      </trkpt>
      <trkpt lat="48.474845" lon="9.825814">
        <ele>643.028759</ele>
        <time>2025-11-11T23:49:27.964Z</time>
      </trkpt>
      <trkpt lat="48.475534" lon="9.824873">
        <ele>640.979224</ele>
        <time>2025-11-11T23:49:37.195Z</time>
      </trkpt>
      <trkpt lat="48.476126" lon="9.824321">
        <ele>640.353449</ele>
        <time>2025-11-11T23:49:44.395Z</time>
      </trkpt>
      <trkpt lat="48.476292" lon="9.824072">
        <ele>640.142959</ele>
        <time>2025-11-11T23:49:47.358Z</time>
      </trkpt>
      <trkpt lat="48.476333" lon="9.823991">
        <ele>640.082213</ele>
        <time>2025-11-11T23:49:48.358Z</time>
      </trkpt>
      <trkpt lat="48.476538" lon="9.823267">
        <ele>639.612947</ele>
        <time>2025-11-11T23:49:58.085Z</time>
      </trkpt>
      <trkpt lat="48.476810" lon="9.822674">
        <ele>639.501400</ele>
        <time>2025-11-11T23:50:09.075Z</time>
      </trkpt>
      <trkpt lat="48.476874" lon="9.822479">
        <ele>639.527784</ele>
        <time>2025-11-11T23:50:12.621Z</time>
      </trkpt>
      <trkpt lat="48.477037" lon="9.822012">
        <ele>639.591780</ele>
        <time>2025-11-11T23:50:20.397Z</time>
      </trkpt>
      <trkpt lat="48.477348" lon="9.821290">
        <ele>639.696185</ele>
        <time>2025-11-11T23:50:29.362Z</time>
      </trkpt>
      <trkpt lat="48.477417" lon="9.820957">
        <ele>639.738489</ele>
        <time>2025-11-11T23:50:31.993Z</time>
      </trkpt>
      <trkpt lat="48.477446" lon="9.820517">
        <ele>639.567766</ele>
        <time>2025-11-11T23:50:35.093Z</time>
      </trkpt>
      <trkpt lat="48.477502" lon="9.820116">
        <ele>638.898913</ele>
        <time>2025-11-11T23:50:37.879Z</time>
      </trkpt>
      <trkpt lat="48.477583" lon="9.819625">
        <ele>638.073092</ele>
        <time>2025-11-11T23:50:41.287Z</time>
      </trkpt>
      <trkpt lat="48.477673" lon="9.819299">
        <ele>637.496720</ele>
        <time>2025-11-11T23:50:43.663Z</time>
      </trkpt>
      <trkpt lat="48.477796" lon="9.818776">
        <ele>636.590989</ele>
        <time>2025-11-11T23:50:47.449Z</time>
      </trkpt>
      <trkpt lat="48.477900" lon="9.818100">
        <ele>635.458348</ele>
        <time>2025-11-11T23:50:52.383Z</time>
      </trkpt>
      <trkpt lat="48.477991" lon="9.817235">
        <ele>634.780320</ele>
        <time>2025-11-11T23:50:59.251Z</time>
      </trkpt>
      <trkpt lat="48.478227" lon="9.816016">
        <ele>633.888156</ele>
        <time>2025-11-11T23:51:11.113Z</time>
      </trkpt>
      <trkpt lat="48.478255" lon="9.815609">
        <ele>633.600690</ele>
        <time>2025-11-11T23:51:15.013Z</time>
      </trkpt>
      <trkpt lat="48.478255" lon="9.815136">
        <ele>632.553716</ele>
        <time>2025-11-11T23:51:18.723Z</time>
      </trkpt>
      <trkpt lat="48.478231" lon="9.814463">
        <ele>630.131581</ele>
        <time>2025-11-11T23:51:23.183Z</time>
      </trkpt>
      <trkpt lat="48.478230" lon="9.814460">
        <ele>630.119513</ele>
        <time>2025-11-11T23:51:23.203Z</time>
      </trkpt>
      <trkpt lat="48.478206" lon="9.814277">
        <ele>629.449097</ele>
        <time>2025-11-11T23:51:24.336Z</time>
      </trkpt>
      <trkpt lat="48.478091" lon="9.814030">
        <ele>628.364359</ele>
        <time>2025-11-11T23:51:26.165Z</time>
      </trkpt>
      <trkpt lat="48.477693" lon="9.813623">
        <ele>625.757623</ele>
        <time>2025-11-11T23:51:30.484Z</time>
      </trkpt>
      <trkpt lat="48.477524" lon="9.813385">
        <ele>624.504215</ele>
        <time>2025-11-11T23:51:32.521Z</time>
      </trkpt>
      <trkpt lat="48.477444" lon="9.813159">
        <ele>623.582643</ele>
        <time>2025-11-11T23:51:34.009Z</time>
      </trkpt>
      <trkpt lat="48.477465" lon="9.812743">
        <ele>622.071905</ele>
        <time>2025-11-11T23:51:36.424Z</time>
      </trkpt>
      <trkpt lat="48.477778" lon="9.811783">
        <ele>618.197962</ele>
        <time>2025-11-11T23:51:42.789Z</time>
      </trkpt>
      <trkpt lat="48.477878" lon="9.811591">
        <ele>617.313799</ele>
        <time>2025-11-11T23:51:44.370Z</time>
      </trkpt>
      <trkpt lat="48.477979" lon="9.811457">
        <ele>616.579078</ele>
        <time>2025-11-11T23:51:45.733Z</time>
      </trkpt>
      <trkpt lat="48.478091" lon="9.811367">
        <ele>615.885902</ele>
        <time>2025-11-11T23:51:47.016Z</time>
      </trkpt>
      <trkpt lat="48.478225" lon="9.811287">
        <ele>615.098703</ele>
        <time>2025-11-11T23:51:48.493Z</time>
      </trkpt>
      <trkpt lat="48.478769" lon="9.811088">
        <ele>613.899407</ele>
        <time>2025-11-11T23:51:54.460Z</time>
      </trkpt>
      <trkpt lat="48.479045" lon="9.810903">
        <ele>613.929479</ele>
        <time>2025-11-11T23:51:57.819Z</time>
      </trkpt>
      <trkpt lat="48.479213" lon="9.810610">
        <ele>613.955048</ele>
        <time>2025-11-11T23:52:00.972Z</time>
      </trkpt>
      <trkpt lat="48.479292" lon="9.810328">
        <ele>613.975255</ele>
        <time>2025-11-11T23:52:04.015Z</time>
      </trkpt>
      <trkpt lat="48.479343" lon="9.810082">
        <ele>613.992267</ele>
        <time>2025-11-11T23:52:07.093Z</time>
      </trkpt>
      <trkpt lat="48.479342" lon="9.809727">
        <ele>614.015698</ele>
        <time>2025-11-11T23:52:11.973Z</time>
      </trkpt>
      <trkpt lat="48.479325" lon="9.809411">
        <ele>614.036623</ele>
        <time>2025-11-11T23:52:17.120Z</time>
      </trkpt>
      <trkpt lat="48.479238" lon="9.808897">
        <ele>615.872485</ele>
        <time>2025-11-11T23:52:27.729Z</time>
      </trkpt>
      <trkpt lat="48.479168" lon="9.808647">
        <ele>617.111779</ele>
        <time>2025-11-11T23:52:34.211Z</time>
      </trkpt>
      <trkpt lat="48.479042" lon="9.808340">
        <ele>618.760654</ele>
        <time>2025-11-11T23:52:43.835Z</time>
      </trkpt>
      <trkpt lat="48.478896" lon="9.808209">
        <ele>619.930876</ele>
        <time>2025-11-11T23:52:51.547Z</time>
      </trkpt>
      <trkpt lat="48.478755" lon="9.807977">
        <ele>621.368191</ele>
        <time>2025-11-11T23:53:01.736Z</time>
      </trkpt>
      <trkpt lat="48.478440" lon="9.806884">
        <ele>626.864509</ele>
        <time>2025-11-11T23:53:41.727Z</time>
      </trkpt>
      <trkpt lat="48.478374" lon="9.806562">
        <ele>628.624243</ele>
        <time>2025-11-11T23:53:52.903Z</time>
      </trkpt>
      <trkpt lat="48.478332" lon="9.806204">
        <ele>630.522454</ele>
        <time>2025-11-11T23:54:04.706Z</time>
      </trkpt>
      <trkpt lat="48.478336" lon="9.804586">
        <ele>638.970308</ele>
        <time>2025-11-11T23:54:54.501Z</time>
      </trkpt>
      <trkpt lat="48.478433" lon="9.802900">
        <ele>645.262764</ele>
        <time>2025-11-11T23:55:40.665Z</time>
      </trkpt>
      <trkpt lat="48.478416" lon="9.802586">
        <ele>646.326918</ele>
        <time>2025-11-11T23:55:47.801Z</time>
      </trkpt>
      <trkpt lat="48.478202" lon="9.801172">
        <ele>650.314900</ele>
        <time>2025-11-11T23:56:14.248Z</time>
      </trkpt>
      <trkpt lat="48.478179" lon="9.801038">
        <ele>650.490485</ele>
        <time>2025-11-11T23:56:16.225Z</time>
      </trkpt>
      <trkpt lat="48.477618" lon="9.796953">
        <ele>655.497844</ele>
        <time>2025-11-11T23:57:14.455Z</time>
      </trkpt>
      <trkpt lat="48.477067" lon="9.792893">
        <ele>662.012699</ele>
        <time>2025-11-11T23:58:18.100Z</time>
      </trkpt>
      <trkpt lat="48.477083" lon="9.792609">
        <ele>662.761149</ele>
        <time>2025-11-11T23:58:23.601Z</time>
      </trkpt>
      <trkpt lat="48.477212" lon="9.792387">
        <ele>663.536354</ele>
        <time>2025-11-11T23:58:29.634Z</time>
      </trkpt>
      <trkpt lat="48.477601" lon="9.792627">
        <ele>665.201137</ele>
        <time>2025-11-11T23:58:43.825Z</time>
      </trkpt>
      <trkpt lat="48.477840" lon="9.792701">
        <ele>666.167587</ele>
        <time>2025-11-11T23:58:52.393Z</time>
      </trkpt>
      <trkpt lat="48.478155" lon="9.792697">
        <ele>667.491183</ele>
        <time>2025-11-11T23:59:03.734Z</time>
      </trkpt>
      <trkpt lat="48.478316" lon="9.792669">
        <ele>668.337224</ele>
        <time>2025-11-11T23:59:09.737Z</time>
      </trkpt>
      <trkpt lat="48.478380" lon="9.792653">
        <ele>668.675882</ele>
        <time>2025-11-11T23:59:12.185Z</time>
      </trkpt>
      <trkpt lat="48.478656" lon="9.792536">
        <ele>670.172501</ele>
        <time>2025-11-11T23:59:22.803Z</time>
      </trkpt>
      <trkpt lat="48.478686" lon="9.792513">
        <ele>670.348175</ele>
        <time>2025-11-11T23:59:24.060Z</time>
      </trkpt>
      <trkpt lat="48.478841" lon="9.792393">
        <ele>671.257665</ele>
        <time>2025-11-11T23:59:30.859Z</time>
      </trkpt>
      <trkpt lat="48.479053" lon="9.792228">
        <ele>672.502989</ele>
        <time>2025-11-11T23:59:40.193Z</time>
      </trkpt>
      <trkpt lat="48.479158" lon="9.792196">
        <ele>673.062198</ele>
        <time>2025-11-11T23:59:44.253Z</time>
      </trkpt>
      <trkpt lat="48.479239" lon="9.792224">
        <ele>673.496004</ele>
        <time>2025-11-11T23:59:47.328Z</time>
      </trkpt>
      <trkpt lat="48.479457" lon="9.792326">
        <ele>674.687518</ele>
        <time>2025-11-11T23:59:55.379Z</time>
      </trkpt>
      <trkpt lat="48.479483" lon="9.792183">
        <ele>675.200645</ele>
        <time>2025-11-11T23:59:59.149Z</time>
      </trkpt>
      <trkpt lat="48.479502" lon="9.791653">
        <ele>676.762106</ele>
        <time>2025-11-12T00:00:12.573Z</time>
      </trkpt>
      <trkpt lat="48.479497" lon="9.791144">
        <ele>677.493925</ele>
        <time>2025-11-12T00:00:24.851Z</time>
      </trkpt>
      <trkpt lat="48.479436" lon="9.790527">
        <ele>678.390735</ele>
        <time>2025-11-12T00:00:37.982Z</time>
      </trkpt>
      <trkpt lat="48.479374" lon="9.789917">
        <ele>679.277920</ele>
        <time>2025-11-12T00:00:48.468Z</time>
      </trkpt>
      <trkpt lat="48.479327" lon="9.789694">
        <ele>679.614320</ele>
        <time>2025-11-12T00:00:51.064Z</time>
      </trkpt>
      <trkpt lat="48.479273" lon="9.789437">
        <ele>680.001900</ele>
        <time>2025-11-12T00:00:54.071Z</time>
      </trkpt>
      <trkpt lat="48.479052" lon="9.788377">
        <ele>680.505851</ele>
        <time>2025-11-12T00:01:05.906Z</time>
      </trkpt>
      <trkpt lat="48.478913" lon="9.787714">
        <ele>680.539999</ele>
        <time>2025-11-12T00:01:12.512Z</time>
      </trkpt>
      <trkpt lat="48.478764" lon="9.787159">
        <ele>680.569405</ele>
        <time>2025-11-12T00:01:18.342Z</time>
      </trkpt>
      <trkpt lat="48.478789" lon="9.787077">
        <ele>680.573837</ele>
        <time>2025-11-12T00:01:19.218Z</time>
      </trkpt>
      <trkpt lat="48.478840" lon="9.786532">
        <ele>680.603471</ele>
        <time>2025-11-12T00:01:24.611Z</time>
      </trkpt>
      <trkpt lat="48.478714" lon="9.785157">
        <ele>681.071221</ele>
        <time>2025-11-12T00:01:38.411Z</time>
      </trkpt>
      <trkpt lat="48.478382" lon="9.781885">
        <ele>682.502307</ele>
        <time>2025-11-12T00:02:19.954Z</time>
      </trkpt>
      <trkpt lat="48.478210" lon="9.780333">
        <ele>682.228610</ele>
        <time>2025-11-12T00:02:35.730Z</time>
      </trkpt>
      <trkpt lat="48.478040" lon="9.779358">
        <ele>681.485057</ele>
        <time>2025-11-12T00:02:43.684Z</time>
      </trkpt>
      <trkpt lat="48.477804" lon="9.778292">
        <ele>680.359988</ele>
        <time>2025-11-12T00:02:51.773Z</time>
      </trkpt>
      <trkpt lat="48.477692" lon="9.777035">
        <ele>678.048356</ele>
        <time>2025-11-12T00:03:00.499Z</time>
      </trkpt>
      <trkpt lat="48.477745" lon="9.775396">
        <ele>675.449750</ele>
        <time>2025-11-12T00:03:11.576Z</time>
      </trkpt>
      <trkpt lat="48.478218" lon="9.775092">
        <ele>674.684839</ele>
        <time>2025-11-12T00:03:17.093Z</time>
      </trkpt>
      <trkpt lat="48.477776" lon="9.773380">
        <ele>673.398244</ele>
        <time>2025-11-12T00:03:32.905Z</time>
      </trkpt>
      <trkpt lat="48.477753" lon="9.773293">
        <ele>673.439397</ele>
        <time>2025-11-12T00:03:33.994Z</time>
      </trkpt>
      <trkpt lat="48.477580" lon="9.772621">
        <ele>673.756136</ele>
        <time>2025-11-12T00:03:42.443Z</time>
      </trkpt>
      <trkpt lat="48.477106" lon="9.770850">
        <ele>674.837210</ele>
        <time>2025-11-12T00:04:06.173Z</time>
      </trkpt>
      <trkpt lat="48.476810" lon="9.767475">
        <ele>678.941408</ele>
        <time>2025-11-12T00:04:55.837Z</time>
      </trkpt>
      <trkpt lat="48.476776" lon="9.766876">
        <ele>679.835311</ele>
        <time>2025-11-12T00:05:05.853Z</time>
      </trkpt>
      <trkpt lat="48.476722" lon="9.766348">
        <ele>680.629675</ele>
        <time>2025-11-12T00:05:14.813Z</time>
      </trkpt>
      <trkpt lat="48.476665" lon="9.766117">
        <ele>680.996168</ele>
        <time>2025-11-12T00:05:19.026Z</time>
      </trkpt>
      <trkpt lat="48.475909" lon="9.764109">
        <ele>684.827820</ele>
        <time>2025-11-12T00:05:56.414Z</time>
      </trkpt>
      <trkpt lat="48.475701" lon="9.763654">
        <ele>685.757000</ele>
        <time>2025-11-12T00:06:05.681Z</time>
      </trkpt>
      <trkpt lat="48.475272" lon="9.763576">
        <ele>687.031248</ele>
        <time>2025-11-12T00:06:17.260Z</time>
      </trkpt>
      <trkpt lat="48.474713" lon="9.763470">
        <ele>688.740727</ele>
        <time>2025-11-12T00:06:35.576Z</time>
      </trkpt>
      <trkpt lat="48.474227" lon="9.763199">
        <ele>690.312892</ele>
        <time>2025-11-12T00:06:52.641Z</time>
      </trkpt>
      <trkpt lat="48.473380" lon="9.762490">
        <ele>693.006134</ele>
        <time>2025-11-12T00:07:24.321Z</time>
      </trkpt>
      <trkpt lat="48.472922" lon="9.762227">
        <ele>694.295417</ele>
        <time>2025-11-12T00:07:39.493Z</time>
      </trkpt>
      <trkpt lat="48.472557" lon="9.762090">
        <ele>695.284954</ele>
        <time>2025-11-12T00:07:50.819Z</time>
      </trkpt>
      <trkpt lat="48.472105" lon="9.761981">
        <ele>696.317573</ele>
        <time>2025-11-12T00:08:04.149Z</time>
      </trkpt>
      <trkpt lat="48.471182" lon="9.761834">
        <ele>697.579591</ele>
        <time>2025-11-12T00:08:28.062Z</time>
      </trkpt>
      <trkpt lat="48.470731" lon="9.761865">
        <ele>698.193471</ele>
        <time>2025-11-12T00:08:39.190Z</time>
      </trkpt>
      <trkpt lat="48.469573" lon="9.762156">
        <ele>698.798474</ele>
        <time>2025-11-12T00:09:06.849Z</time>
      </trkpt>
      <trkpt lat="48.469314" lon="9.762223">
        <ele>698.863081</ele>
        <time>2025-11-12T00:09:12.359Z</time>
      </trkpt>
      <trkpt lat="48.468606" lon="9.762240">
        <ele>699.032373</ele>
        <time>2025-11-12T00:09:25.413Z</time>
      </trkpt>
      <trkpt lat="48.467508" lon="9.762188">
        <ele>699.217678</ele>
        <time>2025-11-12T00:09:45.602Z</time>
      </trkpt>
      <trkpt lat="48.467631" lon="9.759270">
        <ele>701.079086</ele>
        <time>2025-11-12T00:10:25.244Z</time>
      </trkpt>
      <trkpt lat="48.467716" lon="9.757207">
        <ele>702.952094</ele>
        <time>2025-11-12T00:10:52.821Z</time>
      </trkpt>
      <trkpt lat="48.467734" lon="9.756588">
        <ele>703.517844</ele>
        <time>2025-11-12T00:11:01.005Z</time>
      </trkpt>
      <trkpt lat="48.467689" lon="9.756332">
        <ele>703.759671</ele>
        <time>2025-11-12T00:11:04.644Z</time>
      </trkpt>
      <trkpt lat="48.469164" lon="9.755159">
        <ele>705.052292</ele>
        <time>2025-11-12T00:11:39.202Z</time>
      </trkpt>
      <trkpt lat="48.469661" lon="9.754763">
        <ele>705.195558</ele>
        <time>2025-11-12T00:11:46.172Z</time>
      </trkpt>
      <trkpt lat="48.470743" lon="9.754418">
        <ele>703.387935</ele>
        <time>2025-11-12T00:11:57.771Z</time>
      </trkpt>
      <trkpt lat="48.471658" lon="9.754026">
        <ele>703.263428</ele>
        <time>2025-11-12T00:12:09.348Z</time>
      </trkpt>
      <trkpt lat="48.471989" lon="9.753854">
        <ele>704.122821</ele>
        <time>2025-11-12T00:12:16.199Z</time>
      </trkpt>
      <trkpt lat="48.472339" lon="9.753527">
        <ele>705.133456</ele>
        <time>2025-11-12T00:12:26.257Z</time>
      </trkpt>
      <trkpt lat="48.472618" lon="9.753109">
        <ele>706.098771</ele>
        <time>2025-11-12T00:12:38.596Z</time>
      </trkpt>
      <trkpt lat="48.472762" lon="9.752795">
        <ele>706.720134</ele>
        <time>2025-11-12T00:12:47.868Z</time>
      </trkpt>
      <trkpt lat="48.472937" lon="9.752251">
        <ele>708.817731</ele>
        <time>2025-11-12T00:13:04.085Z</time>
      </trkpt>
      <trkpt lat="48.473272" lon="9.750623">
        <ele>715.086113</ele>
        <time>2025-11-12T00:13:50.035Z</time>
      </trkpt>
      <trkpt lat="48.473310" lon="9.750419">
        <ele>715.865327</ele>
        <time>2025-11-12T00:13:55.298Z</time>
      </trkpt>
      <trkpt lat="48.473660" lon="9.745721">
        <ele>724.905779</ele>
        <time>2025-11-12T00:15:17.755Z</time>
      </trkpt>
      <trkpt lat="48.473735" lon="9.744828">
        <ele>726.162382</ele>
        <time>2025-11-12T00:15:29.244Z</time>
      </trkpt>
      <trkpt lat="48.473755" lon="9.744095">
        <ele>726.005699</ele>
        <time>2025-11-12T00:15:36.944Z</time>
      </trkpt>
      <trkpt lat="48.473738" lon="9.743447">
        <ele>725.788217</ele>
        <time>2025-11-12T00:15:42.779Z</time>
      </trkpt>
      <trkpt lat="48.473556" lon="9.740503">
        <ele>723.715861</ele>
        <time>2025-11-12T00:16:06.083Z</time>
      </trkpt>
      <trkpt lat="48.473539" lon="9.740310">
        <ele>723.516903</ele>
        <time>2025-11-12T00:16:07.527Z</time>
      </trkpt>
      <trkpt lat="48.473403" lon="9.737974">
        <ele>721.167472</ele>
        <time>2025-11-12T00:16:24.555Z</time>
      </trkpt>
      <trkpt lat="48.473411" lon="9.737537">
        <ele>720.735368</ele>
        <time>2025-11-12T00:16:27.866Z</time>
      </trkpt>
      <trkpt lat="48.473454" lon="9.737127">
        <ele>720.325077</ele>
        <time>2025-11-12T00:16:31.089Z</time>
      </trkpt>
      <trkpt lat="48.473971" lon="9.734188">
        <ele>719.780288</ele>
        <time>2025-11-12T00:16:59.363Z</time>
      </trkpt>
      <trkpt lat="48.474951" lon="9.728977">
        <ele>723.134177</ele>
        <time>2025-11-12T00:18:10.823Z</time>
      </trkpt>
      <trkpt lat="48.475167" lon="9.728304">
        <ele>722.086495</ele>
        <time>2025-11-12T00:18:16.858Z</time>
      </trkpt>
      <trkpt lat="48.476602" lon="9.724242">
        <ele>712.357881</ele>
        <time>2025-11-12T00:18:46.976Z</time>
      </trkpt>
      <trkpt lat="48.476763" lon="9.723924">
        <ele>711.700394</ele>
        <time>2025-11-12T00:18:49.706Z</time>
      </trkpt>
      <trkpt lat="48.476890" lon="9.723751">
        <ele>711.488460</ele>
        <time>2025-11-12T00:18:51.512Z</time>
      </trkpt>
      <trkpt lat="48.476945" lon="9.722739">
        <ele>710.654778</ele>
        <time>2025-11-12T00:18:59.047Z</time>
      </trkpt>
      <trkpt lat="48.477111" lon="9.722540">
        <ele>710.392167</ele>
        <time>2025-11-12T00:19:01.714Z</time>
      </trkpt>
      <trkpt lat="48.477391" lon="9.722100">
        <ele>709.891401</ele>
        <time>2025-11-12T00:19:08.297Z</time>
      </trkpt>
      <trkpt lat="48.477553" lon="9.721754">
        <ele>709.633865</ele>
        <time>2025-11-12T00:19:12.845Z</time>
      </trkpt>
      <trkpt lat="48.477874" lon="9.720829">
        <ele>709.755271</ele>
        <time>2025-11-12T00:19:23.217Z</time>
      </trkpt>
      <trkpt lat="48.478245" lon="9.719277">
        <ele>710.048574</ele>
        <time>2025-11-12T00:19:39.926Z</time>
      </trkpt>
      <trkpt lat="48.478417" lon="9.718788">
        <ele>710.843022</ele>
        <time>2025-11-12T00:19:46.297Z</time>
      </trkpt>
      <trkpt lat="48.478684" lon="9.718251">
        <ele>711.806369</ele>
        <time>2025-11-12T00:19:55.293Z</time>
      </trkpt>
      <trkpt lat="48.478784" lon="9.717957">
        <ele>712.280593</ele>
        <time>2025-11-12T00:20:00.463Z</time>
      </trkpt>
      <trkpt lat="48.478879" lon="9.717166">
        <ele>713.434248</ele>
        <time>2025-11-12T00:20:14.975Z</time>
      </trkpt>
      <trkpt lat="48.479373" lon="9.714923">
        <ele>719.640799</ele>
        <time>2025-11-12T00:21:06.785Z</time>
      </trkpt>
      <trkpt lat="48.479503" lon="9.712979">
        <ele>723.888607</ele>
        <time>2025-11-12T00:21:44.974Z</time>
      </trkpt>
      <trkpt lat="48.479625" lon="9.710805">
        <ele>727.187314</ele>
        <time>2025-11-12T00:22:18.155Z</time>
      </trkpt>
      <trkpt lat="48.480119" lon="9.707477">
        <ele>731.260182</ele>
        <time>2025-11-12T00:23:00.521Z</time>
      </trkpt>
      <trkpt lat="48.480286" lon="9.706349">
        <ele>733.136606</ele>
        <time>2025-11-12T00:23:23.061Z</time>
      </trkpt>
      <trkpt lat="48.480437" lon="9.705334">
        <ele>737.077653</ele>
        <time>2025-11-12T00:23:48.521Z</time>
      </trkpt>
      <trkpt lat="48.480623" lon="9.703515">
        <ele>744.200172</ele>
        <time>2025-11-12T00:24:39.209Z</time>
      </trkpt>
      <trkpt lat="48.481066" lon="9.702060">
        <ele>748.666798</ele>
        <time>2025-11-12T00:25:20.171Z</time>
      </trkpt>
      <trkpt lat="48.481211" lon="9.701639">
        <ele>749.990305</ele>
        <time>2025-11-12T00:25:29.122Z</time>
      </trkpt>
      <trkpt lat="48.482203" lon="9.700079">
        <ele>751.805457</ele>
        <time>2025-11-12T00:25:49.494Z</time>
      </trkpt>
      <trkpt lat="48.482555" lon="9.699404">
        <ele>751.974897</ele>
        <time>2025-11-12T00:25:58.854Z</time>
      </trkpt>
      <trkpt lat="48.483088" lon="9.698258">
        <ele>752.073194</ele>
        <time>2025-11-12T00:26:15.112Z</time>
      </trkpt>
      <trkpt lat="48.483707" lon="9.696830">
        <ele>752.100015</ele>
        <time>2025-11-12T00:26:31.401Z</time>
      </trkpt>
      <trkpt lat="48.483963" lon="9.695989">
        <ele>751.856298</ele>
        <time>2025-11-12T00:26:38.396Z</time>
      </trkpt>
      <trkpt lat="48.484084" lon="9.695739">
        <ele>751.774777</ele>
        <time>2025-11-12T00:26:40.764Z</time>
      </trkpt>
      <trkpt lat="48.484358" lon="9.695336">
        <ele>751.622742</ele>
        <time>2025-11-12T00:26:45.552Z</time>
      </trkpt>
      <trkpt lat="48.484923" lon="9.694790">
        <ele>751.684731</ele>
        <time>2025-11-12T00:26:57.792Z</time>
      </trkpt>
      <trkpt lat="48.485039" lon="9.694590">
        <ele>751.932097</ele>
        <time>2025-11-12T00:27:01.725Z</time>
      </trkpt>
      <trkpt lat="48.485165" lon="9.694172">
        <ele>752.359509</ele>
        <time>2025-11-12T00:27:08.542Z</time>
      </trkpt>
      <trkpt lat="48.485286" lon="9.693913">
        <ele>752.654447</ele>
        <time>2025-11-12T00:27:13.348Z</time>
      </trkpt>
      <trkpt lat="48.485503" lon="9.693667">
        <ele>753.035615</ele>
        <time>2025-11-12T00:27:19.794Z</time>
      </trkpt>
      <trkpt lat="48.485777" lon="9.693432">
        <ele>753.478215</ele>
        <time>2025-11-12T00:27:27.524Z</time>
      </trkpt>
      <trkpt lat="48.486636" lon="9.692946">
        <ele>753.012581</ele>
        <time>2025-11-12T00:27:43.014Z</time>
      </trkpt>
      <trkpt lat="48.486835" lon="9.692830">
        <ele>752.665126</ele>
        <time>2025-11-12T00:27:45.312Z</time>
      </trkpt>
      <trkpt lat="48.487137" lon="9.692684">
        <ele>752.148634</ele>
        <time>2025-11-12T00:27:48.571Z</time>
      </trkpt>
      <trkpt lat="48.487504" lon="9.692507">
        <ele>751.521115</ele>
        <time>2025-11-12T00:27:52.459Z</time>
      </trkpt>
      <trkpt lat="48.488123" lon="9.692207">
        <ele>750.901918</ele>
        <time>2025-11-12T00:27:59.106Z</time>
      </trkpt>
      <trkpt lat="48.488194" lon="9.691821">
        <ele>750.807328</ele>
        <time>2025-11-12T00:28:01.942Z</time>
      </trkpt>
      <trkpt lat="48.488218" lon="9.691696">
        <ele>750.776599</ele>
        <time>2025-11-12T00:28:02.931Z</time>
      </trkpt>
      <trkpt lat="48.488903" lon="9.690593">
        <ele>750.419681</ele>
        <time>2025-11-12T00:28:19.875Z</time>
      </trkpt>
      <trkpt lat="48.489169" lon="9.690149">
        <ele>751.263191</ele>
        <time>2025-11-12T00:28:30.319Z</time>
      </trkpt>
      <trkpt lat="48.489255" lon="9.689978">
        <ele>751.684011</ele>
        <time>2025-11-12T00:28:34.285Z</time>
      </trkpt>
      <trkpt lat="48.489386" lon="9.689628">
        <ele>752.472005</ele>
        <time>2025-11-12T00:28:42.047Z</time>
      </trkpt>
      <trkpt lat="48.489486" lon="9.689345">
        <ele>753.100724</ele>
        <time>2025-11-12T00:28:48.466Z</time>
      </trkpt>
      <trkpt lat="48.489610" lon="9.689288">
        <ele>753.484152</ele>
        <time>2025-11-12T00:28:52.441Z</time>
      </trkpt>
      <trkpt lat="48.489535" lon="9.688905">
        <ele>754.267069</ele>
        <time>2025-11-12T00:29:00.398Z</time>
      </trkpt>
      <trkpt lat="48.489444" lon="9.688317">
        <ele>755.450790</ele>
        <time>2025-11-12T00:29:11.384Z</time>
      </trkpt>
      <trkpt lat="48.489415" lon="9.687563">
        <ele>756.091836</ele>
        <time>2025-11-12T00:29:23.442Z</time>
      </trkpt>
      <trkpt lat="48.489416" lon="9.687230">
        <ele>756.297932</ele>
        <time>2025-11-12T00:29:27.840Z</time>
      </trkpt>
      <trkpt lat="48.489417" lon="9.687074">
        <ele>756.394485</ele>
        <time>2025-11-12T00:29:29.695Z</time>
      </trkpt>
      <trkpt lat="48.489430" lon="9.686563">
        <ele>756.710977</ele>
        <time>2025-11-12T00:29:35.322Z</time>
      </trkpt>
      <trkpt lat="48.489468" lon="9.686075">
        <ele>757.015079</ele>
        <time>2025-11-12T00:29:40.294Z</time>
      </trkpt>
      <trkpt lat="48.489480" lon="9.685915">
        <ele>757.114735</ele>
        <time>2025-11-12T00:29:41.771Z</time>
      </trkpt>
      <trkpt lat="48.489484" lon="9.685797">
        <ele>757.187861</ele>
        <time>2025-11-12T00:29:42.867Z</time>
      </trkpt>
      <trkpt lat="48.489556" lon="9.685734">
        <ele>757.265584</ele>
        <time>2025-11-12T00:29:43.968Z</time>
      </trkpt>
      <trkpt lat="48.489663" lon="9.685730">
        <ele>757.365535</ele>
        <time>2025-11-12T00:29:45.458Z</time>
      </trkpt>
      <trkpt lat="48.489814" lon="9.685677">
        <ele>757.338340</ele>
        <time>2025-11-12T00:29:47.633Z</time>
      </trkpt>
      <trkpt lat="48.489860" lon="9.685673">
        <ele>757.322732</ele>
        <time>2025-11-12T00:29:48.275Z</time>
      </trkpt>
      <trkpt lat="48.490218" lon="9.685675">
        <ele>757.201460</ele>
        <time>2025-11-12T00:29:53.441Z</time>
      </trkpt>
      <trkpt lat="48.490571" lon="9.685662">
        <ele>757.081846</ele>
        <time>2025-11-12T00:29:58.553Z</time>
      </trkpt>
      <trkpt lat="48.490856" lon="9.685651">
        <ele>756.985272</ele>
        <time>2025-11-12T00:30:02.828Z</time>
      </trkpt>
      <trkpt lat="48.490984" lon="9.685671">
        <ele>756.941680</ele>
        <time>2025-11-12T00:30:04.785Z</time>
      </trkpt>
      <trkpt lat="48.491299" lon="9.685753">
        <ele>756.833399</ele>
        <time>2025-11-12T00:30:09.298Z</time>
      </trkpt>
      <trkpt lat="48.491444" lon="9.685812">
        <ele>756.782526</ele>
        <time>2025-11-12T00:30:11.189Z</time>
      </trkpt>
      <trkpt lat="48.491687" lon="9.685974">
        <ele>756.148994</ele>
        <time>2025-11-12T00:30:14.296Z</time>
      </trkpt>
      <trkpt lat="48.491933" lon="9.686244">
        <ele>755.365377</ele>
        <time>2025-11-12T00:30:17.658Z</time>
      </trkpt>
      <trkpt lat="48.492162" lon="9.686370">
        <ele>754.737469</ele>
        <time>2025-11-12T00:30:20.256Z</time>
      </trkpt>
      <trkpt lat="48.492347" lon="9.686417">
        <ele>754.254194</ele>
        <time>2025-11-12T00:30:22.215Z</time>
      </trkpt>
      <trkpt lat="48.492717" lon="9.686469">
        <ele>753.296933</ele>
        <time>2025-11-12T00:30:25.996Z</time>
      </trkpt>
      <trkpt lat="48.492741" lon="9.686557">
        <ele>753.134477</ele>
        <time>2025-11-12T00:30:26.920Z</time>
      </trkpt>
      <trkpt lat="48.492780" lon="9.686588">
        <ele>753.020925</ele>
        <time>2025-11-12T00:30:27.547Z</time>
      </trkpt>
      <trkpt lat="48.492840" lon="9.686576">
        <ele>752.865011</ele>
        <time>2025-11-12T00:30:28.411Z</time>
      </trkpt>
      <trkpt lat="48.492876" lon="9.686506">
        <ele>752.713746</ele>
        <time>2025-11-12T00:30:29.252Z</time>
      </trkpt>
      <trkpt lat="48.493546" lon="9.686874">
        <ele>750.897571</ele>
        <time>2025-11-12T00:30:36.206Z</time>
      </trkpt>
      <trkpt lat="48.494045" lon="9.687148">
        <ele>749.551902</ele>
        <time>2025-11-12T00:30:41.533Z</time>
      </trkpt>
      <trkpt lat="48.494180" lon="9.687230">
        <ele>749.183114</ele>
        <time>2025-11-12T00:30:43.047Z</time>
      </trkpt>
      <trkpt lat="48.494299" lon="9.687301">
        <ele>748.858831</ele>
        <time>2025-11-12T00:30:44.419Z</time>
      </trkpt>
      <trkpt lat="48.494681" lon="9.687488">
        <ele>747.841115</ele>
        <time>2025-11-12T00:30:49.110Z</time>
      </trkpt>
      <trkpt lat="48.494903" lon="9.687604">
        <ele>747.838954</ele>
        <time>2025-11-12T00:30:52.244Z</time>
      </trkpt>
      <trkpt lat="48.495264" lon="9.687792">
        <ele>748.571474</ele>
        <time>2025-11-12T00:30:58.865Z</time>
      </trkpt>
      <trkpt lat="48.495704" lon="9.687981">
        <ele>749.448976</ele>
        <time>2025-11-12T00:31:09.595Z</time>
      </trkpt>
      <trkpt lat="48.496024" lon="9.688080">
        <ele>750.075543</ele>
        <time>2025-11-12T00:31:18.758Z</time>
      </trkpt>
      <trkpt lat="48.496192" lon="9.688126">
        <ele>750.403050</ele>
        <time>2025-11-12T00:31:23.832Z</time>
      </trkpt>
      <trkpt lat="48.496459" lon="9.688197">
        <ele>750.923081</ele>
        <time>2025-11-12T00:31:31.996Z</time>
      </trkpt>
      <trkpt lat="48.496977" lon="9.688439">
        <ele>751.547877</ele>
        <time>2025-11-12T00:31:46.421Z</time>
      </trkpt>
      <trkpt lat="48.497407" lon="9.688849">
        <ele>752.087710</ele>
        <time>2025-11-12T00:31:58.354Z</time>
      </trkpt>
      <trkpt lat="48.497861" lon="9.689363">
        <ele>752.690076</ele>
        <time>2025-11-12T00:32:07.003Z</time>
      </trkpt>
      <trkpt lat="48.498108" lon="9.689652">
        <ele>752.657742</ele>
        <time>2025-11-12T00:32:10.576Z</time>
      </trkpt>
      <trkpt lat="48.498258" lon="9.689827">
        <ele>751.936607</ele>
        <time>2025-11-12T00:32:12.598Z</time>
      </trkpt>
      <trkpt lat="48.498922" lon="9.690690">
        <ele>748.603571</ele>
        <time>2025-11-12T00:32:21.333Z</time>
      </trkpt>
      <trkpt lat="48.499769" lon="9.691699">
        <ele>743.954189</ele>
        <time>2025-11-12T00:32:35.672Z</time>
      </trkpt>
      <trkpt lat="48.499959" lon="9.692044">
        <ele>742.438883</ele>
        <time>2025-11-12T00:32:39.617Z</time>
      </trkpt>
      <trkpt lat="48.500098" lon="9.692463">
        <ele>740.856107</ele>
        <time>2025-11-12T00:32:43.759Z</time>
      </trkpt>
      <trkpt lat="48.500486" lon="9.693924">
        <ele>735.803731</ele>
        <time>2025-11-12T00:32:58.018Z</time>
      </trkpt>
      <trkpt lat="48.500763" lon="9.695072">
        <ele>732.459768</ele>
        <time>2025-11-12T00:33:09.443Z</time>
      </trkpt>
      <trkpt lat="48.500872" lon="9.695372">
        <ele>731.523319</ele>
        <time>2025-11-12T00:33:12.622Z</time>
      </trkpt>
      <trkpt lat="48.501022" lon="9.695604">
        <ele>730.636123</ele>
        <time>2025-11-12T00:33:15.636Z</time>
      </trkpt>
      <trkpt lat="48.501238" lon="9.695816">
        <ele>729.571814</ele>
        <time>2025-11-12T00:33:19.231Z</time>
      </trkpt>
      <trkpt lat="48.501508" lon="9.696014">
        <ele>728.553617</ele>
        <time>2025-11-12T00:33:23.396Z</time>
      </trkpt>
      <trkpt lat="48.501971" lon="9.696182">
        <ele>726.959191</ele>
        <time>2025-11-12T00:33:30.045Z</time>
      </trkpt>
      <trkpt lat="48.502302" lon="9.696199">
        <ele>725.850271</ele>
        <time>2025-11-12T00:33:34.764Z</time>
      </trkpt>
      <trkpt lat="48.502753" lon="9.696120">
        <ele>724.330063</ele>
        <time>2025-11-12T00:33:41.388Z</time>
      </trkpt>
      <trkpt lat="48.503296" lon="9.695977">
        <ele>723.700562</ele>
        <time>2025-11-12T00:33:49.988Z</time>
      </trkpt>
      <trkpt lat="48.503931" lon="9.695625">
        <ele>724.201391</ele>
        <time>2025-11-12T00:34:03.650Z</time>
      </trkpt>
      <trkpt lat="48.505140" lon="9.694779">
        <ele>725.743990</ele>
        <time>2025-11-12T00:34:45.460Z</time>
      </trkpt>
      <trkpt lat="48.505469" lon="9.694650">
        <ele>726.367773</ele>
        <time>2025-11-12T00:34:56.735Z</time>
      </trkpt>
      <trkpt lat="48.507570" lon="9.694429">
        <ele>727.415221</ele>
        <time>2025-11-12T00:35:46.560Z</time>
      </trkpt>
      <trkpt lat="48.508510" lon="9.694223">
        <ele>726.334862</ele>
        <time>2025-11-12T00:36:00.506Z</time>
      </trkpt>
      <trkpt lat="48.508688" lon="9.694225">
        <ele>725.932960</ele>
        <time>2025-11-12T00:36:03.036Z</time>
      </trkpt>
      <trkpt lat="48.509025" lon="9.694229">
        <ele>725.172053</ele>
        <time>2025-11-12T00:36:07.866Z</time>
      </trkpt>
      <trkpt lat="48.509815" lon="9.694406">
        <ele>723.368838</ele>
        <time>2025-11-12T00:36:20.344Z</time>
      </trkpt>
      <trkpt lat="48.510269" lon="9.694544">
        <ele>723.131384</ele>
        <time>2025-11-12T00:36:29.120Z</time>
      </trkpt>
      <trkpt lat="48.510461" lon="9.694651">
        <ele>723.250454</ele>
        <time>2025-11-12T00:36:33.417Z</time>
      </trkpt>
      <trkpt lat="48.510683" lon="9.694811">
        <ele>723.393575</ele>
        <time>2025-11-12T00:36:38.789Z</time>
      </trkpt>
      <trkpt lat="48.511464" lon="9.695581">
        <ele>723.936270</ele>
        <time>2025-11-12T00:37:01.674Z</time>
      </trkpt>
      <trkpt lat="48.511771" lon="9.695633">
        <ele>724.250598</ele>
        <time>2025-11-12T00:37:09.923Z</time>
      </trkpt>
      <trkpt lat="48.512072" lon="9.695495">
        <ele>724.670965</ele>
        <time>2025-11-12T00:37:18.489Z</time>
      </trkpt>
      <trkpt lat="48.512309" lon="9.695200">
        <ele>725.081449</ele>
        <time>2025-11-12T00:37:26.797Z</time>
      </trkpt>
      <trkpt lat="48.512890" lon="9.694477">
        <ele>726.087634</ele>
        <time>2025-11-12T00:37:46.442Z</time>
      </trkpt>
      <trkpt lat="48.514375" lon="9.692629">
        <ele>727.587581</ele>
        <time>2025-11-12T00:38:29.454Z</time>
      </trkpt>
      <trkpt lat="48.515085" lon="9.691640">
        <ele>728.859460</ele>
        <time>2025-11-12T00:38:53.679Z</time>
      </trkpt>
      <trkpt lat="48.516073" lon="9.690168">
        <ele>730.615886</ele>
        <time>2025-11-12T00:39:31.537Z</time>
      </trkpt>
      <trkpt lat="48.516681" lon="9.689418">
        <ele>731.371598</ele>
        <time>2025-11-12T00:39:50.083Z</time>
      </trkpt>
      <trkpt lat="48.517627" lon="9.688251">
        <ele>732.264214</ele>
        <time>2025-11-12T00:40:16.705Z</time>
      </trkpt>
      <trkpt lat="48.517865" lon="9.687995">
        <ele>732.416987</ele>
        <time>2025-11-12T00:40:23.589Z</time>
      </trkpt>
      <trkpt lat="48.518093" lon="9.687826">
        <ele>732.549774</ele>
        <time>2025-11-12T00:40:29.462Z</time>
      </trkpt>
      <trkpt lat="48.518758" lon="9.687502">
        <ele>732.881801</ele>
        <time>2025-11-12T00:40:45.153Z</time>
      </trkpt>
      <trkpt lat="48.519332" lon="9.687330">
        <ele>732.972506</ele>
        <time>2025-11-12T00:40:57.559Z</time>
      </trkpt>
      <trkpt lat="48.519776" lon="9.687024">
        <ele>733.048157</ele>
        <time>2025-11-12T00:41:07.355Z</time>
      </trkpt>
      <trkpt lat="48.520543" lon="9.686363">
        <ele>733.250071</ele>
        <time>2025-11-12T00:41:25.046Z</time>
      </trkpt>
      <trkpt lat="48.521567" lon="9.685241">
        <ele>733.777551</ele>
        <time>2025-11-12T00:41:52.741Z</time>
      </trkpt>
      <trkpt lat="48.523001" lon="9.683776">
        <ele>735.078753</ele>
        <time>2025-11-12T00:42:33.679Z</time>
      </trkpt>
      <trkpt lat="48.524078" lon="9.682393">
        <ele>736.058416</ele>
        <time>2025-11-12T00:43:06.934Z</time>
      </trkpt>
      <trkpt lat="48.526215" lon="9.678711">
        <ele>737.698823</ele>
        <time>2025-11-12T00:44:18.487Z</time>
      </trkpt>
      <trkpt lat="48.526165" lon="9.674772">
        <ele>738.947164</ele>
        <time>2025-11-12T00:45:01.694Z</time>
      </trkpt>
      <trkpt lat="48.526159" lon="9.674359">
        <ele>739.081495</ele>
        <time>2025-11-12T00:45:06.248Z</time>
      </trkpt>
      <trkpt lat="48.526355" lon="9.669661">
        <ele>742.537674</ele>
        <time>2025-11-12T00:46:02.304Z</time>
      </trkpt>
      <trkpt lat="48.529044" lon="9.669141">
        <ele>752.377713</ele>
        <time>2025-11-12T00:47:22.419Z</time>
      </trkpt>
      <trkpt lat="48.529355" lon="9.669122">
        <ele>754.141482</ele>
        <time>2025-11-12T00:47:34.063Z</time>
      </trkpt>
      <trkpt lat="48.530825" lon="9.669029">
        <ele>761.282400</ele>
        <time>2025-11-12T00:48:35.303Z</time>
      </trkpt>
      <trkpt lat="48.530972" lon="9.669019">
        <ele>761.685419</ele>
        <time>2025-11-12T00:48:40.656Z</time>
      </trkpt>
      <trkpt lat="48.531378" lon="9.668992">
        <ele>762.798469</ele>
        <time>2025-11-12T00:48:53.740Z</time>
      </trkpt>
      <trkpt lat="48.532529" lon="9.669062">
        <ele>764.162349</ele>
        <time>2025-11-12T00:49:10.194Z</time>
      </trkpt>
      <trkpt lat="48.532816" lon="9.669069">
        <ele>763.318758</ele>
        <time>2025-11-12T00:49:13.023Z</time>
      </trkpt>
      <trkpt lat="48.533910" lon="9.669122">
        <ele>760.101884</ele>
        <time>2025-11-12T00:49:23.561Z</time>
      </trkpt>
      <trkpt lat="48.534158" lon="9.669125">
        <ele>759.765956</ele>
        <time>2025-11-12T00:49:26.057Z</time>
      </trkpt>
      <trkpt lat="48.535496" lon="9.669098">
        <ele>759.424489</ele>
        <time>2025-11-12T00:49:43.703Z</time>
      </trkpt>
      <trkpt lat="48.535752" lon="9.669036">
        <ele>759.358327</ele>
        <time>2025-11-12T00:49:49.705Z</time>
      </trkpt>
      <trkpt lat="48.535496" lon="9.669098">
        <ele>760.242089</ele>
        <time>2025-11-12T00:49:56.139Z</time>
      </trkpt>
      <trkpt lat="48.535290" lon="9.665887">
        <ele>770.563999</ele>
        <time>2025-11-12T00:51:10.976Z</time>
      </trkpt>
      <trkpt lat="48.535179" lon="9.664071">
        <ele>777.964621</ele>
        <time>2025-11-12T00:52:00.875Z</time>
      </trkpt>
      <trkpt lat="48.535056" lon="9.663242">
        <ele>781.158341</ele>
        <time>2025-11-12T00:52:24.769Z</time>
      </trkpt>
      <trkpt lat="48.535013" lon="9.662671">
        <ele>783.302310</ele>
        <time>2025-11-12T00:52:39.899Z</time>
      </trkpt>
      <trkpt lat="48.535358" lon="9.662419">
        <ele>785.461507</ele>
        <time>2025-11-12T00:52:54.132Z</time>
      </trkpt>
      <trkpt lat="48.535633" lon="9.662279">
        <ele>787.096559</ele>
        <time>2025-11-12T00:53:04.114Z</time>
      </trkpt>
      <trkpt lat="48.536151" lon="9.662253">
        <ele>789.257474</ele>
        <time>2025-11-12T00:53:20.816Z</time>
      </trkpt>
      <trkpt lat="48.537858" lon="9.662166">
        <ele>794.311274</ele>
        <time>2025-11-12T00:54:03.757Z</time>
      </trkpt>
      <trkpt lat="48.538148" lon="9.662091">
        <ele>795.113079</ele>
        <time>2025-11-12T00:54:10.629Z</time>
      </trkpt>
      <trkpt lat="48.539526" lon="9.661732">
        <ele>799.038437</ele>
        <time>2025-11-12T00:54:46.028Z</time>
      </trkpt>
      <trkpt lat="48.539884" lon="9.661598">
        <ele>800.511650</ele>
        <time>2025-11-12T00:54:57.536Z</time>
      </trkpt>
      <trkpt lat="48.540276" lon="9.661379">
        <ele>802.181094</ele>
        <time>2025-11-12T00:55:11.634Z</time>
      </trkpt>
      <trkpt lat="48.541013" lon="9.660739">
        <ele>805.576760</ele>
        <time>2025-11-12T00:55:40.045Z</time>
      </trkpt>
      <trkpt lat="48.540982" lon="9.660341">
        <ele>805.953125</ele>
        <time>2025-11-12T00:55:48.889Z</time>
      </trkpt>
      <trkpt lat="48.541025" lon="9.660030">
        <ele>806.051928</ele>
        <time>2025-11-12T00:55:55.276Z</time>
      </trkpt>
      <trkpt lat="48.540949" lon="9.659999">
        <ele>806.088905</ele>
        <time>2025-11-12T00:55:57.002Z</time>
      </trkpt>
      <trkpt lat="48.540678" lon="9.659889">
        <ele>806.220713</ele>
        <time>2025-11-12T00:56:02.603Z</time>
      </trkpt>
      <trkpt lat="48.540271" lon="9.659639">
        <ele>806.427089</ele>
        <time>2025-11-12T00:56:08.960Z</time>
      </trkpt>
      <trkpt lat="48.540009" lon="9.659454">
        <ele>806.562937</ele>
        <time>2025-11-12T00:56:12.363Z</time>
      </trkpt>
      <trkpt lat="48.539533" lon="9.659200">
        <ele>806.209250</ele>
        <time>2025-11-12T00:56:17.831Z</time>
      </trkpt>
      <trkpt lat="48.539056" lon="9.659051">
        <ele>804.987324</ele>
        <time>2025-11-12T00:56:22.958Z</time>
      </trkpt>
      <trkpt lat="48.538325" lon="9.658919">
        <ele>803.140480</ele>
        <time>2025-11-12T00:56:30.514Z</time>
      </trkpt>
      <trkpt lat="48.537755" lon="9.658776">
        <ele>802.062301</ele>
        <time>2025-11-12T00:56:36.552Z</time>
      </trkpt>
      <trkpt lat="48.537408" lon="9.658648">
        <ele>801.826622</ele>
        <time>2025-11-12T00:56:40.587Z</time>
      </trkpt>
      <trkpt lat="48.537057" lon="9.658470">
        <ele>801.582327</ele>
        <time>2025-11-12T00:56:45.195Z</time>
      </trkpt>
      <trkpt lat="48.537057" lon="9.658366">
        <ele>801.536892</ele>
        <time>2025-11-12T00:56:46.139Z</time>
      </trkpt>
      <trkpt lat="48.537174" lon="9.657177">
        <ele>801.011745</ele>
        <time>2025-11-12T00:56:59.747Z</time>
      </trkpt>
      <trkpt lat="48.537381" lon="9.655076">
        <ele>799.905132</ele>
        <time>2025-11-12T00:57:24.136Z</time>
      </trkpt>
      <trkpt lat="48.537390" lon="9.654967">
        <ele>799.847870</ele>
        <time>2025-11-12T00:57:24.907Z</time>
      </trkpt>
      <trkpt lat="48.537407" lon="9.654479">
        <ele>799.593122</ele>
        <time>2025-11-12T00:57:28.118Z</time>
      </trkpt>
      <trkpt lat="48.537383" lon="9.653848">
        <ele>797.049904</ele>
        <time>2025-11-12T00:57:32.004Z</time>
      </trkpt>
      <trkpt lat="48.537269" lon="9.653018">
        <ele>793.628746</ele>
        <time>2025-11-12T00:57:36.952Z</time>
      </trkpt>
      <trkpt lat="48.537163" lon="9.652464">
        <ele>791.301338</ele>
        <time>2025-11-12T00:57:40.320Z</time>
      </trkpt>
      <trkpt lat="48.536933" lon="9.651753">
        <ele>788.695324</ele>
        <time>2025-11-12T00:57:45.104Z</time>
      </trkpt>
      <trkpt lat="48.536885" lon="9.651624">
        <ele>788.771895</ele>
        <time>2025-11-12T00:57:46.041Z</time>
      </trkpt>
      <trkpt lat="48.536637" lon="9.650966">
        <ele>789.163682</ele>
        <time>2025-11-12T00:57:51.474Z</time>
      </trkpt>
      <trkpt lat="48.536510" lon="9.650595">
        <ele>789.379800</ele>
        <time>2025-11-12T00:57:56.612Z</time>
      </trkpt>
      <trkpt lat="48.536408" lon="9.650097">
        <ele>789.649546</ele>
        <time>2025-11-12T00:58:06.442Z</time>
      </trkpt>
      <trkpt lat="48.536236" lon="9.648958">
        <ele>791.645731</ele>
        <time>2025-11-12T00:58:34.524Z</time>
      </trkpt>
      <trkpt lat="48.536192" lon="9.648552">
        <ele>793.205917</ele>
        <time>2025-11-12T00:58:45.516Z</time>
      </trkpt>
      <trkpt lat="48.536214" lon="9.647317">
        <ele>797.891181</ele>
        <time>2025-11-12T00:59:19.481Z</time>
      </trkpt>
      <trkpt lat="48.536268" lon="9.646723">
        <ele>800.164976</ele>
        <time>2025-11-12T00:59:34.540Z</time>
      </trkpt>
      <trkpt lat="48.536424" lon="9.645698">
        <ele>801.866581</ele>
        <time>2025-11-12T00:59:54.586Z</time>
      </trkpt>
      <trkpt lat="48.536592" lon="9.645502">
        <ele>802.354126</ele>
        <time>2025-11-12T00:59:59.333Z</time>
      </trkpt>
      <trkpt lat="48.537399" lon="9.645489">
        <ele>804.207591</ele>
        <time>2025-11-12T01:00:14.558Z</time>
      </trkpt>
      <trkpt lat="48.537594" lon="9.645454">
        <ele>804.627992</ele>
        <time>2025-11-12T01:00:17.641Z</time>
      </trkpt>
      <trkpt lat="48.537808" lon="9.645370">
        <ele>805.054947</ele>
        <time>2025-11-12T01:00:21.123Z</time>
      </trkpt>
      <trkpt lat="48.538215" lon="9.645113">
        <ele>805.906773</ele>
        <time>2025-11-12T01:00:29.736Z</time>
      </trkpt>
      <trkpt lat="48.538465" lon="9.644854">
        <ele>806.492171</ele>
        <time>2025-11-12T01:00:37.078Z</time>
      </trkpt>
      <trkpt lat="48.540248" lon="9.642226">
        <ele>812.645453</ele>
        <time>2025-11-12T01:01:42.649Z</time>
      </trkpt>
      <trkpt lat="48.540312" lon="9.642053">
        <ele>812.925204</ele>
        <time>2025-11-12T01:01:45.600Z</time>
      </trkpt>
      <trkpt lat="48.540329" lon="9.641797">
        <ele>813.214118</ele>
        <time>2025-11-12T01:01:49.367Z</time>
      </trkpt>
      <trkpt lat="48.540313" lon="9.641605">
        <ele>813.431423</ele>
        <time>2025-11-12T01:01:52.158Z</time>
      </trkpt>
      <trkpt lat="48.540067" lon="9.640147">
        <ele>815.120997</ele>
        <time>2025-11-12T01:02:13.074Z</time>
      </trkpt>
      <trkpt lat="48.539968" lon="9.639698">
        <ele>815.652422</ele>
        <time>2025-11-12T01:02:19.830Z</time>
      </trkpt>
      <trkpt lat="48.539902" lon="9.639399">
        <ele>815.854982</ele>
        <time>2025-11-12T01:02:24.117Z</time>
      </trkpt>
      <trkpt lat="48.539654" lon="9.638643">
        <ele>815.886787</ele>
        <time>2025-11-12T01:02:34.720Z</time>
      </trkpt>
      <trkpt lat="48.539138" lon="9.637002">
        <ele>815.710194</ele>
        <time>2025-11-12T01:02:51.232Z</time>
      </trkpt>
      <trkpt lat="48.538906" lon="9.636325">
        <ele>813.495545</ele>
        <time>2025-11-12T01:02:56.846Z</time>
      </trkpt>
      <trkpt lat="48.538734" lon="9.635986">
        <ele>812.254762</ele>
        <time>2025-11-12T01:02:59.708Z</time>
      </trkpt>
      <trkpt lat="48.538585" lon="9.635776">
        <ele>811.360530</ele>
        <time>2025-11-12T01:03:01.669Z</time>
      </trkpt>
      <trkpt lat="48.538038" lon="9.635301">
        <ele>808.591957</ele>
        <time>2025-11-12T01:03:07.433Z</time>
      </trkpt>
      <trkpt lat="48.537998" lon="9.635086">
        <ele>807.824494</ele>
        <time>2025-11-12T01:03:08.735Z</time>
      </trkpt>
      <trkpt lat="48.538020" lon="9.634983">
        <ele>807.190964</ele>
        <time>2025-11-12T01:03:09.365Z</time>
      </trkpt>
      <trkpt lat="48.538371" lon="9.634473">
        <ele>802.884916</ele>
        <time>2025-11-12T01:03:13.597Z</time>
      </trkpt>
      <trkpt lat="48.538575" lon="9.634230">
        <ele>800.587944</ele>
        <time>2025-11-12T01:03:15.841Z</time>
      </trkpt>
      <trkpt lat="48.538787" lon="9.634016">
        <ele>798.333599</ele>
        <time>2025-11-12T01:03:18.035Z</time>
      </trkpt>
      <trkpt lat="48.539063" lon="9.633798">
        <ele>795.579988</ele>
        <time>2025-11-12T01:03:20.733Z</time>
      </trkpt>
      <trkpt lat="48.539363" lon="9.633605">
        <ele>792.697145</ele>
        <time>2025-11-12T01:03:23.578Z</time>
      </trkpt>
      <trkpt lat="48.540220" lon="9.633196">
        <ele>785.394852</ele>
        <time>2025-11-12T01:03:31.500Z</time>
      </trkpt>
      <trkpt lat="48.541095" lon="9.632579">
        <ele>777.613218</ele>
        <time>2025-11-12T01:03:40.005Z</time>
      </trkpt>
      <trkpt lat="48.542479" lon="9.631559">
        <ele>769.585389</ele>
        <time>2025-11-12T01:03:53.967Z</time>
      </trkpt>
      <trkpt lat="48.542547" lon="9.631478">
        <ele>769.133935</ele>
        <time>2025-11-12T01:03:54.968Z</time>
      </trkpt>
      <trkpt lat="48.542513" lon="9.630819">
        <ele>769.345629</ele>
        <time>2025-11-12T01:04:01.864Z</time>
      </trkpt>
      <trkpt lat="48.542516" lon="9.630490">
        <ele>770.218386</ele>
        <time>2025-11-12T01:04:07.089Z</time>
      </trkpt>
      <trkpt lat="48.542541" lon="9.630253">
        <ele>770.854959</ele>
        <time>2025-11-12T01:04:11.729Z</time>
      </trkpt>
      <trkpt lat="48.542573" lon="9.629950">
        <ele>771.668829</ele>
        <time>2025-11-12T01:04:18.681Z</time>
      </trkpt>
      <trkpt lat="48.542675" lon="9.629442">
        <ele>773.076903</ele>
        <time>2025-11-12T01:04:32.555Z</time>
      </trkpt>
      <trkpt lat="48.542840" lon="9.628962">
        <ele>774.511485</ele>
        <time>2025-11-12T01:04:47.584Z</time>
      </trkpt>
      <trkpt lat="48.543091" lon="9.628463">
        <ele>776.540403</ele>
        <time>2025-11-12T01:05:05.551Z</time>
      </trkpt>
      <trkpt lat="48.543272" lon="9.628184">
        <ele>778.115064</ele>
        <time>2025-11-12T01:05:16.485Z</time>
      </trkpt>
      <trkpt lat="48.544158" lon="9.626821">
        <ele>785.815222</ele>
        <time>2025-11-12T01:06:06.924Z</time>
      </trkpt>
      <trkpt lat="48.544450" lon="9.626556">
        <ele>787.337599</ele>
        <time>2025-11-12T01:06:18.084Z</time>
      </trkpt>
      <trkpt lat="48.545265" lon="9.626209">
        <ele>790.557071</ele>
        <time>2025-11-12T01:06:42.903Z</time>
      </trkpt>
      <trkpt lat="48.545695" lon="9.625920">
        <ele>792.346513</ele>
        <time>2025-11-12T01:06:55.854Z</time>
      </trkpt>
      <trkpt lat="48.545779" lon="9.625872">
        <ele>792.687980</ele>
        <time>2025-11-12T01:06:58.319Z</time>
      </trkpt>
      <trkpt lat="48.545948" lon="9.625804">
        <ele>793.328220</ele>
        <time>2025-11-12T01:07:03.164Z</time>
      </trkpt>
      <trkpt lat="48.546331" lon="9.625916">
        <ele>794.422053</ele>
        <time>2025-11-12T01:07:14.217Z</time>
      </trkpt>
      <trkpt lat="48.548574" lon="9.626407">
        <ele>798.098646</ele>
        <time>2025-11-12T01:08:11.509Z</time>
      </trkpt>
      <trkpt lat="48.548941" lon="9.626501">
        <ele>798.012890</ele>
        <time>2025-11-12T01:08:16.490Z</time>
      </trkpt>
      <trkpt lat="48.549161" lon="9.626623">
        <ele>797.958900</ele>
        <time>2025-11-12T01:08:19.071Z</time>
      </trkpt>
      <trkpt lat="48.549301" lon="9.626726">
        <ele>797.923025</ele>
        <time>2025-11-12T01:08:20.660Z</time>
      </trkpt>
      <trkpt lat="48.549524" lon="9.626991">
        <ele>796.935888</ele>
        <time>2025-11-12T01:08:23.410Z</time>
      </trkpt>
      <trkpt lat="48.550305" lon="9.628561">
        <ele>787.423032</ele>
        <time>2025-11-12T01:08:34.908Z</time>
      </trkpt>
      <trkpt lat="48.550514" lon="9.629097">
        <ele>784.368183</ele>
        <time>2025-11-12T01:08:38.484Z</time>
      </trkpt>
      <trkpt lat="48.550596" lon="9.629414">
        <ele>782.502847</ele>
        <time>2025-11-12T01:08:40.456Z</time>
      </trkpt>
      <trkpt lat="48.550695" lon="9.630133">
        <ele>778.477856</ele>
        <time>2025-11-12T01:08:44.756Z</time>
      </trkpt>
      <trkpt lat="48.550706" lon="9.630418">
        <ele>776.913196</ele>
        <time>2025-11-12T01:08:46.437Z</time>
      </trkpt>
      <trkpt lat="48.550685" lon="9.630830">
        <ele>774.648454</ele>
        <time>2025-11-12T01:08:48.864Z</time>
      </trkpt>
      <trkpt lat="48.550606" lon="9.631480">
        <ele>771.026431</ele>
        <time>2025-11-12T01:08:52.695Z</time>
      </trkpt>
      <trkpt lat="48.550590" lon="9.631944">
        <ele>768.417163</ele>
        <time>2025-11-12T01:08:55.390Z</time>
      </trkpt>
      <trkpt lat="48.550639" lon="9.632402">
        <ele>765.756583</ele>
        <time>2025-11-12T01:08:58.062Z</time>
      </trkpt>
      <trkpt lat="48.550743" lon="9.632894">
        <ele>762.794747</ele>
        <time>2025-11-12T01:09:01.013Z</time>
      </trkpt>
      <trkpt lat="48.550918" lon="9.633367">
        <ele>759.687312</ele>
        <time>2025-11-12T01:09:04.111Z</time>
      </trkpt>
      <trkpt lat="48.550987" lon="9.633527">
        <ele>758.592225</ele>
        <time>2025-11-12T01:09:05.210Z</time>
      </trkpt>
      <trkpt lat="48.551065" lon="9.633619">
        <ele>757.734923</ele>
        <time>2025-11-12T01:09:06.075Z</time>
      </trkpt>
      <trkpt lat="48.551246" lon="9.633685">
        <ele>756.121843</ele>
        <time>2025-11-12T01:09:07.701Z</time>
      </trkpt>
      <trkpt lat="48.551373" lon="9.633641">
        <ele>754.993047</ele>
        <time>2025-11-12T01:09:08.855Z</time>
      </trkpt>
      <trkpt lat="48.551686" lon="9.633068">
        <ele>751.617126</ele>
        <time>2025-11-12T01:09:13.342Z</time>
      </trkpt>
      <trkpt lat="48.551800" lon="9.632930">
        <ele>750.669584</ele>
        <time>2025-11-12T01:09:14.693Z</time>
      </trkpt>
      <trkpt lat="48.551986" lon="9.632791">
        <ele>749.323591</ele>
        <time>2025-11-12T01:09:16.621Z</time>
      </trkpt>
      <trkpt lat="48.552496" lon="9.632285">
        <ele>745.365972</ele>
        <time>2025-11-12T01:09:22.345Z</time>
      </trkpt>
      <trkpt lat="48.553024" lon="9.631863">
        <ele>740.891717</ele>
        <time>2025-11-12T01:09:27.693Z</time>
      </trkpt>
      <trkpt lat="48.553177" lon="9.631778">
        <ele>739.254735</ele>
        <time>2025-11-12T01:09:29.121Z</time>
      </trkpt>
      <trkpt lat="48.553546" lon="9.631659">
        <ele>735.465839</ele>
        <time>2025-11-12T01:09:32.367Z</time>
      </trkpt>
      <trkpt lat="48.554059" lon="9.631561">
        <ele>730.273390</ele>
        <time>2025-11-12T01:09:36.772Z</time>
      </trkpt>
      <trkpt lat="48.554566" lon="9.631383">
        <ele>725.046549</ele>
        <time>2025-11-12T01:09:41.185Z</time>
      </trkpt>
      <trkpt lat="48.554784" lon="9.631063">
        <ele>721.985914</ele>
        <time>2025-11-12T01:09:43.775Z</time>
      </trkpt>
      <trkpt lat="48.554890" lon="9.630960">
        <ele>720.716126</ele>
        <time>2025-11-12T01:09:44.856Z</time>
      </trkpt>
      <trkpt lat="48.555578" lon="9.630593">
        <ele>713.365042</ele>
        <time>2025-11-12T01:09:51.140Z</time>
      </trkpt>
      <trkpt lat="48.555875" lon="9.630355">
        <ele>709.977860</ele>
        <time>2025-11-12T01:09:54.046Z</time>
      </trkpt>
      <trkpt lat="48.556159" lon="9.630196">
        <ele>706.926377</ele>
        <time>2025-11-12T01:09:56.661Z</time>
      </trkpt>
      <trkpt lat="48.558448" lon="9.629569">
        <ele>686.598837</ele>
        <time>2025-11-12T01:10:16.830Z</time>
      </trkpt>
      <trkpt lat="48.558786" lon="9.629497">
        <ele>684.385692</ele>
        <time>2025-11-12T01:10:19.929Z</time>
      </trkpt>
      <trkpt lat="48.559120" lon="9.629472">
        <ele>682.217499</ele>
        <time>2025-11-12T01:10:23.049Z</time>
      </trkpt>
      <trkpt lat="48.559709" lon="9.629468">
        <ele>678.398594</ele>
        <time>2025-11-12T01:10:28.937Z</time>
      </trkpt>
      <trkpt lat="48.560078" lon="9.629518">
        <ele>674.775767</ele>
        <time>2025-11-12T01:10:32.387Z</time>
      </trkpt>
      <trkpt lat="48.560186" lon="9.629578">
        <ele>673.579850</ele>
        <time>2025-11-12T01:10:33.414Z</time>
      </trkpt>
      <trkpt lat="48.560272" lon="9.629668">
        <ele>672.492599</ele>
        <time>2025-11-12T01:10:34.325Z</time>
      </trkpt>
      <trkpt lat="48.560383" lon="9.629873">
        <ele>670.670737</ele>
        <time>2025-11-12T01:10:35.834Z</time>
      </trkpt>
      <trkpt lat="48.560482" lon="9.629910">
        <ele>669.610818</ele>
        <time>2025-11-12T01:10:36.710Z</time>
      </trkpt>
      <trkpt lat="48.560511" lon="9.629892">
        <ele>669.284980</ele>
        <time>2025-11-12T01:10:36.978Z</time>
      </trkpt>
      <trkpt lat="48.560551" lon="9.629808">
        <ele>668.573179</ele>
        <time>2025-11-12T01:10:37.556Z</time>
      </trkpt>
      <trkpt lat="48.560542" lon="9.629700">
        <ele>667.824445</ele>
        <time>2025-11-12T01:10:38.171Z</time>
      </trkpt>
      <trkpt lat="48.560246" lon="9.629352">
        <ele>663.926545</ele>
        <time>2025-11-12T01:10:41.329Z</time>
      </trkpt>
      <trkpt lat="48.560046" lon="9.629136">
        <ele>661.371539</ele>
        <time>2025-11-12T01:10:43.384Z</time>
      </trkpt>
      <trkpt lat="48.559746" lon="9.628968">
        <ele>658.022339</ele>
        <time>2025-11-12T01:10:46.030Z</time>
      </trkpt>
      <trkpt lat="48.558654" lon="9.628696">
        <ele>646.304247</ele>
        <time>2025-11-12T01:10:55.304Z</time>
      </trkpt>
      <trkpt lat="48.558126" lon="9.628638">
        <ele>640.699057</ele>
        <time>2025-11-12T01:11:00.050Z</time>
      </trkpt>
      <trkpt lat="48.557418" lon="9.628633">
        <ele>639.931571</ele>
        <time>2025-11-12T01:11:08.496Z</time>
      </trkpt>
      <trkpt lat="48.557109" lon="9.628598">
        <ele>639.768360</ele>
        <time>2025-11-12T01:11:16.854Z</time>
      </trkpt>
      <trkpt lat="48.556591" lon="9.628416">
        <ele>639.488241</ele>
        <time>2025-11-12T01:11:30.463Z</time>
      </trkpt>
      <trkpt lat="48.556288" lon="9.628448">
        <ele>639.211903</ele>
        <time>2025-11-12T01:11:34.836Z</time>
      </trkpt>
      <trkpt lat="48.556207" lon="9.628361">
        <ele>638.417195</ele>
        <time>2025-11-12T01:11:35.965Z</time>
      </trkpt>
      <trkpt lat="48.556201" lon="9.628302">
        <ele>638.101260</ele>
        <time>2025-11-12T01:11:36.442Z</time>
      </trkpt>
      <trkpt lat="48.556230" lon="9.628219">
        <ele>637.604513</ele>
        <time>2025-11-12T01:11:37.094Z</time>
      </trkpt>
      <trkpt lat="48.556283" lon="9.628158">
        <ele>637.071735</ele>
        <time>2025-11-12T01:11:37.808Z</time>
      </trkpt>
      <trkpt lat="48.556446" lon="9.628168">
        <ele>635.767240</ele>
        <time>2025-11-12T01:11:39.425Z</time>
      </trkpt>
      <trkpt lat="48.556739" lon="9.628182">
        <ele>633.423110</ele>
        <time>2025-11-12T01:11:42.097Z</time>
      </trkpt>
      <trkpt lat="48.557225" lon="9.628098">
        <ele>629.511491</ele>
        <time>2025-11-12T01:11:46.304Z</time>
      </trkpt>
      <trkpt lat="48.557608" lon="9.627932">
        <ele>626.325326</ele>
        <time>2025-11-12T01:11:49.629Z</time>
      </trkpt>
      <trkpt lat="48.558110" lon="9.627634">
        <ele>621.342125</ele>
        <time>2025-11-12T01:11:54.158Z</time>
      </trkpt>
      <trkpt lat="48.558986" lon="9.627340">
        <ele>612.531334</ele>
        <time>2025-11-12T01:12:01.890Z</time>
      </trkpt>
      <trkpt lat="48.559119" lon="9.627300">
        <ele>611.199832</ele>
        <time>2025-11-12T01:12:03.080Z</time>
      </trkpt>
      <trkpt lat="48.559242" lon="9.627276">
        <ele>609.982108</ele>
        <time>2025-11-12T01:12:04.181Z</time>
      </trkpt>
      <trkpt lat="48.559703" lon="9.627299">
        <ele>606.162836</ele>
        <time>2025-11-12T01:12:08.309Z</time>
      </trkpt>
      <trkpt lat="48.560349" lon="9.626963">
        <ele>602.041420</ele>
        <time>2025-11-12T01:12:14.608Z</time>
      </trkpt>
      <trkpt lat="48.560944" lon="9.626475">
        <ele>597.957398</ele>
        <time>2025-11-12T01:12:20.839Z</time>
      </trkpt>
      <trkpt lat="48.560986" lon="9.626435">
        <ele>597.657904</ele>
        <time>2025-11-12T01:12:21.301Z</time>
      </trkpt>
      <trkpt lat="48.561250" lon="9.626219">
        <ele>596.089979</ele>
        <time>2025-11-12T01:12:24.067Z</time>
      </trkpt>
      <trkpt lat="48.561343" lon="9.626106">
        <ele>595.663609</ele>
        <time>2025-11-12T01:12:25.184Z</time>
      </trkpt>
      <trkpt lat="48.561371" lon="9.626048">
        <ele>595.493858</ele>
        <time>2025-11-12T01:12:25.630Z</time>
      </trkpt>
      <trkpt lat="48.561443" lon="9.625684">
        <ele>594.595557</ele>
        <time>2025-11-12T01:12:28.030Z</time>
      </trkpt>
      <trkpt lat="48.561476" lon="9.625618">
        <ele>594.399969</ele>
        <time>2025-11-12T01:12:28.563Z</time>
      </trkpt>
      <trkpt lat="48.561687" lon="9.625325">
        <ele>593.376122</ele>
        <time>2025-11-12T01:12:31.424Z</time>
      </trkpt>
      <trkpt lat="48.561854" lon="9.625277">
        <ele>592.768773</ele>
        <time>2025-11-12T01:12:33.132Z</time>
      </trkpt>
      <trkpt lat="48.561934" lon="9.625273">
        <ele>592.482796</ele>
        <time>2025-11-12T01:12:33.947Z</time>
      </trkpt>
      <trkpt lat="48.562048" lon="9.625260">
        <ele>592.074344</ele>
        <time>2025-11-12T01:12:35.629Z</time>
      </trkpt>
      <trkpt lat="48.562082" lon="9.625278">
        <ele>591.945630</ele>
        <time>2025-11-12T01:12:36.710Z</time>
      </trkpt>
      <trkpt lat="48.562137" lon="9.625394">
        <ele>591.608225</ele>
        <time>2025-11-12T01:12:39.526Z</time>
      </trkpt>
      <trkpt lat="48.562244" lon="9.625721">
        <ele>590.745697</ele>
        <time>2025-11-12T01:12:42.083Z</time>
      </trkpt>
      <trkpt lat="48.562261" lon="9.625770">
        <ele>590.614883</ele>
        <time>2025-11-12T01:12:42.480Z</time>
      </trkpt>
      <trkpt lat="48.562375" lon="9.626086">
        <ele>589.921044</ele>
        <time>2025-11-12T01:12:45.134Z</time>
      </trkpt>
      <trkpt lat="48.562541" lon="9.626477">
        <ele>589.504520</ele>
        <time>2025-11-12T01:12:48.610Z</time>
      </trkpt>
      <trkpt lat="48.562719" lon="9.626802">
        <ele>589.126264</ele>
        <time>2025-11-12T01:12:51.864Z</time>
      </trkpt>
      <trkpt lat="48.562883" lon="9.627073">
        <ele>588.797002</ele>
        <time>2025-11-12T01:12:54.650Z</time>
      </trkpt>
      <trkpt lat="48.562955" lon="9.627188">
        <ele>588.655058</ele>
        <time>2025-11-12T01:12:55.865Z</time>
      </trkpt>
      <trkpt lat="48.563208" lon="9.627619">
        <ele>588.138495</ele>
        <time>2025-11-12T01:13:00.233Z</time>
      </trkpt>
      <trkpt lat="48.563329" lon="9.627853">
        <ele>587.872233</ele>
        <time>2025-11-12T01:13:02.806Z</time>
      </trkpt>
      <trkpt lat="48.563396" lon="9.627984">
        <ele>587.723786</ele>
        <time>2025-11-12T01:13:04.166Z</time>
      </trkpt>
      <trkpt lat="48.563561" lon="9.628412">
        <ele>587.837355</ele>
        <time>2025-11-12T01:13:08.255Z</time>
      </trkpt>
      <trkpt lat="48.563677" lon="9.628701">
        <ele>588.096766</ele>
        <time>2025-11-12T01:13:11.114Z</time>
      </trkpt>
      <trkpt lat="48.563909" lon="9.629185">
        <ele>588.555432</ele>
        <time>2025-11-12T01:13:19.105Z</time>
      </trkpt>
      <trkpt lat="48.564328" lon="9.629809">
        <ele>589.237687</ele>
        <time>2025-11-12T01:13:33.361Z</time>
      </trkpt>
      <trkpt lat="48.564569" lon="9.630164">
        <ele>589.628002</ele>
        <time>2025-11-12T01:13:41.902Z</time>
      </trkpt>
      <trkpt lat="48.565477" lon="9.631356">
        <ele>590.645654</ele>
        <time>2025-11-12T01:14:05.907Z</time>
      </trkpt>
      <trkpt lat="48.565580" lon="9.631510">
        <ele>590.766972</ele>
        <time>2025-11-12T01:14:07.493Z</time>
      </trkpt>
      <trkpt lat="48.565795" lon="9.632003">
        <ele>591.094113</ele>
        <time>2025-11-12T01:14:12.643Z</time>
      </trkpt>
      <trkpt lat="48.565895" lon="9.632297">
        <ele>590.976631</ele>
        <time>2025-11-12T01:14:16.445Z</time>
      </trkpt>
      <trkpt lat="48.566176" lon="9.632864">
        <ele>590.247957</ele>
        <time>2025-11-12T01:14:25.217Z</time>
      </trkpt>
      <trkpt lat="48.566530" lon="9.633558">
        <ele>589.346614</ele>
        <time>2025-11-12T01:14:32.195Z</time>
      </trkpt>
      <trkpt lat="48.566859" lon="9.634230">
        <ele>588.486755</ele>
        <time>2025-11-12T01:14:37.812Z</time>
      </trkpt>
      <trkpt lat="48.566936" lon="9.634452">
        <ele>587.820895</ele>
        <time>2025-11-12T01:14:39.523Z</time>
      </trkpt>
      <trkpt lat="48.567074" lon="9.635028">
        <ele>585.444413</ele>
        <time>2025-11-12T01:14:43.319Z</time>
      </trkpt>
      <trkpt lat="48.567294" lon="9.636113">
        <ele>581.042107</ele>
        <time>2025-11-12T01:14:49.970Z</time>
      </trkpt>
      <trkpt lat="48.567857" lon="9.639061">
        <ele>570.331523</ele>
        <time>2025-11-12T01:15:08.985Z</time>
      </trkpt>
      <trkpt lat="48.568113" lon="9.640383">
        <ele>566.951845</ele>
        <time>2025-11-12T01:15:17.736Z</time>
      </trkpt>
      <trkpt lat="48.568373" lon="9.641338">
        <ele>564.907389</ele>
        <time>2025-11-12T01:15:24.809Z</time>
      </trkpt>
      <trkpt lat="48.568527" lon="9.641807">
        <ele>563.870846</ele>
        <time>2025-11-12T01:15:28.632Z</time>
      </trkpt>
      <trkpt lat="48.568666" lon="9.642182">
        <ele>563.230910</ele>
        <time>2025-11-12T01:15:31.956Z</time>
      </trkpt>
      <trkpt lat="48.568892" lon="9.642739">
        <ele>562.757535</ele>
        <time>2025-11-12T01:15:37.335Z</time>
      </trkpt>
      <trkpt lat="48.569583" lon="9.644125">
        <ele>561.500261</ele>
        <time>2025-11-12T01:15:51.148Z</time>
      </trkpt>
      <trkpt lat="48.569652" lon="9.644259">
        <ele>561.383203</ele>
        <time>2025-11-12T01:15:52.546Z</time>
      </trkpt>
      <trkpt lat="48.569838" lon="9.644616">
        <ele>561.373125</ele>
        <time>2025-11-12T01:15:56.406Z</time>
      </trkpt>
      <trkpt lat="48.571547" lon="9.647913">
        <ele>561.669764</ele>
        <time>2025-11-12T01:16:39.638Z</time>
      </trkpt>
      <trkpt lat="48.571906" lon="9.648603">
        <ele>561.891595</ele>
        <time>2025-11-12T01:16:48.688Z</time>
      </trkpt>
      <trkpt lat="48.572183" lon="9.649144">
        <ele>562.491439</ele>
        <time>2025-11-12T01:16:56.593Z</time>
      </trkpt>
      <trkpt lat="48.572485" lon="9.649804">
        <ele>563.195093</ele>
        <time>2025-11-12T01:17:07.444Z</time>
      </trkpt>
      <trkpt lat="48.572693" lon="9.650340">
        <ele>563.739972</ele>
        <time>2025-11-12T01:17:17.825Z</time>
      </trkpt>
      <trkpt lat="48.573541" lon="9.653106">
        <ele>565.005713</ele>
        <time>2025-11-12T01:17:59.535Z</time>
      </trkpt>
      <trkpt lat="48.573574" lon="9.653218">
        <ele>565.045028</ele>
        <time>2025-11-12T01:18:00.369Z</time>
      </trkpt>
      <trkpt lat="48.574362" lon="9.655676">
        <ele>557.154551</ele>
        <time>2025-11-12T01:18:17.298Z</time>
      </trkpt>
      <trkpt lat="48.574541" lon="9.656218">
        <ele>555.721496</ele>
        <time>2025-11-12T01:18:21.104Z</time>
      </trkpt>
      <trkpt lat="48.574726" lon="9.656652">
        <ele>554.529635</ele>
        <time>2025-11-12T01:18:24.334Z</time>
      </trkpt>
      <trkpt lat="48.574773" lon="9.656753">
        <ele>554.244574</ele>
        <time>2025-11-12T01:18:25.108Z</time>
      </trkpt>
      <trkpt lat="48.575114" lon="9.657410">
        <ele>552.316845</ele>
        <time>2025-11-12T01:18:30.759Z</time>
      </trkpt>
      <trkpt lat="48.575457" lon="9.657951">
        <ele>550.909228</ele>
        <time>2025-11-12T01:18:35.884Z</time>
      </trkpt>
      <trkpt lat="48.575425" lon="9.658115">
        <ele>551.449701</ele>
        <time>2025-11-12T01:18:37.138Z</time>
      </trkpt>
      <trkpt lat="48.575426" lon="9.658226">
        <ele>551.800602</ele>
        <time>2025-11-12T01:18:38.025Z</time>
      </trkpt>
      <trkpt lat="48.575458" lon="9.658338">
        <ele>552.186231</ele>
        <time>2025-11-12T01:18:39.077Z</time>
      </trkpt>
      <trkpt lat="48.575618" lon="9.658704">
        <ele>553.572870</ele>
        <time>2025-11-12T01:18:44.514Z</time>
      </trkpt>
      <trkpt lat="48.575922" lon="9.659254">
        <ele>555.838228</ele>
        <time>2025-11-12T01:18:59.485Z</time>
      </trkpt>
      <trkpt lat="48.575732" lon="9.659575">
        <ele>557.199670</ele>
        <time>2025-11-12T01:19:14.158Z</time>
      </trkpt>
      <trkpt lat="48.575686" lon="9.659653">
        <ele>557.529952</ele>
        <time>2025-11-12T01:19:18.007Z</time>
      </trkpt>
      <trkpt lat="48.575392" lon="9.660185">
        <ele>560.429752</ele>
        <time>2025-11-12T01:19:46.349Z</time>
      </trkpt>
      <trkpt lat="48.575307" lon="9.660332">
        <ele>562.127034</ele>
        <time>2025-11-12T01:19:55.273Z</time>
      </trkpt>
      <trkpt lat="48.575215" lon="9.660492">
        <ele>563.969955</ele>
        <time>2025-11-12T01:20:05.470Z</time>
      </trkpt>
      <trkpt lat="48.575123" lon="9.660597">
        <ele>565.484788</ele>
        <time>2025-11-12T01:20:14.168Z</time>
      </trkpt>
      <trkpt lat="48.574903" lon="9.660680">
        <ele>568.464298</ele>
        <time>2025-11-12T01:20:31.557Z</time>
      </trkpt>
      <trkpt lat="48.574718" lon="9.660680">
        <ele>570.895205</ele>
        <time>2025-11-12T01:20:46.009Z</time>
      </trkpt>
      <trkpt lat="48.574567" lon="9.660591">
        <ele>573.024889</ele>
        <time>2025-11-12T01:20:58.615Z</time>
      </trkpt>
      <trkpt lat="48.574522" lon="9.660528">
        <ele>573.830892</ele>
        <time>2025-11-12T01:21:03.399Z</time>
      </trkpt>
      <trkpt lat="48.574463" lon="9.660342">
        <ele>575.624219</ele>
        <time>2025-11-12T01:21:14.024Z</time>
      </trkpt>
      <trkpt lat="48.574368" lon="9.659641">
        <ele>581.845286</ele>
        <time>2025-11-12T01:21:50.031Z</time>
      </trkpt>
      <trkpt lat="48.574294" lon="9.659344">
        <ele>584.660878</ele>
        <time>2025-11-12T01:22:05.526Z</time>
      </trkpt>
      <trkpt lat="48.574108" lon="9.657991">
        <ele>597.085128</ele>
        <time>2025-11-12T01:23:13.499Z</time>
      </trkpt>
      <trkpt lat="48.573367" lon="9.655616">
        <ele>617.503074</ele>
        <time>2025-11-12T01:25:25.057Z</time>
      </trkpt>
      <trkpt lat="48.572823" lon="9.654074">
        <ele>627.144659</ele>
        <time>2025-11-12T01:26:20.014Z</time>
      </trkpt>
      <trkpt lat="48.572550" lon="9.653470">
        <ele>628.833602</ele>
        <time>2025-11-12T01:26:33.983Z</time>
      </trkpt>
      <trkpt lat="48.572027" lon="9.652495">
        <ele>631.731715</ele>
        <time>2025-11-12T01:27:00.082Z</time>
      </trkpt>
      <trkpt lat="48.571583" lon="9.651790">
        <ele>633.145426</ele>
        <time>2025-11-12T01:27:18.320Z</time>
      </trkpt>
      <trkpt lat="48.571365" lon="9.651369">
        <ele>633.785783</ele>
        <time>2025-11-12T01:27:28.245Z</time>
      </trkpt>
      <trkpt lat="48.570842" lon="9.650218">
        <ele>635.458298</ele>
        <time>2025-11-12T01:27:54.260Z</time>
      </trkpt>
      <trkpt lat="48.570543" lon="9.649574">
        <ele>636.127357</ele>
        <time>2025-11-12T01:28:05.044Z</time>
      </trkpt>
      <trkpt lat="48.570181" lon="9.648925">
        <ele>636.834597</ele>
        <time>2025-11-12T01:28:18.170Z</time>
      </trkpt>
      <trkpt lat="48.569971" lon="9.648601">
        <ele>637.212488</ele>
        <time>2025-11-12T01:28:26.489Z</time>
      </trkpt>
      <trkpt lat="48.569672" lon="9.648224">
        <ele>637.702817</ele>
        <time>2025-11-12T01:28:36.863Z</time>
      </trkpt>
      <trkpt lat="48.569293" lon="9.647812">
        <ele>639.430450</ele>
        <time>2025-11-12T01:28:50.230Z</time>
      </trkpt>
      <trkpt lat="48.568975" lon="9.647529">
        <ele>640.907847</ele>
        <time>2025-11-12T01:28:59.985Z</time>
      </trkpt>
      <trkpt lat="48.568593" lon="9.647300">
        <ele>642.553045</ele>
        <time>2025-11-12T01:29:13.947Z</time>
      </trkpt>
      <trkpt lat="48.568096" lon="9.647094">
        <ele>644.616179</ele>
        <time>2025-11-12T01:29:35.388Z</time>
      </trkpt>
      <trkpt lat="48.567467" lon="9.646846">
        <ele>652.029415</ele>
        <time>2025-11-12T01:30:11.767Z</time>
      </trkpt>
      <trkpt lat="48.565923" lon="9.646067">
        <ele>671.504531</ele>
        <time>2025-11-12T01:32:24.189Z</time>
      </trkpt>
      <trkpt lat="48.565838" lon="9.645915">
        <ele>672.831376</ele>
        <time>2025-11-12T01:32:34.578Z</time>
      </trkpt>
      <trkpt lat="48.565553" lon="9.644462">
        <ele>682.935813</ele>
        <time>2025-11-12T01:33:35.194Z</time>
      </trkpt>
      <trkpt lat="48.565541" lon="9.644184">
        <ele>684.793316</ele>
        <time>2025-11-12T01:33:42.344Z</time>
      </trkpt>
      <trkpt lat="48.565562" lon="9.643872">
        <ele>686.118902</ele>
        <time>2025-11-12T01:33:49.374Z</time>
      </trkpt>
      <trkpt lat="48.565614" lon="9.643607">
        <ele>686.786156</ele>
        <time>2025-11-12T01:33:54.947Z</time>
      </trkpt>
      <trkpt lat="48.565847" lon="9.642821">
        <ele>688.865269</ele>
        <time>2025-11-12T01:34:10.039Z</time>
      </trkpt>
      <trkpt lat="48.565947" lon="9.642393">
        <ele>689.960983</ele>
        <time>2025-11-12T01:34:18.024Z</time>
      </trkpt>
      <trkpt lat="48.565992" lon="9.641997">
        <ele>690.930931</ele>
        <time>2025-11-12T01:34:26.401Z</time>
      </trkpt>
      <trkpt lat="48.566001" lon="9.641663">
        <ele>691.737885</ele>
        <time>2025-11-12T01:34:34.678Z</time>
      </trkpt>
      <trkpt lat="48.565974" lon="9.641378">
        <ele>692.612840</ele>
        <time>2025-11-12T01:34:42.800Z</time>
      </trkpt>
      <trkpt lat="48.565846" lon="9.640636">
        <ele>696.244040</ele>
        <time>2025-11-12T01:35:08.527Z</time>
      </trkpt>
      <trkpt lat="48.565551" lon="9.639264">
        <ele>703.075580</ele>
        <time>2025-11-12T01:35:59.593Z</time>
      </trkpt>
      <trkpt lat="48.565385" lon="9.638063">
        <ele>708.601991</ele>
        <time>2025-11-12T01:36:36.987Z</time>
      </trkpt>
      <trkpt lat="48.565373" lon="9.637834">
        <ele>709.607933</ele>
        <time>2025-11-12T01:36:43.708Z</time>
      </trkpt>
      <trkpt lat="48.565341" lon="9.637790">
        <ele>709.894226</ele>
        <time>2025-11-12T01:36:45.544Z</time>
      </trkpt>
      <trkpt lat="48.565306" lon="9.637805">
        <ele>710.134964</ele>
        <time>2025-11-12T01:36:47.180Z</time>
      </trkpt>
      <trkpt lat="48.565283" lon="9.637896">
        <ele>710.561533</ele>
        <time>2025-11-12T01:36:50.024Z</time>
      </trkpt>
      <trkpt lat="48.565356" lon="9.638413">
        <ele>712.876466</ele>
        <time>2025-11-12T01:37:05.577Z</time>
      </trkpt>
      <trkpt lat="48.565387" lon="9.639030">
        <ele>715.586117</ele>
        <time>2025-11-12T01:37:24.857Z</time>
      </trkpt>
      <trkpt lat="48.565412" lon="9.640026">
        <ele>720.769447</ele>
        <time>2025-11-12T01:37:57.411Z</time>
      </trkpt>
      <trkpt lat="48.565409" lon="9.641034">
        <ele>726.416123</ele>
        <time>2025-11-12T01:38:30.811Z</time>
      </trkpt>
      <trkpt lat="48.565377" lon="9.641515">
        <ele>729.124173</ele>
        <time>2025-11-12T01:38:48.953Z</time>
      </trkpt>
      <trkpt lat="48.565248" lon="9.642116">
        <ele>732.665519</ele>
        <time>2025-11-12T01:39:15.455Z</time>
      </trkpt>
      <trkpt lat="48.564868" lon="9.642990">
        <ele>738.551509</ele>
        <time>2025-11-12T01:40:01.205Z</time>
      </trkpt>
      <trkpt lat="48.564743" lon="9.643328">
        <ele>740.730848</ele>
        <time>2025-11-12T01:40:17.250Z</time>
      </trkpt>
      <trkpt lat="48.564581" lon="9.643914">
        <ele>744.305376</ele>
        <time>2025-11-12T01:40:40.710Z</time>
      </trkpt>
      <trkpt lat="48.564543" lon="9.644275">
        <ele>746.362814</ele>
        <time>2025-11-12T01:40:51.543Z</time>
      </trkpt>
      <trkpt lat="48.564582" lon="9.645450">
        <ele>748.185872</ele>
        <time>2025-11-12T01:41:12.494Z</time>
      </trkpt>
      <trkpt lat="48.564567" lon="9.646110">
        <ele>748.625527</ele>
        <time>2025-11-12T01:41:19.694Z</time>
      </trkpt>
      <trkpt lat="48.564465" lon="9.647008">
        <ele>749.232116</ele>
        <time>2025-11-12T01:41:30.998Z</time>
      </trkpt>
      <trkpt lat="48.564308" lon="9.647791">
        <ele>750.888282</ele>
        <time>2025-11-12T01:41:45.537Z</time>
      </trkpt>
      <trkpt lat="48.564208" lon="9.648091">
        <ele>751.696449</ele>
        <time>2025-11-12T01:41:51.498Z</time>
      </trkpt>
      <trkpt lat="48.563466" lon="9.649928">
        <ele>757.093471</ele>
        <time>2025-11-12T01:42:40.759Z</time>
      </trkpt>
      <trkpt lat="48.562474" lon="9.650638">
        <ele>761.972854</ele>
        <time>2025-11-12T01:43:19.359Z</time>
      </trkpt>
      <trkpt lat="48.562267" lon="9.650711">
        <ele>762.917756</ele>
        <time>2025-11-12T01:43:26.019Z</time>
      </trkpt>
      <trkpt lat="48.561967" lon="9.650935">
        <ele>763.840610</ele>
        <time>2025-11-12T01:43:35.500Z</time>
      </trkpt>
      <trkpt lat="48.561424" lon="9.651341">
        <ele>763.604816</ele>
        <time>2025-11-12T01:43:50.795Z</time>
      </trkpt>
      <trkpt lat="48.561077" lon="9.651672">
        <ele>763.445104</ele>
        <time>2025-11-12T01:43:58.013Z</time>
      </trkpt>
      <trkpt lat="48.560918" lon="9.651830">
        <ele>763.371038</ele>
        <time>2025-11-12T01:44:01.075Z</time>
      </trkpt>
      <trkpt lat="48.560820" lon="9.651878">
        <ele>763.330943</ele>
        <time>2025-11-12T01:44:02.700Z</time>
      </trkpt>
      <trkpt lat="48.560600" lon="9.651969">
        <ele>763.242169</ele>
        <time>2025-11-12T01:44:06.141Z</time>
      </trkpt>
      <trkpt lat="48.559753" lon="9.652302">
        <ele>759.969534</ele>
        <time>2025-11-12T01:44:18.362Z</time>
      </trkpt>
      <trkpt lat="48.559277" lon="9.652551">
        <ele>757.753042</ele>
        <time>2025-11-12T01:44:25.231Z</time>
      </trkpt>
      <trkpt lat="48.558594" lon="9.652742">
        <ele>754.617659</ele>
        <time>2025-11-12T01:44:34.600Z</time>
      </trkpt>
      <trkpt lat="48.557781" lon="9.653034">
        <ele>750.435470</ele>
        <time>2025-11-12T01:44:45.931Z</time>
      </trkpt>
      <trkpt lat="48.557274" lon="9.653131">
        <ele>747.877834</ele>
        <time>2025-11-12T01:44:52.918Z</time>
      </trkpt>
      <trkpt lat="48.556303" lon="9.653184">
        <ele>742.777126</ele>
        <time>2025-11-12T01:45:05.878Z</time>
      </trkpt>
      <trkpt lat="48.555761" lon="9.653115">
        <ele>739.855933</ele>
        <time>2025-11-12T01:45:13.016Z</time>
      </trkpt>
      <trkpt lat="48.555203" lon="9.653188">
        <ele>736.847911</ele>
        <time>2025-11-12T01:45:20.439Z</time>
      </trkpt>
      <trkpt lat="48.553540" lon="9.652784">
        <ele>730.645464</ele>
        <time>2025-11-12T01:45:44.238Z</time>
      </trkpt>
      <trkpt lat="48.553405" lon="9.653822">
        <ele>729.829069</ele>
        <time>2025-11-12T01:45:52.300Z</time>
      </trkpt>
      <trkpt lat="48.553399" lon="9.654236">
        <ele>729.707744</ele>
        <time>2025-11-12T01:45:55.736Z</time>
      </trkpt>
      <trkpt lat="48.553440" lon="9.654556">
        <ele>729.612249</ele>
        <time>2025-11-12T01:45:58.543Z</time>
      </trkpt>
      <trkpt lat="48.553515" lon="9.654884">
        <ele>729.510578</ele>
        <time>2025-11-12T01:46:01.702Z</time>
      </trkpt>
      <trkpt lat="48.553656" lon="9.655270">
        <ele>729.381408</ele>
        <time>2025-11-12T01:46:06.637Z</time>
      </trkpt>
      <trkpt lat="48.554052" lon="9.656006">
        <ele>730.188704</ele>
        <time>2025-11-12T01:46:20.444Z</time>
      </trkpt>
      <trkpt lat="48.554141" lon="9.656237">
        <ele>730.612726</ele>
        <time>2025-11-12T01:46:24.798Z</time>
      </trkpt>
      <trkpt lat="48.554176" lon="9.656424">
        <ele>730.921018</ele>
        <time>2025-11-12T01:46:28.627Z</time>
      </trkpt>
      <trkpt lat="48.554180" lon="9.656593">
        <ele>731.189293</ele>
        <time>2025-11-12T01:46:31.928Z</time>
      </trkpt>
      <trkpt lat="48.554104" lon="9.657167">
        <ele>732.117935</ele>
        <time>2025-11-12T01:46:40.882Z</time>
      </trkpt>
      <trkpt lat="48.554151" lon="9.657566">
        <ele>732.760861</ele>
        <time>2025-11-12T01:46:47.575Z</time>
      </trkpt>
      <trkpt lat="48.554246" lon="9.657870">
        <ele>733.294177</ele>
        <time>2025-11-12T01:46:53.815Z</time>
      </trkpt>
      <trkpt lat="48.554446" lon="9.658543">
        <ele>734.961745</ele>
        <time>2025-11-12T01:47:08.611Z</time>
      </trkpt>
      <trkpt lat="48.554461" lon="9.658745">
        <ele>735.466218</ele>
        <time>2025-11-12T01:47:12.759Z</time>
      </trkpt>
      <trkpt lat="48.554404" lon="9.659232">
        <ele>736.693617</ele>
        <time>2025-11-12T01:47:22.357Z</time>
      </trkpt>
      <trkpt lat="48.554266" lon="9.659959">
        <ele>738.570634</ele>
        <time>2025-11-12T01:47:37.034Z</time>
      </trkpt>
      <trkpt lat="48.554262" lon="9.660314">
        <ele>739.451813</ele>
        <time>2025-11-12T01:47:44.614Z</time>
      </trkpt>
      <trkpt lat="48.554316" lon="9.661096">
        <ele>741.033741</ele>
        <time>2025-11-12T01:48:01.997Z</time>
      </trkpt>
      <trkpt lat="48.554446" lon="9.663388">
        <ele>744.742920</ele>
        <time>2025-11-12T01:48:39.176Z</time>
      </trkpt>
      <trkpt lat="48.554398" lon="9.664501">
        <ele>743.893642</ele>
        <time>2025-11-12T01:48:48.487Z</time>
      </trkpt>
      <trkpt lat="48.554419" lon="9.664823">
        <ele>743.647272</ele>
        <time>2025-11-12T01:48:50.857Z</time>
      </trkpt>
      <trkpt lat="48.554516" lon="9.665422">
        <ele>743.177720</ele>
        <time>2025-11-12T01:48:55.213Z</time>
      </trkpt>
      <trkpt lat="48.554536" lon="9.665530">
        <ele>743.092327</ele>
        <time>2025-11-12T01:48:55.995Z</time>
      </trkpt>
      <trkpt lat="48.554767" lon="9.666232">
        <ele>742.496460</ele>
        <time>2025-11-12T01:49:01.522Z</time>
      </trkpt>
      <trkpt lat="48.555698" lon="9.668193">
        <ele>740.669222</ele>
        <time>2025-11-12T01:49:20.868Z</time>
      </trkpt>
      <trkpt lat="48.555965" lon="9.668982">
        <ele>740.714345</ele>
        <time>2025-11-12T01:49:29.546Z</time>
      </trkpt>
      <trkpt lat="48.556079" lon="9.669597">
        <ele>740.779930</ele>
        <time>2025-11-12T01:49:36.287Z</time>
      </trkpt>
      <trkpt lat="48.556217" lon="9.670928">
        <ele>740.928898</ele>
        <time>2025-11-12T01:49:51.668Z</time>
      </trkpt>
      <trkpt lat="48.556218" lon="9.670931">
        <ele>740.929595</ele>
        <time>2025-11-12T01:49:51.703Z</time>
      </trkpt>
      <trkpt lat="48.556739" lon="9.672370">
        <ele>741.270110</ele>
        <time>2025-11-12T01:50:08.854Z</time>
      </trkpt>
      <trkpt lat="48.556940" lon="9.673216">
        <ele>741.456714</ele>
        <time>2025-11-12T01:50:18.251Z</time>
      </trkpt>
      <trkpt lat="48.557046" lon="9.674114">
        <ele>741.248932</ele>
        <time>2025-11-12T01:50:28.131Z</time>
      </trkpt>
      <trkpt lat="48.557052" lon="9.674669">
        <ele>741.101216</ele>
        <time>2025-11-12T01:50:33.596Z</time>
      </trkpt>
      <trkpt lat="48.557088" lon="9.675153">
        <ele>740.971603</ele>
        <time>2025-11-12T01:50:38.043Z</time>
      </trkpt>
      <trkpt lat="48.557064" lon="9.675354">
        <ele>740.917250</ele>
        <time>2025-11-12T01:50:39.800Z</time>
      </trkpt>
      <trkpt lat="48.557186" lon="9.676607">
        <ele>740.386010</ele>
        <time>2025-11-12T01:50:49.367Z</time>
      </trkpt>
      <trkpt lat="48.557229" lon="9.677395">
        <ele>739.933290</ele>
        <time>2025-11-12T01:50:55.118Z</time>
      </trkpt>
      <trkpt lat="48.557226" lon="9.677849">
        <ele>739.673328</ele>
        <time>2025-11-12T01:50:58.738Z</time>
      </trkpt>
      <trkpt lat="48.557276" lon="9.678095">
        <ele>739.525983</ele>
        <time>2025-11-12T01:51:01.069Z</time>
      </trkpt>
      <trkpt lat="48.557340" lon="9.678218">
        <ele>739.436400</ele>
        <time>2025-11-12T01:51:02.538Z</time>
      </trkpt>
      <trkpt lat="48.557206" lon="9.678442">
        <ele>739.263520</ele>
        <time>2025-11-12T01:51:05.729Z</time>
      </trkpt>
      <trkpt lat="48.557072" lon="9.678656">
        <ele>739.462989</ele>
        <time>2025-11-12T01:51:09.117Z</time>
      </trkpt>
      <trkpt lat="48.556784" lon="9.679232">
        <ele>740.601802</ele>
        <time>2025-11-12T01:51:19.444Z</time>
      </trkpt>
      <trkpt lat="48.556747" lon="9.679362">
        <ele>740.825043</ele>
        <time>2025-11-12T01:51:21.868Z</time>
      </trkpt>
      <trkpt lat="48.556584" lon="9.680106">
        <ele>742.061385</ele>
        <time>2025-11-12T01:51:35.995Z</time>
      </trkpt>
      <trkpt lat="48.555767" lon="9.681417">
        <ele>744.396490</ele>
        <time>2025-11-12T01:52:09.010Z</time>
      </trkpt>
      <trkpt lat="48.555542" lon="9.681700">
        <ele>744.846223</ele>
        <time>2025-11-12T01:52:16.171Z</time>
      </trkpt>
      <trkpt lat="48.555197" lon="9.681984">
        <ele>745.449758</ele>
        <time>2025-11-12T01:52:24.579Z</time>
      </trkpt>
      <trkpt lat="48.554256" lon="9.682737">
        <ele>745.067861</ele>
        <time>2025-11-12T01:52:38.400Z</time>
      </trkpt>
      <trkpt lat="48.553312" lon="9.683757">
        <ele>742.581743</ele>
        <time>2025-11-12T01:52:50.369Z</time>
      </trkpt>
      <trkpt lat="48.552680" lon="9.684656">
        <ele>740.162494</ele>
        <time>2025-11-12T01:52:59.194Z</time>
      </trkpt>
      <trkpt lat="48.551796" lon="9.685863">
        <ele>736.897131</ele>
        <time>2025-11-12T01:53:11.559Z</time>
      </trkpt>
      <trkpt lat="48.551214" lon="9.686653">
        <ele>735.314626</ele>
        <time>2025-11-12T01:53:19.970Z</time>
      </trkpt>
      <trkpt lat="48.550634" lon="9.687586">
        <ele>733.604077</ele>
        <time>2025-11-12T01:53:29.605Z</time>
      </trkpt>
      <trkpt lat="48.550069" lon="9.688678">
        <ele>732.882752</ele>
        <time>2025-11-12T01:53:40.526Z</time>
      </trkpt>
      <trkpt lat="48.549738" lon="9.689436">
        <ele>732.410152</ele>
        <time>2025-11-12T01:53:48.397Z</time>
      </trkpt>
      <trkpt lat="48.548598" lon="9.691947">
        <ele>732.386522</ele>
        <time>2025-11-12T01:54:19.250Z</time>
      </trkpt>
      <trkpt lat="48.548427" lon="9.692216">
        <ele>732.518343</ele>
        <time>2025-11-12T01:54:23.282Z</time>
      </trkpt>
      <trkpt lat="48.548207" lon="9.692466">
        <ele>732.703152</ele>
        <time>2025-11-12T01:54:27.807Z</time>
      </trkpt>
      <trkpt lat="48.547502" lon="9.692965">
        <ele>733.225799</ele>
        <time>2025-11-12T01:54:41.090Z</time>
      </trkpt>
      <trkpt lat="48.546930" lon="9.693079">
        <ele>733.625153</ele>
        <time>2025-11-12T01:54:51.594Z</time>
      </trkpt>
      <trkpt lat="48.544756" lon="9.693383">
        <ele>736.702207</ele>
        <time>2025-11-12T01:55:36.135Z</time>
      </trkpt>
      <trkpt lat="48.541605" lon="9.693847">
        <ele>742.292216</ele>
        <time>2025-11-12T01:56:47.537Z</time>
      </trkpt>
      <trkpt lat="48.540496" lon="9.694175">
        <ele>742.356986</ele>
        <time>2025-11-12T01:57:07.136Z</time>
      </trkpt>
      <trkpt lat="48.539895" lon="9.694394">
        <ele>742.365517</ele>
        <time>2025-11-12T01:57:14.700Z</time>
      </trkpt>
      <trkpt lat="48.539452" lon="9.694606">
        <ele>741.609874</ele>
        <time>2025-11-12T01:57:19.880Z</time>
      </trkpt>
      <trkpt lat="48.538120" lon="9.695513">
        <ele>738.771938</ele>
        <time>2025-11-12T01:57:35.589Z</time>
      </trkpt>
      <trkpt lat="48.537162" lon="9.696395">
        <ele>737.169060</ele>
        <time>2025-11-12T01:57:48.393Z</time>
      </trkpt>
      <trkpt lat="48.536968" lon="9.696604">
        <ele>736.828618</ele>
        <time>2025-11-12T01:57:51.300Z</time>
      </trkpt>
      <trkpt lat="48.536168" lon="9.697468">
        <ele>735.863764</ele>
        <time>2025-11-12T01:58:03.750Z</time>
      </trkpt>
      <trkpt lat="48.535081" lon="9.698571">
        <ele>734.997098</ele>
        <time>2025-11-12T01:58:20.792Z</time>
      </trkpt>
      <trkpt lat="48.534386" lon="9.699098">
        <ele>734.709587</ele>
        <time>2025-11-12T01:58:30.728Z</time>
      </trkpt>
      <trkpt lat="48.534331" lon="9.699151">
        <ele>734.685467</ele>
        <time>2025-11-12T01:58:31.586Z</time>
      </trkpt>
      <trkpt lat="48.534094" lon="9.699453">
        <ele>734.570824</ele>
        <time>2025-11-12T01:58:35.690Z</time>
      </trkpt>
      <trkpt lat="48.533966" lon="9.699664">
        <ele>734.500771</ele>
        <time>2025-11-12T01:58:38.307Z</time>
      </trkpt>
      <trkpt lat="48.533847" lon="9.699903">
        <ele>734.427567</ele>
        <time>2025-11-12T01:58:41.131Z</time>
      </trkpt>
      <trkpt lat="48.533788" lon="9.700075">
        <ele>734.380146</ele>
        <time>2025-11-12T01:58:43.047Z</time>
      </trkpt>
      <trkpt lat="48.533658" lon="9.700515">
        <ele>734.770615</ele>
        <time>2025-11-12T01:58:47.976Z</time>
      </trkpt>
      <trkpt lat="48.533434" lon="9.702200">
        <ele>736.319057</ele>
        <time>2025-11-12T01:59:10.914Z</time>
      </trkpt>
      <trkpt lat="48.533385" lon="9.702789">
        <ele>736.917440</ele>
        <time>2025-11-12T01:59:20.669Z</time>
      </trkpt>
      <trkpt lat="48.533353" lon="9.703964">
        <ele>739.856978</ele>
        <time>2025-11-12T01:59:41.203Z</time>
      </trkpt>
      <trkpt lat="48.533305" lon="9.704461">
        <ele>741.112435</ele>
        <time>2025-11-12T01:59:51.183Z</time>
      </trkpt>
      <trkpt lat="48.533192" lon="9.704964">
        <ele>742.440134</ele>
        <time>2025-11-12T02:00:02.608Z</time>
      </trkpt>
      <trkpt lat="48.533044" lon="9.705410">
        <ele>743.721478</ele>
        <time>2025-11-12T02:00:14.182Z</time>
      </trkpt>
      <trkpt lat="48.532335" lon="9.706902">
        <ele>750.296375</ele>
        <time>2025-11-12T02:01:01.835Z</time>
      </trkpt>
      <trkpt lat="48.532061" lon="9.707470">
        <ele>752.812378</ele>
        <time>2025-11-12T02:01:18.854Z</time>
      </trkpt>
      <trkpt lat="48.531701" lon="9.708051">
        <ele>753.984591</ele>
        <time>2025-11-12T02:01:34.874Z</time>
      </trkpt>
      <trkpt lat="48.531395" lon="9.708545">
        <ele>754.662864</ele>
        <time>2025-11-12T02:01:45.694Z</time>
      </trkpt>
      <trkpt lat="48.530946" lon="9.709400">
        <ele>755.757053</ele>
        <time>2025-11-12T02:01:57.113Z</time>
      </trkpt>
      <trkpt lat="48.530753" lon="9.709903">
        <ele>755.730449</ele>
        <time>2025-11-12T02:02:01.584Z</time>
      </trkpt>
      <trkpt lat="48.530563" lon="9.710604">
        <ele>754.860292</ele>
        <time>2025-11-12T02:02:07.212Z</time>
      </trkpt>
      <trkpt lat="48.530479" lon="9.711125">
        <ele>754.244278</ele>
        <time>2025-11-12T02:02:11.114Z</time>
      </trkpt>
      <trkpt lat="48.530415" lon="9.711994">
        <ele>753.239804</ele>
        <time>2025-11-12T02:02:17.436Z</time>
      </trkpt>
      <trkpt lat="48.530428" lon="9.712659">
        <ele>752.281363</ele>
        <time>2025-11-12T02:02:22.249Z</time>
      </trkpt>
      <trkpt lat="48.530450" lon="9.713792">
        <ele>750.429765</ele>
        <time>2025-11-12T02:02:30.382Z</time>
      </trkpt>
      <trkpt lat="48.530421" lon="9.714387">
        <ele>749.455178</ele>
        <time>2025-11-12T02:02:34.539Z</time>
      </trkpt>
      <trkpt lat="48.530402" lon="9.714703">
        <ele>748.936856</ele>
        <time>2025-11-12T02:02:36.706Z</time>
      </trkpt>
      <trkpt lat="48.530278" lon="9.716167">
        <ele>745.685765</ele>
        <time>2025-11-12T02:02:46.599Z</time>
      </trkpt>
      <trkpt lat="48.530226" lon="9.716572">
        <ele>744.724904</ele>
        <time>2025-11-12T02:02:49.333Z</time>
      </trkpt>
      <trkpt lat="48.530082" lon="9.717275">
        <ele>743.010988</ele>
        <time>2025-11-12T02:02:54.185Z</time>
      </trkpt>
      <trkpt lat="48.529552" lon="9.718634">
        <ele>738.182690</ele>
        <time>2025-11-12T02:03:04.250Z</time>
      </trkpt>
      <trkpt lat="48.529299" lon="9.719345">
        <ele>735.536949</ele>
        <time>2025-11-12T02:03:09.251Z</time>
      </trkpt>
      <trkpt lat="48.529054" lon="9.720055">
        <ele>732.855505</ele>
        <time>2025-11-12T02:03:14.136Z</time>
      </trkpt>
      <trkpt lat="48.528498" lon="9.722424">
        <ele>723.299767</ele>
        <time>2025-11-12T02:03:29.425Z</time>
      </trkpt>
      <trkpt lat="48.528256" lon="9.723313">
        <ele>720.693933</ele>
        <time>2025-11-12T02:03:35.473Z</time>
      </trkpt>
      <trkpt lat="48.527989" lon="9.724035">
        <ele>718.549353</ele>
        <time>2025-11-12T02:03:40.866Z</time>
      </trkpt>
      <trkpt lat="48.527487" lon="9.725257">
        <ele>715.197263</ele>
        <time>2025-11-12T02:03:50.642Z</time>
      </trkpt>
      <trkpt lat="48.527211" lon="9.725967">
        <ele>713.807761</ele>
        <time>2025-11-12T02:03:56.359Z</time>
      </trkpt>
      <trkpt lat="48.526512" lon="9.727755">
        <ele>710.925270</ele>
        <time>2025-11-12T02:04:11.022Z</time>
      </trkpt>
      <trkpt lat="48.526277" lon="9.728228">
        <ele>710.539868</ele>
        <time>2025-11-12T02:04:15.461Z</time>
      </trkpt>
      <trkpt lat="48.525995" lon="9.728647">
        <ele>710.150499</ele>
        <time>2025-11-12T02:04:20.278Z</time>
      </trkpt>
      <trkpt lat="48.525677" lon="9.728992">
        <ele>709.765126</ele>
        <time>2025-11-12T02:04:25.615Z</time>
      </trkpt>
      <trkpt lat="48.525265" lon="9.729321">
        <ele>710.060874</ele>
        <time>2025-11-12T02:04:33.616Z</time>
      </trkpt>
      <trkpt lat="48.524679" lon="9.729734">
        <ele>711.426031</ele>
        <time>2025-11-12T02:04:48.031Z</time>
      </trkpt>
      <trkpt lat="48.524573" lon="9.729805">
        <ele>711.670824</ele>
        <time>2025-11-12T02:04:50.941Z</time>
      </trkpt>
      <trkpt lat="48.524416" lon="9.729935">
        <ele>712.048813</ele>
        <time>2025-11-12T02:04:55.552Z</time>
      </trkpt>
      <trkpt lat="48.524032" lon="9.730279">
        <ele>712.991367</ele>
        <time>2025-11-12T02:05:07.774Z</time>
      </trkpt>
      <trkpt lat="48.523777" lon="9.730617">
        <ele>713.771080</ele>
        <time>2025-11-12T02:05:17.596Z</time>
      </trkpt>
      <trkpt lat="48.522901" lon="9.732005">
        <ele>716.918109</ele>
        <time>2025-11-12T02:05:50.367Z</time>
      </trkpt>
      <trkpt lat="48.522834" lon="9.732116">
        <ele>717.164620</ele>
        <time>2025-11-12T02:05:52.431Z</time>
      </trkpt>
      <trkpt lat="48.522288" lon="9.732989">
        <ele>718.428104</ele>
        <time>2025-11-12T02:06:08.074Z</time>
      </trkpt>
      <trkpt lat="48.521874" lon="9.733578">
        <ele>719.090679</ele>
        <time>2025-11-12T02:06:18.812Z</time>
      </trkpt>
      <trkpt lat="48.521422" lon="9.734034">
        <ele>719.723875</ele>
        <time>2025-11-12T02:06:29.801Z</time>
      </trkpt>
      <trkpt lat="48.521164" lon="9.734363">
        <ele>719.689652</ele>
        <time>2025-11-12T02:06:36.506Z</time>
      </trkpt>
      <trkpt lat="48.520556" lon="9.735289">
        <ele>718.753042</ele>
        <time>2025-11-12T02:06:49.317Z</time>
      </trkpt>
      <trkpt lat="48.519935" lon="9.736112">
        <ele>717.640746</ele>
        <time>2025-11-12T02:06:57.900Z</time>
      </trkpt>
      <trkpt lat="48.519753" lon="9.736341">
        <ele>716.754605</ele>
        <time>2025-11-12T02:07:00.205Z</time>
      </trkpt>
      <trkpt lat="48.519307" lon="9.736813">
        <ele>714.717425</ele>
        <time>2025-11-12T02:07:05.406Z</time>
      </trkpt>
      <trkpt lat="48.518694" lon="9.737364">
        <ele>712.049044</ele>
        <time>2025-11-12T02:07:12.318Z</time>
      </trkpt>
      <trkpt lat="48.517718" lon="9.738261">
        <ele>709.286113</ele>
        <time>2025-11-12T02:07:24.300Z</time>
      </trkpt>
      <trkpt lat="48.517586" lon="9.738450">
        <ele>708.904294</ele>
        <time>2025-11-12T02:07:26.375Z</time>
      </trkpt>
      <trkpt lat="48.517497" lon="9.738683">
        <ele>708.530379</ele>
        <time>2025-11-12T02:07:28.435Z</time>
      </trkpt>
      <trkpt lat="48.517130" lon="9.739777">
        <ele>707.056791</ele>
        <time>2025-11-12T02:07:38.159Z</time>
      </trkpt>
      <trkpt lat="48.516919" lon="9.740488">
        <ele>706.379401</ele>
        <time>2025-11-12T02:07:44.419Z</time>
      </trkpt>
      <trkpt lat="48.516565" lon="9.741944">
        <ele>705.024562</ele>
        <time>2025-11-12T02:07:56.358Z</time>
      </trkpt>
      <trkpt lat="48.516448" lon="9.742321">
        <ele>704.617785</ele>
        <time>2025-11-12T02:07:59.500Z</time>
      </trkpt>
      <trkpt lat="48.516340" lon="9.742577">
        <ele>704.321236</ele>
        <time>2025-11-12T02:08:01.776Z</time>
      </trkpt>
      <trkpt lat="48.515780" lon="9.743818">
        <ele>702.854073</ele>
        <time>2025-11-12T02:08:13.047Z</time>
      </trkpt>
      <trkpt lat="48.515387" lon="9.744675">
        <ele>702.513333</ele>
        <time>2025-11-12T02:08:21.369Z</time>
      </trkpt>
      <trkpt lat="48.515448" lon="9.744732">
        <ele>702.528391</ele>
        <time>2025-11-12T02:08:22.329Z</time>
      </trkpt>
      <trkpt lat="48.515444" lon="9.744893">
        <ele>702.550792</ele>
        <time>2025-11-12T02:08:23.772Z</time>
      </trkpt>
      <trkpt lat="48.515501" lon="9.745034">
        <ele>702.573759</ele>
        <time>2025-11-12T02:08:25.325Z</time>
      </trkpt>
      <trkpt lat="48.515490" lon="9.745145">
        <ele>702.589365</ele>
        <time>2025-11-12T02:08:26.425Z</time>
      </trkpt>
      <trkpt lat="48.515562" lon="9.745169">
        <ele>702.604841</ele>
        <time>2025-11-12T02:08:27.543Z</time>
      </trkpt>
      <trkpt lat="48.515622" lon="9.745192">
        <ele>702.617835</ele>
        <time>2025-11-12T02:08:28.508Z</time>
      </trkpt>
      <trkpt lat="48.515633" lon="9.745285">
        <ele>702.630970</ele>
        <time>2025-11-12T02:08:29.516Z</time>
      </trkpt>
      <trkpt lat="48.515691" lon="9.745364">
        <ele>702.647367</ele>
        <time>2025-11-12T02:08:30.797Z</time>
      </trkpt>
      <trkpt lat="48.515821" lon="9.745325">
        <ele>702.675187</ele>
        <time>2025-11-12T02:08:33.078Z</time>
      </trkpt>
      <trkpt lat="48.515822" lon="9.745325">
        <ele>702.675397</ele>
        <time>2025-11-12T02:08:33.091Z</time>
      </trkpt>
      <trkpt lat="48.517699" lon="9.745861">
        <ele>704.139105</ele>
        <time>2025-11-12T02:09:11.941Z</time>
      </trkpt>
      <trkpt lat="48.518010" lon="9.745920">
        <ele>704.463935</ele>
        <time>2025-11-12T02:09:17.206Z</time>
      </trkpt>
      <trkpt lat="48.518014" lon="9.745920">
        <ele>704.468080</ele>
        <time>2025-11-12T02:09:17.271Z</time>
      </trkpt>
      <trkpt lat="48.518283" lon="9.745918">
        <ele>704.680381</ele>
        <time>2025-11-12T02:09:21.415Z</time>
      </trkpt>
      <trkpt lat="48.518416" lon="9.745883">
        <ele>704.698632</ele>
        <time>2025-11-12T02:09:23.380Z</time>
      </trkpt>
      <trkpt lat="48.518461" lon="9.745997">
        <ele>704.710516</ele>
        <time>2025-11-12T02:09:24.695Z</time>
      </trkpt>
      <trkpt lat="48.518625" lon="9.746171">
        <ele>704.737615</ele>
        <time>2025-11-12T02:09:27.675Z</time>
      </trkpt>
      <trkpt lat="48.519327" lon="9.746580">
        <ele>704.839341</ele>
        <time>2025-11-12T02:09:39.309Z</time>
      </trkpt>
      <trkpt lat="48.519603" lon="9.746735">
        <ele>704.879152</ele>
        <time>2025-11-12T02:09:43.825Z</time>
      </trkpt>
      <trkpt lat="48.519655" lon="9.746768">
        <ele>704.886778</ele>
        <time>2025-11-12T02:09:44.704Z</time>
      </trkpt>
      <trkpt lat="48.519725" lon="9.746814">
        <ele>704.897099</ele>
        <time>2025-11-12T02:09:45.888Z</time>
      </trkpt>
      <trkpt lat="48.520117" lon="9.747059">
        <ele>704.851380</ele>
        <time>2025-11-12T02:09:52.207Z</time>
      </trkpt>
      <trkpt lat="48.520468" lon="9.747264">
        <ele>704.773989</ele>
        <time>2025-11-12T02:09:57.862Z</time>
      </trkpt>
      <trkpt lat="48.520719" lon="9.747491">
        <ele>704.713822</ele>
        <time>2025-11-12T02:10:02.037Z</time>
      </trkpt>
      <trkpt lat="48.521028" lon="9.747876">
        <ele>704.631437</ele>
        <time>2025-11-12T02:10:07.409Z</time>
      </trkpt>
      <trkpt lat="48.522038" lon="9.749127">
        <ele>703.825326</ele>
        <time>2025-11-12T02:10:25.136Z</time>
      </trkpt>
      <trkpt lat="48.522229" lon="9.749234">
        <ele>703.658970</ele>
        <time>2025-11-12T02:10:27.808Z</time>
      </trkpt>
      <trkpt lat="48.521731" lon="9.756313">
        <ele>698.063699</ele>
        <time>2025-11-12T02:11:22.557Z</time>
      </trkpt>
      <trkpt lat="48.525793" lon="9.756417">
        <ele>697.808678</ele>
        <time>2025-11-12T02:12:50.846Z</time>
      </trkpt>
      <trkpt lat="48.526070" lon="9.756362">
        <ele>697.535358</ele>
        <time>2025-11-12T02:12:55.500Z</time>
      </trkpt>
      <trkpt lat="48.526786" lon="9.756077">
        <ele>696.696574</ele>
        <time>2025-11-12T02:13:06.844Z</time>
      </trkpt>
      <trkpt lat="48.527473" lon="9.755890">
        <ele>695.117029</ele>
        <time>2025-11-12T02:13:17.094Z</time>
      </trkpt>
      <trkpt lat="48.529195" lon="9.754939">
        <ele>692.729207</ele>
        <time>2025-11-12T02:13:46.305Z</time>
      </trkpt>
      <trkpt lat="48.529747" lon="9.754642">
        <ele>692.658588</ele>
        <time>2025-11-12T02:13:59.515Z</time>
      </trkpt>
      <trkpt lat="48.529821" lon="9.754639">
        <ele>692.649667</ele>
        <time>2025-11-12T02:14:01.408Z</time>
      </trkpt>
      <trkpt lat="48.529894" lon="9.754773">
        <ele>692.635819</ele>
        <time>2025-11-12T02:14:04.446Z</time>
      </trkpt>
      <trkpt lat="48.530605" lon="9.755728">
        <ele>694.173216</ele>
        <time>2025-11-12T02:14:33.219Z</time>
      </trkpt>
      <trkpt lat="48.530665" lon="9.755886">
        <ele>694.424398</ele>
        <time>2025-11-12T02:14:37.063Z</time>
      </trkpt>
      <trkpt lat="48.530708" lon="9.756099">
        <ele>694.731491</ele>
        <time>2025-11-12T02:14:41.663Z</time>
      </trkpt>
      <trkpt lat="48.530858" lon="9.757213">
        <ele>696.299235</ele>
        <time>2025-11-12T02:15:03.329Z</time>
      </trkpt>
      <trkpt lat="48.531376" lon="9.761370">
        <ele>697.659391</ele>
        <time>2025-11-12T02:16:05.158Z</time>
      </trkpt>
      <trkpt lat="48.531835" lon="9.765889">
        <ele>696.603609</ele>
        <time>2025-11-12T02:17:03.292Z</time>
      </trkpt>
      <trkpt lat="48.532968" lon="9.770519">
        <ele>691.719712</ele>
        <time>2025-11-12T02:17:56.252Z</time>
      </trkpt>
      <trkpt lat="48.535353" lon="9.775252">
        <ele>686.344213</ele>
        <time>2025-11-12T02:19:00.599Z</time>
      </trkpt>
      <trkpt lat="48.535764" lon="9.776093">
        <ele>686.455328</ele>
        <time>2025-11-12T02:19:15.446Z</time>
      </trkpt>
      <trkpt lat="48.537490" lon="9.779621">
        <ele>689.457725</ele>
        <time>2025-11-12T02:20:28.543Z</time>
      </trkpt>
      <trkpt lat="48.537732" lon="9.780246">
        <ele>690.248065</ele>
        <time>2025-11-12T02:20:40.558Z</time>
      </trkpt>
      <trkpt lat="48.537891" lon="9.780774">
        <ele>690.881236</ele>
        <time>2025-11-12T02:20:50.789Z</time>
      </trkpt>
      <trkpt lat="48.539810" lon="9.780664">
        <ele>694.374676</ele>
        <time>2025-11-12T02:21:47.928Z</time>
      </trkpt>
      <trkpt lat="48.540149" lon="9.782199">
        <ele>695.081426</ele>
        <time>2025-11-12T02:22:06.334Z</time>
      </trkpt>
      <trkpt lat="48.540356" lon="9.783002">
        <ele>695.047382</ele>
        <time>2025-11-12T02:22:13.699Z</time>
      </trkpt>
      <trkpt lat="48.540533" lon="9.783584">
        <ele>695.022080</ele>
        <time>2025-11-12T02:22:19.311Z</time>
      </trkpt>
      <trkpt lat="48.540654" lon="9.783991">
        <ele>694.868993</ele>
        <time>2025-11-12T02:22:23.278Z</time>
      </trkpt>
      <trkpt lat="48.540749" lon="9.784360">
        <ele>694.639221</ele>
        <time>2025-11-12T02:22:26.689Z</time>
      </trkpt>
      <trkpt lat="48.540811" lon="9.784683">
        <ele>694.444047</ele>
        <time>2025-11-12T02:22:29.511Z</time>
      </trkpt>
      <trkpt lat="48.540891" lon="9.785190">
        <ele>694.141566</ele>
        <time>2025-11-12T02:22:33.697Z</time>
      </trkpt>
      <trkpt lat="48.540966" lon="9.785729">
        <ele>693.821921</ele>
        <time>2025-11-12T02:22:37.941Z</time>
      </trkpt>
      <trkpt lat="48.541053" lon="9.786219">
        <ele>693.527500</ele>
        <time>2025-11-12T02:22:41.986Z</time>
      </trkpt>
      <trkpt lat="48.541084" lon="9.786366">
        <ele>693.437966</ele>
        <time>2025-11-12T02:22:43.268Z</time>
      </trkpt>
      <trkpt lat="48.541135" lon="9.786613">
        <ele>693.369419</ele>
        <time>2025-11-12T02:22:45.442Z</time>
      </trkpt>
      <trkpt lat="48.541212" lon="9.786999">
        <ele>693.262807</ele>
        <time>2025-11-12T02:22:48.901Z</time>
      </trkpt>
      <trkpt lat="48.541221" lon="9.787150">
        <ele>693.222713</ele>
        <time>2025-11-12T02:22:50.236Z</time>
      </trkpt>
      <trkpt lat="48.541204" lon="9.787281">
        <ele>693.187410</ele>
        <time>2025-11-12T02:22:51.443Z</time>
      </trkpt>
      <trkpt lat="48.541172" lon="9.787505">
        <ele>693.126809</ele>
        <time>2025-11-12T02:22:53.650Z</time>
      </trkpt>
      <trkpt lat="48.541147" lon="9.787678">
        <ele>693.079981</ele>
        <time>2025-11-12T02:22:55.461Z</time>
      </trkpt>
      <trkpt lat="48.541130" lon="9.787897">
        <ele>693.021669</ele>
        <time>2025-11-12T02:22:57.664Z</time>
      </trkpt>
      <trkpt lat="48.541082" lon="9.788490">
        <ele>692.863680</ele>
        <time>2025-11-12T02:23:03.787Z</time>
      </trkpt>
      <trkpt lat="48.541083" lon="9.788653">
        <ele>692.820572</ele>
        <time>2025-11-12T02:23:05.388Z</time>
      </trkpt>
      <trkpt lat="48.541084" lon="9.788769">
        <ele>692.789893</ele>
        <time>2025-11-12T02:23:06.571Z</time>
      </trkpt>
      <trkpt lat="48.541103" lon="9.789015">
        <ele>692.724396</ele>
        <time>2025-11-12T02:23:09.061Z</time>
      </trkpt>
      <trkpt lat="48.541128" lon="9.789203">
        <ele>692.501910</ele>
        <time>2025-11-12T02:23:10.895Z</time>
      </trkpt>
      <trkpt lat="48.541220" lon="9.789521">
        <ele>692.064602</ele>
        <time>2025-11-12T02:23:13.773Z</time>
      </trkpt>
      <trkpt lat="48.541352" lon="9.789927">
        <ele>691.494631</ele>
        <time>2025-11-12T02:23:16.994Z</time>
      </trkpt>
      <trkpt lat="48.541503" lon="9.790345">
        <ele>690.894595</ele>
        <time>2025-11-12T02:23:20.259Z</time>
      </trkpt>
      <trkpt lat="48.541724" lon="9.790775">
        <ele>690.208642</ele>
        <time>2025-11-12T02:23:23.976Z</time>
      </trkpt>
      <trkpt lat="48.541910" lon="9.791139">
        <ele>689.629234</ele>
        <time>2025-11-12T02:23:27.171Z</time>
      </trkpt>
      <trkpt lat="48.541885" lon="9.791221">
        <ele>689.515476</ele>
        <time>2025-11-12T02:23:27.809Z</time>
      </trkpt>
      <trkpt lat="48.541835" lon="9.791425">
        <ele>689.285649</ele>
        <time>2025-11-12T02:23:29.358Z</time>
      </trkpt>
      <trkpt lat="48.541900" lon="9.791485">
        <ele>689.258241</ele>
        <time>2025-11-12T02:23:30.185Z</time>
      </trkpt>
      <trkpt lat="48.541929" lon="9.791589">
        <ele>689.231360</ele>
        <time>2025-11-12T02:23:31.035Z</time>
      </trkpt>
      <trkpt lat="48.541929" lon="9.791784">
        <ele>689.184910</ele>
        <time>2025-11-12T02:23:32.534Z</time>
      </trkpt>
      <trkpt lat="48.541929" lon="9.791896">
        <ele>689.158230</ele>
        <time>2025-11-12T02:23:33.409Z</time>
      </trkpt>
      <trkpt lat="48.541928" lon="9.792441">
        <ele>689.028406</ele>
        <time>2025-11-12T02:23:37.962Z</time>
      </trkpt>
      <trkpt lat="48.541927" lon="9.792529">
        <ele>689.007441</ele>
        <time>2025-11-12T02:23:38.823Z</time>
      </trkpt>
      <trkpt lat="48.541957" lon="9.792952">
        <ele>688.906103</ele>
        <time>2025-11-12T02:23:43.706Z</time>
      </trkpt>
      <trkpt lat="48.541991" lon="9.793058">
        <ele>688.878045</ele>
        <time>2025-11-12T02:23:45.121Z</time>
      </trkpt>
      <trkpt lat="48.541998" lon="9.793078">
        <ele>688.872656</ele>
        <time>2025-11-12T02:23:45.381Z</time>
      </trkpt>
      <trkpt lat="48.542048" lon="9.793230">
        <ele>688.832226</ele>
        <time>2025-11-12T02:23:47.402Z</time>
      </trkpt>
      <trkpt lat="48.542178" lon="9.793438">
        <ele>688.764089</ele>
        <time>2025-11-12T02:23:50.420Z</time>
      </trkpt>
      <trkpt lat="48.542205" lon="9.793470">
        <ele>688.751741</ele>
        <time>2025-11-12T02:23:50.983Z</time>
      </trkpt>
      <trkpt lat="48.542326" lon="9.793610">
        <ele>688.696901</ele>
        <time>2025-11-12T02:23:53.611Z</time>
      </trkpt>
      <trkpt lat="48.542550" lon="9.793814">
        <ele>688.631410</ele>
        <time>2025-11-12T02:23:58.196Z</time>
      </trkpt>
      <trkpt lat="48.542683" lon="9.793902">
        <ele>688.611638</ele>
        <time>2025-11-12T02:24:00.656Z</time>
      </trkpt>
      <trkpt lat="48.543036" lon="9.793982">
        <ele>688.563033</ele>
        <time>2025-11-12T02:24:05.982Z</time>
      </trkpt>
      <trkpt lat="48.543167" lon="9.793965">
        <ele>688.545130</ele>
        <time>2025-11-12T02:24:07.713Z</time>
      </trkpt>
      <trkpt lat="48.543175" lon="9.794228">
        <ele>688.521395</ele>
        <time>2025-11-12T02:24:09.972Z</time>
      </trkpt>
      <trkpt lat="48.543402" lon="9.794510">
        <ele>688.481374</ele>
        <time>2025-11-12T02:24:15.360Z</time>
      </trkpt>
      <trkpt lat="48.543607" lon="9.794802">
        <ele>688.443006</ele>
        <time>2025-11-12T02:24:20.621Z</time>
      </trkpt>
      <trkpt lat="48.543897" lon="9.795215">
        <ele>688.313369</ele>
        <time>2025-11-12T02:24:28.932Z</time>
      </trkpt>
      <trkpt lat="48.544397" lon="9.795983">
        <ele>687.734420</ele>
        <time>2025-11-12T02:24:41.994Z</time>
      </trkpt>
      <trkpt lat="48.544510" lon="9.796163">
        <ele>687.601091</ele>
        <time>2025-11-12T02:24:44.891Z</time>
      </trkpt>
      <trkpt lat="48.544700" lon="9.796466">
        <ele>687.376776</ele>
        <time>2025-11-12T02:24:49.841Z</time>
      </trkpt>
      <trkpt lat="48.545176" lon="9.796972">
        <ele>686.832577</ele>
        <time>2025-11-12T02:24:56.885Z</time>
      </trkpt>
      <trkpt lat="48.545418" lon="9.797199">
        <ele>686.181179</ele>
        <time>2025-11-12T02:25:00.128Z</time>
      </trkpt>
      <trkpt lat="48.545606" lon="9.797369">
        <ele>685.680137</ele>
        <time>2025-11-12T02:25:02.497Z</time>
      </trkpt>
      <trkpt lat="48.545654" lon="9.797413">
        <ele>685.551746</ele>
        <time>2025-11-12T02:25:03.087Z</time>
      </trkpt>
      <trkpt lat="48.545895" lon="9.797690">
        <ele>684.859256</ele>
        <time>2025-11-12T02:25:06.286Z</time>
      </trkpt>
      <trkpt lat="48.546190" lon="9.798061">
        <ele>683.981488</ele>
        <time>2025-11-12T02:25:10.294Z</time>
      </trkpt>
      <trkpt lat="48.546843" lon="9.798877">
        <ele>682.624339</ele>
        <time>2025-11-12T02:25:19.051Z</time>
      </trkpt>
      <trkpt lat="48.546909" lon="9.798962">
        <ele>682.572340</ele>
        <time>2025-11-12T02:25:19.968Z</time>
      </trkpt>
      <trkpt lat="48.547160" lon="9.799293">
        <ele>682.372580</ele>
        <time>2025-11-12T02:25:23.585Z</time>
      </trkpt>
      <trkpt lat="48.547637" lon="9.799888">
        <ele>682.001701</ele>
        <time>2025-11-12T02:25:31.897Z</time>
      </trkpt>
      <trkpt lat="48.547766" lon="9.800011">
        <ele>681.910242</ele>
        <time>2025-11-12T02:25:34.795Z</time>
      </trkpt>
      <trkpt lat="48.548859" lon="9.801073">
        <ele>683.867835</ele>
        <time>2025-11-12T02:26:07.907Z</time>
      </trkpt>
      <trkpt lat="48.549042" lon="9.801252">
        <ele>684.312900</ele>
        <time>2025-11-12T02:26:13.534Z</time>
      </trkpt>
      <trkpt lat="48.549617" lon="9.801775">
        <ele>685.336650</ele>
        <time>2025-11-12T02:26:28.365Z</time>
      </trkpt>
      <trkpt lat="48.550348" lon="9.802446">
        <ele>684.745934</ele>
        <time>2025-11-12T02:26:40.660Z</time>
      </trkpt>
      <trkpt lat="48.550555" lon="9.802671">
        <ele>684.569822</ele>
        <time>2025-11-12T02:26:43.572Z</time>
      </trkpt>
      <trkpt lat="48.550990" lon="9.803306">
        <ele>684.074488</ele>
        <time>2025-11-12T02:26:50.104Z</time>
      </trkpt>
      <trkpt lat="48.551389" lon="9.804015">
        <ele>682.549225</ele>
        <time>2025-11-12T02:26:56.549Z</time>
      </trkpt>
      <trkpt lat="48.552493" lon="9.806053">
        <ele>678.267972</ele>
        <time>2025-11-12T02:27:14.962Z</time>
      </trkpt>
      <trkpt lat="48.552666" lon="9.806334">
        <ele>677.653713</ele>
        <time>2025-11-12T02:27:17.697Z</time>
      </trkpt>
      <trkpt lat="48.552914" lon="9.806613">
        <ele>676.905998</ele>
        <time>2025-11-12T02:27:21.022Z</time>
      </trkpt>
      <trkpt lat="48.553796" lon="9.807137">
        <ele>674.742235</ele>
        <time>2025-11-12T02:27:31.106Z</time>
      </trkpt>
      <trkpt lat="48.553954" lon="9.807373">
        <ele>674.294886</ele>
        <time>2025-11-12T02:27:33.459Z</time>
      </trkpt>
      <trkpt lat="48.554378" lon="9.808285">
        <ele>672.809619</ele>
        <time>2025-11-12T02:27:41.407Z</time>
      </trkpt>
      <trkpt lat="48.555312" lon="9.810265">
        <ele>670.905680</ele>
        <time>2025-11-12T02:28:00.340Z</time>
      </trkpt>
      <trkpt lat="48.556027" lon="9.811757">
        <ele>670.500254</ele>
        <time>2025-11-12T02:28:18.494Z</time>
      </trkpt>
      <trkpt lat="48.556343" lon="9.812320">
        <ele>670.647123</ele>
        <time>2025-11-12T02:28:27.091Z</time>
      </trkpt>
      <trkpt lat="48.556445" lon="9.812449">
        <ele>670.687108</ele>
        <time>2025-11-12T02:28:29.449Z</time>
      </trkpt>
      <trkpt lat="48.557304" lon="9.813127">
        <ele>670.560221</ele>
        <time>2025-11-12T02:28:45.279Z</time>
      </trkpt>
      <trkpt lat="48.557576" lon="9.813419">
        <ele>670.194728</ele>
        <time>2025-11-12T02:28:49.527Z</time>
      </trkpt>
      <trkpt lat="48.557750" lon="9.813664">
        <ele>669.934197</ele>
        <time>2025-11-12T02:28:52.255Z</time>
      </trkpt>
      <trkpt lat="48.558066" lon="9.814324">
        <ele>669.343634</ele>
        <time>2025-11-12T02:28:58.211Z</time>
      </trkpt>
      <trkpt lat="48.558187" lon="9.814640">
        <ele>669.078962</ele>
        <time>2025-11-12T02:29:00.895Z</time>
      </trkpt>
      <trkpt lat="48.558292" lon="9.815095">
        <ele>668.837456</ele>
        <time>2025-11-12T02:29:04.523Z</time>
      </trkpt>
      <trkpt lat="48.558370" lon="9.815375">
        <ele>668.743158</ele>
        <time>2025-11-12T02:29:06.899Z</time>
      </trkpt>
      <trkpt lat="48.558182" lon="9.815461">
        <ele>668.651036</ele>
        <time>2025-11-12T02:29:09.276Z</time>
      </trkpt>
      <trkpt lat="48.557864" lon="9.815406">
        <ele>668.500924</ele>
        <time>2025-11-12T02:29:13.360Z</time>
      </trkpt>
      <trkpt lat="48.557324" lon="9.815561">
        <ele>668.243141</ele>
        <time>2025-11-12T02:29:21.675Z</time>
      </trkpt>
      <trkpt lat="48.556666" lon="9.815630">
        <ele>668.200046</ele>
        <time>2025-11-12T02:29:32.925Z</time>
      </trkpt>
      <trkpt lat="48.556396" lon="9.815732">
        <ele>668.316247</ele>
        <time>2025-11-12T02:29:37.430Z</time>
      </trkpt>
      <trkpt lat="48.556111" lon="9.815953">
        <ele>668.449998</ele>
        <time>2025-11-12T02:29:42.426Z</time>
      </trkpt>
      <trkpt lat="48.555933" lon="9.816155">
        <ele>668.542947</ele>
        <time>2025-11-12T02:29:45.938Z</time>
      </trkpt>
      <trkpt lat="48.555350" lon="9.816918">
        <ele>668.926272</ele>
        <time>2025-11-12T02:29:58.822Z</time>
      </trkpt>
      <trkpt lat="48.554614" lon="9.817959">
        <ele>670.002521</ele>
        <time>2025-11-12T02:30:17.501Z</time>
      </trkpt>
      <trkpt lat="48.553598" lon="9.819296">
        <ele>671.856305</ele>
        <time>2025-11-12T02:30:45.167Z</time>
      </trkpt>
      <trkpt lat="48.552468" lon="9.820772">
        <ele>674.673683</ele>
        <time>2025-11-12T02:31:18.326Z</time>
      </trkpt>
      <trkpt lat="48.551705" lon="9.821563">
        <ele>676.972555</ele>
        <time>2025-11-12T02:31:40.292Z</time>
      </trkpt>
      <trkpt lat="48.550023" lon="9.823012">
        <ele>683.738985</ele>
        <time>2025-11-12T02:32:34.651Z</time>
      </trkpt>
      <trkpt lat="48.549664" lon="9.823315">
        <ele>685.370356</ele>
        <time>2025-11-12T02:32:49.413Z</time>
      </trkpt>
      <trkpt lat="48.549042" lon="9.823841">
        <ele>689.394989</ele>
        <time>2025-11-12T02:33:17.372Z</time>
      </trkpt>
      <trkpt lat="48.548767" lon="9.824141">
        <ele>691.310177</ele>
        <time>2025-11-12T02:33:31.060Z</time>
      </trkpt>
      <trkpt lat="48.548341" lon="9.824696">
        <ele>694.486319</ele>
        <time>2025-11-12T02:33:52.725Z</time>
      </trkpt>
      <trkpt lat="48.547631" lon="9.825933">
        <ele>698.541600</ele>
        <time>2025-11-12T02:34:28.680Z</time>
      </trkpt>
      <trkpt lat="48.547674" lon="9.826215">
        <ele>699.194241</ele>
        <time>2025-11-12T02:34:34.092Z</time>
      </trkpt>
      <trkpt lat="48.548145" lon="9.828176">
        <ele>701.314261</ele>
        <time>2025-11-12T02:35:03.293Z</time>
      </trkpt>
      <trkpt lat="48.548800" lon="9.831000">
        <ele>698.841597</ele>
        <time>2025-11-12T02:35:25.957Z</time>
      </trkpt>
      <trkpt lat="48.548947" lon="9.831491">
        <ele>697.975184</ele>
        <time>2025-11-12T02:35:29.815Z</time>
      </trkpt>
      <trkpt lat="48.549374" lon="9.832868">
        <ele>694.287299</ele>
        <time>2025-11-12T02:35:39.827Z</time>
      </trkpt>
      <trkpt lat="48.550391" lon="9.835606">
        <ele>683.685897</ele>
        <time>2025-11-12T02:35:58.944Z</time>
      </trkpt>
      <trkpt lat="48.550715" lon="9.836391">
        <ele>680.719324</ele>
        <time>2025-11-12T02:36:04.763Z</time>
      </trkpt>
      <trkpt lat="48.551171" lon="9.837150">
        <ele>677.928387</ele>
        <time>2025-11-12T02:36:11.487Z</time>
      </trkpt>
      <trkpt lat="48.552267" lon="9.838631">
        <ele>674.205990</ele>
        <time>2025-11-12T02:36:26.780Z</time>
      </trkpt>
      <trkpt lat="48.552610" lon="9.839053">
        <ele>673.749893</ele>
        <time>2025-11-12T02:36:32.732Z</time>
      </trkpt>
      <trkpt lat="48.552840" lon="9.839213">
        <ele>673.620297</ele>
        <time>2025-11-12T02:36:36.641Z</time>
      </trkpt>
      <trkpt lat="48.553394" lon="9.839411">
        <ele>673.328929</ele>
        <time>2025-11-12T02:36:46.596Z</time>
      </trkpt>
      <trkpt lat="48.554344" lon="9.839550">
        <ele>672.156979</ele>
        <time>2025-11-12T02:36:58.739Z</time>
      </trkpt>
      <trkpt lat="48.555117" lon="9.839635">
        <ele>670.034466</ele>
        <time>2025-11-12T02:37:10.206Z</time>
      </trkpt>
      <trkpt lat="48.555608" lon="9.839728">
        <ele>668.679303</ele>
        <time>2025-11-12T02:37:17.113Z</time>
      </trkpt>
      <trkpt lat="48.556783" lon="9.839859">
        <ele>665.510843</ele>
        <time>2025-11-12T02:37:34.197Z</time>
      </trkpt>
      <trkpt lat="48.558000" lon="9.840439">
        <ele>663.364059</ele>
        <time>2025-11-12T02:37:54.338Z</time>
      </trkpt>
      <trkpt lat="48.558804" lon="9.840965">
        <ele>663.583512</ele>
        <time>2025-11-12T02:38:11.248Z</time>
      </trkpt>
      <trkpt lat="48.560271" lon="9.841843">
        <ele>668.181799</ele>
        <time>2025-11-12T02:39:01.929Z</time>
      </trkpt>
      <trkpt lat="48.560487" lon="9.841838">
        <ele>669.069497</ele>
        <time>2025-11-12T02:39:10.674Z</time>
      </trkpt>
      <trkpt lat="48.562004" lon="9.841739">
        <ele>678.305331</ele>
        <time>2025-11-12T02:40:20.061Z</time>
      </trkpt>
      <trkpt lat="48.562843" lon="9.841719">
        <ele>684.195314</ele>
        <time>2025-11-12T02:41:04.090Z</time>
      </trkpt>
      <trkpt lat="48.563044" lon="9.841774">
        <ele>685.597699</ele>
        <time>2025-11-12T02:41:14.964Z</time>
      </trkpt>
      <trkpt lat="48.563390" lon="9.842051">
        <ele>688.285923</ele>
        <time>2025-11-12T02:41:35.430Z</time>
      </trkpt>
      <trkpt lat="48.563880" lon="9.842506">
        <ele>692.234378</ele>
        <time>2025-11-12T02:42:03.661Z</time>
      </trkpt>
      <trkpt lat="48.564287" lon="9.842814">
        <ele>695.359409</ele>
        <time>2025-11-12T02:42:24.184Z</time>
      </trkpt>
      <trkpt lat="48.565190" lon="9.843498">
        <ele>698.959458</ele>
        <time>2025-11-12T02:43:01.901Z</time>
      </trkpt>
      <trkpt lat="48.566595" lon="9.844086">
        <ele>701.214295</ele>
        <time>2025-11-12T02:43:41.720Z</time>
      </trkpt>
      <trkpt lat="48.567483" lon="9.844593">
        <ele>700.224013</ele>
        <time>2025-11-12T02:43:57.738Z</time>
      </trkpt>
      <trkpt lat="48.569555" lon="9.845362">
        <ele>690.812384</ele>
        <time>2025-11-12T02:44:26.659Z</time>
      </trkpt>
      <trkpt lat="48.572124" lon="9.846397">
        <ele>672.772954</ele>
        <time>2025-11-12T02:45:00.831Z</time>
      </trkpt>
      <trkpt lat="48.572785" lon="9.846731">
        <ele>667.801443</ele>
        <time>2025-11-12T02:45:09.762Z</time>
      </trkpt>
      <trkpt lat="48.573374" lon="9.847112">
        <ele>662.855697</ele>
        <time>2025-11-12T02:45:17.859Z</time>
      </trkpt>
      <trkpt lat="48.573574" lon="9.847089">
        <ele>661.256351</ele>
        <time>2025-11-12T02:45:20.334Z</time>
      </trkpt>
      <trkpt lat="48.573679" lon="9.846980">
        <ele>660.240641</ele>
        <time>2025-11-12T02:45:21.887Z</time>
      </trkpt>
      <trkpt lat="48.573760" lon="9.846943">
        <ele>659.565918</ele>
        <time>2025-11-12T02:45:22.928Z</time>
      </trkpt>
      <trkpt lat="48.573894" lon="9.847020">
        <ele>658.422824</ele>
        <time>2025-11-12T02:45:24.682Z</time>
      </trkpt>
      <trkpt lat="48.573724" lon="9.847682">
        <ele>654.676403</ele>
        <time>2025-11-12T02:45:28.868Z</time>
      </trkpt>
      <trkpt lat="48.573605" lon="9.848057">
        <ele>652.482189</ele>
        <time>2025-11-12T02:45:31.358Z</time>
      </trkpt>
      <trkpt lat="48.573595" lon="9.848183">
        <ele>651.849717</ele>
        <time>2025-11-12T02:45:32.113Z</time>
      </trkpt>
      <trkpt lat="48.573625" lon="9.848285">
        <ele>651.343099</ele>
        <time>2025-11-12T02:45:32.773Z</time>
      </trkpt>
      <trkpt lat="48.573698" lon="9.848351">
        <ele>650.759598</ele>
        <time>2025-11-12T02:45:33.524Z</time>
      </trkpt>
      <trkpt lat="48.573773" lon="9.848359">
        <ele>650.243856</ele>
        <time>2025-11-12T02:45:34.190Z</time>
      </trkpt>
      <trkpt lat="48.573895" lon="9.848287">
        <ele>649.345458</ele>
        <time>2025-11-12T02:45:35.353Z</time>
      </trkpt>
      <trkpt lat="48.573985" lon="9.848141">
        <ele>648.439802</ele>
        <time>2025-11-12T02:45:36.526Z</time>
      </trkpt>
      <trkpt lat="48.574125" lon="9.847976">
        <ele>647.222002</ele>
        <time>2025-11-12T02:45:38.111Z</time>
      </trkpt>
      <trkpt lat="48.574228" lon="9.847922">
        <ele>646.474173</ele>
        <time>2025-11-12T02:45:39.090Z</time>
      </trkpt>
      <trkpt lat="48.574377" lon="9.847961">
        <ele>645.436894</ele>
        <time>2025-11-12T02:45:40.456Z</time>
      </trkpt>
      <trkpt lat="48.574440" lon="9.848014">
        <ele>644.942310</ele>
        <time>2025-11-12T02:45:41.114Z</time>
      </trkpt>
      <trkpt lat="48.574545" lon="9.848244">
        <ele>643.674076</ele>
        <time>2025-11-12T02:45:42.827Z</time>
      </trkpt>
      <trkpt lat="48.574582" lon="9.848328">
        <ele>643.216083</ele>
        <time>2025-11-12T02:45:43.449Z</time>
      </trkpt>
      <trkpt lat="48.574738" lon="9.848747">
        <ele>641.034033</ele>
        <time>2025-11-12T02:45:46.398Z</time>
      </trkpt>
      <trkpt lat="48.574950" lon="9.849492">
        <ele>637.798914</ele>
        <time>2025-11-12T02:45:51.154Z</time>
      </trkpt>
      <trkpt lat="48.574971" lon="9.849576">
        <ele>637.467452</ele>
        <time>2025-11-12T02:45:51.899Z</time>
      </trkpt>
      <trkpt lat="48.575024" lon="9.849786">
        <ele>636.637807</ele>
        <time>2025-11-12T02:45:53.806Z</time>
      </trkpt>
      <trkpt lat="48.575077" lon="9.850003">
        <ele>635.783972</ele>
        <time>2025-11-12T02:45:55.782Z</time>
      </trkpt>
      <trkpt lat="48.575260" lon="9.850619">
        <ele>633.291474</ele>
        <time>2025-11-12T02:46:01.692Z</time>
      </trkpt>
      <trkpt lat="48.575468" lon="9.851056">
        <ele>631.304371</ele>
        <time>2025-11-12T02:46:06.575Z</time>
      </trkpt>
      <trkpt lat="48.575644" lon="9.851427">
        <ele>629.666320</ele>
        <time>2025-11-12T02:46:10.866Z</time>
      </trkpt>
      <trkpt lat="48.575659" lon="9.851458">
        <ele>629.601928</ele>
        <time>2025-11-12T02:46:11.220Z</time>
      </trkpt>
      <trkpt lat="48.575852" lon="9.851784">
        <ele>628.868482</ele>
        <time>2025-11-12T02:46:15.356Z</time>
      </trkpt>
      <trkpt lat="48.576293" lon="9.852564">
        <ele>627.148281</ele>
        <time>2025-11-12T02:46:25.483Z</time>
      </trkpt>
      <trkpt lat="48.576389" lon="9.852798">
        <ele>626.686655</ele>
        <time>2025-11-12T02:46:28.314Z</time>
      </trkpt>
      <trkpt lat="48.576372" lon="9.853032">
        <ele>626.291972</ele>
        <time>2025-11-12T02:46:30.030Z</time>
      </trkpt>
      <trkpt lat="48.576241" lon="9.853416">
        <ele>625.567612</ele>
        <time>2025-11-12T02:46:33.257Z</time>
      </trkpt>
      <trkpt lat="48.575655" lon="9.854721">
        <ele>624.505644</ele>
        <time>2025-11-12T02:46:45.913Z</time>
      </trkpt>
      <trkpt lat="48.575648" lon="9.854961">
        <ele>624.389403</ele>
        <time>2025-11-12T02:46:48.073Z</time>
      </trkpt>
      <trkpt lat="48.575744" lon="9.855228">
        <ele>624.242365</ele>
        <time>2025-11-12T02:46:50.697Z</time>
      </trkpt>
      <trkpt lat="48.575994" lon="9.855595">
        <ele>623.987489</ele>
        <time>2025-11-12T02:46:55.350Z</time>
      </trkpt>
      <trkpt lat="48.576075" lon="9.855790">
        <ele>623.876081</ele>
        <time>2025-11-12T02:46:57.384Z</time>
      </trkpt>
      <trkpt lat="48.576081" lon="9.855889">
        <ele>623.832960</ele>
        <time>2025-11-12T02:46:58.314Z</time>
      </trkpt>
      <trkpt lat="48.575997" lon="9.856294">
        <ele>623.872175</ele>
        <time>2025-11-12T02:47:02.571Z</time>
      </trkpt>
      <trkpt lat="48.575992" lon="9.856474">
        <ele>623.888821</ele>
        <time>2025-11-12T02:47:04.444Z</time>
      </trkpt>
      <trkpt lat="48.575941" lon="9.856534">
        <ele>623.897846</ele>
        <time>2025-11-12T02:47:05.502Z</time>
      </trkpt>
      <trkpt lat="48.575711" lon="9.857267">
        <ele>623.972802</ele>
        <time>2025-11-12T02:47:14.374Z</time>
      </trkpt>
      <trkpt lat="48.575630" lon="9.857544">
        <ele>624.000783</ele>
        <time>2025-11-12T02:47:17.307Z</time>
      </trkpt>
      <trkpt lat="48.575362" lon="9.858436">
        <ele>624.087945</ele>
        <time>2025-11-12T02:47:27.372Z</time>
      </trkpt>
      <trkpt lat="48.574970" lon="9.859829">
        <ele>624.168884</ele>
        <time>2025-11-12T02:47:42.791Z</time>
      </trkpt>
      <trkpt lat="48.574899" lon="9.860252">
        <ele>624.192219</ele>
        <time>2025-11-12T02:47:47.064Z</time>
      </trkpt>
      <trkpt lat="48.574867" lon="9.860633">
        <ele>624.212754</ele>
        <time>2025-11-12T02:47:50.973Z</time>
      </trkpt>
      <trkpt lat="48.574865" lon="9.860727">
        <ele>624.217783</ele>
        <time>2025-11-12T02:47:51.925Z</time>
      </trkpt>
      <trkpt lat="48.574885" lon="9.862034">
        <ele>623.468340</ele>
        <time>2025-11-12T02:48:04.321Z</time>
      </trkpt>
      <trkpt lat="48.574889" lon="9.862269">
        <ele>623.306337</ele>
        <time>2025-11-12T02:48:06.427Z</time>
      </trkpt>
      <trkpt lat="48.574946" lon="9.863989">
        <ele>621.314065</ele>
        <time>2025-11-12T02:48:19.491Z</time>
      </trkpt>
      <trkpt lat="48.574969" lon="9.864505">
        <ele>619.740004</ele>
        <time>2025-11-12T02:48:22.856Z</time>
      </trkpt>
      <trkpt lat="48.575028" lon="9.864962">
        <ele>618.322845</ele>
        <time>2025-11-12T02:48:25.798Z</time>
      </trkpt>
      <trkpt lat="48.575402" lon="9.866487">
        <ele>613.087651</ele>
        <time>2025-11-12T02:48:35.699Z</time>
      </trkpt>
      <trkpt lat="48.575608" lon="9.867342">
        <ele>609.203822</ele>
        <time>2025-11-12T02:48:41.153Z</time>
      </trkpt>
      <trkpt lat="48.575793" lon="9.868320">
        <ele>604.862190</ele>
        <time>2025-11-12T02:48:47.271Z</time>
      </trkpt>
      <trkpt lat="48.575861" lon="9.868740">
        <ele>603.016625</ele>
        <time>2025-11-12T02:48:49.866Z</time>
      </trkpt>
      <trkpt lat="48.576083" lon="9.870232">
        <ele>595.852943</ele>
        <time>2025-11-12T02:48:58.971Z</time>
      </trkpt>
      <trkpt lat="48.576145" lon="9.871184">
        <ele>591.336054</ele>
        <time>2025-11-12T02:49:04.578Z</time>
      </trkpt>
      <trkpt lat="48.576138" lon="9.872972">
        <ele>584.820758</ele>
        <time>2025-11-12T02:49:15.193Z</time>
      </trkpt>
      <trkpt lat="48.576133" lon="9.873401">
        <ele>583.373441</ele>
        <time>2025-11-12T02:49:17.898Z</time>
      </trkpt>
      <trkpt lat="48.576133" lon="9.873547">
        <ele>582.880958</ele>
        <time>2025-11-12T02:49:18.852Z</time>
      </trkpt>
      <trkpt lat="48.576143" lon="9.873804">
        <ele>582.012554</ele>
        <time>2025-11-12T02:49:20.589Z</time>
      </trkpt>
      <trkpt lat="48.576142" lon="9.874222">
        <ele>580.602557</ele>
        <time>2025-11-12T02:49:23.525Z</time>
      </trkpt>
      <trkpt lat="48.576225" lon="9.874241">
        <ele>580.449529</ele>
        <time>2025-11-12T02:49:24.468Z</time>
      </trkpt>
      <trkpt lat="48.576331" lon="9.874183">
        <ele>580.406859</ele>
        <time>2025-11-12T02:49:25.810Z</time>
      </trkpt>
      <trkpt lat="48.576620" lon="9.873902">
        <ele>580.276790</ele>
        <time>2025-11-12T02:49:30.411Z</time>
      </trkpt>
      <trkpt lat="48.576688" lon="9.873879">
        <ele>580.250415</ele>
        <time>2025-11-12T02:49:31.404Z</time>
      </trkpt>
      <trkpt lat="48.576812" lon="9.873933">
        <ele>580.201570</ele>
        <time>2025-11-12T02:49:33.320Z</time>
      </trkpt>
      <trkpt lat="48.576850" lon="9.874014">
        <ele>580.176704</ele>
        <time>2025-11-12T02:49:34.277Z</time>
      </trkpt>
      <trkpt lat="48.576951" lon="9.874261">
        <ele>580.103988</ele>
        <time>2025-11-12T02:49:37.102Z</time>
      </trkpt>
      <trkpt lat="48.576969" lon="9.874462">
        <ele>580.053194</ele>
        <time>2025-11-12T02:49:39.083Z</time>
      </trkpt>
      <trkpt lat="48.576943" lon="9.874574">
        <ele>580.023470</ele>
        <time>2025-11-12T02:49:40.284Z</time>
      </trkpt>
      <trkpt lat="48.576894" lon="9.874647">
        <ele>579.997428</ele>
        <time>2025-11-12T02:49:41.339Z</time>
      </trkpt>
      <trkpt lat="48.576493" lon="9.874981">
        <ele>579.824125</ele>
        <time>2025-11-12T02:49:48.810Z</time>
      </trkpt>
      <trkpt lat="48.576443" lon="9.875134">
        <ele>579.797761</ele>
        <time>2025-11-12T02:49:50.741Z</time>
      </trkpt>
      <trkpt lat="48.576442" lon="9.875222">
        <ele>579.814153</ele>
        <time>2025-11-12T02:49:51.715Z</time>
      </trkpt>
      <trkpt lat="48.576483" lon="9.875548">
        <ele>579.875956</ele>
        <time>2025-11-12T02:49:55.447Z</time>
      </trkpt>
      <trkpt lat="48.576574" lon="9.875978">
        <ele>579.960039</ele>
        <time>2025-11-12T02:50:00.503Z</time>
      </trkpt>
      <trkpt lat="48.576642" lon="9.876380">
        <ele>580.037318</ele>
        <time>2025-11-12T02:50:06.272Z</time>
      </trkpt>
      <trkpt lat="48.576645" lon="9.876615">
        <ele>580.081094</ele>
        <time>2025-11-12T02:50:09.470Z</time>
      </trkpt>
      <trkpt lat="48.576615" lon="9.876750">
        <ele>580.107618</ele>
        <time>2025-11-12T02:50:11.421Z</time>
      </trkpt>
      <trkpt lat="48.576378" lon="9.877142">
        <ele>580.206518</ele>
        <time>2025-11-12T02:50:18.863Z</time>
      </trkpt>
      <trkpt lat="48.576067" lon="9.877186">
        <ele>580.294447</ele>
        <time>2025-11-12T02:50:23.872Z</time>
      </trkpt>
      <trkpt lat="48.575904" lon="9.877282">
        <ele>580.371352</ele>
        <time>2025-11-12T02:50:26.534Z</time>
      </trkpt>
      <trkpt lat="48.575770" lon="9.877494">
        <ele>580.458375</ele>
        <time>2025-11-12T02:50:29.353Z</time>
      </trkpt>
      <trkpt lat="48.575690" lon="9.877621">
        <ele>580.510422</ele>
        <time>2025-11-12T02:50:30.928Z</time>
      </trkpt>
      <trkpt lat="48.575400" lon="9.878248">
        <ele>580.737486</ele>
        <time>2025-11-12T02:50:37.995Z</time>
      </trkpt>
      <trkpt lat="48.575176" lon="9.878766">
        <ele>580.921161</ele>
        <time>2025-11-12T02:50:45.045Z</time>
      </trkpt>
      <trkpt lat="48.575018" lon="9.879187">
        <ele>581.064823</ele>
        <time>2025-11-12T02:50:51.370Z</time>
      </trkpt>
      <trkpt lat="48.575226" lon="9.879478">
        <ele>581.530921</ele>
        <time>2025-11-12T02:50:57.357Z</time>
      </trkpt>
      <trkpt lat="48.575538" lon="9.879780">
        <ele>582.337351</ele>
        <time>2025-11-12T02:51:05.520Z</time>
      </trkpt>
      <trkpt lat="48.576076" lon="9.880150">
        <ele>583.623894</ele>
        <time>2025-11-12T02:51:19.831Z</time>
      </trkpt>
      <trkpt lat="48.576719" lon="9.880496">
        <ele>585.093319</ele>
        <time>2025-11-12T02:51:37.378Z</time>
      </trkpt>
      <trkpt lat="48.577302" lon="9.880917">
        <ele>586.248413</ele>
        <time>2025-11-12T02:51:53.426Z</time>
      </trkpt>
      <trkpt lat="48.577816" lon="9.881384">
        <ele>587.320545</ele>
        <time>2025-11-12T02:52:06.395Z</time>
      </trkpt>
      <trkpt lat="48.578653" lon="9.882367">
        <ele>588.580061</ele>
        <time>2025-11-12T02:52:25.894Z</time>
      </trkpt>
      <trkpt lat="48.580058" lon="9.884209">
        <ele>590.322841</ele>
        <time>2025-11-12T02:52:56.773Z</time>
      </trkpt>
      <trkpt lat="48.580498" lon="9.884922">
        <ele>591.333316</ele>
        <time>2025-11-12T02:53:10.596Z</time>
      </trkpt>
      <trkpt lat="48.581179" lon="9.886425">
        <ele>594.105488</ele>
        <time>2025-11-12T02:53:41.623Z</time>
      </trkpt>
      <trkpt lat="48.581780" lon="9.888048">
        <ele>597.680435</ele>
        <time>2025-11-12T02:54:15.324Z</time>
      </trkpt>
      <trkpt lat="48.581997" lon="9.888770">
        <ele>599.219227</ele>
        <time>2025-11-12T02:54:28.555Z</time>
      </trkpt>
      <trkpt lat="48.582154" lon="9.889437">
        <ele>600.592968</ele>
        <time>2025-11-12T02:54:40.132Z</time>
      </trkpt>
      <trkpt lat="48.582220" lon="9.889861">
        <ele>601.438171</ele>
        <time>2025-11-12T02:54:47.496Z</time>
      </trkpt>
      <trkpt lat="48.582280" lon="9.890515">
        <ele>602.736877</ele>
        <time>2025-11-12T02:54:59.567Z</time>
      </trkpt>
      <trkpt lat="48.582275" lon="9.891312">
        <ele>605.012482</ele>
        <time>2025-11-12T02:55:15.802Z</time>
      </trkpt>
      <trkpt lat="48.582158" lon="9.892551">
        <ele>608.585793</ele>
        <time>2025-11-12T02:55:43.480Z</time>
      </trkpt>
      <trkpt lat="48.582020" lon="9.893587">
        <ele>611.470995</ele>
        <time>2025-11-12T02:56:07.581Z</time>
      </trkpt>
      <trkpt lat="48.581893" lon="9.895059">
        <ele>615.226154</ele>
        <time>2025-11-12T02:56:37.197Z</time>
      </trkpt>
      <trkpt lat="48.581868" lon="9.895992">
        <ele>617.536046</ele>
        <time>2025-11-12T02:56:54.498Z</time>
      </trkpt>
      <trkpt lat="48.581889" lon="9.896605">
        <ele>618.783920</ele>
        <time>2025-11-12T02:57:05.261Z</time>
      </trkpt>
      <trkpt lat="48.581927" lon="9.897364">
        <ele>620.331347</ele>
        <time>2025-11-12T02:57:18.291Z</time>
      </trkpt>
      <trkpt lat="48.582109" lon="9.899553">
        <ele>625.134776</ele>
        <time>2025-11-12T02:57:58.710Z</time>
      </trkpt>
      <trkpt lat="48.582190" lon="9.900634">
        <ele>627.704354</ele>
        <time>2025-11-12T02:58:20.191Z</time>
      </trkpt>
      <trkpt lat="48.582218" lon="9.901501">
        <ele>629.818913</ele>
        <time>2025-11-12T02:58:37.439Z</time>
      </trkpt>
      <trkpt lat="48.582201" lon="9.902472">
        <ele>632.418592</ele>
        <time>2025-11-12T02:58:56.653Z</time>
      </trkpt>
      <trkpt lat="48.582119" lon="9.903464">
        <ele>635.094213</ele>
        <time>2025-11-12T02:59:16.957Z</time>
      </trkpt>
      <trkpt lat="48.582045" lon="9.903933">
        <ele>636.384648</ele>
        <time>2025-11-12T02:59:27.189Z</time>
      </trkpt>
      <trkpt lat="48.581771" lon="9.905185">
        <ele>640.992935</ele>
        <time>2025-11-12T02:59:57.320Z</time>
      </trkpt>
      <trkpt lat="48.581089" lon="9.907526">
        <ele>650.033360</ele>
        <time>2025-11-12T03:01:02.164Z</time>
      </trkpt>
      <trkpt lat="48.580982" lon="9.907806">
        <ele>651.176202</ele>
        <time>2025-11-12T03:01:10.528Z</time>
      </trkpt>
      <trkpt lat="48.580445" lon="9.908711">
        <ele>655.472850</ele>
        <time>2025-11-12T03:01:39.245Z</time>
      </trkpt>
      <trkpt lat="48.580363" lon="9.908896">
        <ele>656.013247</ele>
        <time>2025-11-12T03:01:43.952Z</time>
      </trkpt>
      <trkpt lat="48.580324" lon="9.909178">
        <ele>656.522859</ele>
        <time>2025-11-12T03:01:49.658Z</time>
      </trkpt>
      <trkpt lat="48.580345" lon="9.909377">
        <ele>656.879320</ele>
        <time>2025-11-12T03:01:53.396Z</time>
      </trkpt>
      <trkpt lat="48.580362" lon="9.909501">
        <ele>657.103324</ele>
        <time>2025-11-12T03:01:55.646Z</time>
      </trkpt>
      <trkpt lat="48.580378" lon="9.909605">
        <ele>657.292198</ele>
        <time>2025-11-12T03:01:57.438Z</time>
      </trkpt>
      <trkpt lat="48.580437" lon="9.909942">
        <ele>657.908837</ele>
        <time>2025-11-12T03:02:02.970Z</time>
      </trkpt>
      <trkpt lat="48.580542" lon="9.910491">
        <ele>658.919727</ele>
        <time>2025-11-12T03:02:11.146Z</time>
      </trkpt>
      <trkpt lat="48.580779" lon="9.911380">
        <ele>660.631796</ele>
        <time>2025-11-12T03:02:24.516Z</time>
      </trkpt>
      <trkpt lat="48.581046" lon="9.912195">
        <ele>662.913015</ele>
        <time>2025-11-12T03:02:40.225Z</time>
      </trkpt>
      <trkpt lat="48.581243" lon="9.912710">
        <ele>664.405201</ele>
        <time>2025-11-12T03:02:52.572Z</time>
      </trkpt>
      <trkpt lat="48.581348" lon="9.913055">
        <ele>665.357753</ele>
        <time>2025-11-12T03:03:01.072Z</time>
      </trkpt>
      <trkpt lat="48.581471" lon="9.913672">
        <ele>666.974119</ele>
        <time>2025-11-12T03:03:15.802Z</time>
      </trkpt>
      <trkpt lat="48.581566" lon="9.914146">
        <ele>668.208967</ele>
        <time>2025-11-12T03:03:26.815Z</time>
      </trkpt>
      <trkpt lat="48.581624" lon="9.914467">
        <ele>669.036052</ele>
        <time>2025-11-12T03:03:34.073Z</time>
      </trkpt>
      <trkpt lat="48.581682" lon="9.914749">
        <ele>669.770068</ele>
        <time>2025-11-12T03:03:40.649Z</time>
      </trkpt>
      <trkpt lat="48.581808" lon="9.915210">
        <ele>671.009844</ele>
        <time>2025-11-12T03:03:51.099Z</time>
      </trkpt>
      <trkpt lat="48.581894" lon="9.915519">
        <ele>671.843075</ele>
        <time>2025-11-12T03:03:57.523Z</time>
      </trkpt>
      <trkpt lat="48.581924" lon="9.915722">
        <ele>672.360074</ele>
        <time>2025-11-12T03:04:01.335Z</time>
      </trkpt>
      <trkpt lat="48.581998" lon="9.915752">
        <ele>672.647928</ele>
        <time>2025-11-12T03:04:03.421Z</time>
      </trkpt>
      <trkpt lat="48.582052" lon="9.915773">
        <ele>672.857420</ele>
        <time>2025-11-12T03:04:04.877Z</time>
      </trkpt>
      <trkpt lat="48.582363" lon="9.915897">
        <ele>674.065855</ele>
        <time>2025-11-12T03:04:13.137Z</time>
      </trkpt>
      <trkpt lat="48.583199" lon="9.916405">
        <ele>675.739204</ele>
        <time>2025-11-12T03:04:34.658Z</time>
      </trkpt>
      <trkpt lat="48.583544" lon="9.916713">
        <ele>676.463284</ele>
        <time>2025-11-12T03:04:42.708Z</time>
      </trkpt>
      <trkpt lat="48.583792" lon="9.917114">
        <ele>677.119541</ele>
        <time>2025-11-12T03:04:49.452Z</time>
      </trkpt>
      <trkpt lat="48.583906" lon="9.917315">
        <ele>677.438414</ele>
        <time>2025-11-12T03:04:52.798Z</time>
      </trkpt>
      <trkpt lat="48.584050" lon="9.917506">
        <ele>677.809398</ele>
        <time>2025-11-12T03:04:56.565Z</time>
      </trkpt>
      <trkpt lat="48.584094" lon="9.917563">
        <ele>677.921612</ele>
        <time>2025-11-12T03:04:57.713Z</time>
      </trkpt>
      <trkpt lat="48.584408" lon="9.917810">
        <ele>678.607076</ele>
        <time>2025-11-12T03:05:05.297Z</time>
      </trkpt>
      <trkpt lat="48.584655" lon="9.917932">
        <ele>679.110279</ele>
        <time>2025-11-12T03:05:11.132Z</time>
      </trkpt>
      <trkpt lat="48.585575" lon="9.918304">
        <ele>680.953860</ele>
        <time>2025-11-12T03:05:34.065Z</time>
      </trkpt>
      <trkpt lat="48.586021" lon="9.918542">
        <ele>681.861190</ele>
        <time>2025-11-12T03:05:46.167Z</time>
      </trkpt>
      <trkpt lat="48.586333" lon="9.918824">
        <ele>682.558538</ele>
        <time>2025-11-12T03:05:54.827Z</time>
      </trkpt>
      <trkpt lat="48.586528" lon="9.919056">
        <ele>683.034572</ele>
        <time>2025-11-12T03:06:00.375Z</time>
      </trkpt>
      <trkpt lat="48.587057" lon="9.919859">
        <ele>684.367933</ele>
        <time>2025-11-12T03:06:15.543Z</time>
      </trkpt>
      <trkpt lat="48.587198" lon="9.920008">
        <ele>684.443810</ele>
        <time>2025-11-12T03:06:18.881Z</time>
      </trkpt>
      <trkpt lat="48.587341" lon="9.920160">
        <ele>684.520912</ele>
        <time>2025-11-12T03:06:22.192Z</time>
      </trkpt>
      <trkpt lat="48.587702" lon="9.920395">
        <ele>684.694271</ele>
        <time>2025-11-12T03:06:29.364Z</time>
      </trkpt>
      <trkpt lat="48.587973" lon="9.920480">
        <ele>684.816345</ele>
        <time>2025-11-12T03:06:34.119Z</time>
      </trkpt>
      <trkpt lat="48.588275" lon="9.920512">
        <ele>684.949874</ele>
        <time>2025-11-12T03:06:38.874Z</time>
      </trkpt>
      <trkpt lat="48.588519" lon="9.920464">
        <ele>685.058401</ele>
        <time>2025-11-12T03:06:42.433Z</time>
      </trkpt>
      <trkpt lat="48.588788" lon="9.920364">
        <ele>685.003343</ele>
        <time>2025-11-12T03:06:46.234Z</time>
      </trkpt>
      <trkpt lat="48.590228" lon="9.919553">
        <ele>683.307277</ele>
        <time>2025-11-12T03:07:04.471Z</time>
      </trkpt>
      <trkpt lat="48.591386" lon="9.918978">
        <ele>682.068165</ele>
        <time>2025-11-12T03:07:18.448Z</time>
      </trkpt>
      <trkpt lat="48.592292" lon="9.918645">
        <ele>681.902016</ele>
        <time>2025-11-12T03:07:30.186Z</time>
      </trkpt>
      <trkpt lat="48.592341" lon="9.918627">
        <ele>682.040565</ele>
        <time>2025-11-12T03:07:31.121Z</time>
      </trkpt>
      <trkpt lat="48.592901" lon="9.918458">
        <ele>683.609575</ele>
        <time>2025-11-12T03:07:43.653Z</time>
      </trkpt>
      <trkpt lat="48.593221" lon="9.918356">
        <ele>684.508134</ele>
        <time>2025-11-12T03:07:53.588Z</time>
      </trkpt>
      <trkpt lat="48.593477" lon="9.918236">
        <ele>685.244549</ele>
        <time>2025-11-12T03:08:03.202Z</time>
      </trkpt>
      <trkpt lat="48.593555" lon="9.918142">
        <ele>685.518612</ele>
        <time>2025-11-12T03:08:06.910Z</time>
      </trkpt>
      <trkpt lat="48.593737" lon="9.917730">
        <ele>686.300953</ele>
        <time>2025-11-12T03:08:18.768Z</time>
      </trkpt>
      <trkpt lat="48.593854" lon="9.917622">
        <ele>686.358399</ele>
        <time>2025-11-12T03:08:23.459Z</time>
      </trkpt>
      <trkpt lat="48.594137" lon="9.917550">
        <ele>686.478660</ele>
        <time>2025-11-12T03:08:32.199Z</time>
      </trkpt>
      <trkpt lat="48.594390" lon="9.917549">
        <ele>686.584683</ele>
        <time>2025-11-12T03:08:38.313Z</time>
      </trkpt>
      <trkpt lat="48.594422" lon="9.917549">
        <ele>686.598093</ele>
        <time>2025-11-12T03:08:38.938Z</time>
      </trkpt>
      <trkpt lat="48.594651" lon="9.917552">
        <ele>686.694061</ele>
        <time>2025-11-12T03:08:42.600Z</time>
      </trkpt>
      <trkpt lat="48.594795" lon="9.917487">
        <ele>686.757038</ele>
        <time>2025-11-12T03:08:44.601Z</time>
      </trkpt>
      <trkpt lat="48.594931" lon="9.917302">
        <ele>686.833701</ele>
        <time>2025-11-12T03:08:46.839Z</time>
      </trkpt>
      <trkpt lat="48.595160" lon="9.916927">
        <ele>686.975163</ele>
        <time>2025-11-12T03:08:50.391Z</time>
      </trkpt>
      <trkpt lat="48.595228" lon="9.916870">
        <ele>687.007745</ele>
        <time>2025-11-12T03:08:51.148Z</time>
      </trkpt>
      <trkpt lat="48.595504" lon="9.916752">
        <ele>685.718702</ele>
        <time>2025-11-12T03:08:53.881Z</time>
      </trkpt>
      <trkpt lat="48.595638" lon="9.916660">
        <ele>684.860526</ele>
        <time>2025-11-12T03:08:55.249Z</time>
      </trkpt>
      <trkpt lat="48.595730" lon="9.916555">
        <ele>684.188372</ele>
        <time>2025-11-12T03:08:56.318Z</time>
      </trkpt>
      <trkpt lat="48.595826" lon="9.916381">
        <ele>683.314477</ele>
        <time>2025-11-12T03:08:57.688Z</time>
      </trkpt>
      <trkpt lat="48.596083" lon="9.915642">
        <ele>680.094440</ele>
        <time>2025-11-12T03:09:02.700Z</time>
      </trkpt>
      <trkpt lat="48.596244" lon="9.915360">
        <ele>678.657706</ele>
        <time>2025-11-12T03:09:04.917Z</time>
      </trkpt>
      <trkpt lat="48.596450" lon="9.915136">
        <ele>677.178088</ele>
        <time>2025-11-12T03:09:07.208Z</time>
      </trkpt>
      <trkpt lat="48.596761" lon="9.914912">
        <ele>675.361762</ele>
        <time>2025-11-12T03:09:10.325Z</time>
      </trkpt>
      <trkpt lat="48.596939" lon="9.914845">
        <ele>674.441745</ele>
        <time>2025-11-12T03:09:11.991Z</time>
      </trkpt>
      <trkpt lat="48.597125" lon="9.914823">
        <ele>673.506000</ele>
        <time>2025-11-12T03:09:13.697Z</time>
      </trkpt>
      <trkpt lat="48.597310" lon="9.914844">
        <ele>672.575509</ele>
        <time>2025-11-12T03:09:15.405Z</time>
      </trkpt>
      <trkpt lat="48.597527" lon="9.914914">
        <ele>671.462639</ele>
        <time>2025-11-12T03:09:17.479Z</time>
      </trkpt>
      <trkpt lat="48.598799" lon="9.915641">
        <ele>666.464383</ele>
        <time>2025-11-12T03:09:30.992Z</time>
      </trkpt>
      <trkpt lat="48.599081" lon="9.915795">
        <ele>665.911482</ele>
        <time>2025-11-12T03:09:34.302Z</time>
      </trkpt>
      <trkpt lat="48.599303" lon="9.915869">
        <ele>665.492270</ele>
        <time>2025-11-12T03:09:36.929Z</time>
      </trkpt>
      <trkpt lat="48.599570" lon="9.915921">
        <ele>664.995837</ele>
        <time>2025-11-12T03:09:40.187Z</time>
      </trkpt>
      <trkpt lat="48.599873" lon="9.915890">
        <ele>664.435807</ele>
        <time>2025-11-12T03:09:44.174Z</time>
      </trkpt>
      <trkpt lat="48.600046" lon="9.915841">
        <ele>664.222289</ele>
        <time>2025-11-12T03:09:46.687Z</time>
      </trkpt>
      <trkpt lat="48.600387" lon="9.915635">
        <ele>664.330335</ele>
        <time>2025-11-12T03:09:52.366Z</time>
      </trkpt>
      <trkpt lat="48.602890" lon="9.913675">
        <ele>665.326840</ele>
        <time>2025-11-12T03:10:39.342Z</time>
      </trkpt>
      <trkpt lat="48.603279" lon="9.913480">
        <ele>665.523324</ele>
        <time>2025-11-12T03:10:45.581Z</time>
      </trkpt>
      <trkpt lat="48.603791" lon="9.913312">
        <ele>666.032855</ele>
        <time>2025-11-12T03:10:54.451Z</time>
      </trkpt>
      <trkpt lat="48.603882" lon="9.913281">
        <ele>666.123575</ele>
        <time>2025-11-12T03:10:56.080Z</time>
      </trkpt>
      <trkpt lat="48.604731" lon="9.913031">
        <ele>666.964776</ele>
        <time>2025-11-12T03:11:11.836Z</time>
      </trkpt>
      <trkpt lat="48.606017" lon="9.912551">
        <ele>670.805880</ele>
        <time>2025-11-12T03:11:43.366Z</time>
      </trkpt>
      <trkpt lat="48.606829" lon="9.912215">
        <ele>673.761239</ele>
        <time>2025-11-12T03:12:12.674Z</time>
      </trkpt>
      <trkpt lat="48.607423" lon="9.912143">
        <ele>676.400399</ele>
        <time>2025-11-12T03:12:36.039Z</time>
      </trkpt>
      <trkpt lat="48.608127" lon="9.912076">
        <ele>679.524461</ele>
        <time>2025-11-12T03:12:59.799Z</time>
      </trkpt>
      <trkpt lat="48.609375" lon="9.911979">
        <ele>682.813143</ele>
        <time>2025-11-12T03:13:29.210Z</time>
      </trkpt>
      <trkpt lat="48.610507" lon="9.912091">
        <ele>684.639850</ele>
        <time>2025-11-12T03:13:52.098Z</time>
      </trkpt>
      <trkpt lat="48.610737" lon="9.912128">
        <ele>684.795015</ele>
        <time>2025-11-12T03:13:56.523Z</time>
      </trkpt>
      <trkpt lat="48.610835" lon="9.912144">
        <ele>684.861139</ele>
        <time>2025-11-12T03:13:58.350Z</time>
      </trkpt>
      <trkpt lat="48.611153" lon="9.912144">
        <ele>685.074468</ele>
        <time>2025-11-12T03:14:04.085Z</time>
      </trkpt>
      <trkpt lat="48.611449" lon="9.912061">
        <ele>685.276422</ele>
        <time>2025-11-12T03:14:09.793Z</time>
      </trkpt>
      <trkpt lat="48.611521" lon="9.912025">
        <ele>685.327293</ele>
        <time>2025-11-12T03:14:11.145Z</time>
      </trkpt>
      <trkpt lat="48.612086" lon="9.911719">
        <ele>685.687116</ele>
        <time>2025-11-12T03:14:20.553Z</time>
      </trkpt>
      <trkpt lat="48.612284" lon="9.911639">
        <ele>685.274840</ele>
        <time>2025-11-12T03:14:23.381Z</time>
      </trkpt>
      <trkpt lat="48.612428" lon="9.911622">
        <ele>684.984279</ele>
        <time>2025-11-12T03:14:25.282Z</time>
      </trkpt>
      <trkpt lat="48.612560" lon="9.911656">
        <ele>684.714916</ele>
        <time>2025-11-12T03:14:26.984Z</time>
      </trkpt>
      <trkpt lat="48.612693" lon="9.911691">
        <ele>684.443345</ele>
        <time>2025-11-12T03:14:28.634Z</time>
      </trkpt>
      <trkpt lat="48.612877" lon="9.911800">
        <ele>684.045822</ele>
        <time>2025-11-12T03:14:31.012Z</time>
      </trkpt>
      <trkpt lat="48.612920" lon="9.911836">
        <ele>683.946953</ele>
        <time>2025-11-12T03:14:31.580Z</time>
      </trkpt>
      <trkpt lat="48.613217" lon="9.912133">
        <ele>683.230716</ele>
        <time>2025-11-12T03:14:35.582Z</time>
      </trkpt>
      <trkpt lat="48.613443" lon="9.912459">
        <ele>682.602479</ele>
        <time>2025-11-12T03:14:38.681Z</time>
      </trkpt>
      <trkpt lat="48.613643" lon="9.912909">
        <ele>681.633317</ele>
        <time>2025-11-12T03:14:42.093Z</time>
      </trkpt>
      <trkpt lat="48.613729" lon="9.913307">
        <ele>680.447502</ele>
        <time>2025-11-12T03:14:44.717Z</time>
      </trkpt>
      <trkpt lat="48.613737" lon="9.913437">
        <ele>680.077749</ele>
        <time>2025-11-12T03:14:45.530Z</time>
      </trkpt>
      <trkpt lat="48.613769" lon="9.914060">
        <ele>678.308091</ele>
        <time>2025-11-12T03:14:49.424Z</time>
      </trkpt>
      <trkpt lat="48.613774" lon="9.914113">
        <ele>678.156474</ele>
        <time>2025-11-12T03:14:49.757Z</time>
      </trkpt>
      <trkpt lat="48.613798" lon="9.914348">
        <ele>677.483058</ele>
        <time>2025-11-12T03:14:51.239Z</time>
      </trkpt>
      <trkpt lat="48.613870" lon="9.914695">
        <ele>676.453092</ele>
        <time>2025-11-12T03:14:53.530Z</time>
      </trkpt>
      <trkpt lat="48.613939" lon="9.914979">
        <ele>675.596214</ele>
        <time>2025-11-12T03:14:55.439Z</time>
      </trkpt>
      <trkpt lat="48.614107" lon="9.915544">
        <ele>674.384217</ele>
        <time>2025-11-12T03:14:59.510Z</time>
      </trkpt>
      <trkpt lat="48.614187" lon="9.915700">
        <ele>674.372039</ele>
        <time>2025-11-12T03:15:00.932Z</time>
      </trkpt>
      <trkpt lat="48.614328" lon="9.915883">
        <ele>674.354706</ele>
        <time>2025-11-12T03:15:03.047Z</time>
      </trkpt>
      <trkpt lat="48.614423" lon="9.915947">
        <ele>674.345003</ele>
        <time>2025-11-12T03:15:04.255Z</time>
      </trkpt>
      <trkpt lat="48.614464" lon="9.915974">
        <ele>674.340831</ele>
        <time>2025-11-12T03:15:04.783Z</time>
      </trkpt>
      <trkpt lat="48.614596" lon="9.916016">
        <ele>674.328246</ele>
        <time>2025-11-12T03:15:06.372Z</time>
      </trkpt>
      <trkpt lat="48.614849" lon="9.915997">
        <ele>674.304612</ele>
        <time>2025-11-12T03:15:09.750Z</time>
      </trkpt>
      <trkpt lat="48.614942" lon="9.915946">
        <ele>674.295383</ele>
        <time>2025-11-12T03:15:11.301Z</time>
      </trkpt>
      <trkpt lat="48.615059" lon="9.915882">
        <ele>674.283775</ele>
        <time>2025-11-12T03:15:13.577Z</time>
      </trkpt>
      <trkpt lat="48.615386" lon="9.915553">
        <ele>674.247134</ele>
        <time>2025-11-12T03:15:22.259Z</time>
      </trkpt>
      <trkpt lat="48.615599" lon="9.915339">
        <ele>674.455016</ele>
        <time>2025-11-12T03:15:28.961Z</time>
      </trkpt>
      <trkpt lat="48.615902" lon="9.915075">
        <ele>675.874036</ele>
        <time>2025-11-12T03:15:39.431Z</time>
      </trkpt>
      <trkpt lat="48.616044" lon="9.914937">
        <ele>676.558978</ele>
        <time>2025-11-12T03:15:44.747Z</time>
      </trkpt>
      <trkpt lat="48.616299" lon="9.914654">
        <ele>677.842458</ele>
        <time>2025-11-12T03:15:55.143Z</time>
      </trkpt>
      <trkpt lat="48.616587" lon="9.914368">
        <ele>679.240564</ele>
        <time>2025-11-12T03:16:07.159Z</time>
      </trkpt>
      <trkpt lat="48.616741" lon="9.914291">
        <ele>679.898775</ele>
        <time>2025-11-12T03:16:12.932Z</time>
      </trkpt>
      <trkpt lat="48.616876" lon="9.914224">
        <ele>680.475359</ele>
        <time>2025-11-12T03:16:17.789Z</time>
      </trkpt>
      <trkpt lat="48.617037" lon="9.914167">
        <ele>681.146378</ele>
        <time>2025-11-12T03:16:23.321Z</time>
      </trkpt>
      <trkpt lat="48.617204" lon="9.914111">
        <ele>681.696474</ele>
        <time>2025-11-12T03:16:28.793Z</time>
      </trkpt>
      <trkpt lat="48.618192" lon="9.913927">
        <ele>683.876180</ele>
        <time>2025-11-12T03:16:55.740Z</time>
      </trkpt>
      <trkpt lat="48.619279" lon="9.913700">
        <ele>685.026172</ele>
        <time>2025-11-12T03:17:14.799Z</time>
      </trkpt>
      <trkpt lat="48.620231" lon="9.913418">
        <ele>683.876725</ele>
        <time>2025-11-12T03:17:25.769Z</time>
      </trkpt>
      <trkpt lat="48.621410" lon="9.913069">
        <ele>682.955760</ele>
        <time>2025-11-12T03:17:38.841Z</time>
      </trkpt>
      <trkpt lat="48.621746" lon="9.913031">
        <ele>682.784095</ele>
        <time>2025-11-12T03:17:43.337Z</time>
      </trkpt>
      <trkpt lat="48.621983" lon="9.913095">
        <ele>682.661438</ele>
        <time>2025-11-12T03:17:47.326Z</time>
      </trkpt>
      <trkpt lat="48.622215" lon="9.913212">
        <ele>682.536843</ele>
        <time>2025-11-12T03:17:52.001Z</time>
      </trkpt>
      <trkpt lat="48.622529" lon="9.913434">
        <ele>682.394994</ele>
        <time>2025-11-12T03:17:59.367Z</time>
      </trkpt>
      <trkpt lat="48.622871" lon="9.913621">
        <ele>682.320322</ele>
        <time>2025-11-12T03:18:06.967Z</time>
      </trkpt>
      <trkpt lat="48.623128" lon="9.913695">
        <ele>682.266602</ele>
        <time>2025-11-12T03:18:12.069Z</time>
      </trkpt>
      <trkpt lat="48.623444" lon="9.913711">
        <ele>682.201679</ele>
        <time>2025-11-12T03:18:17.587Z</time>
      </trkpt>
      <trkpt lat="48.624934" lon="9.913374">
        <ele>680.533739</ele>
        <time>2025-11-12T03:18:34.075Z</time>
      </trkpt>
      <trkpt lat="48.625386" lon="9.913211">
        <ele>679.611578</ele>
        <time>2025-11-12T03:18:38.859Z</time>
      </trkpt>
      <trkpt lat="48.625761" lon="9.913062">
        <ele>678.842122</ele>
        <time>2025-11-12T03:18:42.997Z</time>
      </trkpt>
      <trkpt lat="48.627063" lon="9.912412">
        <ele>677.874426</ele>
        <time>2025-11-12T03:19:01.143Z</time>
      </trkpt>
      <trkpt lat="48.627613" lon="9.912179">
        <ele>677.583584</ele>
        <time>2025-11-12T03:19:10.152Z</time>
      </trkpt>
      <trkpt lat="48.628027" lon="9.912053">
        <ele>677.132747</ele>
        <time>2025-11-12T03:19:15.964Z</time>
      </trkpt>
      <trkpt lat="48.628608" lon="9.911936">
        <ele>676.473588</ele>
        <time>2025-11-12T03:19:23.196Z</time>
      </trkpt>
      <trkpt lat="48.629856" lon="9.911876">
        <ele>674.818351</ele>
        <time>2025-11-12T03:19:37.162Z</time>
      </trkpt>
      <trkpt lat="48.632013" lon="9.911692">
        <ele>671.636178</ele>
        <time>2025-11-12T03:20:01.473Z</time>
      </trkpt>
      <trkpt lat="48.632524" lon="9.911627">
        <ele>671.107584</ele>
        <time>2025-11-12T03:20:07.940Z</time>
      </trkpt>
      <trkpt lat="48.633058" lon="9.911513">
        <ele>670.590290</ele>
        <time>2025-11-12T03:20:15.195Z</time>
      </trkpt>
      <trkpt lat="48.633505" lon="9.911333">
        <ele>670.630912</ele>
        <time>2025-11-12T03:20:22.190Z</time>
      </trkpt>
      <trkpt lat="48.633681" lon="9.911263">
        <ele>670.646893</ele>
        <time>2025-11-12T03:20:25.117Z</time>
      </trkpt>
      <trkpt lat="48.634029" lon="9.911126">
        <ele>670.678472</ele>
        <time>2025-11-12T03:20:31.094Z</time>
      </trkpt>
      <trkpt lat="48.634963" lon="9.910821">
        <ele>670.524161</ele>
        <time>2025-11-12T03:20:46.106Z</time>
      </trkpt>
      <trkpt lat="48.635099" lon="9.910810">
        <ele>670.370155</ele>
        <time>2025-11-12T03:20:48.074Z</time>
      </trkpt>
      <trkpt lat="48.635742" lon="9.910713">
        <ele>669.639454</ele>
        <time>2025-11-12T03:20:56.013Z</time>
      </trkpt>
      <trkpt lat="48.636040" lon="9.910661">
        <ele>669.300247</ele>
        <time>2025-11-12T03:20:59.380Z</time>
      </trkpt>
      <trkpt lat="48.636104" lon="9.910651">
        <ele>669.227491</ele>
        <time>2025-11-12T03:21:00.106Z</time>
      </trkpt>
      <trkpt lat="48.636670" lon="9.910640">
        <ele>668.412289</ele>
        <time>2025-11-12T03:21:06.492Z</time>
      </trkpt>
      <trkpt lat="48.636916" lon="9.910679">
        <ele>667.737328</ele>
        <time>2025-11-12T03:21:09.144Z</time>
      </trkpt>
      <trkpt lat="48.636861" lon="9.911427">
        <ele>666.380152</ele>
        <time>2025-11-12T03:21:16.564Z</time>
      </trkpt>
      <trkpt lat="48.636786" lon="9.913432">
        <ele>662.879826</ele>
        <time>2025-11-12T03:21:36.035Z</time>
      </trkpt>
      <trkpt lat="48.636783" lon="9.913827">
        <ele>662.250039</ele>
        <time>2025-11-12T03:21:39.822Z</time>
      </trkpt>
      <trkpt lat="48.636821" lon="9.916893">
        <ele>658.573608</ele>
        <time>2025-11-12T03:22:11.673Z</time>
      </trkpt>
      <trkpt lat="48.636900" lon="9.920720">
        <ele>657.869175</ele>
        <time>2025-11-12T03:22:48.619Z</time>
      </trkpt>
      <trkpt lat="48.636896" lon="9.921072">
        <ele>657.936278</ele>
        <time>2025-11-12T03:22:53.270Z</time>
      </trkpt>
      <trkpt lat="48.636547" lon="9.925214">
        <ele>658.199401</ele>
        <time>2025-11-12T03:23:46.198Z</time>
      </trkpt>
      <trkpt lat="48.636498" lon="9.925198">
        <ele>658.123259</ele>
        <time>2025-11-12T03:23:46.746Z</time>
      </trkpt>
      <trkpt lat="48.636547" lon="9.925214">
        <ele>658.047116</ele>
        <time>2025-11-12T03:23:47.283Z</time>
      </trkpt>
      <trkpt lat="48.639074" lon="9.927487">
        <ele>648.225916</ele>
        <time>2025-11-12T03:24:14.918Z</time>
      </trkpt>
      <trkpt lat="48.639215" lon="9.927620">
        <ele>648.259192</ele>
        <time>2025-11-12T03:24:16.724Z</time>
      </trkpt>
      <trkpt lat="48.640293" lon="9.928781">
        <ele>648.948680</ele>
        <time>2025-11-12T03:24:48.344Z</time>
      </trkpt>
      <trkpt lat="48.640477" lon="9.928895">
        <ele>649.632036</ele>
        <time>2025-11-12T03:24:55.685Z</time>
      </trkpt>
      <trkpt lat="48.641012" lon="9.929092">
        <ele>651.524486</ele>
        <time>2025-11-12T03:25:15.168Z</time>
      </trkpt>
      <trkpt lat="48.641164" lon="9.929194">
        <ele>652.095968</ele>
        <time>2025-11-12T03:25:20.795Z</time>
      </trkpt>
      <trkpt lat="48.641338" lon="9.929388">
        <ele>652.838781</ele>
        <time>2025-11-12T03:25:27.988Z</time>
      </trkpt>
      <trkpt lat="48.642676" lon="9.931092">
        <ele>655.087201</ele>
        <time>2025-11-12T03:26:04.524Z</time>
      </trkpt>
      <trkpt lat="48.642271" lon="9.934824">
        <ele>651.209757</ele>
        <time>2025-11-12T03:26:31.761Z</time>
      </trkpt>
      <trkpt lat="48.642090" lon="9.936438">
        <ele>648.580822</ele>
        <time>2025-11-12T03:26:42.849Z</time>
      </trkpt>
      <trkpt lat="48.641749" lon="9.939598">
        <ele>644.372956</ele>
        <time>2025-11-12T03:27:06.463Z</time>
      </trkpt>
      <trkpt lat="48.641601" lon="9.940967">
        <ele>643.259376</ele>
        <time>2025-11-12T03:27:16.822Z</time>
      </trkpt>
      <trkpt lat="48.641560" lon="9.941341">
        <ele>643.022738</ele>
        <time>2025-11-12T03:27:19.698Z</time>
      </trkpt>
      <trkpt lat="48.641551" lon="9.941781">
        <ele>642.747962</ele>
        <time>2025-11-12T03:27:23.154Z</time>
      </trkpt>
      <trkpt lat="48.641526" lon="9.942555">
        <ele>642.264260</ele>
        <time>2025-11-12T03:27:29.762Z</time>
      </trkpt>
      <trkpt lat="48.641565" lon="9.944050">
        <ele>643.298340</ele>
        <time>2025-11-12T03:27:48.787Z</time>
      </trkpt>
      <trkpt lat="48.641596" lon="9.944788">
        <ele>643.935932</ele>
        <time>2025-11-12T03:27:59.751Z</time>
      </trkpt>
      <trkpt lat="48.641635" lon="9.945187">
        <ele>644.283695</ele>
        <time>2025-11-12T03:28:05.799Z</time>
      </trkpt>
      <trkpt lat="48.641828" lon="9.946136">
        <ele>645.181596</ele>
        <time>2025-11-12T03:28:20.232Z</time>
      </trkpt>
      <trkpt lat="48.641884" lon="9.946342">
        <ele>645.386272</ele>
        <time>2025-11-12T03:28:23.132Z</time>
      </trkpt>
      <trkpt lat="48.642728" lon="9.948681">
        <ele>648.316515</ele>
        <time>2025-11-12T03:28:57.390Z</time>
      </trkpt>
      <trkpt lat="48.642795" lon="9.949078">
        <ele>648.911378</ele>
        <time>2025-11-12T03:29:03.598Z</time>
      </trkpt>
      <trkpt lat="48.642797" lon="9.949322">
        <ele>649.265642</ele>
        <time>2025-11-12T03:29:07.517Z</time>
      </trkpt>
      <trkpt lat="48.642752" lon="9.949769">
        <ele>649.922080</ele>
        <time>2025-11-12T03:29:15.202Z</time>
      </trkpt>
      <trkpt lat="48.642649" lon="9.950529">
        <ele>651.117936</ele>
        <time>2025-11-12T03:29:29.010Z</time>
      </trkpt>
      <trkpt lat="48.642527" lon="9.951320">
        <ele>653.192803</ele>
        <time>2025-11-12T03:29:44.214Z</time>
      </trkpt>
      <trkpt lat="48.642365" lon="9.951847">
        <ele>654.677540</ele>
        <time>2025-11-12T03:29:55.928Z</time>
      </trkpt>
      <trkpt lat="48.642253" lon="9.952226">
        <ele>655.738085</ele>
        <time>2025-11-12T03:30:04.323Z</time>
      </trkpt>
      <trkpt lat="48.641786" lon="9.954396">
        <ele>661.772215</ele>
        <time>2025-11-12T03:31:01.724Z</time>
      </trkpt>
      <trkpt lat="48.641544" lon="9.955362">
        <ele>664.558690</ele>
        <time>2025-11-12T03:31:26.907Z</time>
      </trkpt>
      <trkpt lat="48.641531" lon="9.955490">
        <ele>664.907987</ele>
        <time>2025-11-12T03:31:29.952Z</time>
      </trkpt>
      <trkpt lat="48.641467" lon="9.955586">
        <ele>665.252218</ele>
        <time>2025-11-12T03:31:32.632Z</time>
      </trkpt>
      <trkpt lat="48.641249" lon="9.956168">
        <ele>665.250711</ele>
        <time>2025-11-12T03:31:44.740Z</time>
      </trkpt>
      <trkpt lat="48.641134" lon="9.956550">
        <ele>665.249766</ele>
        <time>2025-11-12T03:31:50.388Z</time>
      </trkpt>
      <trkpt lat="48.641072" lon="9.956899">
        <ele>665.248952</ele>
        <time>2025-11-12T03:31:53.969Z</time>
      </trkpt>
      <trkpt lat="48.641022" lon="9.957380">
        <ele>665.247856</ele>
        <time>2025-11-12T03:31:57.734Z</time>
      </trkpt>
      <trkpt lat="48.640210" lon="9.957046">
        <ele>664.771211</ele>
        <time>2025-11-12T03:32:10.125Z</time>
      </trkpt>
      <trkpt lat="48.640014" lon="9.956962">
        <ele>664.476781</ele>
        <time>2025-11-12T03:32:13.034Z</time>
      </trkpt>
      <trkpt lat="48.639769" lon="9.956876">
        <ele>664.113269</ele>
        <time>2025-11-12T03:32:16.607Z</time>
      </trkpt>
      <trkpt lat="48.639686" lon="9.956844">
        <ele>663.989473</ele>
        <time>2025-11-12T03:32:17.863Z</time>
      </trkpt>
      <trkpt lat="48.639342" lon="9.956712">
        <ele>663.476537</ele>
        <time>2025-11-12T03:32:23.291Z</time>
      </trkpt>
      <trkpt lat="48.638331" lon="9.956421">
        <ele>663.439157</ele>
        <time>2025-11-12T03:32:50.280Z</time>
      </trkpt>
      <trkpt lat="48.637203" lon="9.955893">
        <ele>665.497188</ele>
        <time>2025-11-12T03:33:28.634Z</time>
      </trkpt>
      <trkpt lat="48.636305" lon="9.955437">
        <ele>662.671821</ele>
        <time>2025-11-12T03:33:44.029Z</time>
      </trkpt>
      <trkpt lat="48.635361" lon="9.955029">
        <ele>658.778267</ele>
        <time>2025-11-12T03:33:56.856Z</time>
      </trkpt>
      <trkpt lat="48.635043" lon="9.954892">
        <ele>656.257363</ele>
        <time>2025-11-12T03:34:01.065Z</time>
      </trkpt>
      <trkpt lat="48.634736" lon="9.954803">
        <ele>653.748188</ele>
        <time>2025-11-12T03:34:05.026Z</time>
      </trkpt>
      <trkpt lat="48.633631" lon="9.954652">
        <ele>644.842012</ele>
        <time>2025-11-12T03:34:18.903Z</time>
      </trkpt>
      <trkpt lat="48.632371" lon="9.954258">
        <ele>632.436553</ele>
        <time>2025-11-12T03:34:34.676Z</time>
      </trkpt>
      <trkpt lat="48.631934" lon="9.954292">
        <ele>628.171443</ele>
        <time>2025-11-12T03:34:39.995Z</time>
      </trkpt>
      <trkpt lat="48.631640" lon="9.954405">
        <ele>625.274460</ele>
        <time>2025-11-12T03:34:43.668Z</time>
      </trkpt>
      <trkpt lat="48.631048" lon="9.954656">
        <ele>619.526209</ele>
        <time>2025-11-12T03:34:51.126Z</time>
      </trkpt>
      <trkpt lat="48.630493" lon="9.954700">
        <ele>614.329980</ele>
        <time>2025-11-12T03:34:57.922Z</time>
      </trkpt>
      <trkpt lat="48.629941" lon="9.954628">
        <ele>609.478644</ele>
        <time>2025-11-12T03:35:04.865Z</time>
      </trkpt>
      <trkpt lat="48.629187" lon="9.954422">
        <ele>605.624248</ele>
        <time>2025-11-12T03:35:14.933Z</time>
      </trkpt>
      <trkpt lat="48.627617" lon="9.953752">
        <ele>599.289299</ele>
        <time>2025-11-12T03:35:38.289Z</time>
      </trkpt>
      <trkpt lat="48.627424" lon="9.953736">
        <ele>598.852812</ele>
        <time>2025-11-12T03:35:41.253Z</time>
      </trkpt>
      <trkpt lat="48.627199" lon="9.953780">
        <ele>598.340491</ele>
        <time>2025-11-12T03:35:44.808Z</time>
      </trkpt>
      <trkpt lat="48.625899" lon="9.954189">
        <ele>596.977117</ele>
        <time>2025-11-12T03:36:07.918Z</time>
      </trkpt>
      <trkpt lat="48.625309" lon="9.954405">
        <ele>597.196237</ele>
        <time>2025-11-12T03:36:20.596Z</time>
      </trkpt>
      <trkpt lat="48.624925" lon="9.954585">
        <ele>597.341351</ele>
        <time>2025-11-12T03:36:30.799Z</time>
      </trkpt>
      <trkpt lat="48.624552" lon="9.954810">
        <ele>598.109814</ele>
        <time>2025-11-12T03:36:42.375Z</time>
      </trkpt>
      <trkpt lat="48.624255" lon="9.954890">
        <ele>599.014955</ele>
        <time>2025-11-12T03:36:51.742Z</time>
      </trkpt>
      <trkpt lat="48.623521" lon="9.954892">
        <ele>601.217273</ele>
        <time>2025-11-12T03:37:16.295Z</time>
      </trkpt>
      <trkpt lat="48.622659" lon="9.954812">
        <ele>604.110984</ele>
        <time>2025-11-12T03:37:46.198Z</time>
      </trkpt>
      <trkpt lat="48.622345" lon="9.954852">
        <ele>605.339390</ele>
        <time>2025-11-12T03:37:57.049Z</time>
      </trkpt>
      <trkpt lat="48.621809" lon="9.954981">
        <ele>607.455169</ele>
        <time>2025-11-12T03:38:16.043Z</time>
      </trkpt>
      <trkpt lat="48.620751" lon="9.955255">
        <ele>610.988923</ele>
        <time>2025-11-12T03:38:56.914Z</time>
      </trkpt>
      <trkpt lat="48.620617" lon="9.955234">
        <ele>611.327382</ele>
        <time>2025-11-12T03:39:02.120Z</time>
      </trkpt>
      <trkpt lat="48.620526" lon="9.955182">
        <ele>611.571775</ele>
        <time>2025-11-12T03:39:05.855Z</time>
      </trkpt>
      <trkpt lat="48.620248" lon="9.954931">
        <ele>612.385155</ele>
        <time>2025-11-12T03:39:17.481Z</time>
      </trkpt>
      <trkpt lat="48.619751" lon="9.954396">
        <ele>613.917669</ele>
        <time>2025-11-12T03:39:34.398Z</time>
      </trkpt>
      <trkpt lat="48.619552" lon="9.954255">
        <ele>614.035766</ele>
        <time>2025-11-12T03:39:38.497Z</time>
      </trkpt>
      <trkpt lat="48.619189" lon="9.954160">
        <ele>612.122173</ele>
        <time>2025-11-12T03:39:44.080Z</time>
      </trkpt>
      <trkpt lat="48.618557" lon="9.953936">
        <ele>608.750378</ele>
        <time>2025-11-12T03:39:52.692Z</time>
      </trkpt>
      <trkpt lat="48.617896" lon="9.953586">
        <ele>605.112576</ele>
        <time>2025-11-12T03:40:01.433Z</time>
      </trkpt>
      <trkpt lat="48.617327" lon="9.953140">
        <ele>603.746277</ele>
        <time>2025-11-12T03:40:09.659Z</time>
      </trkpt>
      <trkpt lat="48.617148" lon="9.952930">
        <ele>603.290895</ele>
        <time>2025-11-12T03:40:12.752Z</time>
      </trkpt>
      <trkpt lat="48.617004" lon="9.952673">
        <ele>602.843176</ele>
        <time>2025-11-12T03:40:16.026Z</time>
      </trkpt>
      <trkpt lat="48.616951" lon="9.952555">
        <ele>602.653586</ele>
        <time>2025-11-12T03:40:17.577Z</time>
      </trkpt>
      <trkpt lat="48.616562" lon="9.951671">
        <ele>601.978349</ele>
        <time>2025-11-12T03:40:38.664Z</time>
      </trkpt>
      <trkpt lat="48.616434" lon="9.951474">
        <ele>603.734690</ele>
        <time>2025-11-12T03:40:47.525Z</time>
      </trkpt>
      <trkpt lat="48.616312" lon="9.951431">
        <ele>604.939536</ele>
        <time>2025-11-12T03:40:54.258Z</time>
      </trkpt>
      <trkpt lat="48.616154" lon="9.951427">
        <ele>606.459414</ele>
        <time>2025-11-12T03:41:03.501Z</time>
      </trkpt>
      <trkpt lat="48.615224" lon="9.951522">
        <ele>615.424654</ele>
        <time>2025-11-12T03:42:06.544Z</time>
      </trkpt>
      <trkpt lat="48.614882" lon="9.951455">
        <ele>618.736881</ele>
        <time>2025-11-12T03:42:30.837Z</time>
      </trkpt>
      <trkpt lat="48.613779" lon="9.950132">
        <ele>631.406852</ele>
        <time>2025-11-12T03:43:54.391Z</time>
      </trkpt>
      <trkpt lat="48.613369" lon="9.949703">
        <ele>635.399116</ele>
        <time>2025-11-12T03:44:17.310Z</time>
      </trkpt>
      <trkpt lat="48.612138" lon="9.948734">
        <ele>641.925297</ele>
        <time>2025-11-12T03:45:01.854Z</time>
      </trkpt>
      <trkpt lat="48.611552" lon="9.948411">
        <ele>644.582468</ele>
        <time>2025-11-12T03:45:20.862Z</time>
      </trkpt>
      <trkpt lat="48.611363" lon="9.948248">
        <ele>645.422551</ele>
        <time>2025-11-12T03:45:27.652Z</time>
      </trkpt>
      <trkpt lat="48.611161" lon="9.947935">
        <ele>646.539185</ele>
        <time>2025-11-12T03:45:36.644Z</time>
      </trkpt>
      <trkpt lat="48.610908" lon="9.947384">
        <ele>648.251804</ele>
        <time>2025-11-12T03:45:50.232Z</time>
      </trkpt>
      <trkpt lat="48.610692" lon="9.946990">
        <ele>649.558470</ele>
        <time>2025-11-12T03:46:00.415Z</time>
      </trkpt>
      <trkpt lat="48.610486" lon="9.946670">
        <ele>650.655584</ele>
        <time>2025-11-12T03:46:08.987Z</time>
      </trkpt>
      <trkpt lat="48.609637" lon="9.945505">
        <ele>654.645709</ele>
        <time>2025-11-12T03:46:40.404Z</time>
      </trkpt>
      <trkpt lat="48.608710" lon="9.944324">
        <ele>659.030598</ele>
        <time>2025-11-12T03:47:17.146Z</time>
      </trkpt>
      <trkpt lat="48.608366" lon="9.943947">
        <ele>660.614097</ele>
        <time>2025-11-12T03:47:30.703Z</time>
      </trkpt>
      <trkpt lat="48.607969" lon="9.943599">
        <ele>662.324485</ele>
        <time>2025-11-12T03:47:44.607Z</time>
      </trkpt>
      <trkpt lat="48.607631" lon="9.943380">
        <ele>663.557093</ele>
        <time>2025-11-12T03:47:55.166Z</time>
      </trkpt>
      <trkpt lat="48.606334" lon="9.942879">
        <ele>667.078000</ele>
        <time>2025-11-12T03:48:27.239Z</time>
      </trkpt>
      <trkpt lat="48.605371" lon="9.942494">
        <ele>670.069229</ele>
        <time>2025-11-12T03:48:58.128Z</time>
      </trkpt>
      <trkpt lat="48.604928" lon="9.942337">
        <ele>671.521247</ele>
        <time>2025-11-12T03:49:14.081Z</time>
      </trkpt>
      <trkpt lat="48.604455" lon="9.942287">
        <ele>673.034385</ele>
        <time>2025-11-12T03:49:30.716Z</time>
      </trkpt>
      <trkpt lat="48.604343" lon="9.942239">
        <ele>673.405879</ele>
        <time>2025-11-12T03:49:34.855Z</time>
      </trkpt>
      <trkpt lat="48.604266" lon="9.942168">
        <ele>673.693679</ele>
        <time>2025-11-12T03:49:38.023Z</time>
      </trkpt>
      <trkpt lat="48.604114" lon="9.941693">
        <ele>674.194854</ele>
        <time>2025-11-12T03:49:49.573Z</time>
      </trkpt>
      <trkpt lat="48.603942" lon="9.941522">
        <ele>674.489430</ele>
        <time>2025-11-12T03:49:55.520Z</time>
      </trkpt>
      <trkpt lat="48.603915" lon="9.941548">
        <ele>674.535238</ele>
        <time>2025-11-12T03:49:56.275Z</time>
      </trkpt>
      <trkpt lat="48.603792" lon="9.941722">
        <ele>674.776274</ele>
        <time>2025-11-12T03:50:00.062Z</time>
      </trkpt>
      <trkpt lat="48.603510" lon="9.942193">
        <ele>675.377553</ele>
        <time>2025-11-12T03:50:08.556Z</time>
      </trkpt>
      <trkpt lat="48.603402" lon="9.942427">
        <ele>675.647599</ele>
        <time>2025-11-12T03:50:11.616Z</time>
      </trkpt>
      <trkpt lat="48.603347" lon="9.942656">
        <ele>675.878162</ele>
        <time>2025-11-12T03:50:13.861Z</time>
      </trkpt>
      <trkpt lat="48.603225" lon="9.943420">
        <ele>676.141479</ele>
        <time>2025-11-12T03:50:20.981Z</time>
      </trkpt>
      <trkpt lat="48.603032" lon="9.944228">
        <ele>675.841490</ele>
        <time>2025-11-12T03:50:28.534Z</time>
      </trkpt>
      <trkpt lat="48.602994" lon="9.944483">
        <ele>675.750214</ele>
        <time>2025-11-12T03:50:30.750Z</time>
      </trkpt>
      <trkpt lat="48.602983" lon="9.944782">
        <ele>675.645644</ele>
        <time>2025-11-12T03:50:33.272Z</time>
      </trkpt>
      <trkpt lat="48.603035" lon="9.945113">
        <ele>675.526845</ele>
        <time>2025-11-12T03:50:36.137Z</time>
      </trkpt>
      <trkpt lat="48.603535" lon="9.946907">
        <ele>674.980005</ele>
        <time>2025-11-12T03:50:52.754Z</time>
      </trkpt>
      <trkpt lat="48.603671" lon="9.947526">
        <ele>674.816114</ele>
        <time>2025-11-12T03:50:58.462Z</time>
      </trkpt>
      <trkpt lat="48.603752" lon="9.948063">
        <ele>674.677721</ele>
        <time>2025-11-12T03:51:03.680Z</time>
      </trkpt>
      <trkpt lat="48.603780" lon="9.948370">
        <ele>674.715065</ele>
        <time>2025-11-12T03:51:06.856Z</time>
      </trkpt>
      <trkpt lat="48.603794" lon="9.949148">
        <ele>675.113888</ele>
        <time>2025-11-12T03:51:15.597Z</time>
      </trkpt>
      <trkpt lat="48.603653" lon="9.952191">
        <ele>675.829092</ele>
        <time>2025-11-12T03:51:53.895Z</time>
      </trkpt>
      <trkpt lat="48.603636" lon="9.952457">
        <ele>675.786129</ele>
        <time>2025-11-12T03:51:56.540Z</time>
      </trkpt>
      <trkpt lat="48.603552" lon="9.953205">
        <ele>675.664154</ele>
        <time>2025-11-12T03:52:02.955Z</time>
      </trkpt>
      <trkpt lat="48.603407" lon="9.953943">
        <ele>674.751156</ele>
        <time>2025-11-12T03:52:08.656Z</time>
      </trkpt>
      <trkpt lat="48.602771" lon="9.956318">
        <ele>668.046482</ele>
        <time>2025-11-12T03:52:25.143Z</time>
      </trkpt>
      <trkpt lat="48.602646" lon="9.956859">
        <ele>665.755966</ele>
        <time>2025-11-12T03:52:28.586Z</time>
      </trkpt>
      <trkpt lat="48.602570" lon="9.957351">
        <ele>663.736547</ele>
        <time>2025-11-12T03:52:31.583Z</time>
      </trkpt>
      <trkpt lat="48.602417" lon="9.959219">
        <ele>656.981377</ele>
        <time>2025-11-12T03:52:42.846Z</time>
      </trkpt>
      <trkpt lat="48.602400" lon="9.959392">
        <ele>656.603376</ele>
        <time>2025-11-12T03:52:43.948Z</time>
      </trkpt>
      <trkpt lat="48.601971" lon="9.962386">
        <ele>651.200258</ele>
        <time>2025-11-12T03:53:05.779Z</time>
      </trkpt>
      <trkpt lat="48.601567" lon="9.967495">
        <ele>647.627430</ele>
        <time>2025-11-12T03:53:48.587Z</time>
      </trkpt>
      <trkpt lat="48.601547" lon="9.968623">
        <ele>646.616651</ele>
        <time>2025-11-12T03:53:57.382Z</time>
      </trkpt>
      <trkpt lat="48.601551" lon="9.968765">
        <ele>646.489338</ele>
        <time>2025-11-12T03:53:58.461Z</time>
      </trkpt>
      <trkpt lat="48.601588" lon="9.970486">
        <ele>645.038281</ele>
        <time>2025-11-12T03:54:11.146Z</time>
      </trkpt>
      <trkpt lat="48.601657" lon="9.971183">
        <ele>644.477347</ele>
        <time>2025-11-12T03:54:16.511Z</time>
      </trkpt>
      <trkpt lat="48.601847" lon="9.972173">
        <ele>643.656880</ele>
        <time>2025-11-12T03:54:25.086Z</time>
      </trkpt>
      <trkpt lat="48.602008" lon="9.972843">
        <ele>643.672070</ele>
        <time>2025-11-12T03:54:31.892Z</time>
      </trkpt>
      <trkpt lat="48.602117" lon="9.973320">
        <ele>643.727216</ele>
        <time>2025-11-12T03:54:37.227Z</time>
      </trkpt>
      <trkpt lat="48.602203" lon="9.973921">
        <ele>643.794407</ele>
        <time>2025-11-12T03:54:43.966Z</time>
      </trkpt>
      <trkpt lat="48.602237" lon="9.974431">
        <ele>643.850417</ele>
        <time>2025-11-12T03:54:49.755Z</time>
      </trkpt>
      <trkpt lat="48.602241" lon="9.974481">
        <ele>643.855921</ele>
        <time>2025-11-12T03:54:50.321Z</time>
      </trkpt>
      <trkpt lat="48.602343" lon="9.977075">
        <ele>644.067012</ele>
        <time>2025-11-12T03:55:18.229Z</time>
      </trkpt>
      <trkpt lat="48.602313" lon="9.978169">
        <ele>643.541202</ele>
        <time>2025-11-12T03:55:27.554Z</time>
      </trkpt>
      <trkpt lat="48.602311" lon="9.978354">
        <ele>643.360872</ele>
        <time>2025-11-12T03:55:29.034Z</time>
      </trkpt>
      <trkpt lat="48.602460" lon="9.979766">
        <ele>641.967288</ele>
        <time>2025-11-12T03:55:39.896Z</time>
      </trkpt>
      <trkpt lat="48.602465" lon="9.980255">
        <ele>641.490639</ele>
        <time>2025-11-12T03:55:43.429Z</time>
      </trkpt>
      <trkpt lat="48.602354" lon="9.980659">
        <ele>640.394865</ele>
        <time>2025-11-12T03:55:46.509Z</time>
      </trkpt>
      <trkpt lat="48.602138" lon="9.981001">
        <ele>639.145036</ele>
        <time>2025-11-12T03:55:49.715Z</time>
      </trkpt>
      <trkpt lat="48.602009" lon="9.981099">
        <ele>638.568097</ele>
        <time>2025-11-12T03:55:51.154Z</time>
      </trkpt>
      <trkpt lat="48.601521" lon="9.981259">
        <ele>636.572523</ele>
        <time>2025-11-12T03:55:56.001Z</time>
      </trkpt>
      <trkpt lat="48.600341" lon="9.981565">
        <ele>630.592582</ele>
        <time>2025-11-12T03:56:07.115Z</time>
      </trkpt>
      <trkpt lat="48.599480" lon="9.981754">
        <ele>625.439276</ele>
        <time>2025-11-12T03:56:15.058Z</time>
      </trkpt>
      <trkpt lat="48.599101" lon="9.981754">
        <ele>623.453634</ele>
        <time>2025-11-12T03:56:18.492Z</time>
      </trkpt>
      <trkpt lat="48.598184" lon="9.981585">
        <ele>621.366284</ele>
        <time>2025-11-12T03:56:27.045Z</time>
      </trkpt>
      <trkpt lat="48.597741" lon="9.981620">
        <ele>620.363933</ele>
        <time>2025-11-12T03:56:32.634Z</time>
      </trkpt>
      <trkpt lat="48.597438" lon="9.981797">
        <ele>619.629971</ele>
        <time>2025-11-12T03:56:40.413Z</time>
      </trkpt>
      <trkpt lat="48.597308" lon="9.981873">
        <ele>620.488238</ele>
        <time>2025-11-12T03:56:44.848Z</time>
      </trkpt>
      <trkpt lat="48.597118" lon="9.981983">
        <ele>622.330004</ele>
        <time>2025-11-12T03:56:52.665Z</time>
      </trkpt>
      <trkpt lat="48.596734" lon="9.982123">
        <ele>625.905837</ele>
        <time>2025-11-12T03:57:11.665Z</time>
      </trkpt>
      <trkpt lat="48.596411" lon="9.982063">
        <ele>628.851819</ele>
        <time>2025-11-12T03:57:31.052Z</time>
      </trkpt>
      <trkpt lat="48.596176" lon="9.981844">
        <ele>631.350788</ele>
        <time>2025-11-12T03:57:49.312Z</time>
      </trkpt>
      <trkpt lat="48.595927" lon="9.981127">
        <ele>636.161666</ele>
        <time>2025-11-12T03:58:22.827Z</time>
      </trkpt>
      <trkpt lat="48.595662" lon="9.980809">
        <ele>638.910262</ele>
        <time>2025-11-12T03:58:42.006Z</time>
      </trkpt>
      <trkpt lat="48.595539" lon="9.980750">
        <ele>639.958640</ele>
        <time>2025-11-12T03:58:48.980Z</time>
      </trkpt>
      <trkpt lat="48.595409" lon="9.980734">
        <ele>641.018300</ele>
        <time>2025-11-12T03:58:55.813Z</time>
      </trkpt>
      <trkpt lat="48.595304" lon="9.980763">
        <ele>641.885473</ele>
        <time>2025-11-12T03:59:01.172Z</time>
      </trkpt>
      <trkpt lat="48.595152" lon="9.980904">
        <ele>643.334260</ele>
        <time>2025-11-12T03:59:09.715Z</time>
      </trkpt>
      <trkpt lat="48.595059" lon="9.981075">
        <ele>644.523850</ele>
        <time>2025-11-12T03:59:16.369Z</time>
      </trkpt>
      <trkpt lat="48.595008" lon="9.981269">
        <ele>645.645592</ele>
        <time>2025-11-12T03:59:22.344Z</time>
      </trkpt>
      <trkpt lat="48.594892" lon="9.982057">
        <ele>649.983346</ele>
        <time>2025-11-12T03:59:43.083Z</time>
      </trkpt>
      <trkpt lat="48.594775" lon="9.982463">
        <ele>651.406220</ele>
        <time>2025-11-12T03:59:53.214Z</time>
      </trkpt>
      <trkpt lat="48.594645" lon="9.982729">
        <ele>652.297028</ele>
        <time>2025-11-12T04:00:00.642Z</time>
      </trkpt>
      <trkpt lat="48.594499" lon="9.982929">
        <ele>653.099316</ele>
        <time>2025-11-12T04:00:07.488Z</time>
      </trkpt>
      <trkpt lat="48.594245" lon="9.983149">
        <ele>654.291383</ele>
        <time>2025-11-12T04:00:17.965Z</time>
      </trkpt>
      <trkpt lat="48.593230" lon="9.983729">
        <ele>656.978458</ele>
        <time>2025-11-12T04:00:49.178Z</time>
      </trkpt>
      <trkpt lat="48.592597" lon="9.984051">
        <ele>654.692293</ele>
        <time>2025-11-12T04:00:56.860Z</time>
      </trkpt>
      <trkpt lat="48.591232" lon="9.984746">
        <ele>647.520538</ele>
        <time>2025-11-12T04:01:09.725Z</time>
      </trkpt>
      <trkpt lat="48.589838" lon="9.985259">
        <ele>637.418392</ele>
        <time>2025-11-12T04:01:22.385Z</time>
      </trkpt>
      <trkpt lat="48.589623" lon="9.985377">
        <ele>636.668131</ele>
        <time>2025-11-12T04:01:24.511Z</time>
      </trkpt>
      <trkpt lat="48.589389" lon="9.985542">
        <ele>635.821200</ele>
        <time>2025-11-12T04:01:26.971Z</time>
      </trkpt>
      <trkpt lat="48.589127" lon="9.985790">
        <ele>634.807256</ele>
        <time>2025-11-12T04:01:30.059Z</time>
      </trkpt>
      <trkpt lat="48.588533" lon="9.986534">
        <ele>632.277037</ele>
        <time>2025-11-12T04:01:39.189Z</time>
      </trkpt>
      <trkpt lat="48.588459" lon="9.986641">
        <ele>632.133345</ele>
        <time>2025-11-12T04:01:40.758Z</time>
      </trkpt>
      <trkpt lat="48.588291" lon="9.986889">
        <ele>632.306870</ele>
        <time>2025-11-12T04:01:44.759Z</time>
      </trkpt>
      <trkpt lat="48.588162" lon="9.987162">
        <ele>632.470875</ele>
        <time>2025-11-12T04:01:49.246Z</time>
      </trkpt>
      <trkpt lat="48.588018" lon="9.987574">
        <ele>632.698661</ele>
        <time>2025-11-12T04:01:56.118Z</time>
      </trkpt>
      <trkpt lat="48.587977" lon="9.987912">
        <ele>632.866643</ele>
        <time>2025-11-12T04:02:01.270Z</time>
      </trkpt>
      <trkpt lat="48.588029" lon="9.988179">
        <ele>633.002701</ele>
        <time>2025-11-12T04:02:05.297Z</time>
      </trkpt>
      <trkpt lat="48.588129" lon="9.988491">
        <ele>633.172179</ele>
        <time>2025-11-12T04:02:09.898Z</time>
      </trkpt>
      <trkpt lat="48.588190" lon="9.988753">
        <ele>633.307955</ele>
        <time>2025-11-12T04:02:13.047Z</time>
      </trkpt>
      <trkpt lat="48.588197" lon="9.988936">
        <ele>633.397561</ele>
        <time>2025-11-12T04:02:14.916Z</time>
      </trkpt>
      <trkpt lat="48.588200" lon="9.989019">
        <ele>633.389744</ele>
        <time>2025-11-12T04:02:15.698Z</time>
      </trkpt>
      <trkpt lat="48.588202" lon="9.989431">
        <ele>632.701245</ele>
        <time>2025-11-12T04:02:19.324Z</time>
      </trkpt>
      <trkpt lat="48.588197" lon="9.989522">
        <ele>632.548654</ele>
        <time>2025-11-12T04:02:20.071Z</time>
      </trkpt>
      <trkpt lat="48.588178" lon="9.989864">
        <ele>631.975137</ele>
        <time>2025-11-12T04:02:22.721Z</time>
      </trkpt>
      <trkpt lat="48.588168" lon="9.990047">
        <ele>631.668289</ele>
        <time>2025-11-12T04:02:24.039Z</time>
      </trkpt>
      <trkpt lat="48.588160" lon="9.990184">
        <ele>631.438462</ele>
        <time>2025-11-12T04:02:24.991Z</time>
      </trkpt>
      <trkpt lat="48.588146" lon="9.990448">
        <ele>630.995884</ele>
        <time>2025-11-12T04:02:26.778Z</time>
      </trkpt>
      <trkpt lat="48.588142" lon="9.990507">
        <ele>630.896775</ele>
        <time>2025-11-12T04:02:27.172Z</time>
      </trkpt>
      <trkpt lat="48.588133" lon="9.990662">
        <ele>630.636763</ele>
        <time>2025-11-12T04:02:28.187Z</time>
      </trkpt>
      <trkpt lat="48.588054" lon="9.991746">
        <ele>628.776157</ele>
        <time>2025-11-12T04:02:35.145Z</time>
      </trkpt>
      <trkpt lat="48.587984" lon="9.992652">
        <ele>626.407211</ele>
        <time>2025-11-12T04:02:41.058Z</time>
      </trkpt>
      <trkpt lat="48.587912" lon="9.993350">
        <ele>624.572541</ele>
        <time>2025-11-12T04:02:45.713Z</time>
      </trkpt>
      <trkpt lat="48.587799" lon="9.993849">
        <ele>623.202757</ele>
        <time>2025-11-12T04:02:49.211Z</time>
      </trkpt>
      <trkpt lat="48.587711" lon="9.994124">
        <ele>622.409374</ele>
        <time>2025-11-12T04:02:51.206Z</time>
      </trkpt>
      <trkpt lat="48.587468" lon="9.994654">
        <ele>620.119311</ele>
        <time>2025-11-12T04:02:55.333Z</time>
      </trkpt>
      <trkpt lat="48.587210" lon="9.995057">
        <ele>617.838172</ele>
        <time>2025-11-12T04:02:58.834Z</time>
      </trkpt>
      <trkpt lat="48.586361" lon="9.995928">
        <ele>611.529121</ele>
        <time>2025-11-12T04:03:08.060Z</time>
      </trkpt>
      <trkpt lat="48.586150" lon="9.996255">
        <ele>609.582281</ele>
        <time>2025-11-12T04:03:10.729Z</time>
      </trkpt>
      <trkpt lat="48.585775" lon="9.996991">
        <ele>605.495910</ele>
        <time>2025-11-12T04:03:16.170Z</time>
      </trkpt>
      <trkpt lat="48.585285" lon="9.998106">
        <ele>599.607770</ele>
        <time>2025-11-12T04:03:24.221Z</time>
      </trkpt>
      <trkpt lat="48.585084" lon="9.998691">
        <ele>597.576719</ele>
        <time>2025-11-12T04:03:28.380Z</time>
      </trkpt>
      <trkpt lat="48.585034" lon="9.998955">
        <ele>596.869970</ele>
        <time>2025-11-12T04:03:30.144Z</time>
      </trkpt>
      <trkpt lat="48.585003" lon="9.999432">
        <ele>595.636416</ele>
        <time>2025-11-12T04:03:33.243Z</time>
      </trkpt>
      <trkpt lat="48.585221" lon="10.001774">
        <ele>591.021241</ele>
        <time>2025-11-12T04:03:48.991Z</time>
      </trkpt>
      <trkpt lat="48.585381" lon="10.003310">
        <ele>589.632073</ele>
        <time>2025-11-12T04:04:02.538Z</time>
      </trkpt>
      <trkpt lat="48.585472" lon="10.003900">
        <ele>589.915077</ele>
        <time>2025-11-12T04:04:08.334Z</time>
      </trkpt>
      <trkpt lat="48.585526" lon="10.004072">
        <ele>590.239035</ele>
        <time>2025-11-12T04:04:10.364Z</time>
      </trkpt>
      <trkpt lat="48.585571" lon="10.004187">
        <ele>590.466388</ele>
        <time>2025-11-12T04:04:11.816Z</time>
      </trkpt>
      <trkpt lat="48.585718" lon="10.004410">
        <ele>591.002072</ele>
        <time>2025-11-12T04:04:15.656Z</time>
      </trkpt>
      <trkpt lat="48.586092" lon="10.004694">
        <ele>592.078651</ele>
        <time>2025-11-12T04:04:25.963Z</time>
      </trkpt>
      <trkpt lat="48.586627" lon="10.004795">
        <ele>593.465505</ele>
        <time>2025-11-12T04:04:42.992Z</time>
      </trkpt>
      <trkpt lat="48.586836" lon="10.004983">
        <ele>594.136314</ele>
        <time>2025-11-12T04:04:51.195Z</time>
      </trkpt>
      <trkpt lat="48.586900" lon="10.005161">
        <ele>594.654518</ele>
        <time>2025-11-12T04:04:56.039Z</time>
      </trkpt>
      <trkpt lat="48.587005" lon="10.005721">
        <ele>596.143328</ele>
        <time>2025-11-12T04:05:10.949Z</time>
      </trkpt>
      <trkpt lat="48.587153" lon="10.006208">
        <ele>597.514155</ele>
        <time>2025-11-12T04:05:24.016Z</time>
      </trkpt>
      <trkpt lat="48.587154" lon="10.006364">
        <ele>597.913191</ele>
        <time>2025-11-12T04:05:27.511Z</time>
      </trkpt>
      <trkpt lat="48.587092" lon="10.006471">
        <ele>598.277032</ele>
        <time>2025-11-12T04:05:30.532Z</time>
      </trkpt>
      <trkpt lat="48.587001" lon="10.006544">
        <ele>598.675382</ele>
        <time>2025-11-12T04:05:33.621Z</time>
      </trkpt>
      <trkpt lat="48.586915" lon="10.006528">
        <ele>599.010435</ele>
        <time>2025-11-12T04:05:36.046Z</time>
      </trkpt>
      <trkpt lat="48.586832" lon="10.006412">
        <ele>599.447517</ele>
        <time>2025-11-12T04:05:39.002Z</time>
      </trkpt>
      <trkpt lat="48.586719" lon="10.005697">
        <ele>601.295363</ele>
        <time>2025-11-12T04:05:48.809Z</time>
      </trkpt>
      <trkpt lat="48.586598" lon="10.005445">
        <ele>602.022252</ele>
        <time>2025-11-12T04:05:52.149Z</time>
      </trkpt>
      <trkpt lat="48.586458" lon="10.005344">
        <ele>602.569673</ele>
        <time>2025-11-12T04:05:54.716Z</time>
      </trkpt>
      <trkpt lat="48.586304" lon="10.005301">
        <ele>603.122319</ele>
        <time>2025-11-12T04:05:57.570Z</time>
      </trkpt>
      <trkpt lat="48.586145" lon="10.005318">
        <ele>603.684818</ele>
        <time>2025-11-12T04:06:00.840Z</time>
      </trkpt>
      <trkpt lat="48.586016" lon="10.005386">
        <ele>604.166930</ele>
        <time>2025-11-12T04:06:04.033Z</time>
      </trkpt>
      <trkpt lat="48.585875" lon="10.005552">
        <ele>604.797599</ele>
        <time>2025-11-12T04:06:08.778Z</time>
      </trkpt>
      <trkpt lat="48.585704" lon="10.006006">
        <ele>606.017161</ele>
        <time>2025-11-12T04:06:20.047Z</time>
      </trkpt>
      <trkpt lat="48.585436" lon="10.007257">
        <ele>611.504907</ele>
        <time>2025-11-12T04:06:59.532Z</time>
      </trkpt>
      <trkpt lat="48.584826" lon="10.009216">
        <ele>623.133541</ele>
        <time>2025-11-12T04:08:12.814Z</time>
      </trkpt>
      <trkpt lat="48.584534" lon="10.009813">
        <ele>626.230121</ele>
        <time>2025-11-12T04:08:34.900Z</time>
      </trkpt>
      <trkpt lat="48.583908" lon="10.010682">
        <ele>631.588568</ele>
        <time>2025-11-12T04:09:07.699Z</time>
      </trkpt>
      <trkpt lat="48.583706" lon="10.010837">
        <ele>633.016810</ele>
        <time>2025-11-12T04:09:15.553Z</time>
      </trkpt>
      <trkpt lat="48.583531" lon="10.010923">
        <ele>633.775620</ele>
        <time>2025-11-12T04:09:21.713Z</time>
      </trkpt>
      <trkpt lat="48.583343" lon="10.010964">
        <ele>634.144093</ele>
        <time>2025-11-12T04:09:27.436Z</time>
      </trkpt>
      <trkpt lat="48.582699" lon="10.011048">
        <ele>635.398018</ele>
        <time>2025-11-12T04:09:42.823Z</time>
      </trkpt>
      <trkpt lat="48.582473" lon="10.011172">
        <ele>635.864417</ele>
        <time>2025-11-12T04:09:47.470Z</time>
      </trkpt>
      <trkpt lat="48.582265" lon="10.011430">
        <ele>636.386367</ele>
        <time>2025-11-12T04:09:52.264Z</time>
      </trkpt>
      <trkpt lat="48.582174" lon="10.011690">
        <ele>636.763849</ele>
        <time>2025-11-12T04:09:55.505Z</time>
      </trkpt>
      <trkpt lat="48.582088" lon="10.011980">
        <ele>637.087553</ele>
        <time>2025-11-12T04:09:58.728Z</time>
      </trkpt>
      <trkpt lat="48.582044" lon="10.012670">
        <ele>637.099635</ele>
        <time>2025-11-12T04:10:04.980Z</time>
      </trkpt>
      <trkpt lat="48.582042" lon="10.013537">
        <ele>637.114748</ele>
        <time>2025-11-12T04:10:13.543Z</time>
      </trkpt>
      <trkpt lat="48.582107" lon="10.014466">
        <ele>637.131031</ele>
        <time>2025-11-12T04:10:23.732Z</time>
      </trkpt>
      <trkpt lat="48.582247" lon="10.016513">
        <ele>635.419110</ele>
        <time>2025-11-12T04:10:41.321Z</time>
      </trkpt>
      <trkpt lat="48.582273" lon="10.016969">
        <ele>635.006045</ele>
        <time>2025-11-12T04:10:44.537Z</time>
      </trkpt>
      <trkpt lat="48.582411" lon="10.018348">
        <ele>631.597155</ele>
        <time>2025-11-12T04:10:53.753Z</time>
      </trkpt>
      <trkpt lat="48.582556" lon="10.019644">
        <ele>627.676163</ele>
        <time>2025-11-12T04:11:01.931Z</time>
      </trkpt>
      <trkpt lat="48.582603" lon="10.020072">
        <ele>626.569379</ele>
        <time>2025-11-12T04:11:04.583Z</time>
      </trkpt>
      <trkpt lat="48.582668" lon="10.020664">
        <ele>626.569379</ele>
        <time>2025-11-12T04:11:08.228Z</time>
      </trkpt>
      <trkpt lat="48.582748" lon="10.021394">
        <ele>626.569379</ele>
        <time>2025-11-12T04:11:12.701Z</time>
      </trkpt>
      <trkpt lat="48.582782" lon="10.021694">
        <ele>626.569379</ele>
        <time>2025-11-12T04:11:14.539Z</time>
      </trkpt>
      <trkpt lat="48.582791" lon="10.021823">
        <ele>626.569379</ele>
        <time>2025-11-12T04:11:15.334Z</time>
      </trkpt>
      <trkpt lat="48.582473" lon="10.021885">
        <ele>626.569379</ele>
        <time>2025-11-12T04:11:19.670Z</time>
      </trkpt>
      <trkpt lat="48.582127" lon="10.021952">
        <ele>626.569379</ele>
        <time>2025-11-12T04:11:24.577Z</time>
      </trkpt>
      <trkpt lat="48.582035" lon="10.021996">
        <ele>626.569379</ele>
        <time>2025-11-12T04:11:25.972Z</time>
      </trkpt>
    </trkseg>
  </trk>
</gpx>